<?xml version="1.0" encoding="UTF-8" standalone="no" ?>
<gpx xmlns="http://www.topografix.com/GPX/1/1" xmlns:xsi="http://www.w3.org/2001/XMLSchema-instance" xsi:schemaLocation="http://www.topografix.com/GPX/1/1 http://www.topografix.com/GPX/1/1/gpx.xsd" version="1.1" creator="VisuGPX - https://www.visugpx.com">
  <metadata>
    <name>La Perrena par les prés de Crans</name>
  </metadata>
  <trk>
    <name><![CDATA[La Perrena par les prés de Crans_1]]></name>
    <trkseg>
      <trkpt lat="46.66589" lon="6.00051">
        <ele>740.3</ele>
        <time>2020-01-09T07:49:00Z</time>
      </trkpt>
      <trkpt lat="46.66584" lon="6.00054">
        <ele>727.1</ele>
        <time>2020-01-09T07:50:18Z</time>
      </trkpt>
      <trkpt lat="46.66579" lon="6.00055">
        <ele>727.7</ele>
        <time>2020-01-09T07:50:22Z</time>
      </trkpt>
      <trkpt lat="46.66574" lon="6.00055">
        <ele>728.2</ele>
        <time>2020-01-09T07:50:25Z</time>
      </trkpt>
      <trkpt lat="46.66566" lon="6.00055">
        <ele>729.9</ele>
        <time>2020-01-09T07:50:32Z</time>
      </trkpt>
      <trkpt lat="46.66561" lon="6.00055">
        <ele>730.7</ele>
        <time>2020-01-09T07:50:35Z</time>
      </trkpt>
      <trkpt lat="46.66556" lon="6.00056">
        <ele>731.7</ele>
        <time>2020-01-09T07:50:39Z</time>
      </trkpt>
      <trkpt lat="46.6655" lon="6.00055">
        <ele>733.1</ele>
        <time>2020-01-09T07:50:45Z</time>
      </trkpt>
      <trkpt lat="46.66546" lon="6.00055">
        <ele>734.7</ele>
        <time>2020-01-09T07:50:52Z</time>
      </trkpt>
      <trkpt lat="46.66542" lon="6.0006">
        <ele>736.1</ele>
        <time>2020-01-09T07:51:00Z</time>
      </trkpt>
      <trkpt lat="46.66537" lon="6.00058">
        <ele>736.7</ele>
        <time>2020-01-09T07:51:10Z</time>
      </trkpt>
      <trkpt lat="46.66539" lon="6.00052">
        <ele>736.6</ele>
        <time>2020-01-09T07:51:17Z</time>
      </trkpt>
      <trkpt lat="46.66543" lon="6.00049">
        <ele>736.8</ele>
        <time>2020-01-09T07:51:24Z</time>
      </trkpt>
      <trkpt lat="46.66548" lon="6.00047">
        <ele>737.2</ele>
        <time>2020-01-09T07:51:30Z</time>
      </trkpt>
      <trkpt lat="46.66552" lon="6.00045">
        <ele>738</ele>
        <time>2020-01-09T07:51:35Z</time>
      </trkpt>
      <trkpt lat="46.66557" lon="6.00041">
        <ele>738.5</ele>
        <time>2020-01-09T07:51:38Z</time>
      </trkpt>
      <trkpt lat="46.66561" lon="6.00038">
        <ele>739</ele>
        <time>2020-01-09T07:51:42Z</time>
      </trkpt>
      <trkpt lat="46.66565" lon="6.00033">
        <ele>739.5</ele>
        <time>2020-01-09T07:51:47Z</time>
      </trkpt>
      <trkpt lat="46.66569" lon="6.00027">
        <ele>740.1</ele>
        <time>2020-01-09T07:51:52Z</time>
      </trkpt>
      <trkpt lat="46.66572" lon="6.00021">
        <ele>740.6</ele>
        <time>2020-01-09T07:51:56Z</time>
      </trkpt>
      <trkpt lat="46.66573" lon="6.00014">
        <ele>740.9</ele>
        <time>2020-01-09T07:52:00Z</time>
      </trkpt>
      <trkpt lat="46.66575" lon="6.00007">
        <ele>741.2</ele>
        <time>2020-01-09T07:52:05Z</time>
      </trkpt>
      <trkpt lat="46.66577" lon="6">
        <ele>741.2</ele>
        <time>2020-01-09T07:52:09Z</time>
      </trkpt>
      <trkpt lat="46.66579" lon="5.99994">
        <ele>741.3</ele>
        <time>2020-01-09T07:52:14Z</time>
      </trkpt>
      <trkpt lat="46.66581" lon="5.99987">
        <ele>741.5</ele>
        <time>2020-01-09T07:52:19Z</time>
      </trkpt>
      <trkpt lat="46.66583" lon="5.9998">
        <ele>741.8</ele>
        <time>2020-01-09T07:52:24Z</time>
      </trkpt>
      <trkpt lat="46.66586" lon="5.99974">
        <ele>742.1</ele>
        <time>2020-01-09T07:52:29Z</time>
      </trkpt>
      <trkpt lat="46.6659" lon="5.99969">
        <ele>742.5</ele>
        <time>2020-01-09T07:52:34Z</time>
      </trkpt>
      <trkpt lat="46.66592" lon="5.99963">
        <ele>743</ele>
        <time>2020-01-09T07:52:41Z</time>
      </trkpt>
      <trkpt lat="46.66594" lon="5.99956">
        <ele>743.3</ele>
        <time>2020-01-09T07:52:47Z</time>
      </trkpt>
      <trkpt lat="46.66597" lon="5.99949">
        <ele>743.6</ele>
        <time>2020-01-09T07:52:52Z</time>
      </trkpt>
      <trkpt lat="46.66598" lon="5.99942">
        <ele>743.9</ele>
        <time>2020-01-09T07:52:56Z</time>
      </trkpt>
      <trkpt lat="46.66599" lon="5.99934">
        <ele>744.2</ele>
        <time>2020-01-09T07:53:01Z</time>
      </trkpt>
      <trkpt lat="46.66602" lon="5.99928">
        <ele>744.3</ele>
        <time>2020-01-09T07:53:06Z</time>
      </trkpt>
      <trkpt lat="46.66605" lon="5.99922">
        <ele>744.4</ele>
        <time>2020-01-09T07:53:10Z</time>
      </trkpt>
      <trkpt lat="46.66607" lon="5.99916">
        <ele>744.6</ele>
        <time>2020-01-09T07:53:14Z</time>
      </trkpt>
      <trkpt lat="46.66608" lon="5.99909">
        <ele>744.8</ele>
        <time>2020-01-09T07:53:19Z</time>
      </trkpt>
      <trkpt lat="46.66609" lon="5.99903">
        <ele>744.9</ele>
        <time>2020-01-09T07:53:25Z</time>
      </trkpt>
      <trkpt lat="46.66611" lon="5.99895">
        <ele>744.9</ele>
        <time>2020-01-09T07:53:29Z</time>
      </trkpt>
      <trkpt lat="46.66611" lon="5.99889">
        <ele>744.9</ele>
        <time>2020-01-09T07:53:33Z</time>
      </trkpt>
      <trkpt lat="46.66612" lon="5.99882">
        <ele>745</ele>
        <time>2020-01-09T07:53:37Z</time>
      </trkpt>
      <trkpt lat="46.66615" lon="5.99875">
        <ele>744.9</ele>
        <time>2020-01-09T07:53:41Z</time>
      </trkpt>
      <trkpt lat="46.66616" lon="5.99868">
        <ele>745</ele>
        <time>2020-01-09T07:53:47Z</time>
      </trkpt>
      <trkpt lat="46.66616" lon="5.99861">
        <ele>745.5</ele>
        <time>2020-01-09T07:53:53Z</time>
      </trkpt>
      <trkpt lat="46.66618" lon="5.99853">
        <ele>745.8</ele>
        <time>2020-01-09T07:53:57Z</time>
      </trkpt>
      <trkpt lat="46.6662" lon="5.99847">
        <ele>746.2</ele>
        <time>2020-01-09T07:54:01Z</time>
      </trkpt>
      <trkpt lat="46.66622" lon="5.9984">
        <ele>746.6</ele>
        <time>2020-01-09T07:54:05Z</time>
      </trkpt>
      <trkpt lat="46.66624" lon="5.99834">
        <ele>746.9</ele>
        <time>2020-01-09T07:54:08Z</time>
      </trkpt>
      <trkpt lat="46.66626" lon="5.99827">
        <ele>747.3</ele>
        <time>2020-01-09T07:54:12Z</time>
      </trkpt>
      <trkpt lat="46.66629" lon="5.9982">
        <ele>747.6</ele>
        <time>2020-01-09T07:54:16Z</time>
      </trkpt>
      <trkpt lat="46.66632" lon="5.99814">
        <ele>747.6</ele>
        <time>2020-01-09T07:54:26Z</time>
      </trkpt>
      <trkpt lat="46.66634" lon="5.99808">
        <ele>747.6</ele>
        <time>2020-01-09T07:54:30Z</time>
      </trkpt>
      <trkpt lat="46.66636" lon="5.99801">
        <ele>747.6</ele>
        <time>2020-01-09T07:54:33Z</time>
      </trkpt>
      <trkpt lat="46.66638" lon="5.99795">
        <ele>747.7</ele>
        <time>2020-01-09T07:54:36Z</time>
      </trkpt>
      <trkpt lat="46.66639" lon="5.99787">
        <ele>748.1</ele>
        <time>2020-01-09T07:54:42Z</time>
      </trkpt>
      <trkpt lat="46.66641" lon="5.9978">
        <ele>748.5</ele>
        <time>2020-01-09T07:54:47Z</time>
      </trkpt>
      <trkpt lat="46.66643" lon="5.99772">
        <ele>748.8</ele>
        <time>2020-01-09T07:54:52Z</time>
      </trkpt>
      <trkpt lat="46.66644" lon="5.99766">
        <ele>749.2</ele>
        <time>2020-01-09T07:54:57Z</time>
      </trkpt>
      <trkpt lat="46.66646" lon="5.99759">
        <ele>749.6</ele>
        <time>2020-01-09T07:55:03Z</time>
      </trkpt>
      <trkpt lat="46.66648" lon="5.99752">
        <ele>749.9</ele>
        <time>2020-01-09T07:55:08Z</time>
      </trkpt>
      <trkpt lat="46.6665" lon="5.99746">
        <ele>750.2</ele>
        <time>2020-01-09T07:55:12Z</time>
      </trkpt>
      <trkpt lat="46.66652" lon="5.99739">
        <ele>750.6</ele>
        <time>2020-01-09T07:55:17Z</time>
      </trkpt>
      <trkpt lat="46.66656" lon="5.99734">
        <ele>750.8</ele>
        <time>2020-01-09T07:55:22Z</time>
      </trkpt>
      <trkpt lat="46.66658" lon="5.99727">
        <ele>750.7</ele>
        <time>2020-01-09T07:55:28Z</time>
      </trkpt>
      <trkpt lat="46.66661" lon="5.99721">
        <ele>750.6</ele>
        <time>2020-01-09T07:55:33Z</time>
      </trkpt>
      <trkpt lat="46.66663" lon="5.99714">
        <ele>750.7</ele>
        <time>2020-01-09T07:55:38Z</time>
      </trkpt>
      <trkpt lat="46.66664" lon="5.99707">
        <ele>750.8</ele>
        <time>2020-01-09T07:55:43Z</time>
      </trkpt>
      <trkpt lat="46.66665" lon="5.997">
        <ele>751</ele>
        <time>2020-01-09T07:55:48Z</time>
      </trkpt>
      <trkpt lat="46.66667" lon="5.99693">
        <ele>751.2</ele>
        <time>2020-01-09T07:55:53Z</time>
      </trkpt>
      <trkpt lat="46.66669" lon="5.99686">
        <ele>751.3</ele>
        <time>2020-01-09T07:55:58Z</time>
      </trkpt>
      <trkpt lat="46.66669" lon="5.99678">
        <ele>751.5</ele>
        <time>2020-01-09T07:56:02Z</time>
      </trkpt>
      <trkpt lat="46.6667" lon="5.99671">
        <ele>751.8</ele>
        <time>2020-01-09T07:56:06Z</time>
      </trkpt>
      <trkpt lat="46.66671" lon="5.99664">
        <ele>752</ele>
        <time>2020-01-09T07:56:10Z</time>
      </trkpt>
      <trkpt lat="46.6667" lon="5.99656">
        <ele>752.3</ele>
        <time>2020-01-09T07:56:15Z</time>
      </trkpt>
      <trkpt lat="46.6667" lon="5.99649">
        <ele>752.5</ele>
        <time>2020-01-09T07:56:19Z</time>
      </trkpt>
      <trkpt lat="46.6667" lon="5.99642">
        <ele>753</ele>
        <time>2020-01-09T07:56:24Z</time>
      </trkpt>
      <trkpt lat="46.6667" lon="5.99635">
        <ele>753.7</ele>
        <time>2020-01-09T07:56:29Z</time>
      </trkpt>
      <trkpt lat="46.66672" lon="5.99628">
        <ele>754.2</ele>
        <time>2020-01-09T07:56:33Z</time>
      </trkpt>
      <trkpt lat="46.66673" lon="5.99622">
        <ele>754.6</ele>
        <time>2020-01-09T07:56:37Z</time>
      </trkpt>
      <trkpt lat="46.66675" lon="5.99616">
        <ele>755</ele>
        <time>2020-01-09T07:56:41Z</time>
      </trkpt>
      <trkpt lat="46.66677" lon="5.99609">
        <ele>755.4</ele>
        <time>2020-01-09T07:56:45Z</time>
      </trkpt>
      <trkpt lat="46.66677" lon="5.99601">
        <ele>756</ele>
        <time>2020-01-09T07:56:52Z</time>
      </trkpt>
      <trkpt lat="46.66678" lon="5.99593">
        <ele>756.4</ele>
        <time>2020-01-09T07:56:57Z</time>
      </trkpt>
      <trkpt lat="46.66679" lon="5.99586">
        <ele>756.5</ele>
        <time>2020-01-09T07:57:01Z</time>
      </trkpt>
      <trkpt lat="46.66679" lon="5.99578">
        <ele>756.5</ele>
        <time>2020-01-09T07:57:07Z</time>
      </trkpt>
      <trkpt lat="46.66679" lon="5.9957">
        <ele>756.4</ele>
        <time>2020-01-09T07:57:11Z</time>
      </trkpt>
      <trkpt lat="46.66679" lon="5.99564">
        <ele>756.4</ele>
        <time>2020-01-09T07:57:14Z</time>
      </trkpt>
      <trkpt lat="46.66679" lon="5.99557">
        <ele>756.5</ele>
        <time>2020-01-09T07:57:18Z</time>
      </trkpt>
      <trkpt lat="46.6668" lon="5.9955">
        <ele>756.7</ele>
        <time>2020-01-09T07:57:23Z</time>
      </trkpt>
      <trkpt lat="46.66682" lon="5.99544">
        <ele>756.9</ele>
        <time>2020-01-09T07:57:27Z</time>
      </trkpt>
      <trkpt lat="46.66684" lon="5.99538">
        <ele>757.4</ele>
        <time>2020-01-09T07:57:32Z</time>
      </trkpt>
      <trkpt lat="46.66687" lon="5.99532">
        <ele>757.6</ele>
        <time>2020-01-09T07:57:36Z</time>
      </trkpt>
      <trkpt lat="46.66688" lon="5.99525">
        <ele>758</ele>
        <time>2020-01-09T07:57:40Z</time>
      </trkpt>
      <trkpt lat="46.66689" lon="5.99518">
        <ele>758.2</ele>
        <time>2020-01-09T07:57:45Z</time>
      </trkpt>
      <trkpt lat="46.66692" lon="5.99511">
        <ele>758.3</ele>
        <time>2020-01-09T07:57:50Z</time>
      </trkpt>
      <trkpt lat="46.66694" lon="5.99505">
        <ele>758.4</ele>
        <time>2020-01-09T07:57:54Z</time>
      </trkpt>
      <trkpt lat="46.66697" lon="5.99498">
        <ele>758.6</ele>
        <time>2020-01-09T07:58:00Z</time>
      </trkpt>
      <trkpt lat="46.667" lon="5.99491">
        <ele>758.6</ele>
        <time>2020-01-09T07:58:05Z</time>
      </trkpt>
      <trkpt lat="46.66703" lon="5.99486">
        <ele>758.6</ele>
        <time>2020-01-09T07:58:09Z</time>
      </trkpt>
      <trkpt lat="46.66705" lon="5.99479">
        <ele>758.7</ele>
        <time>2020-01-09T07:58:13Z</time>
      </trkpt>
      <trkpt lat="46.66708" lon="5.99472">
        <ele>759</ele>
        <time>2020-01-09T07:58:18Z</time>
      </trkpt>
      <trkpt lat="46.6671" lon="5.99466">
        <ele>759.1</ele>
        <time>2020-01-09T07:58:22Z</time>
      </trkpt>
      <trkpt lat="46.66713" lon="5.9946">
        <ele>759.1</ele>
        <time>2020-01-09T07:58:26Z</time>
      </trkpt>
      <trkpt lat="46.66716" lon="5.99453">
        <ele>758.8</ele>
        <time>2020-01-09T07:58:31Z</time>
      </trkpt>
      <trkpt lat="46.66718" lon="5.99446">
        <ele>758.5</ele>
        <time>2020-01-09T07:58:35Z</time>
      </trkpt>
      <trkpt lat="46.66719" lon="5.9944">
        <ele>758.1</ele>
        <time>2020-01-09T07:58:39Z</time>
      </trkpt>
      <trkpt lat="46.6672" lon="5.99433">
        <ele>757.9</ele>
        <time>2020-01-09T07:58:43Z</time>
      </trkpt>
      <trkpt lat="46.66721" lon="5.99425">
        <ele>757.8</ele>
        <time>2020-01-09T07:58:48Z</time>
      </trkpt>
      <trkpt lat="46.66722" lon="5.99417">
        <ele>757.7</ele>
        <time>2020-01-09T07:58:53Z</time>
      </trkpt>
      <trkpt lat="46.66723" lon="5.9941">
        <ele>757.7</ele>
        <time>2020-01-09T07:58:58Z</time>
      </trkpt>
      <trkpt lat="46.66724" lon="5.99403">
        <ele>757.8</ele>
        <time>2020-01-09T07:59:02Z</time>
      </trkpt>
      <trkpt lat="46.66724" lon="5.99395">
        <ele>757.9</ele>
        <time>2020-01-09T07:59:07Z</time>
      </trkpt>
      <trkpt lat="46.66724" lon="5.99388">
        <ele>758</ele>
        <time>2020-01-09T07:59:11Z</time>
      </trkpt>
      <trkpt lat="46.66725" lon="5.9938">
        <ele>758.1</ele>
        <time>2020-01-09T07:59:15Z</time>
      </trkpt>
      <trkpt lat="46.66725" lon="5.99373">
        <ele>758.2</ele>
        <time>2020-01-09T07:59:19Z</time>
      </trkpt>
      <trkpt lat="46.66726" lon="5.99366">
        <ele>758.3</ele>
        <time>2020-01-09T07:59:23Z</time>
      </trkpt>
      <trkpt lat="46.66728" lon="5.99359">
        <ele>758.4</ele>
        <time>2020-01-09T07:59:28Z</time>
      </trkpt>
      <trkpt lat="46.66731" lon="5.99352">
        <ele>758.6</ele>
        <time>2020-01-09T07:59:33Z</time>
      </trkpt>
      <trkpt lat="46.66734" lon="5.99345">
        <ele>758.8</ele>
        <time>2020-01-09T07:59:38Z</time>
      </trkpt>
      <trkpt lat="46.66736" lon="5.99339">
        <ele>759</ele>
        <time>2020-01-09T07:59:43Z</time>
      </trkpt>
      <trkpt lat="46.66739" lon="5.99334">
        <ele>759.3</ele>
        <time>2020-01-09T07:59:48Z</time>
      </trkpt>
      <trkpt lat="46.66743" lon="5.99328">
        <ele>759.6</ele>
        <time>2020-01-09T07:59:54Z</time>
      </trkpt>
      <trkpt lat="46.66747" lon="5.99323">
        <ele>759.6</ele>
        <time>2020-01-09T07:59:58Z</time>
      </trkpt>
      <trkpt lat="46.66752" lon="5.99319">
        <ele>759.6</ele>
        <time>2020-01-09T08:00:02Z</time>
      </trkpt>
      <trkpt lat="46.66755" lon="5.99313">
        <ele>759.6</ele>
        <time>2020-01-09T08:00:06Z</time>
      </trkpt>
      <trkpt lat="46.66759" lon="5.99307">
        <ele>759.6</ele>
        <time>2020-01-09T08:00:11Z</time>
      </trkpt>
      <trkpt lat="46.66762" lon="5.993">
        <ele>759.5</ele>
        <time>2020-01-09T08:00:16Z</time>
      </trkpt>
      <trkpt lat="46.66765" lon="5.99294">
        <ele>759.6</ele>
        <time>2020-01-09T08:00:21Z</time>
      </trkpt>
      <trkpt lat="46.66768" lon="5.99288">
        <ele>759.6</ele>
        <time>2020-01-09T08:00:25Z</time>
      </trkpt>
      <trkpt lat="46.66771" lon="5.99282">
        <ele>759.5</ele>
        <time>2020-01-09T08:00:28Z</time>
      </trkpt>
      <trkpt lat="46.66775" lon="5.99277">
        <ele>759.3</ele>
        <time>2020-01-09T08:00:33Z</time>
      </trkpt>
      <trkpt lat="46.66779" lon="5.99273">
        <ele>759.1</ele>
        <time>2020-01-09T08:00:37Z</time>
      </trkpt>
      <trkpt lat="46.66783" lon="5.99269">
        <ele>758.9</ele>
        <time>2020-01-09T08:00:41Z</time>
      </trkpt>
      <trkpt lat="46.66787" lon="5.99264">
        <ele>758.6</ele>
        <time>2020-01-09T08:00:45Z</time>
      </trkpt>
      <trkpt lat="46.66791" lon="5.99259">
        <ele>758.3</ele>
        <time>2020-01-09T08:00:50Z</time>
      </trkpt>
      <trkpt lat="46.66794" lon="5.99254">
        <ele>758</ele>
        <time>2020-01-09T08:00:53Z</time>
      </trkpt>
      <trkpt lat="46.66797" lon="5.99249">
        <ele>757.6</ele>
        <time>2020-01-09T08:00:57Z</time>
      </trkpt>
      <trkpt lat="46.668" lon="5.99243">
        <ele>756.9</ele>
        <time>2020-01-09T08:01:02Z</time>
      </trkpt>
      <trkpt lat="46.66803" lon="5.99237">
        <ele>756.3</ele>
        <time>2020-01-09T08:01:07Z</time>
      </trkpt>
      <trkpt lat="46.66806" lon="5.99231">
        <ele>756</ele>
        <time>2020-01-09T08:01:11Z</time>
      </trkpt>
      <trkpt lat="46.6681" lon="5.99228">
        <ele>755.6</ele>
        <time>2020-01-09T08:01:16Z</time>
      </trkpt>
      <trkpt lat="46.66814" lon="5.99223">
        <ele>755.5</ele>
        <time>2020-01-09T08:01:20Z</time>
      </trkpt>
      <trkpt lat="46.66817" lon="5.99218">
        <ele>755.4</ele>
        <time>2020-01-09T08:01:24Z</time>
      </trkpt>
      <trkpt lat="46.66821" lon="5.99212">
        <ele>755.4</ele>
        <time>2020-01-09T08:01:29Z</time>
      </trkpt>
      <trkpt lat="46.66825" lon="5.99209">
        <ele>755.5</ele>
        <time>2020-01-09T08:01:33Z</time>
      </trkpt>
      <trkpt lat="46.66829" lon="5.99205">
        <ele>755.7</ele>
        <time>2020-01-09T08:01:37Z</time>
      </trkpt>
      <trkpt lat="46.66833" lon="5.992">
        <ele>755.9</ele>
        <time>2020-01-09T08:01:41Z</time>
      </trkpt>
      <trkpt lat="46.66836" lon="5.99195">
        <ele>756.1</ele>
        <time>2020-01-09T08:01:45Z</time>
      </trkpt>
      <trkpt lat="46.6684" lon="5.9919">
        <ele>756.2</ele>
        <time>2020-01-09T08:01:50Z</time>
      </trkpt>
      <trkpt lat="46.66844" lon="5.99185">
        <ele>756.3</ele>
        <time>2020-01-09T08:01:55Z</time>
      </trkpt>
      <trkpt lat="46.66847" lon="5.99179">
        <ele>756.4</ele>
        <time>2020-01-09T08:01:59Z</time>
      </trkpt>
      <trkpt lat="46.6685" lon="5.99174">
        <ele>756.4</ele>
        <time>2020-01-09T08:02:03Z</time>
      </trkpt>
      <trkpt lat="46.66853" lon="5.99169">
        <ele>756.5</ele>
        <time>2020-01-09T08:02:07Z</time>
      </trkpt>
      <trkpt lat="46.66856" lon="5.99162">
        <ele>756.4</ele>
        <time>2020-01-09T08:02:13Z</time>
      </trkpt>
      <trkpt lat="46.66859" lon="5.99156">
        <ele>756.4</ele>
        <time>2020-01-09T08:02:17Z</time>
      </trkpt>
      <trkpt lat="46.66862" lon="5.99149">
        <ele>756.8</ele>
        <time>2020-01-09T08:02:23Z</time>
      </trkpt>
      <trkpt lat="46.66865" lon="5.99143">
        <ele>757.1</ele>
        <time>2020-01-09T08:02:27Z</time>
      </trkpt>
      <trkpt lat="46.66868" lon="5.99137">
        <ele>757.2</ele>
        <time>2020-01-09T08:02:32Z</time>
      </trkpt>
      <trkpt lat="46.6687" lon="5.9913">
        <ele>757.3</ele>
        <time>2020-01-09T08:02:37Z</time>
      </trkpt>
      <trkpt lat="46.66871" lon="5.99124">
        <ele>757.5</ele>
        <time>2020-01-09T08:02:42Z</time>
      </trkpt>
      <trkpt lat="46.66874" lon="5.99118">
        <ele>757.6</ele>
        <time>2020-01-09T08:02:46Z</time>
      </trkpt>
      <trkpt lat="46.66878" lon="5.99113">
        <ele>757.7</ele>
        <time>2020-01-09T08:02:52Z</time>
      </trkpt>
      <trkpt lat="46.6688" lon="5.99107">
        <ele>757.9</ele>
        <time>2020-01-09T08:02:56Z</time>
      </trkpt>
      <trkpt lat="46.66883" lon="5.99102">
        <ele>758</ele>
        <time>2020-01-09T08:03:00Z</time>
      </trkpt>
      <trkpt lat="46.66886" lon="5.99096">
        <ele>758.2</ele>
        <time>2020-01-09T08:03:05Z</time>
      </trkpt>
      <trkpt lat="46.66889" lon="5.99091">
        <ele>758.4</ele>
        <time>2020-01-09T08:03:10Z</time>
      </trkpt>
      <trkpt lat="46.66893" lon="5.99088">
        <ele>758.7</ele>
        <time>2020-01-09T08:03:14Z</time>
      </trkpt>
      <trkpt lat="46.66898" lon="5.99084">
        <ele>758.8</ele>
        <time>2020-01-09T08:03:18Z</time>
      </trkpt>
      <trkpt lat="46.66902" lon="5.99079">
        <ele>759.1</ele>
        <time>2020-01-09T08:03:23Z</time>
      </trkpt>
      <trkpt lat="46.66905" lon="5.99075">
        <ele>759.4</ele>
        <time>2020-01-09T08:03:29Z</time>
      </trkpt>
      <trkpt lat="46.66909" lon="5.9907">
        <ele>759.5</ele>
        <time>2020-01-09T08:03:35Z</time>
      </trkpt>
      <trkpt lat="46.66914" lon="5.99066">
        <ele>759.8</ele>
        <time>2020-01-09T08:03:39Z</time>
      </trkpt>
      <trkpt lat="46.66917" lon="5.99062">
        <ele>760.2</ele>
        <time>2020-01-09T08:03:45Z</time>
      </trkpt>
      <trkpt lat="46.6692" lon="5.99055">
        <ele>760.7</ele>
        <time>2020-01-09T08:03:52Z</time>
      </trkpt>
      <trkpt lat="46.66925" lon="5.99052">
        <ele>761</ele>
        <time>2020-01-09T08:03:56Z</time>
      </trkpt>
      <trkpt lat="46.66929" lon="5.99049">
        <ele>761.5</ele>
        <time>2020-01-09T08:04:01Z</time>
      </trkpt>
      <trkpt lat="46.66933" lon="5.99045">
        <ele>761.7</ele>
        <time>2020-01-09T08:04:06Z</time>
      </trkpt>
      <trkpt lat="46.66937" lon="5.99041">
        <ele>761.9</ele>
        <time>2020-01-09T08:04:10Z</time>
      </trkpt>
      <trkpt lat="46.66941" lon="5.99037">
        <ele>762.2</ele>
        <time>2020-01-09T08:04:15Z</time>
      </trkpt>
      <trkpt lat="46.66944" lon="5.99033">
        <ele>762.6</ele>
        <time>2020-01-09T08:04:20Z</time>
      </trkpt>
      <trkpt lat="46.66948" lon="5.99028">
        <ele>763</ele>
        <time>2020-01-09T08:04:25Z</time>
      </trkpt>
      <trkpt lat="46.66952" lon="5.99024">
        <ele>763.6</ele>
        <time>2020-01-09T08:04:30Z</time>
      </trkpt>
      <trkpt lat="46.66957" lon="5.9902">
        <ele>764.4</ele>
        <time>2020-01-09T08:04:36Z</time>
      </trkpt>
      <trkpt lat="46.66962" lon="5.99015">
        <ele>764.9</ele>
        <time>2020-01-09T08:04:41Z</time>
      </trkpt>
      <trkpt lat="46.66966" lon="5.99011">
        <ele>765.2</ele>
        <time>2020-01-09T08:04:45Z</time>
      </trkpt>
      <trkpt lat="46.66969" lon="5.99005">
        <ele>765.8</ele>
        <time>2020-01-09T08:04:50Z</time>
      </trkpt>
      <trkpt lat="46.66973" lon="5.99001">
        <ele>766.5</ele>
        <time>2020-01-09T08:04:56Z</time>
      </trkpt>
      <trkpt lat="46.66975" lon="5.98995">
        <ele>767</ele>
        <time>2020-01-09T08:05:02Z</time>
      </trkpt>
      <trkpt lat="46.66979" lon="5.98991">
        <ele>767.2</ele>
        <time>2020-01-09T08:05:05Z</time>
      </trkpt>
      <trkpt lat="46.66983" lon="5.98986">
        <ele>767.6</ele>
        <time>2020-01-09T08:05:10Z</time>
      </trkpt>
      <trkpt lat="46.66987" lon="5.98982">
        <ele>767.8</ele>
        <time>2020-01-09T08:05:14Z</time>
      </trkpt>
      <trkpt lat="46.6699" lon="5.98977">
        <ele>768.1</ele>
        <time>2020-01-09T08:05:18Z</time>
      </trkpt>
      <trkpt lat="46.66994" lon="5.98972">
        <ele>768.5</ele>
        <time>2020-01-09T08:05:23Z</time>
      </trkpt>
      <trkpt lat="46.66996" lon="5.98967">
        <ele>768.9</ele>
        <time>2020-01-09T08:05:27Z</time>
      </trkpt>
      <trkpt lat="46.67" lon="5.98961">
        <ele>769.6</ele>
        <time>2020-01-09T08:05:32Z</time>
      </trkpt>
      <trkpt lat="46.67004" lon="5.98956">
        <ele>770.3</ele>
        <time>2020-01-09T08:05:36Z</time>
      </trkpt>
      <trkpt lat="46.67008" lon="5.98952">
        <ele>771.3</ele>
        <time>2020-01-09T08:05:42Z</time>
      </trkpt>
      <trkpt lat="46.67012" lon="5.98946">
        <ele>771.7</ele>
        <time>2020-01-09T08:05:47Z</time>
      </trkpt>
      <trkpt lat="46.67015" lon="5.98941">
        <ele>772.1</ele>
        <time>2020-01-09T08:05:51Z</time>
      </trkpt>
      <trkpt lat="46.6702" lon="5.98935">
        <ele>772.4</ele>
        <time>2020-01-09T08:05:57Z</time>
      </trkpt>
      <trkpt lat="46.67023" lon="5.9893">
        <ele>772.6</ele>
        <time>2020-01-09T08:06:01Z</time>
      </trkpt>
      <trkpt lat="46.67028" lon="5.98927">
        <ele>772.8</ele>
        <time>2020-01-09T08:06:05Z</time>
      </trkpt>
      <trkpt lat="46.67032" lon="5.98922">
        <ele>773.1</ele>
        <time>2020-01-09T08:06:10Z</time>
      </trkpt>
      <trkpt lat="46.67036" lon="5.98918">
        <ele>773.4</ele>
        <time>2020-01-09T08:06:14Z</time>
      </trkpt>
      <trkpt lat="46.6704" lon="5.98914">
        <ele>773.7</ele>
        <time>2020-01-09T08:06:18Z</time>
      </trkpt>
      <trkpt lat="46.67045" lon="5.9891">
        <ele>774.1</ele>
        <time>2020-01-09T08:06:23Z</time>
      </trkpt>
      <trkpt lat="46.67048" lon="5.98905">
        <ele>774.4</ele>
        <time>2020-01-09T08:06:27Z</time>
      </trkpt>
      <trkpt lat="46.67052" lon="5.98901">
        <ele>774.7</ele>
        <time>2020-01-09T08:06:33Z</time>
      </trkpt>
      <trkpt lat="46.67056" lon="5.98897">
        <ele>774.8</ele>
        <time>2020-01-09T08:06:39Z</time>
      </trkpt>
      <trkpt lat="46.67059" lon="5.98892">
        <ele>775</ele>
        <time>2020-01-09T08:06:44Z</time>
      </trkpt>
      <trkpt lat="46.67063" lon="5.98887">
        <ele>775.3</ele>
        <time>2020-01-09T08:06:48Z</time>
      </trkpt>
      <trkpt lat="46.67067" lon="5.98881">
        <ele>775.5</ele>
        <time>2020-01-09T08:06:53Z</time>
      </trkpt>
      <trkpt lat="46.6707" lon="5.98877">
        <ele>775.7</ele>
        <time>2020-01-09T08:06:57Z</time>
      </trkpt>
      <trkpt lat="46.67073" lon="5.98871">
        <ele>776.1</ele>
        <time>2020-01-09T08:07:02Z</time>
      </trkpt>
      <trkpt lat="46.67076" lon="5.98866">
        <ele>776.6</ele>
        <time>2020-01-09T08:07:09Z</time>
      </trkpt>
      <trkpt lat="46.6708" lon="5.98862">
        <ele>776.4</ele>
        <time>2020-01-09T08:07:15Z</time>
      </trkpt>
      <trkpt lat="46.67084" lon="5.98857">
        <ele>776.3</ele>
        <time>2020-01-09T08:07:20Z</time>
      </trkpt>
      <trkpt lat="46.67088" lon="5.98853">
        <ele>776.3</ele>
        <time>2020-01-09T08:07:23Z</time>
      </trkpt>
      <trkpt lat="46.67092" lon="5.9885">
        <ele>776.3</ele>
        <time>2020-01-09T08:07:27Z</time>
      </trkpt>
      <trkpt lat="46.67096" lon="5.98846">
        <ele>776.1</ele>
        <time>2020-01-09T08:07:32Z</time>
      </trkpt>
      <trkpt lat="46.671" lon="5.98842">
        <ele>775.9</ele>
        <time>2020-01-09T08:07:38Z</time>
      </trkpt>
      <trkpt lat="46.67104" lon="5.98838">
        <ele>776</ele>
        <time>2020-01-09T08:07:45Z</time>
      </trkpt>
      <trkpt lat="46.67108" lon="5.98834">
        <ele>776</ele>
        <time>2020-01-09T08:07:50Z</time>
      </trkpt>
      <trkpt lat="46.67111" lon="5.98828">
        <ele>776</ele>
        <time>2020-01-09T08:07:54Z</time>
      </trkpt>
      <trkpt lat="46.67114" lon="5.98823">
        <ele>775.8</ele>
        <time>2020-01-09T08:07:58Z</time>
      </trkpt>
      <trkpt lat="46.67117" lon="5.98818">
        <ele>775.8</ele>
        <time>2020-01-09T08:08:02Z</time>
      </trkpt>
      <trkpt lat="46.6712" lon="5.98812">
        <ele>775.9</ele>
        <time>2020-01-09T08:08:06Z</time>
      </trkpt>
      <trkpt lat="46.67123" lon="5.98807">
        <ele>776.1</ele>
        <time>2020-01-09T08:08:12Z</time>
      </trkpt>
      <trkpt lat="46.67128" lon="5.98803">
        <ele>776.5</ele>
        <time>2020-01-09T08:08:17Z</time>
      </trkpt>
      <trkpt lat="46.67132" lon="5.98797">
        <ele>777</ele>
        <time>2020-01-09T08:08:23Z</time>
      </trkpt>
      <trkpt lat="46.67136" lon="5.98794">
        <ele>777.3</ele>
        <time>2020-01-09T08:08:27Z</time>
      </trkpt>
      <trkpt lat="46.6714" lon="5.98789">
        <ele>777.5</ele>
        <time>2020-01-09T08:08:31Z</time>
      </trkpt>
      <trkpt lat="46.67144" lon="5.98784">
        <ele>777.6</ele>
        <time>2020-01-09T08:08:35Z</time>
      </trkpt>
      <trkpt lat="46.67147" lon="5.98777">
        <ele>777.9</ele>
        <time>2020-01-09T08:08:41Z</time>
      </trkpt>
      <trkpt lat="46.67151" lon="5.98773">
        <ele>778.2</ele>
        <time>2020-01-09T08:08:46Z</time>
      </trkpt>
      <trkpt lat="46.67157" lon="5.98758">
        <ele>778.9</ele>
        <time>2020-01-09T08:08:57Z</time>
      </trkpt>
      <trkpt lat="46.67157" lon="5.98751">
        <ele>779.1</ele>
        <time>2020-01-09T08:09:03Z</time>
      </trkpt>
      <trkpt lat="46.67157" lon="5.98744">
        <ele>779.4</ele>
        <time>2020-01-09T08:09:09Z</time>
      </trkpt>
      <trkpt lat="46.67154" lon="5.98737">
        <ele>779.6</ele>
        <time>2020-01-09T08:09:15Z</time>
      </trkpt>
      <trkpt lat="46.67151" lon="5.98732">
        <ele>779.6</ele>
        <time>2020-01-09T08:09:25Z</time>
      </trkpt>
      <trkpt lat="46.67147" lon="5.98728">
        <ele>779.6</ele>
        <time>2020-01-09T08:09:31Z</time>
      </trkpt>
      <trkpt lat="46.67143" lon="5.98723">
        <ele>779.2</ele>
        <time>2020-01-09T08:09:36Z</time>
      </trkpt>
      <trkpt lat="46.67139" lon="5.98719">
        <ele>778.6</ele>
        <time>2020-01-09T08:09:40Z</time>
      </trkpt>
      <trkpt lat="46.67136" lon="5.98715">
        <ele>778.1</ele>
        <time>2020-01-09T08:09:44Z</time>
      </trkpt>
      <trkpt lat="46.67132" lon="5.9871">
        <ele>777.4</ele>
        <time>2020-01-09T08:09:51Z</time>
      </trkpt>
      <trkpt lat="46.67127" lon="5.98708">
        <ele>776.9</ele>
        <time>2020-01-09T08:09:56Z</time>
      </trkpt>
      <trkpt lat="46.67123" lon="5.98705">
        <ele>776.2</ele>
        <time>2020-01-09T08:10:01Z</time>
      </trkpt>
      <trkpt lat="46.67117" lon="5.98703">
        <ele>775.4</ele>
        <time>2020-01-09T08:10:06Z</time>
      </trkpt>
      <trkpt lat="46.67113" lon="5.98702">
        <ele>774.5</ele>
        <time>2020-01-09T08:10:11Z</time>
      </trkpt>
      <trkpt lat="46.67108" lon="5.98701">
        <ele>773.8</ele>
        <time>2020-01-09T08:10:16Z</time>
      </trkpt>
      <trkpt lat="46.67102" lon="5.98701">
        <ele>773.3</ele>
        <time>2020-01-09T08:10:20Z</time>
      </trkpt>
      <trkpt lat="46.67097" lon="5.987">
        <ele>772.8</ele>
        <time>2020-01-09T08:10:24Z</time>
      </trkpt>
      <trkpt lat="46.67092" lon="5.98699">
        <ele>772.5</ele>
        <time>2020-01-09T08:10:30Z</time>
      </trkpt>
      <trkpt lat="46.67087" lon="5.98698">
        <ele>772.5</ele>
        <time>2020-01-09T08:10:37Z</time>
      </trkpt>
      <trkpt lat="46.67082" lon="5.98697">
        <ele>772.7</ele>
        <time>2020-01-09T08:10:42Z</time>
      </trkpt>
      <trkpt lat="46.67078" lon="5.98694">
        <ele>772.8</ele>
        <time>2020-01-09T08:10:48Z</time>
      </trkpt>
      <trkpt lat="46.67075" lon="5.98689">
        <ele>774.1</ele>
        <time>2020-01-09T08:11:18Z</time>
      </trkpt>
      <trkpt lat="46.67077" lon="5.98683">
        <ele>774.7</ele>
        <time>2020-01-09T08:11:21Z</time>
      </trkpt>
      <trkpt lat="46.6708" lon="5.98675">
        <ele>775.6</ele>
        <time>2020-01-09T08:11:26Z</time>
      </trkpt>
      <trkpt lat="46.6708" lon="5.98668">
        <ele>776.4</ele>
        <time>2020-01-09T08:11:30Z</time>
      </trkpt>
      <trkpt lat="46.6708" lon="5.9866">
        <ele>777.5</ele>
        <time>2020-01-09T08:11:38Z</time>
      </trkpt>
      <trkpt lat="46.67083" lon="5.98653">
        <ele>777.7</ele>
        <time>2020-01-09T08:11:42Z</time>
      </trkpt>
      <trkpt lat="46.67085" lon="5.98647">
        <ele>777.9</ele>
        <time>2020-01-09T08:11:45Z</time>
      </trkpt>
      <trkpt lat="46.67087" lon="5.9864">
        <ele>777.9</ele>
        <time>2020-01-09T08:11:50Z</time>
      </trkpt>
      <trkpt lat="46.6709" lon="5.98634">
        <ele>778.2</ele>
        <time>2020-01-09T08:11:56Z</time>
      </trkpt>
      <trkpt lat="46.67092" lon="5.98627">
        <ele>778.4</ele>
        <time>2020-01-09T08:12:00Z</time>
      </trkpt>
      <trkpt lat="46.67095" lon="5.98622">
        <ele>778.7</ele>
        <time>2020-01-09T08:12:05Z</time>
      </trkpt>
      <trkpt lat="46.67098" lon="5.98616">
        <ele>779.1</ele>
        <time>2020-01-09T08:12:11Z</time>
      </trkpt>
      <trkpt lat="46.67101" lon="5.9861">
        <ele>779.5</ele>
        <time>2020-01-09T08:12:16Z</time>
      </trkpt>
      <trkpt lat="46.67104" lon="5.98605">
        <ele>780.1</ele>
        <time>2020-01-09T08:12:22Z</time>
      </trkpt>
      <trkpt lat="46.67107" lon="5.986">
        <ele>780.7</ele>
        <time>2020-01-09T08:12:29Z</time>
      </trkpt>
      <trkpt lat="46.67111" lon="5.98597">
        <ele>781</ele>
        <time>2020-01-09T08:12:33Z</time>
      </trkpt>
      <trkpt lat="46.67115" lon="5.98593">
        <ele>781.3</ele>
        <time>2020-01-09T08:12:38Z</time>
      </trkpt>
      <trkpt lat="46.67116" lon="5.98585">
        <ele>781.4</ele>
        <time>2020-01-09T08:12:43Z</time>
      </trkpt>
      <trkpt lat="46.67117" lon="5.98579">
        <ele>781.7</ele>
        <time>2020-01-09T08:12:48Z</time>
      </trkpt>
      <trkpt lat="46.67118" lon="5.98572">
        <ele>782</ele>
        <time>2020-01-09T08:12:54Z</time>
      </trkpt>
      <trkpt lat="46.67122" lon="5.98567">
        <ele>782.8</ele>
        <time>2020-01-09T08:13:00Z</time>
      </trkpt>
      <trkpt lat="46.67127" lon="5.98562">
        <ele>783.4</ele>
        <time>2020-01-09T08:13:05Z</time>
      </trkpt>
      <trkpt lat="46.67129" lon="5.98557">
        <ele>783.7</ele>
        <time>2020-01-09T08:13:09Z</time>
      </trkpt>
      <trkpt lat="46.67133" lon="5.98551">
        <ele>783.8</ele>
        <time>2020-01-09T08:13:15Z</time>
      </trkpt>
      <trkpt lat="46.67136" lon="5.98546">
        <ele>783.9</ele>
        <time>2020-01-09T08:13:21Z</time>
      </trkpt>
      <trkpt lat="46.67138" lon="5.9854">
        <ele>784.2</ele>
        <time>2020-01-09T08:13:27Z</time>
      </trkpt>
      <trkpt lat="46.67141" lon="5.98535">
        <ele>784.4</ele>
        <time>2020-01-09T08:13:31Z</time>
      </trkpt>
      <trkpt lat="46.67145" lon="5.9853">
        <ele>784.5</ele>
        <time>2020-01-09T08:13:35Z</time>
      </trkpt>
      <trkpt lat="46.67147" lon="5.98523">
        <ele>784.7</ele>
        <time>2020-01-09T08:13:41Z</time>
      </trkpt>
      <trkpt lat="46.6715" lon="5.98517">
        <ele>785.1</ele>
        <time>2020-01-09T08:13:47Z</time>
      </trkpt>
      <trkpt lat="46.67153" lon="5.98512">
        <ele>786.2</ele>
        <time>2020-01-09T08:13:57Z</time>
      </trkpt>
      <trkpt lat="46.67158" lon="5.98508">
        <ele>787.3</ele>
        <time>2020-01-09T08:14:03Z</time>
      </trkpt>
      <trkpt lat="46.67161" lon="5.98504">
        <ele>787.6</ele>
        <time>2020-01-09T08:14:07Z</time>
      </trkpt>
      <trkpt lat="46.67164" lon="5.98498">
        <ele>787.7</ele>
        <time>2020-01-09T08:14:11Z</time>
      </trkpt>
      <trkpt lat="46.67167" lon="5.98493">
        <ele>787.8</ele>
        <time>2020-01-09T08:14:14Z</time>
      </trkpt>
      <trkpt lat="46.67171" lon="5.98488">
        <ele>788</ele>
        <time>2020-01-09T08:14:19Z</time>
      </trkpt>
      <trkpt lat="46.67174" lon="5.98483">
        <ele>788.6</ele>
        <time>2020-01-09T08:14:26Z</time>
      </trkpt>
      <trkpt lat="46.67179" lon="5.98481">
        <ele>789.2</ele>
        <time>2020-01-09T08:14:34Z</time>
      </trkpt>
      <trkpt lat="46.67182" lon="5.98477">
        <ele>789.8</ele>
        <time>2020-01-09T08:14:41Z</time>
      </trkpt>
      <trkpt lat="46.67183" lon="5.9847">
        <ele>790.4</ele>
        <time>2020-01-09T08:14:47Z</time>
      </trkpt>
      <trkpt lat="46.67186" lon="5.98465">
        <ele>790.9</ele>
        <time>2020-01-09T08:14:54Z</time>
      </trkpt>
      <trkpt lat="46.67191" lon="5.98461">
        <ele>791.1</ele>
        <time>2020-01-09T08:14:58Z</time>
      </trkpt>
      <trkpt lat="46.67195" lon="5.98457">
        <ele>791.2</ele>
        <time>2020-01-09T08:15:02Z</time>
      </trkpt>
      <trkpt lat="46.67198" lon="5.98452">
        <ele>791.4</ele>
        <time>2020-01-09T08:15:08Z</time>
      </trkpt>
      <trkpt lat="46.67202" lon="5.98446">
        <ele>791.5</ele>
        <time>2020-01-09T08:15:14Z</time>
      </trkpt>
      <trkpt lat="46.67205" lon="5.98442">
        <ele>791.6</ele>
        <time>2020-01-09T08:15:20Z</time>
      </trkpt>
      <trkpt lat="46.67208" lon="5.98436">
        <ele>792.1</ele>
        <time>2020-01-09T08:15:26Z</time>
      </trkpt>
      <trkpt lat="46.6721" lon="5.98429">
        <ele>793.1</ele>
        <time>2020-01-09T08:15:33Z</time>
      </trkpt>
      <trkpt lat="46.67214" lon="5.98424">
        <ele>793.2</ele>
        <time>2020-01-09T08:15:37Z</time>
      </trkpt>
      <trkpt lat="46.67217" lon="5.98419">
        <ele>793.2</ele>
        <time>2020-01-09T08:15:44Z</time>
      </trkpt>
      <trkpt lat="46.67222" lon="5.98416">
        <ele>793.5</ele>
        <time>2020-01-09T08:15:50Z</time>
      </trkpt>
      <trkpt lat="46.67234" lon="5.98411">
        <ele>794.4</ele>
        <time>2020-01-09T08:16:02Z</time>
      </trkpt>
      <trkpt lat="46.6724" lon="5.98408">
        <ele>794.6</ele>
        <time>2020-01-09T08:16:05Z</time>
      </trkpt>
      <trkpt lat="46.67244" lon="5.98405">
        <ele>794.8</ele>
        <time>2020-01-09T08:16:09Z</time>
      </trkpt>
      <trkpt lat="46.67249" lon="5.98401">
        <ele>794.8</ele>
        <time>2020-01-09T08:16:14Z</time>
      </trkpt>
      <trkpt lat="46.67253" lon="5.98397">
        <ele>794.8</ele>
        <time>2020-01-09T08:16:18Z</time>
      </trkpt>
      <trkpt lat="46.67255" lon="5.98391">
        <ele>795.3</ele>
        <time>2020-01-09T08:16:24Z</time>
      </trkpt>
      <trkpt lat="46.67256" lon="5.98383">
        <ele>796</ele>
        <time>2020-01-09T08:16:29Z</time>
      </trkpt>
      <trkpt lat="46.67259" lon="5.98378">
        <ele>796.8</ele>
        <time>2020-01-09T08:16:37Z</time>
      </trkpt>
      <trkpt lat="46.67262" lon="5.98372">
        <ele>797</ele>
        <time>2020-01-09T08:16:43Z</time>
      </trkpt>
      <trkpt lat="46.67264" lon="5.98365">
        <ele>797.2</ele>
        <time>2020-01-09T08:16:48Z</time>
      </trkpt>
      <trkpt lat="46.67265" lon="5.98358">
        <ele>797.8</ele>
        <time>2020-01-09T08:16:55Z</time>
      </trkpt>
      <trkpt lat="46.67268" lon="5.98352">
        <ele>798.2</ele>
        <time>2020-01-09T08:17:00Z</time>
      </trkpt>
      <trkpt lat="46.67273" lon="5.98348">
        <ele>798.3</ele>
        <time>2020-01-09T08:17:07Z</time>
      </trkpt>
      <trkpt lat="46.67278" lon="5.98343">
        <ele>798.2</ele>
        <time>2020-01-09T08:17:14Z</time>
      </trkpt>
      <trkpt lat="46.67282" lon="5.98338">
        <ele>798.2</ele>
        <time>2020-01-09T08:17:21Z</time>
      </trkpt>
      <trkpt lat="46.67287" lon="5.98335">
        <ele>798</ele>
        <time>2020-01-09T08:17:26Z</time>
      </trkpt>
      <trkpt lat="46.67291" lon="5.98331">
        <ele>797.7</ele>
        <time>2020-01-09T08:17:30Z</time>
      </trkpt>
      <trkpt lat="46.67295" lon="5.98328">
        <ele>797.4</ele>
        <time>2020-01-09T08:17:36Z</time>
      </trkpt>
      <trkpt lat="46.67299" lon="5.98325">
        <ele>796.8</ele>
        <time>2020-01-09T08:17:46Z</time>
      </trkpt>
      <trkpt lat="46.67304" lon="5.98323">
        <ele>796.8</ele>
        <time>2020-01-09T08:17:52Z</time>
      </trkpt>
      <trkpt lat="46.67308" lon="5.98319">
        <ele>796.7</ele>
        <time>2020-01-09T08:17:57Z</time>
      </trkpt>
      <trkpt lat="46.67311" lon="5.98314">
        <ele>796.6</ele>
        <time>2020-01-09T08:18:04Z</time>
      </trkpt>
      <trkpt lat="46.67316" lon="5.9831">
        <ele>796.6</ele>
        <time>2020-01-09T08:18:07Z</time>
      </trkpt>
      <trkpt lat="46.6732" lon="5.98307">
        <ele>796.5</ele>
        <time>2020-01-09T08:18:11Z</time>
      </trkpt>
      <trkpt lat="46.67324" lon="5.98302">
        <ele>796.4</ele>
        <time>2020-01-09T08:18:15Z</time>
      </trkpt>
      <trkpt lat="46.67327" lon="5.98296">
        <ele>796.1</ele>
        <time>2020-01-09T08:18:19Z</time>
      </trkpt>
      <trkpt lat="46.6733" lon="5.98291">
        <ele>795.9</ele>
        <time>2020-01-09T08:18:24Z</time>
      </trkpt>
      <trkpt lat="46.67334" lon="5.98288">
        <ele>795.8</ele>
        <time>2020-01-09T08:18:28Z</time>
      </trkpt>
      <trkpt lat="46.67338" lon="5.98283">
        <ele>796</ele>
        <time>2020-01-09T08:18:33Z</time>
      </trkpt>
      <trkpt lat="46.67342" lon="5.98279">
        <ele>795.9</ele>
        <time>2020-01-09T08:18:39Z</time>
      </trkpt>
      <trkpt lat="46.67346" lon="5.98276">
        <ele>795.8</ele>
        <time>2020-01-09T08:18:45Z</time>
      </trkpt>
      <trkpt lat="46.6735" lon="5.98272">
        <ele>795.5</ele>
        <time>2020-01-09T08:18:50Z</time>
      </trkpt>
      <trkpt lat="46.67354" lon="5.98267">
        <ele>795.2</ele>
        <time>2020-01-09T08:18:54Z</time>
      </trkpt>
      <trkpt lat="46.67358" lon="5.98263">
        <ele>795</ele>
        <time>2020-01-09T08:19:00Z</time>
      </trkpt>
      <trkpt lat="46.67363" lon="5.98259">
        <ele>795.1</ele>
        <time>2020-01-09T08:19:04Z</time>
      </trkpt>
      <trkpt lat="46.67367" lon="5.98255">
        <ele>795.1</ele>
        <time>2020-01-09T08:19:08Z</time>
      </trkpt>
      <trkpt lat="46.67368" lon="5.98248">
        <ele>795.3</ele>
        <time>2020-01-09T08:19:14Z</time>
      </trkpt>
      <trkpt lat="46.67368" lon="5.98241">
        <ele>795.4</ele>
        <time>2020-01-09T08:19:19Z</time>
      </trkpt>
      <trkpt lat="46.67368" lon="5.98234">
        <ele>795.9</ele>
        <time>2020-01-09T08:19:26Z</time>
      </trkpt>
      <trkpt lat="46.67368" lon="5.98226">
        <ele>796.4</ele>
        <time>2020-01-09T08:19:32Z</time>
      </trkpt>
      <trkpt lat="46.67367" lon="5.98219">
        <ele>796.8</ele>
        <time>2020-01-09T08:19:37Z</time>
      </trkpt>
      <trkpt lat="46.67366" lon="5.98212">
        <ele>797.5</ele>
        <time>2020-01-09T08:19:42Z</time>
      </trkpt>
      <trkpt lat="46.67366" lon="5.98205">
        <ele>798.5</ele>
        <time>2020-01-09T08:19:48Z</time>
      </trkpt>
      <trkpt lat="46.67367" lon="5.98198">
        <ele>799.4</ele>
        <time>2020-01-09T08:19:54Z</time>
      </trkpt>
      <trkpt lat="46.67368" lon="5.98191">
        <ele>799.8</ele>
        <time>2020-01-09T08:19:58Z</time>
      </trkpt>
      <trkpt lat="46.67369" lon="5.98184">
        <ele>800.3</ele>
        <time>2020-01-09T08:20:03Z</time>
      </trkpt>
      <trkpt lat="46.6737" lon="5.98176">
        <ele>800.9</ele>
        <time>2020-01-09T08:20:09Z</time>
      </trkpt>
      <trkpt lat="46.67372" lon="5.9817">
        <ele>801.1</ele>
        <time>2020-01-09T08:20:13Z</time>
      </trkpt>
      <trkpt lat="46.67373" lon="5.98163">
        <ele>801.2</ele>
        <time>2020-01-09T08:20:19Z</time>
      </trkpt>
      <trkpt lat="46.67373" lon="5.98156">
        <ele>801.2</ele>
        <time>2020-01-09T08:20:24Z</time>
      </trkpt>
      <trkpt lat="46.67374" lon="5.98149">
        <ele>801.3</ele>
        <time>2020-01-09T08:20:29Z</time>
      </trkpt>
      <trkpt lat="46.67375" lon="5.98142">
        <ele>801.4</ele>
        <time>2020-01-09T08:20:34Z</time>
      </trkpt>
      <trkpt lat="46.67377" lon="5.98134">
        <ele>801.4</ele>
        <time>2020-01-09T08:20:38Z</time>
      </trkpt>
      <trkpt lat="46.67379" lon="5.98128">
        <ele>801.4</ele>
        <time>2020-01-09T08:20:42Z</time>
      </trkpt>
      <trkpt lat="46.67382" lon="5.98122">
        <ele>801.2</ele>
        <time>2020-01-09T08:20:49Z</time>
      </trkpt>
      <trkpt lat="46.67384" lon="5.98116">
        <ele>800.7</ele>
        <time>2020-01-09T08:20:55Z</time>
      </trkpt>
      <trkpt lat="46.67388" lon="5.98112">
        <ele>800</ele>
        <time>2020-01-09T08:21:00Z</time>
      </trkpt>
      <trkpt lat="46.67392" lon="5.98108">
        <ele>799.1</ele>
        <time>2020-01-09T08:21:05Z</time>
      </trkpt>
      <trkpt lat="46.67396" lon="5.98104">
        <ele>798.3</ele>
        <time>2020-01-09T08:21:10Z</time>
      </trkpt>
      <trkpt lat="46.674" lon="5.98102">
        <ele>797.5</ele>
        <time>2020-01-09T08:21:17Z</time>
      </trkpt>
      <trkpt lat="46.67404" lon="5.98098">
        <ele>796.8</ele>
        <time>2020-01-09T08:21:22Z</time>
      </trkpt>
      <trkpt lat="46.67409" lon="5.98095">
        <ele>796.1</ele>
        <time>2020-01-09T08:21:27Z</time>
      </trkpt>
      <trkpt lat="46.67414" lon="5.98091">
        <ele>795.2</ele>
        <time>2020-01-09T08:21:33Z</time>
      </trkpt>
      <trkpt lat="46.67418" lon="5.98089">
        <ele>795</ele>
        <time>2020-01-09T08:21:37Z</time>
      </trkpt>
      <trkpt lat="46.67423" lon="5.98085">
        <ele>794.8</ele>
        <time>2020-01-09T08:21:42Z</time>
      </trkpt>
      <trkpt lat="46.67428" lon="5.98081">
        <ele>794.8</ele>
        <time>2020-01-09T08:21:48Z</time>
      </trkpt>
      <trkpt lat="46.67432" lon="5.98078">
        <ele>795.2</ele>
        <time>2020-01-09T08:21:55Z</time>
      </trkpt>
      <trkpt lat="46.67435" lon="5.98073">
        <ele>796</ele>
        <time>2020-01-09T08:22:03Z</time>
      </trkpt>
      <trkpt lat="46.6744" lon="5.98071">
        <ele>797.3</ele>
        <time>2020-01-09T08:22:13Z</time>
      </trkpt>
      <trkpt lat="46.67443" lon="5.98066">
        <ele>797.8</ele>
        <time>2020-01-09T08:22:18Z</time>
      </trkpt>
      <trkpt lat="46.67445" lon="5.9806">
        <ele>798.4</ele>
        <time>2020-01-09T08:22:34Z</time>
      </trkpt>
      <trkpt lat="46.67457" lon="5.98051">
        <ele>797.2</ele>
        <time>2020-01-09T08:22:49Z</time>
      </trkpt>
      <trkpt lat="46.67463" lon="5.98051">
        <ele>797.3</ele>
        <time>2020-01-09T08:22:53Z</time>
      </trkpt>
      <trkpt lat="46.67468" lon="5.98051">
        <ele>797.4</ele>
        <time>2020-01-09T08:22:57Z</time>
      </trkpt>
      <trkpt lat="46.67473" lon="5.9805">
        <ele>797.6</ele>
        <time>2020-01-09T08:23:02Z</time>
      </trkpt>
      <trkpt lat="46.67478" lon="5.98048">
        <ele>797.6</ele>
        <time>2020-01-09T08:23:09Z</time>
      </trkpt>
      <trkpt lat="46.67483" lon="5.98048">
        <ele>797.8</ele>
        <time>2020-01-09T08:23:17Z</time>
      </trkpt>
      <trkpt lat="46.67488" lon="5.98049">
        <ele>798.6</ele>
        <time>2020-01-09T08:23:26Z</time>
      </trkpt>
      <trkpt lat="46.67493" lon="5.98047">
        <ele>799.1</ele>
        <time>2020-01-09T08:23:29Z</time>
      </trkpt>
      <trkpt lat="46.67498" lon="5.98043">
        <ele>799.8</ele>
        <time>2020-01-09T08:23:33Z</time>
      </trkpt>
      <trkpt lat="46.67502" lon="5.9804">
        <ele>800.1</ele>
        <time>2020-01-09T08:23:36Z</time>
      </trkpt>
      <trkpt lat="46.67506" lon="5.98037">
        <ele>800.5</ele>
        <time>2020-01-09T08:23:41Z</time>
      </trkpt>
      <trkpt lat="46.67511" lon="5.98034">
        <ele>800.6</ele>
        <time>2020-01-09T08:23:47Z</time>
      </trkpt>
      <trkpt lat="46.67515" lon="5.98031">
        <ele>800.6</ele>
        <time>2020-01-09T08:23:51Z</time>
      </trkpt>
      <trkpt lat="46.6752" lon="5.98028">
        <ele>800.4</ele>
        <time>2020-01-09T08:23:55Z</time>
      </trkpt>
      <trkpt lat="46.67524" lon="5.98027">
        <ele>800.1</ele>
        <time>2020-01-09T08:24:01Z</time>
      </trkpt>
      <trkpt lat="46.67529" lon="5.98026">
        <ele>800</ele>
        <time>2020-01-09T08:24:06Z</time>
      </trkpt>
      <trkpt lat="46.67534" lon="5.98023">
        <ele>800.2</ele>
        <time>2020-01-09T08:24:11Z</time>
      </trkpt>
      <trkpt lat="46.67538" lon="5.98021">
        <ele>800.5</ele>
        <time>2020-01-09T08:24:18Z</time>
      </trkpt>
      <trkpt lat="46.67543" lon="5.9802">
        <ele>801.1</ele>
        <time>2020-01-09T08:24:25Z</time>
      </trkpt>
      <trkpt lat="46.67548" lon="5.98019">
        <ele>801.3</ele>
        <time>2020-01-09T08:24:30Z</time>
      </trkpt>
      <trkpt lat="46.67553" lon="5.98019">
        <ele>801.9</ele>
        <time>2020-01-09T08:24:37Z</time>
      </trkpt>
      <trkpt lat="46.67558" lon="5.98018">
        <ele>802</ele>
        <time>2020-01-09T08:24:41Z</time>
      </trkpt>
      <trkpt lat="46.67562" lon="5.98017">
        <ele>802.3</ele>
        <time>2020-01-09T08:24:44Z</time>
      </trkpt>
      <trkpt lat="46.67567" lon="5.98015">
        <ele>802.7</ele>
        <time>2020-01-09T08:24:49Z</time>
      </trkpt>
      <trkpt lat="46.67572" lon="5.98013">
        <ele>803.3</ele>
        <time>2020-01-09T08:24:57Z</time>
      </trkpt>
      <trkpt lat="46.67575" lon="5.98009">
        <ele>803.7</ele>
        <time>2020-01-09T08:25:02Z</time>
      </trkpt>
      <trkpt lat="46.67579" lon="5.98002">
        <ele>804.2</ele>
        <time>2020-01-09T08:25:07Z</time>
      </trkpt>
      <trkpt lat="46.67584" lon="5.97998">
        <ele>804.3</ele>
        <time>2020-01-09T08:25:09Z</time>
      </trkpt>
      <trkpt lat="46.67588" lon="5.97996">
        <ele>804.5</ele>
        <time>2020-01-09T08:25:11Z</time>
      </trkpt>
      <trkpt lat="46.67593" lon="5.97994">
        <ele>805.1</ele>
        <time>2020-01-09T08:25:19Z</time>
      </trkpt>
      <trkpt lat="46.67598" lon="5.97993">
        <ele>805.4</ele>
        <time>2020-01-09T08:25:26Z</time>
      </trkpt>
      <trkpt lat="46.67603" lon="5.97992">
        <ele>805.6</ele>
        <time>2020-01-09T08:25:31Z</time>
      </trkpt>
      <trkpt lat="46.67607" lon="5.97989">
        <ele>805.7</ele>
        <time>2020-01-09T08:25:35Z</time>
      </trkpt>
      <trkpt lat="46.67613" lon="5.97988">
        <ele>805.7</ele>
        <time>2020-01-09T08:25:41Z</time>
      </trkpt>
      <trkpt lat="46.67617" lon="5.97986">
        <ele>804.7</ele>
        <time>2020-01-09T08:25:51Z</time>
      </trkpt>
      <trkpt lat="46.67622" lon="5.97985">
        <ele>804.1</ele>
        <time>2020-01-09T08:25:56Z</time>
      </trkpt>
      <trkpt lat="46.67628" lon="5.97985">
        <ele>803.5</ele>
        <time>2020-01-09T08:26:00Z</time>
      </trkpt>
      <trkpt lat="46.67634" lon="5.97985">
        <ele>803</ele>
        <time>2020-01-09T08:26:06Z</time>
      </trkpt>
      <trkpt lat="46.67639" lon="5.97984">
        <ele>803.3</ele>
        <time>2020-01-09T08:26:12Z</time>
      </trkpt>
      <trkpt lat="46.67644" lon="5.97986">
        <ele>805.9</ele>
        <time>2020-01-09T08:26:21Z</time>
      </trkpt>
      <trkpt lat="46.67651" lon="5.97989">
        <ele>807.5</ele>
        <time>2020-01-09T08:26:27Z</time>
      </trkpt>
      <trkpt lat="46.67657" lon="5.9799">
        <ele>807.9</ele>
        <time>2020-01-09T08:26:29Z</time>
      </trkpt>
      <trkpt lat="46.67662" lon="5.97991">
        <ele>808.6</ele>
        <time>2020-01-09T08:26:33Z</time>
      </trkpt>
      <trkpt lat="46.67666" lon="5.97992">
        <ele>809.7</ele>
        <time>2020-01-09T08:26:39Z</time>
      </trkpt>
      <trkpt lat="46.67671" lon="5.97993">
        <ele>810.3</ele>
        <time>2020-01-09T08:26:44Z</time>
      </trkpt>
      <trkpt lat="46.67676" lon="5.97992">
        <ele>810.5</ele>
        <time>2020-01-09T08:26:48Z</time>
      </trkpt>
      <trkpt lat="46.6768" lon="5.97989">
        <ele>810.6</ele>
        <time>2020-01-09T08:26:53Z</time>
      </trkpt>
      <trkpt lat="46.67684" lon="5.97986">
        <ele>810.3</ele>
        <time>2020-01-09T08:26:57Z</time>
      </trkpt>
      <trkpt lat="46.67688" lon="5.97982">
        <ele>809.7</ele>
        <time>2020-01-09T08:27:02Z</time>
      </trkpt>
      <trkpt lat="46.67692" lon="5.97976">
        <ele>809.3</ele>
        <time>2020-01-09T08:27:06Z</time>
      </trkpt>
      <trkpt lat="46.67694" lon="5.9797">
        <ele>808.9</ele>
        <time>2020-01-09T08:27:12Z</time>
      </trkpt>
      <trkpt lat="46.67697" lon="5.97964">
        <ele>808.6</ele>
        <time>2020-01-09T08:27:19Z</time>
      </trkpt>
      <trkpt lat="46.677" lon="5.97958">
        <ele>808.1</ele>
        <time>2020-01-09T08:27:24Z</time>
      </trkpt>
      <trkpt lat="46.67703" lon="5.97952">
        <ele>807.3</ele>
        <time>2020-01-09T08:27:29Z</time>
      </trkpt>
      <trkpt lat="46.67707" lon="5.97948">
        <ele>806.3</ele>
        <time>2020-01-09T08:27:35Z</time>
      </trkpt>
      <trkpt lat="46.67712" lon="5.97945">
        <ele>805.1</ele>
        <time>2020-01-09T08:27:41Z</time>
      </trkpt>
      <trkpt lat="46.67717" lon="5.97943">
        <ele>804.3</ele>
        <time>2020-01-09T08:27:45Z</time>
      </trkpt>
      <trkpt lat="46.67721" lon="5.97941">
        <ele>803.5</ele>
        <time>2020-01-09T08:27:48Z</time>
      </trkpt>
      <trkpt lat="46.67726" lon="5.9794">
        <ele>802.6</ele>
        <time>2020-01-09T08:27:52Z</time>
      </trkpt>
      <trkpt lat="46.6773" lon="5.97938">
        <ele>801.8</ele>
        <time>2020-01-09T08:27:57Z</time>
      </trkpt>
      <trkpt lat="46.67735" lon="5.97936">
        <ele>801.2</ele>
        <time>2020-01-09T08:28:01Z</time>
      </trkpt>
      <trkpt lat="46.6774" lon="5.97934">
        <ele>800.4</ele>
        <time>2020-01-09T08:28:06Z</time>
      </trkpt>
      <trkpt lat="46.67745" lon="5.97931">
        <ele>799.9</ele>
        <time>2020-01-09T08:28:10Z</time>
      </trkpt>
      <trkpt lat="46.67749" lon="5.97926">
        <ele>799.5</ele>
        <time>2020-01-09T08:28:14Z</time>
      </trkpt>
      <trkpt lat="46.67753" lon="5.97924">
        <ele>799.3</ele>
        <time>2020-01-09T08:28:19Z</time>
      </trkpt>
      <trkpt lat="46.67758" lon="5.97926">
        <ele>799.4</ele>
        <time>2020-01-09T08:28:25Z</time>
      </trkpt>
      <trkpt lat="46.67763" lon="5.97928">
        <ele>799.9</ele>
        <time>2020-01-09T08:28:30Z</time>
      </trkpt>
      <trkpt lat="46.67766" lon="5.97933">
        <ele>800.4</ele>
        <time>2020-01-09T08:28:36Z</time>
      </trkpt>
      <trkpt lat="46.6777" lon="5.97938">
        <ele>800.8</ele>
        <time>2020-01-09T08:28:41Z</time>
      </trkpt>
      <trkpt lat="46.67774" lon="5.97945">
        <ele>800.8</ele>
        <time>2020-01-09T08:28:44Z</time>
      </trkpt>
      <trkpt lat="46.67777" lon="5.97951">
        <ele>800.7</ele>
        <time>2020-01-09T08:28:47Z</time>
      </trkpt>
      <trkpt lat="46.67779" lon="5.97958">
        <ele>800.4</ele>
        <time>2020-01-09T08:28:51Z</time>
      </trkpt>
      <trkpt lat="46.67782" lon="5.97964">
        <ele>800.1</ele>
        <time>2020-01-09T08:28:54Z</time>
      </trkpt>
      <trkpt lat="46.67784" lon="5.97972">
        <ele>800</ele>
        <time>2020-01-09T08:28:59Z</time>
      </trkpt>
      <trkpt lat="46.67786" lon="5.97978">
        <ele>800.2</ele>
        <time>2020-01-09T08:29:03Z</time>
      </trkpt>
      <trkpt lat="46.67788" lon="5.97985">
        <ele>800.7</ele>
        <time>2020-01-09T08:29:07Z</time>
      </trkpt>
      <trkpt lat="46.6779" lon="5.97992">
        <ele>801.2</ele>
        <time>2020-01-09T08:29:10Z</time>
      </trkpt>
      <trkpt lat="46.67793" lon="5.97998">
        <ele>802.1</ele>
        <time>2020-01-09T08:29:14Z</time>
      </trkpt>
      <trkpt lat="46.67796" lon="5.98002">
        <ele>804</ele>
        <time>2020-01-09T08:29:23Z</time>
      </trkpt>
      <trkpt lat="46.67801" lon="5.98004">
        <ele>804.2</ele>
        <time>2020-01-09T08:29:33Z</time>
      </trkpt>
      <trkpt lat="46.67805" lon="5.98001">
        <ele>803.6</ele>
        <time>2020-01-09T08:29:39Z</time>
      </trkpt>
      <trkpt lat="46.67808" lon="5.97994">
        <ele>803.3</ele>
        <time>2020-01-09T08:29:45Z</time>
      </trkpt>
      <trkpt lat="46.6781" lon="5.97988">
        <ele>803.1</ele>
        <time>2020-01-09T08:29:50Z</time>
      </trkpt>
      <trkpt lat="46.67814" lon="5.97983">
        <ele>802.4</ele>
        <time>2020-01-09T08:29:58Z</time>
      </trkpt>
      <trkpt lat="46.67818" lon="5.97979">
        <ele>802.2</ele>
        <time>2020-01-09T08:30:05Z</time>
      </trkpt>
      <trkpt lat="46.6782" lon="5.97973">
        <ele>802.4</ele>
        <time>2020-01-09T08:30:12Z</time>
      </trkpt>
      <trkpt lat="46.67823" lon="5.97967">
        <ele>802.6</ele>
        <time>2020-01-09T08:30:16Z</time>
      </trkpt>
      <trkpt lat="46.67827" lon="5.97962">
        <ele>802.7</ele>
        <time>2020-01-09T08:30:21Z</time>
      </trkpt>
      <trkpt lat="46.67832" lon="5.97957">
        <ele>802.9</ele>
        <time>2020-01-09T08:30:29Z</time>
      </trkpt>
      <trkpt lat="46.67836" lon="5.97954">
        <ele>803</ele>
        <time>2020-01-09T08:30:32Z</time>
      </trkpt>
      <trkpt lat="46.6784" lon="5.9795">
        <ele>803.2</ele>
        <time>2020-01-09T08:30:37Z</time>
      </trkpt>
      <trkpt lat="46.67843" lon="5.97946">
        <ele>803.2</ele>
        <time>2020-01-09T08:30:41Z</time>
      </trkpt>
      <trkpt lat="46.67847" lon="5.97941">
        <ele>803.1</ele>
        <time>2020-01-09T08:30:46Z</time>
      </trkpt>
      <trkpt lat="46.6785" lon="5.97935">
        <ele>802.7</ele>
        <time>2020-01-09T08:30:50Z</time>
      </trkpt>
      <trkpt lat="46.67851" lon="5.97928">
        <ele>802.3</ele>
        <time>2020-01-09T08:30:54Z</time>
      </trkpt>
      <trkpt lat="46.67853" lon="5.97921">
        <ele>801.5</ele>
        <time>2020-01-09T08:30:59Z</time>
      </trkpt>
      <trkpt lat="46.67856" lon="5.97915">
        <ele>800.8</ele>
        <time>2020-01-09T08:31:03Z</time>
      </trkpt>
      <trkpt lat="46.67857" lon="5.97908">
        <ele>800.1</ele>
        <time>2020-01-09T08:31:07Z</time>
      </trkpt>
      <trkpt lat="46.67859" lon="5.97902">
        <ele>799.4</ele>
        <time>2020-01-09T08:31:11Z</time>
      </trkpt>
      <trkpt lat="46.67861" lon="5.97895">
        <ele>798.7</ele>
        <time>2020-01-09T08:31:15Z</time>
      </trkpt>
      <trkpt lat="46.67865" lon="5.97889">
        <ele>798.1</ele>
        <time>2020-01-09T08:31:20Z</time>
      </trkpt>
      <trkpt lat="46.67869" lon="5.97884">
        <ele>797.9</ele>
        <time>2020-01-09T08:31:27Z</time>
      </trkpt>
      <trkpt lat="46.67874" lon="5.97881">
        <ele>798</ele>
        <time>2020-01-09T08:31:31Z</time>
      </trkpt>
      <trkpt lat="46.67878" lon="5.97878">
        <ele>797.8</ele>
        <time>2020-01-09T08:31:36Z</time>
      </trkpt>
      <trkpt lat="46.67882" lon="5.97876">
        <ele>797.7</ele>
        <time>2020-01-09T08:31:40Z</time>
      </trkpt>
      <trkpt lat="46.67888" lon="5.97875">
        <ele>797.5</ele>
        <time>2020-01-09T08:31:44Z</time>
      </trkpt>
      <trkpt lat="46.67892" lon="5.97873">
        <ele>797.3</ele>
        <time>2020-01-09T08:31:48Z</time>
      </trkpt>
      <trkpt lat="46.67897" lon="5.9787">
        <ele>797.3</ele>
        <time>2020-01-09T08:31:52Z</time>
      </trkpt>
      <trkpt lat="46.67902" lon="5.97868">
        <ele>797.2</ele>
        <time>2020-01-09T08:31:56Z</time>
      </trkpt>
      <trkpt lat="46.67906" lon="5.97865">
        <ele>797.1</ele>
        <time>2020-01-09T08:32:01Z</time>
      </trkpt>
      <trkpt lat="46.67911" lon="5.97864">
        <ele>797</ele>
        <time>2020-01-09T08:32:05Z</time>
      </trkpt>
      <trkpt lat="46.67915" lon="5.97862">
        <ele>796.9</ele>
        <time>2020-01-09T08:32:09Z</time>
      </trkpt>
      <trkpt lat="46.6792" lon="5.97859">
        <ele>797.2</ele>
        <time>2020-01-09T08:32:14Z</time>
      </trkpt>
      <trkpt lat="46.67924" lon="5.97857">
        <ele>797.5</ele>
        <time>2020-01-09T08:32:19Z</time>
      </trkpt>
      <trkpt lat="46.67929" lon="5.97854">
        <ele>797.8</ele>
        <time>2020-01-09T08:32:24Z</time>
      </trkpt>
      <trkpt lat="46.67934" lon="5.97851">
        <ele>798.1</ele>
        <time>2020-01-09T08:32:28Z</time>
      </trkpt>
      <trkpt lat="46.67938" lon="5.97849">
        <ele>798.2</ele>
        <time>2020-01-09T08:32:33Z</time>
      </trkpt>
      <trkpt lat="46.67943" lon="5.97846">
        <ele>798</ele>
        <time>2020-01-09T08:32:38Z</time>
      </trkpt>
      <trkpt lat="46.67948" lon="5.97844">
        <ele>797.9</ele>
        <time>2020-01-09T08:32:44Z</time>
      </trkpt>
      <trkpt lat="46.67954" lon="5.97843">
        <ele>798.3</ele>
        <time>2020-01-09T08:32:49Z</time>
      </trkpt>
      <trkpt lat="46.67958" lon="5.97844">
        <ele>798.7</ele>
        <time>2020-01-09T08:32:52Z</time>
      </trkpt>
      <trkpt lat="46.67963" lon="5.97846">
        <ele>799.2</ele>
        <time>2020-01-09T08:32:55Z</time>
      </trkpt>
      <trkpt lat="46.67969" lon="5.97847">
        <ele>799.7</ele>
        <time>2020-01-09T08:32:59Z</time>
      </trkpt>
      <trkpt lat="46.67973" lon="5.9785">
        <ele>800.2</ele>
        <time>2020-01-09T08:33:03Z</time>
      </trkpt>
      <trkpt lat="46.67978" lon="5.9785">
        <ele>800.9</ele>
        <time>2020-01-09T08:33:10Z</time>
      </trkpt>
      <trkpt lat="46.67982" lon="5.97848">
        <ele>801.2</ele>
        <time>2020-01-09T08:33:26Z</time>
      </trkpt>
      <trkpt lat="46.67986" lon="5.97844">
        <ele>800.3</ele>
        <time>2020-01-09T08:33:33Z</time>
      </trkpt>
      <trkpt lat="46.6799" lon="5.97841">
        <ele>799.7</ele>
        <time>2020-01-09T08:33:40Z</time>
      </trkpt>
      <trkpt lat="46.67994" lon="5.97837">
        <ele>799.8</ele>
        <time>2020-01-09T08:33:46Z</time>
      </trkpt>
      <trkpt lat="46.67997" lon="5.97832">
        <ele>800.1</ele>
        <time>2020-01-09T08:33:54Z</time>
      </trkpt>
      <trkpt lat="46.68001" lon="5.97827">
        <ele>799.9</ele>
        <time>2020-01-09T08:34:02Z</time>
      </trkpt>
      <trkpt lat="46.68005" lon="5.97823">
        <ele>799.5</ele>
        <time>2020-01-09T08:34:06Z</time>
      </trkpt>
      <trkpt lat="46.68009" lon="5.97818">
        <ele>799.2</ele>
        <time>2020-01-09T08:34:10Z</time>
      </trkpt>
      <trkpt lat="46.68014" lon="5.97814">
        <ele>799</ele>
        <time>2020-01-09T08:34:15Z</time>
      </trkpt>
      <trkpt lat="46.68018" lon="5.97809">
        <ele>798.8</ele>
        <time>2020-01-09T08:34:21Z</time>
      </trkpt>
      <trkpt lat="46.68023" lon="5.97807">
        <ele>798.8</ele>
        <time>2020-01-09T08:34:25Z</time>
      </trkpt>
      <trkpt lat="46.68028" lon="5.97804">
        <ele>799.1</ele>
        <time>2020-01-09T08:34:29Z</time>
      </trkpt>
      <trkpt lat="46.68032" lon="5.978">
        <ele>799.5</ele>
        <time>2020-01-09T08:34:33Z</time>
      </trkpt>
      <trkpt lat="46.68036" lon="5.97795">
        <ele>800.1</ele>
        <time>2020-01-09T08:34:38Z</time>
      </trkpt>
      <trkpt lat="46.6804" lon="5.9779">
        <ele>800.9</ele>
        <time>2020-01-09T08:34:43Z</time>
      </trkpt>
      <trkpt lat="46.68043" lon="5.97785">
        <ele>801.3</ele>
        <time>2020-01-09T08:34:47Z</time>
      </trkpt>
      <trkpt lat="46.68047" lon="5.9778">
        <ele>801.5</ele>
        <time>2020-01-09T08:34:51Z</time>
      </trkpt>
      <trkpt lat="46.68046" lon="5.97773">
        <ele>801.4</ele>
        <time>2020-01-09T08:35:06Z</time>
      </trkpt>
      <trkpt lat="46.6805" lon="5.97769">
        <ele>801.8</ele>
        <time>2020-01-09T08:42:24Z</time>
      </trkpt>
      <trkpt lat="46.68054" lon="5.97765">
        <ele>801.5</ele>
        <time>2020-01-09T08:42:30Z</time>
      </trkpt>
      <trkpt lat="46.68058" lon="5.9776">
        <ele>801.6</ele>
        <time>2020-01-09T08:42:36Z</time>
      </trkpt>
      <trkpt lat="46.6806" lon="5.97755">
        <ele>802.2</ele>
        <time>2020-01-09T08:42:41Z</time>
      </trkpt>
      <trkpt lat="46.68063" lon="5.97748">
        <ele>803</ele>
        <time>2020-01-09T08:42:47Z</time>
      </trkpt>
      <trkpt lat="46.68066" lon="5.97743">
        <ele>803.5</ele>
        <time>2020-01-09T08:42:52Z</time>
      </trkpt>
      <trkpt lat="46.6807" lon="5.97738">
        <ele>803.7</ele>
        <time>2020-01-09T08:42:57Z</time>
      </trkpt>
      <trkpt lat="46.68074" lon="5.97733">
        <ele>803.7</ele>
        <time>2020-01-09T08:43:00Z</time>
      </trkpt>
      <trkpt lat="46.68079" lon="5.9773">
        <ele>803.5</ele>
        <time>2020-01-09T08:43:06Z</time>
      </trkpt>
      <trkpt lat="46.68084" lon="5.97728">
        <ele>803.4</ele>
        <time>2020-01-09T08:43:08Z</time>
      </trkpt>
      <trkpt lat="46.6809" lon="5.97724">
        <ele>803.1</ele>
        <time>2020-01-09T08:43:11Z</time>
      </trkpt>
      <trkpt lat="46.68094" lon="5.97719">
        <ele>802.8</ele>
        <time>2020-01-09T08:43:14Z</time>
      </trkpt>
      <trkpt lat="46.68099" lon="5.97714">
        <ele>802.3</ele>
        <time>2020-01-09T08:43:20Z</time>
      </trkpt>
      <trkpt lat="46.68104" lon="5.97711">
        <ele>801.9</ele>
        <time>2020-01-09T08:43:25Z</time>
      </trkpt>
      <trkpt lat="46.68108" lon="5.97708">
        <ele>801.3</ele>
        <time>2020-01-09T08:43:30Z</time>
      </trkpt>
      <trkpt lat="46.68112" lon="5.97704">
        <ele>800.4</ele>
        <time>2020-01-09T08:43:35Z</time>
      </trkpt>
      <trkpt lat="46.68116" lon="5.977">
        <ele>799.9</ele>
        <time>2020-01-09T08:43:39Z</time>
      </trkpt>
      <trkpt lat="46.68119" lon="5.97695">
        <ele>799.4</ele>
        <time>2020-01-09T08:43:45Z</time>
      </trkpt>
      <trkpt lat="46.68123" lon="5.97691">
        <ele>799.3</ele>
        <time>2020-01-09T08:43:49Z</time>
      </trkpt>
      <trkpt lat="46.68126" lon="5.97685">
        <ele>799.4</ele>
        <time>2020-01-09T08:43:53Z</time>
      </trkpt>
      <trkpt lat="46.6813" lon="5.97677">
        <ele>799.3</ele>
        <time>2020-01-09T08:43:57Z</time>
      </trkpt>
      <trkpt lat="46.68133" lon="5.9767">
        <ele>799.1</ele>
        <time>2020-01-09T08:43:59Z</time>
      </trkpt>
      <trkpt lat="46.68136" lon="5.97664">
        <ele>798.6</ele>
        <time>2020-01-09T08:44:02Z</time>
      </trkpt>
      <trkpt lat="46.68139" lon="5.97659">
        <ele>797.9</ele>
        <time>2020-01-09T08:44:06Z</time>
      </trkpt>
      <trkpt lat="46.68141" lon="5.97652">
        <ele>797.2</ele>
        <time>2020-01-09T08:44:10Z</time>
      </trkpt>
      <trkpt lat="46.68143" lon="5.97645">
        <ele>796.6</ele>
        <time>2020-01-09T08:44:15Z</time>
      </trkpt>
      <trkpt lat="46.68147" lon="5.97639">
        <ele>796.2</ele>
        <time>2020-01-09T08:44:20Z</time>
      </trkpt>
      <trkpt lat="46.68151" lon="5.97634">
        <ele>796</ele>
        <time>2020-01-09T08:44:23Z</time>
      </trkpt>
      <trkpt lat="46.68155" lon="5.9763">
        <ele>796.1</ele>
        <time>2020-01-09T08:44:28Z</time>
      </trkpt>
      <trkpt lat="46.6816" lon="5.97627">
        <ele>796.2</ele>
        <time>2020-01-09T08:44:34Z</time>
      </trkpt>
      <trkpt lat="46.68164" lon="5.97622">
        <ele>796</ele>
        <time>2020-01-09T08:44:41Z</time>
      </trkpt>
      <trkpt lat="46.68166" lon="5.97616">
        <ele>795.6</ele>
        <time>2020-01-09T08:44:46Z</time>
      </trkpt>
      <trkpt lat="46.68169" lon="5.97609">
        <ele>795.1</ele>
        <time>2020-01-09T08:44:51Z</time>
      </trkpt>
      <trkpt lat="46.68173" lon="5.97604">
        <ele>794.9</ele>
        <time>2020-01-09T08:44:55Z</time>
      </trkpt>
      <trkpt lat="46.68176" lon="5.976">
        <ele>795</ele>
        <time>2020-01-09T08:44:58Z</time>
      </trkpt>
      <trkpt lat="46.6818" lon="5.97596">
        <ele>795.6</ele>
        <time>2020-01-09T08:45:02Z</time>
      </trkpt>
      <trkpt lat="46.68184" lon="5.97593">
        <ele>796.4</ele>
        <time>2020-01-09T08:45:07Z</time>
      </trkpt>
      <trkpt lat="46.68189" lon="5.97591">
        <ele>796.9</ele>
        <time>2020-01-09T08:45:11Z</time>
      </trkpt>
      <trkpt lat="46.68194" lon="5.97589">
        <ele>797.3</ele>
        <time>2020-01-09T08:45:15Z</time>
      </trkpt>
      <trkpt lat="46.682" lon="5.9759">
        <ele>797.7</ele>
        <time>2020-01-09T08:45:20Z</time>
      </trkpt>
      <trkpt lat="46.68205" lon="5.97591">
        <ele>797.6</ele>
        <time>2020-01-09T08:45:23Z</time>
      </trkpt>
      <trkpt lat="46.68209" lon="5.97593">
        <ele>797.7</ele>
        <time>2020-01-09T08:45:27Z</time>
      </trkpt>
      <trkpt lat="46.68214" lon="5.97594">
        <ele>797.7</ele>
        <time>2020-01-09T08:45:30Z</time>
      </trkpt>
      <trkpt lat="46.68219" lon="5.97596">
        <ele>797.7</ele>
        <time>2020-01-09T08:45:32Z</time>
      </trkpt>
      <trkpt lat="46.68223" lon="5.97599">
        <ele>797.7</ele>
        <time>2020-01-09T08:45:34Z</time>
      </trkpt>
      <trkpt lat="46.68227" lon="5.97602">
        <ele>797.5</ele>
        <time>2020-01-09T08:45:38Z</time>
      </trkpt>
      <trkpt lat="46.68233" lon="5.97604">
        <ele>797.1</ele>
        <time>2020-01-09T08:45:43Z</time>
      </trkpt>
      <trkpt lat="46.68237" lon="5.97606">
        <ele>796.8</ele>
        <time>2020-01-09T08:45:46Z</time>
      </trkpt>
      <trkpt lat="46.68242" lon="5.97609">
        <ele>796.5</ele>
        <time>2020-01-09T08:45:50Z</time>
      </trkpt>
      <trkpt lat="46.68247" lon="5.97613">
        <ele>795.9</ele>
        <time>2020-01-09T08:45:55Z</time>
      </trkpt>
      <trkpt lat="46.68251" lon="5.97617">
        <ele>795.5</ele>
        <time>2020-01-09T08:46:00Z</time>
      </trkpt>
      <trkpt lat="46.68255" lon="5.9762">
        <ele>795.3</ele>
        <time>2020-01-09T08:46:04Z</time>
      </trkpt>
      <trkpt lat="46.68259" lon="5.97624">
        <ele>795.5</ele>
        <time>2020-01-09T08:46:09Z</time>
      </trkpt>
      <trkpt lat="46.68264" lon="5.97627">
        <ele>795.9</ele>
        <time>2020-01-09T08:46:14Z</time>
      </trkpt>
      <trkpt lat="46.6827" lon="5.97626">
        <ele>796.1</ele>
        <time>2020-01-09T08:46:18Z</time>
      </trkpt>
      <trkpt lat="46.68274" lon="5.97622">
        <ele>795.9</ele>
        <time>2020-01-09T08:46:22Z</time>
      </trkpt>
      <trkpt lat="46.68276" lon="5.97615">
        <ele>795.6</ele>
        <time>2020-01-09T08:46:28Z</time>
      </trkpt>
      <trkpt lat="46.68278" lon="5.97608">
        <ele>795.6</ele>
        <time>2020-01-09T08:46:33Z</time>
      </trkpt>
      <trkpt lat="46.68281" lon="5.97602">
        <ele>795.7</ele>
        <time>2020-01-09T08:46:37Z</time>
      </trkpt>
      <trkpt lat="46.68284" lon="5.97594">
        <ele>795.7</ele>
        <time>2020-01-09T08:46:41Z</time>
      </trkpt>
      <trkpt lat="46.68284" lon="5.97587">
        <ele>796</ele>
        <time>2020-01-09T08:46:45Z</time>
      </trkpt>
      <trkpt lat="46.68286" lon="5.9758">
        <ele>796.2</ele>
        <time>2020-01-09T08:46:51Z</time>
      </trkpt>
      <trkpt lat="46.68288" lon="5.97573">
        <ele>796</ele>
        <time>2020-01-09T08:46:55Z</time>
      </trkpt>
      <trkpt lat="46.68291" lon="5.97567">
        <ele>795.7</ele>
        <time>2020-01-09T08:46:59Z</time>
      </trkpt>
      <trkpt lat="46.68291" lon="5.9756">
        <ele>795.4</ele>
        <time>2020-01-09T08:47:03Z</time>
      </trkpt>
      <trkpt lat="46.68292" lon="5.97553">
        <ele>794.9</ele>
        <time>2020-01-09T08:47:07Z</time>
      </trkpt>
      <trkpt lat="46.68295" lon="5.97547">
        <ele>794.2</ele>
        <time>2020-01-09T08:47:11Z</time>
      </trkpt>
      <trkpt lat="46.68297" lon="5.9754">
        <ele>793.7</ele>
        <time>2020-01-09T08:47:15Z</time>
      </trkpt>
      <trkpt lat="46.683" lon="5.97535">
        <ele>793</ele>
        <time>2020-01-09T08:47:20Z</time>
      </trkpt>
      <trkpt lat="46.68302" lon="5.97528">
        <ele>792.8</ele>
        <time>2020-01-09T08:47:26Z</time>
      </trkpt>
      <trkpt lat="46.68306" lon="5.97522">
        <ele>792.9</ele>
        <time>2020-01-09T08:47:30Z</time>
      </trkpt>
      <trkpt lat="46.68309" lon="5.97517">
        <ele>793.1</ele>
        <time>2020-01-09T08:47:34Z</time>
      </trkpt>
      <trkpt lat="46.68312" lon="5.97511">
        <ele>793.4</ele>
        <time>2020-01-09T08:47:38Z</time>
      </trkpt>
      <trkpt lat="46.68314" lon="5.97505">
        <ele>793.7</ele>
        <time>2020-01-09T08:47:42Z</time>
      </trkpt>
      <trkpt lat="46.68317" lon="5.97499">
        <ele>794.1</ele>
        <time>2020-01-09T08:47:47Z</time>
      </trkpt>
      <trkpt lat="46.68321" lon="5.97495">
        <ele>794.7</ele>
        <time>2020-01-09T08:47:51Z</time>
      </trkpt>
      <trkpt lat="46.68325" lon="5.97492">
        <ele>795</ele>
        <time>2020-01-09T08:47:54Z</time>
      </trkpt>
      <trkpt lat="46.6833" lon="5.97489">
        <ele>795.5</ele>
        <time>2020-01-09T08:47:58Z</time>
      </trkpt>
      <trkpt lat="46.68334" lon="5.97486">
        <ele>796.1</ele>
        <time>2020-01-09T08:48:02Z</time>
      </trkpt>
      <trkpt lat="46.68339" lon="5.97483">
        <ele>797</ele>
        <time>2020-01-09T08:48:08Z</time>
      </trkpt>
      <trkpt lat="46.68342" lon="5.97476">
        <ele>797.6</ele>
        <time>2020-01-09T08:48:12Z</time>
      </trkpt>
      <trkpt lat="46.68346" lon="5.97472">
        <ele>798</ele>
        <time>2020-01-09T08:48:16Z</time>
      </trkpt>
      <trkpt lat="46.68349" lon="5.97467">
        <ele>798.7</ele>
        <time>2020-01-09T08:48:23Z</time>
      </trkpt>
      <trkpt lat="46.68353" lon="5.97462">
        <ele>799.6</ele>
        <time>2020-01-09T08:48:29Z</time>
      </trkpt>
      <trkpt lat="46.68357" lon="5.97459">
        <ele>800.4</ele>
        <time>2020-01-09T08:48:33Z</time>
      </trkpt>
      <trkpt lat="46.68362" lon="5.97455">
        <ele>801</ele>
        <time>2020-01-09T08:48:36Z</time>
      </trkpt>
      <trkpt lat="46.68367" lon="5.97451">
        <ele>801.5</ele>
        <time>2020-01-09T08:48:40Z</time>
      </trkpt>
      <trkpt lat="46.68371" lon="5.97447">
        <ele>801.7</ele>
        <time>2020-01-09T08:48:44Z</time>
      </trkpt>
      <trkpt lat="46.68375" lon="5.97444">
        <ele>801.8</ele>
        <time>2020-01-09T08:48:48Z</time>
      </trkpt>
      <trkpt lat="46.68379" lon="5.97443">
        <ele>801.8</ele>
        <time>2020-01-09T08:48:52Z</time>
      </trkpt>
      <trkpt lat="46.68383" lon="5.97438">
        <ele>801.8</ele>
        <time>2020-01-09T08:48:56Z</time>
      </trkpt>
      <trkpt lat="46.68386" lon="5.97433">
        <ele>801.8</ele>
        <time>2020-01-09T08:49:00Z</time>
      </trkpt>
      <trkpt lat="46.68391" lon="5.97429">
        <ele>801.7</ele>
        <time>2020-01-09T08:49:05Z</time>
      </trkpt>
      <trkpt lat="46.68395" lon="5.97424">
        <ele>802</ele>
        <time>2020-01-09T08:49:11Z</time>
      </trkpt>
      <trkpt lat="46.68399" lon="5.9742">
        <ele>802.5</ele>
        <time>2020-01-09T08:49:16Z</time>
      </trkpt>
      <trkpt lat="46.68404" lon="5.97417">
        <ele>803.3</ele>
        <time>2020-01-09T08:49:21Z</time>
      </trkpt>
      <trkpt lat="46.68408" lon="5.97413">
        <ele>803.9</ele>
        <time>2020-01-09T08:49:24Z</time>
      </trkpt>
      <trkpt lat="46.68412" lon="5.9741">
        <ele>804.7</ele>
        <time>2020-01-09T08:49:28Z</time>
      </trkpt>
      <trkpt lat="46.68417" lon="5.97407">
        <ele>805</ele>
        <time>2020-01-09T08:49:32Z</time>
      </trkpt>
      <trkpt lat="46.68421" lon="5.97403">
        <ele>805</ele>
        <time>2020-01-09T08:49:37Z</time>
      </trkpt>
      <trkpt lat="46.68426" lon="5.97398">
        <ele>804.9</ele>
        <time>2020-01-09T08:49:42Z</time>
      </trkpt>
      <trkpt lat="46.6843" lon="5.97395">
        <ele>805</ele>
        <time>2020-01-09T08:49:49Z</time>
      </trkpt>
      <trkpt lat="46.68435" lon="5.97392">
        <ele>805.1</ele>
        <time>2020-01-09T08:49:53Z</time>
      </trkpt>
      <trkpt lat="46.6844" lon="5.97389">
        <ele>805.1</ele>
        <time>2020-01-09T08:49:56Z</time>
      </trkpt>
      <trkpt lat="46.68444" lon="5.97385">
        <ele>805.3</ele>
        <time>2020-01-09T08:50:01Z</time>
      </trkpt>
      <trkpt lat="46.68448" lon="5.9738">
        <ele>805.8</ele>
        <time>2020-01-09T08:50:06Z</time>
      </trkpt>
      <trkpt lat="46.68452" lon="5.97377">
        <ele>806.5</ele>
        <time>2020-01-09T08:50:12Z</time>
      </trkpt>
      <trkpt lat="46.68456" lon="5.97373">
        <ele>807</ele>
        <time>2020-01-09T08:50:16Z</time>
      </trkpt>
      <trkpt lat="46.6846" lon="5.97368">
        <ele>807.5</ele>
        <time>2020-01-09T08:50:21Z</time>
      </trkpt>
      <trkpt lat="46.68464" lon="5.97365">
        <ele>807.9</ele>
        <time>2020-01-09T08:50:24Z</time>
      </trkpt>
      <trkpt lat="46.68469" lon="5.97362">
        <ele>808.2</ele>
        <time>2020-01-09T08:50:27Z</time>
      </trkpt>
      <trkpt lat="46.68472" lon="5.97357">
        <ele>808.6</ele>
        <time>2020-01-09T08:50:31Z</time>
      </trkpt>
      <trkpt lat="46.68477" lon="5.97353">
        <ele>808.7</ele>
        <time>2020-01-09T08:50:36Z</time>
      </trkpt>
      <trkpt lat="46.68481" lon="5.97349">
        <ele>808.4</ele>
        <time>2020-01-09T08:50:41Z</time>
      </trkpt>
      <trkpt lat="46.68487" lon="5.97346">
        <ele>808.1</ele>
        <time>2020-01-09T08:50:46Z</time>
      </trkpt>
      <trkpt lat="46.68491" lon="5.97342">
        <ele>807.9</ele>
        <time>2020-01-09T08:50:51Z</time>
      </trkpt>
      <trkpt lat="46.68496" lon="5.97338">
        <ele>807.7</ele>
        <time>2020-01-09T08:50:57Z</time>
      </trkpt>
      <trkpt lat="46.685" lon="5.97335">
        <ele>807.9</ele>
        <time>2020-01-09T08:51:02Z</time>
      </trkpt>
      <trkpt lat="46.68504" lon="5.9733">
        <ele>808.2</ele>
        <time>2020-01-09T08:51:06Z</time>
      </trkpt>
      <trkpt lat="46.68508" lon="5.97324">
        <ele>808.4</ele>
        <time>2020-01-09T08:51:10Z</time>
      </trkpt>
      <trkpt lat="46.68511" lon="5.9732">
        <ele>808.6</ele>
        <time>2020-01-09T08:51:13Z</time>
      </trkpt>
      <trkpt lat="46.68516" lon="5.97317">
        <ele>809.1</ele>
        <time>2020-01-09T08:51:19Z</time>
      </trkpt>
      <trkpt lat="46.6852" lon="5.97312">
        <ele>809.7</ele>
        <time>2020-01-09T08:51:25Z</time>
      </trkpt>
      <trkpt lat="46.68524" lon="5.97306">
        <ele>810.2</ele>
        <time>2020-01-09T08:51:31Z</time>
      </trkpt>
      <trkpt lat="46.68529" lon="5.97304">
        <ele>810.4</ele>
        <time>2020-01-09T08:51:36Z</time>
      </trkpt>
      <trkpt lat="46.68533" lon="5.973">
        <ele>810.8</ele>
        <time>2020-01-09T08:51:40Z</time>
      </trkpt>
      <trkpt lat="46.68536" lon="5.97295">
        <ele>811.4</ele>
        <time>2020-01-09T08:51:46Z</time>
      </trkpt>
      <trkpt lat="46.6854" lon="5.9729">
        <ele>811.6</ele>
        <time>2020-01-09T08:51:51Z</time>
      </trkpt>
      <trkpt lat="46.68544" lon="5.97286">
        <ele>811.7</ele>
        <time>2020-01-09T08:51:55Z</time>
      </trkpt>
      <trkpt lat="46.68549" lon="5.97282">
        <ele>811.9</ele>
        <time>2020-01-09T08:51:59Z</time>
      </trkpt>
      <trkpt lat="46.68553" lon="5.97276">
        <ele>812.2</ele>
        <time>2020-01-09T08:52:03Z</time>
      </trkpt>
      <trkpt lat="46.68557" lon="5.9727">
        <ele>812.7</ele>
        <time>2020-01-09T08:52:08Z</time>
      </trkpt>
      <trkpt lat="46.68562" lon="5.97266">
        <ele>813.2</ele>
        <time>2020-01-09T08:52:12Z</time>
      </trkpt>
      <trkpt lat="46.68565" lon="5.97261">
        <ele>813.9</ele>
        <time>2020-01-09T08:52:17Z</time>
      </trkpt>
      <trkpt lat="46.68569" lon="5.97256">
        <ele>814.4</ele>
        <time>2020-01-09T08:52:21Z</time>
      </trkpt>
      <trkpt lat="46.68572" lon="5.97251">
        <ele>815</ele>
        <time>2020-01-09T08:52:25Z</time>
      </trkpt>
      <trkpt lat="46.68576" lon="5.97247">
        <ele>815.7</ele>
        <time>2020-01-09T08:52:32Z</time>
      </trkpt>
      <trkpt lat="46.6858" lon="5.97243">
        <ele>816.2</ele>
        <time>2020-01-09T08:52:37Z</time>
      </trkpt>
      <trkpt lat="46.68584" lon="5.97239">
        <ele>816.4</ele>
        <time>2020-01-09T08:52:40Z</time>
      </trkpt>
      <trkpt lat="46.68588" lon="5.97234">
        <ele>816.6</ele>
        <time>2020-01-09T08:52:44Z</time>
      </trkpt>
      <trkpt lat="46.68593" lon="5.9723">
        <ele>816.9</ele>
        <time>2020-01-09T08:52:49Z</time>
      </trkpt>
      <trkpt lat="46.68598" lon="5.97226">
        <ele>817.1</ele>
        <time>2020-01-09T08:52:53Z</time>
      </trkpt>
      <trkpt lat="46.68602" lon="5.97222">
        <ele>817.5</ele>
        <time>2020-01-09T08:52:58Z</time>
      </trkpt>
      <trkpt lat="46.68605" lon="5.97216">
        <ele>817.8</ele>
        <time>2020-01-09T08:53:03Z</time>
      </trkpt>
      <trkpt lat="46.68608" lon="5.97211">
        <ele>818.2</ele>
        <time>2020-01-09T08:53:07Z</time>
      </trkpt>
      <trkpt lat="46.68612" lon="5.97206">
        <ele>818.5</ele>
        <time>2020-01-09T08:53:12Z</time>
      </trkpt>
      <trkpt lat="46.68617" lon="5.97204">
        <ele>818.7</ele>
        <time>2020-01-09T08:53:15Z</time>
      </trkpt>
      <trkpt lat="46.68622" lon="5.97199">
        <ele>818.8</ele>
        <time>2020-01-09T08:53:19Z</time>
      </trkpt>
      <trkpt lat="46.68625" lon="5.97194">
        <ele>818.9</ele>
        <time>2020-01-09T08:53:23Z</time>
      </trkpt>
      <trkpt lat="46.68629" lon="5.9719">
        <ele>819.3</ele>
        <time>2020-01-09T08:53:29Z</time>
      </trkpt>
      <trkpt lat="46.68633" lon="5.97185">
        <ele>819.7</ele>
        <time>2020-01-09T08:53:33Z</time>
      </trkpt>
      <trkpt lat="46.68636" lon="5.97181">
        <ele>819.9</ele>
        <time>2020-01-09T08:53:38Z</time>
      </trkpt>
      <trkpt lat="46.68641" lon="5.97176">
        <ele>820</ele>
        <time>2020-01-09T08:53:43Z</time>
      </trkpt>
      <trkpt lat="46.68645" lon="5.97172">
        <ele>819.9</ele>
        <time>2020-01-09T08:53:47Z</time>
      </trkpt>
      <trkpt lat="46.68649" lon="5.97168">
        <ele>819.8</ele>
        <time>2020-01-09T08:53:51Z</time>
      </trkpt>
      <trkpt lat="46.68653" lon="5.97164">
        <ele>819.8</ele>
        <time>2020-01-09T08:53:56Z</time>
      </trkpt>
      <trkpt lat="46.68656" lon="5.97158">
        <ele>819.6</ele>
        <time>2020-01-09T08:54:00Z</time>
      </trkpt>
      <trkpt lat="46.6866" lon="5.97153">
        <ele>819.5</ele>
        <time>2020-01-09T08:54:06Z</time>
      </trkpt>
      <trkpt lat="46.68663" lon="5.97147">
        <ele>819.4</ele>
        <time>2020-01-09T08:54:12Z</time>
      </trkpt>
      <trkpt lat="46.68665" lon="5.97141">
        <ele>819.4</ele>
        <time>2020-01-09T08:54:15Z</time>
      </trkpt>
      <trkpt lat="46.68667" lon="5.97134">
        <ele>819.4</ele>
        <time>2020-01-09T08:54:18Z</time>
      </trkpt>
      <trkpt lat="46.68669" lon="5.97126">
        <ele>819.5</ele>
        <time>2020-01-09T08:54:22Z</time>
      </trkpt>
      <trkpt lat="46.68671" lon="5.9712">
        <ele>819.5</ele>
        <time>2020-01-09T08:54:26Z</time>
      </trkpt>
      <trkpt lat="46.68674" lon="5.97115">
        <ele>819.5</ele>
        <time>2020-01-09T08:54:31Z</time>
      </trkpt>
      <trkpt lat="46.68676" lon="5.97109">
        <ele>819.2</ele>
        <time>2020-01-09T08:54:36Z</time>
      </trkpt>
      <trkpt lat="46.68679" lon="5.97102">
        <ele>818.6</ele>
        <time>2020-01-09T08:54:41Z</time>
      </trkpt>
      <trkpt lat="46.68683" lon="5.97096">
        <ele>818.1</ele>
        <time>2020-01-09T08:54:45Z</time>
      </trkpt>
      <trkpt lat="46.68687" lon="5.97092">
        <ele>817.6</ele>
        <time>2020-01-09T08:54:49Z</time>
      </trkpt>
      <trkpt lat="46.6869" lon="5.97086">
        <ele>816.8</ele>
        <time>2020-01-09T08:54:55Z</time>
      </trkpt>
      <trkpt lat="46.68693" lon="5.97081">
        <ele>815.8</ele>
        <time>2020-01-09T08:55:03Z</time>
      </trkpt>
      <trkpt lat="46.68697" lon="5.97077">
        <ele>815.2</ele>
        <time>2020-01-09T08:55:07Z</time>
      </trkpt>
      <trkpt lat="46.68702" lon="5.97072">
        <ele>814.8</ele>
        <time>2020-01-09T08:55:10Z</time>
      </trkpt>
      <trkpt lat="46.68706" lon="5.97066">
        <ele>814.3</ele>
        <time>2020-01-09T08:55:14Z</time>
      </trkpt>
      <trkpt lat="46.68709" lon="5.9706">
        <ele>814</ele>
        <time>2020-01-09T08:55:18Z</time>
      </trkpt>
      <trkpt lat="46.68712" lon="5.97054">
        <ele>813.8</ele>
        <time>2020-01-09T08:55:22Z</time>
      </trkpt>
      <trkpt lat="46.68716" lon="5.97048">
        <ele>813.8</ele>
        <time>2020-01-09T08:55:26Z</time>
      </trkpt>
      <trkpt lat="46.6872" lon="5.97044">
        <ele>813.9</ele>
        <time>2020-01-09T08:55:30Z</time>
      </trkpt>
      <trkpt lat="46.68724" lon="5.9704">
        <ele>814.1</ele>
        <time>2020-01-09T08:55:35Z</time>
      </trkpt>
      <trkpt lat="46.68727" lon="5.97033">
        <ele>814.3</ele>
        <time>2020-01-09T08:55:40Z</time>
      </trkpt>
      <trkpt lat="46.68729" lon="5.97026">
        <ele>814.4</ele>
        <time>2020-01-09T08:55:44Z</time>
      </trkpt>
      <trkpt lat="46.68732" lon="5.97021">
        <ele>814.3</ele>
        <time>2020-01-09T08:55:49Z</time>
      </trkpt>
      <trkpt lat="46.68734" lon="5.97014">
        <ele>814.1</ele>
        <time>2020-01-09T08:55:55Z</time>
      </trkpt>
      <trkpt lat="46.68738" lon="5.97009">
        <ele>814.1</ele>
        <time>2020-01-09T08:56:00Z</time>
      </trkpt>
      <trkpt lat="46.68741" lon="5.97004">
        <ele>814</ele>
        <time>2020-01-09T08:56:05Z</time>
      </trkpt>
      <trkpt lat="46.68743" lon="5.96997">
        <ele>813.9</ele>
        <time>2020-01-09T08:56:10Z</time>
      </trkpt>
      <trkpt lat="46.68746" lon="5.96992">
        <ele>813.7</ele>
        <time>2020-01-09T08:56:14Z</time>
      </trkpt>
      <trkpt lat="46.6875" lon="5.96986">
        <ele>813.5</ele>
        <time>2020-01-09T08:56:19Z</time>
      </trkpt>
      <trkpt lat="46.68753" lon="5.96981">
        <ele>813.6</ele>
        <time>2020-01-09T08:56:23Z</time>
      </trkpt>
      <trkpt lat="46.68756" lon="5.96976">
        <ele>813.7</ele>
        <time>2020-01-09T08:56:26Z</time>
      </trkpt>
      <trkpt lat="46.6876" lon="5.96972">
        <ele>813.9</ele>
        <time>2020-01-09T08:56:30Z</time>
      </trkpt>
      <trkpt lat="46.68765" lon="5.96967">
        <ele>813.9</ele>
        <time>2020-01-09T08:56:35Z</time>
      </trkpt>
      <trkpt lat="46.68768" lon="5.96962">
        <ele>813.8</ele>
        <time>2020-01-09T08:56:39Z</time>
      </trkpt>
      <trkpt lat="46.68772" lon="5.96959">
        <ele>813.7</ele>
        <time>2020-01-09T08:56:43Z</time>
      </trkpt>
      <trkpt lat="46.68776" lon="5.96954">
        <ele>813.4</ele>
        <time>2020-01-09T08:56:49Z</time>
      </trkpt>
      <trkpt lat="46.6878" lon="5.96948">
        <ele>812.9</ele>
        <time>2020-01-09T08:56:55Z</time>
      </trkpt>
      <trkpt lat="46.68783" lon="5.96942">
        <ele>812.5</ele>
        <time>2020-01-09T08:57:01Z</time>
      </trkpt>
      <trkpt lat="46.68787" lon="5.96937">
        <ele>812.2</ele>
        <time>2020-01-09T08:57:06Z</time>
      </trkpt>
      <trkpt lat="46.68793" lon="5.96934">
        <ele>812.2</ele>
        <time>2020-01-09T08:57:10Z</time>
      </trkpt>
      <trkpt lat="46.68796" lon="5.96929">
        <ele>812.1</ele>
        <time>2020-01-09T08:57:14Z</time>
      </trkpt>
      <trkpt lat="46.688" lon="5.96924">
        <ele>811.8</ele>
        <time>2020-01-09T08:57:20Z</time>
      </trkpt>
      <trkpt lat="46.68803" lon="5.96917">
        <ele>811.4</ele>
        <time>2020-01-09T08:57:24Z</time>
      </trkpt>
      <trkpt lat="46.68805" lon="5.96911">
        <ele>810.7</ele>
        <time>2020-01-09T08:57:28Z</time>
      </trkpt>
      <trkpt lat="46.68808" lon="5.96906">
        <ele>809.6</ele>
        <time>2020-01-09T08:57:34Z</time>
      </trkpt>
      <trkpt lat="46.68811" lon="5.96901">
        <ele>808.4</ele>
        <time>2020-01-09T08:57:39Z</time>
      </trkpt>
      <trkpt lat="46.68815" lon="5.96897">
        <ele>807.4</ele>
        <time>2020-01-09T08:57:43Z</time>
      </trkpt>
      <trkpt lat="46.68819" lon="5.96893">
        <ele>806.6</ele>
        <time>2020-01-09T08:57:47Z</time>
      </trkpt>
      <trkpt lat="46.68824" lon="5.9689">
        <ele>806.1</ele>
        <time>2020-01-09T08:57:50Z</time>
      </trkpt>
      <trkpt lat="46.68828" lon="5.96887">
        <ele>805.5</ele>
        <time>2020-01-09T08:57:54Z</time>
      </trkpt>
      <trkpt lat="46.68833" lon="5.96885">
        <ele>804.9</ele>
        <time>2020-01-09T08:57:58Z</time>
      </trkpt>
      <trkpt lat="46.68838" lon="5.96883">
        <ele>804.3</ele>
        <time>2020-01-09T08:58:02Z</time>
      </trkpt>
      <trkpt lat="46.68842" lon="5.96882">
        <ele>803.8</ele>
        <time>2020-01-09T08:58:06Z</time>
      </trkpt>
      <trkpt lat="46.68847" lon="5.9688">
        <ele>803.1</ele>
        <time>2020-01-09T08:58:11Z</time>
      </trkpt>
      <trkpt lat="46.68852" lon="5.96879">
        <ele>802.6</ele>
        <time>2020-01-09T08:58:15Z</time>
      </trkpt>
      <trkpt lat="46.68857" lon="5.96879">
        <ele>802.1</ele>
        <time>2020-01-09T08:58:19Z</time>
      </trkpt>
      <trkpt lat="46.68862" lon="5.96879">
        <ele>801.6</ele>
        <time>2020-01-09T08:58:24Z</time>
      </trkpt>
      <trkpt lat="46.68867" lon="5.96879">
        <ele>801.1</ele>
        <time>2020-01-09T08:58:29Z</time>
      </trkpt>
      <trkpt lat="46.68872" lon="5.9688">
        <ele>800.5</ele>
        <time>2020-01-09T08:58:35Z</time>
      </trkpt>
      <trkpt lat="46.68877" lon="5.96878">
        <ele>799.9</ele>
        <time>2020-01-09T08:58:41Z</time>
      </trkpt>
      <trkpt lat="46.68881" lon="5.96876">
        <ele>799.4</ele>
        <time>2020-01-09T08:58:45Z</time>
      </trkpt>
      <trkpt lat="46.68886" lon="5.96875">
        <ele>799</ele>
        <time>2020-01-09T08:58:49Z</time>
      </trkpt>
      <trkpt lat="46.68892" lon="5.96875">
        <ele>798.7</ele>
        <time>2020-01-09T08:58:53Z</time>
      </trkpt>
      <trkpt lat="46.68897" lon="5.96874">
        <ele>798.4</ele>
        <time>2020-01-09T08:58:57Z</time>
      </trkpt>
      <trkpt lat="46.68901" lon="5.96872">
        <ele>798.1</ele>
        <time>2020-01-09T08:59:03Z</time>
      </trkpt>
      <trkpt lat="46.68906" lon="5.96871">
        <ele>798.2</ele>
        <time>2020-01-09T08:59:09Z</time>
      </trkpt>
      <trkpt lat="46.68911" lon="5.96869">
        <ele>798.5</ele>
        <time>2020-01-09T08:59:13Z</time>
      </trkpt>
      <trkpt lat="46.68916" lon="5.9687">
        <ele>798.7</ele>
        <time>2020-01-09T08:59:16Z</time>
      </trkpt>
      <trkpt lat="46.6892" lon="5.96871">
        <ele>798.9</ele>
        <time>2020-01-09T08:59:21Z</time>
      </trkpt>
      <trkpt lat="46.68925" lon="5.96873">
        <ele>798.8</ele>
        <time>2020-01-09T08:59:27Z</time>
      </trkpt>
      <trkpt lat="46.68929" lon="5.96875">
        <ele>798.5</ele>
        <time>2020-01-09T08:59:32Z</time>
      </trkpt>
      <trkpt lat="46.68934" lon="5.96875">
        <ele>797.9</ele>
        <time>2020-01-09T08:59:37Z</time>
      </trkpt>
      <trkpt lat="46.68939" lon="5.96876">
        <ele>797.2</ele>
        <time>2020-01-09T08:59:42Z</time>
      </trkpt>
      <trkpt lat="46.68944" lon="5.96877">
        <ele>796.7</ele>
        <time>2020-01-09T08:59:46Z</time>
      </trkpt>
      <trkpt lat="46.68949" lon="5.96879">
        <ele>796.2</ele>
        <time>2020-01-09T08:59:50Z</time>
      </trkpt>
      <trkpt lat="46.68955" lon="5.9688">
        <ele>795.7</ele>
        <time>2020-01-09T08:59:54Z</time>
      </trkpt>
      <trkpt lat="46.6896" lon="5.96881">
        <ele>795.3</ele>
        <time>2020-01-09T08:59:58Z</time>
      </trkpt>
      <trkpt lat="46.68965" lon="5.96882">
        <ele>795</ele>
        <time>2020-01-09T09:00:02Z</time>
      </trkpt>
      <trkpt lat="46.6897" lon="5.96883">
        <ele>794.8</ele>
        <time>2020-01-09T09:00:05Z</time>
      </trkpt>
      <trkpt lat="46.68975" lon="5.96886">
        <ele>794.6</ele>
        <time>2020-01-09T09:00:09Z</time>
      </trkpt>
      <trkpt lat="46.68979" lon="5.96889">
        <ele>794.5</ele>
        <time>2020-01-09T09:00:13Z</time>
      </trkpt>
      <trkpt lat="46.68984" lon="5.96891">
        <ele>794.2</ele>
        <time>2020-01-09T09:00:18Z</time>
      </trkpt>
      <trkpt lat="46.68989" lon="5.96892">
        <ele>794</ele>
        <time>2020-01-09T09:00:24Z</time>
      </trkpt>
      <trkpt lat="46.68993" lon="5.96893">
        <ele>793.9</ele>
        <time>2020-01-09T09:00:28Z</time>
      </trkpt>
      <trkpt lat="46.68998" lon="5.96894">
        <ele>793.9</ele>
        <time>2020-01-09T09:00:33Z</time>
      </trkpt>
      <trkpt lat="46.69004" lon="5.96894">
        <ele>793.9</ele>
        <time>2020-01-09T09:00:38Z</time>
      </trkpt>
      <trkpt lat="46.69008" lon="5.96892">
        <ele>793.8</ele>
        <time>2020-01-09T09:00:42Z</time>
      </trkpt>
      <trkpt lat="46.69013" lon="5.96891">
        <ele>793.6</ele>
        <time>2020-01-09T09:00:46Z</time>
      </trkpt>
      <trkpt lat="46.69017" lon="5.9689">
        <ele>793.4</ele>
        <time>2020-01-09T09:00:50Z</time>
      </trkpt>
      <trkpt lat="46.69021" lon="5.96887">
        <ele>792.9</ele>
        <time>2020-01-09T09:00:55Z</time>
      </trkpt>
      <trkpt lat="46.69026" lon="5.96884">
        <ele>792.6</ele>
        <time>2020-01-09T09:00:59Z</time>
      </trkpt>
      <trkpt lat="46.69031" lon="5.96881">
        <ele>792.4</ele>
        <time>2020-01-09T09:01:03Z</time>
      </trkpt>
      <trkpt lat="46.69036" lon="5.96877">
        <ele>792.4</ele>
        <time>2020-01-09T09:01:09Z</time>
      </trkpt>
      <trkpt lat="46.69041" lon="5.96874">
        <ele>792.2</ele>
        <time>2020-01-09T09:01:14Z</time>
      </trkpt>
      <trkpt lat="46.69045" lon="5.96871">
        <ele>792</ele>
        <time>2020-01-09T09:01:18Z</time>
      </trkpt>
      <trkpt lat="46.69049" lon="5.96868">
        <ele>791.7</ele>
        <time>2020-01-09T09:01:23Z</time>
      </trkpt>
      <trkpt lat="46.69055" lon="5.96865">
        <ele>791.3</ele>
        <time>2020-01-09T09:01:27Z</time>
      </trkpt>
      <trkpt lat="46.69059" lon="5.96863">
        <ele>791</ele>
        <time>2020-01-09T09:01:30Z</time>
      </trkpt>
      <trkpt lat="46.69064" lon="5.9686">
        <ele>790.4</ele>
        <time>2020-01-09T09:01:35Z</time>
      </trkpt>
      <trkpt lat="46.69069" lon="5.96858">
        <ele>789.4</ele>
        <time>2020-01-09T09:01:41Z</time>
      </trkpt>
      <trkpt lat="46.69074" lon="5.96857">
        <ele>788.8</ele>
        <time>2020-01-09T09:01:45Z</time>
      </trkpt>
      <trkpt lat="46.69079" lon="5.96855">
        <ele>788.2</ele>
        <time>2020-01-09T09:01:49Z</time>
      </trkpt>
      <trkpt lat="46.69084" lon="5.96854">
        <ele>787.6</ele>
        <time>2020-01-09T09:01:53Z</time>
      </trkpt>
      <trkpt lat="46.69088" lon="5.96853">
        <ele>786.8</ele>
        <time>2020-01-09T09:01:57Z</time>
      </trkpt>
      <trkpt lat="46.69093" lon="5.96853">
        <ele>785.9</ele>
        <time>2020-01-09T09:02:02Z</time>
      </trkpt>
      <trkpt lat="46.69098" lon="5.96853">
        <ele>784.7</ele>
        <time>2020-01-09T09:02:07Z</time>
      </trkpt>
      <trkpt lat="46.69102" lon="5.96855">
        <ele>783.8</ele>
        <time>2020-01-09T09:02:11Z</time>
      </trkpt>
      <trkpt lat="46.69107" lon="5.96857">
        <ele>782.9</ele>
        <time>2020-01-09T09:02:15Z</time>
      </trkpt>
      <trkpt lat="46.69112" lon="5.9686">
        <ele>781.2</ele>
        <time>2020-01-09T09:02:21Z</time>
      </trkpt>
      <trkpt lat="46.69116" lon="5.96862">
        <ele>779.7</ele>
        <time>2020-01-09T09:02:27Z</time>
      </trkpt>
      <trkpt lat="46.69121" lon="5.96865">
        <ele>778.8</ele>
        <time>2020-01-09T09:02:34Z</time>
      </trkpt>
      <trkpt lat="46.69125" lon="5.96867">
        <ele>778.2</ele>
        <time>2020-01-09T09:02:39Z</time>
      </trkpt>
      <trkpt lat="46.6913" lon="5.96869">
        <ele>777.8</ele>
        <time>2020-01-09T09:02:44Z</time>
      </trkpt>
      <trkpt lat="46.69136" lon="5.96871">
        <ele>777.3</ele>
        <time>2020-01-09T09:02:49Z</time>
      </trkpt>
      <trkpt lat="46.69141" lon="5.96874">
        <ele>777</ele>
        <time>2020-01-09T09:02:52Z</time>
      </trkpt>
      <trkpt lat="46.69146" lon="5.96877">
        <ele>776.6</ele>
        <time>2020-01-09T09:02:55Z</time>
      </trkpt>
      <trkpt lat="46.6915" lon="5.9688">
        <ele>776.1</ele>
        <time>2020-01-09T09:02:59Z</time>
      </trkpt>
      <trkpt lat="46.69155" lon="5.96882">
        <ele>775.5</ele>
        <time>2020-01-09T09:03:04Z</time>
      </trkpt>
      <trkpt lat="46.69159" lon="5.96885">
        <ele>774.9</ele>
        <time>2020-01-09T09:03:08Z</time>
      </trkpt>
      <trkpt lat="46.69164" lon="5.96889">
        <ele>774.5</ele>
        <time>2020-01-09T09:03:12Z</time>
      </trkpt>
      <trkpt lat="46.69169" lon="5.96892">
        <ele>774</ele>
        <time>2020-01-09T09:03:16Z</time>
      </trkpt>
      <trkpt lat="46.69173" lon="5.96895">
        <ele>773.8</ele>
        <time>2020-01-09T09:03:20Z</time>
      </trkpt>
      <trkpt lat="46.69178" lon="5.96898">
        <ele>773.9</ele>
        <time>2020-01-09T09:03:25Z</time>
      </trkpt>
      <trkpt lat="46.69184" lon="5.96901">
        <ele>774</ele>
        <time>2020-01-09T09:03:30Z</time>
      </trkpt>
      <trkpt lat="46.69188" lon="5.96906">
        <ele>773.9</ele>
        <time>2020-01-09T09:03:34Z</time>
      </trkpt>
      <trkpt lat="46.69192" lon="5.9691">
        <ele>773.8</ele>
        <time>2020-01-09T09:03:38Z</time>
      </trkpt>
      <trkpt lat="46.69197" lon="5.96913">
        <ele>773.9</ele>
        <time>2020-01-09T09:03:44Z</time>
      </trkpt>
      <trkpt lat="46.69202" lon="5.96915">
        <ele>774.1</ele>
        <time>2020-01-09T09:03:49Z</time>
      </trkpt>
      <trkpt lat="46.69207" lon="5.96921">
        <ele>774.2</ele>
        <time>2020-01-09T09:03:54Z</time>
      </trkpt>
      <trkpt lat="46.69212" lon="5.96925">
        <ele>774.1</ele>
        <time>2020-01-09T09:03:58Z</time>
      </trkpt>
      <trkpt lat="46.69216" lon="5.96929">
        <ele>773.9</ele>
        <time>2020-01-09T09:04:01Z</time>
      </trkpt>
      <trkpt lat="46.6922" lon="5.96934">
        <ele>773.5</ele>
        <time>2020-01-09T09:04:06Z</time>
      </trkpt>
      <trkpt lat="46.69224" lon="5.96937">
        <ele>772.7</ele>
        <time>2020-01-09T09:04:10Z</time>
      </trkpt>
      <trkpt lat="46.69227" lon="5.96942">
        <ele>772</ele>
        <time>2020-01-09T09:04:14Z</time>
      </trkpt>
      <trkpt lat="46.69232" lon="5.96944">
        <ele>771.4</ele>
        <time>2020-01-09T09:04:18Z</time>
      </trkpt>
      <trkpt lat="46.69237" lon="5.96947">
        <ele>770.7</ele>
        <time>2020-01-09T09:04:24Z</time>
      </trkpt>
      <trkpt lat="46.69241" lon="5.9695">
        <ele>770.2</ele>
        <time>2020-01-09T09:04:28Z</time>
      </trkpt>
      <trkpt lat="46.69246" lon="5.96952">
        <ele>769.5</ele>
        <time>2020-01-09T09:04:33Z</time>
      </trkpt>
      <trkpt lat="46.69251" lon="5.96955">
        <ele>769</ele>
        <time>2020-01-09T09:04:37Z</time>
      </trkpt>
      <trkpt lat="46.69255" lon="5.96958">
        <ele>768.7</ele>
        <time>2020-01-09T09:04:40Z</time>
      </trkpt>
      <trkpt lat="46.69261" lon="5.96961">
        <ele>768.4</ele>
        <time>2020-01-09T09:04:44Z</time>
      </trkpt>
      <trkpt lat="46.69264" lon="5.96966">
        <ele>768.2</ele>
        <time>2020-01-09T09:04:48Z</time>
      </trkpt>
      <trkpt lat="46.69268" lon="5.96972">
        <ele>767.7</ele>
        <time>2020-01-09T09:04:54Z</time>
      </trkpt>
      <trkpt lat="46.69272" lon="5.96976">
        <ele>767.3</ele>
        <time>2020-01-09T09:04:59Z</time>
      </trkpt>
      <trkpt lat="46.69276" lon="5.9698">
        <ele>767.1</ele>
        <time>2020-01-09T09:05:03Z</time>
      </trkpt>
      <trkpt lat="46.6928" lon="5.96984">
        <ele>767</ele>
        <time>2020-01-09T09:05:06Z</time>
      </trkpt>
      <trkpt lat="46.69285" lon="5.96988">
        <ele>766.9</ele>
        <time>2020-01-09T09:05:11Z</time>
      </trkpt>
      <trkpt lat="46.69289" lon="5.96992">
        <ele>766.9</ele>
        <time>2020-01-09T09:05:16Z</time>
      </trkpt>
      <trkpt lat="46.69293" lon="5.96997">
        <ele>766.8</ele>
        <time>2020-01-09T09:05:20Z</time>
      </trkpt>
      <trkpt lat="46.69296" lon="5.97002">
        <ele>766.6</ele>
        <time>2020-01-09T09:05:24Z</time>
      </trkpt>
      <trkpt lat="46.693" lon="5.97007">
        <ele>766.5</ele>
        <time>2020-01-09T09:05:28Z</time>
      </trkpt>
      <trkpt lat="46.69303" lon="5.97013">
        <ele>766.3</ele>
        <time>2020-01-09T09:05:33Z</time>
      </trkpt>
      <trkpt lat="46.69308" lon="5.97019">
        <ele>766.1</ele>
        <time>2020-01-09T09:05:39Z</time>
      </trkpt>
      <trkpt lat="46.6931" lon="5.97025">
        <ele>766.2</ele>
        <time>2020-01-09T09:05:44Z</time>
      </trkpt>
      <trkpt lat="46.69311" lon="5.97032">
        <ele>766.5</ele>
        <time>2020-01-09T09:05:49Z</time>
      </trkpt>
      <trkpt lat="46.69318" lon="5.97051">
        <ele>766</ele>
        <time>2020-01-09T09:06:00Z</time>
      </trkpt>
      <trkpt lat="46.6932" lon="5.97057">
        <ele>765.5</ele>
        <time>2020-01-09T09:06:03Z</time>
      </trkpt>
      <trkpt lat="46.69323" lon="5.97064">
        <ele>764.9</ele>
        <time>2020-01-09T09:06:08Z</time>
      </trkpt>
      <trkpt lat="46.69325" lon="5.97071">
        <ele>764.5</ele>
        <time>2020-01-09T09:06:11Z</time>
      </trkpt>
      <trkpt lat="46.69327" lon="5.97078">
        <ele>764</ele>
        <time>2020-01-09T09:06:15Z</time>
      </trkpt>
      <trkpt lat="46.69329" lon="5.97085">
        <ele>763.4</ele>
        <time>2020-01-09T09:06:21Z</time>
      </trkpt>
      <trkpt lat="46.69338" lon="5.97087">
        <ele>762.3</ele>
        <time>2020-01-09T09:06:41Z</time>
      </trkpt>
      <trkpt lat="46.6934" lon="5.97081">
        <ele>762.7</ele>
        <time>2020-01-09T09:06:49Z</time>
      </trkpt>
      <trkpt lat="46.69345" lon="5.97078">
        <ele>764.2</ele>
        <time>2020-01-09T09:07:02Z</time>
      </trkpt>
      <trkpt lat="46.69352" lon="5.9708">
        <ele>765.3</ele>
        <time>2020-01-09T09:07:15Z</time>
      </trkpt>
      <trkpt lat="46.69357" lon="5.97081">
        <ele>765.5</ele>
        <time>2020-01-09T09:07:20Z</time>
      </trkpt>
      <trkpt lat="46.69368" lon="5.97085">
        <ele>764.3</ele>
        <time>2020-01-09T09:07:37Z</time>
      </trkpt>
      <trkpt lat="46.69372" lon="5.97088">
        <ele>764.5</ele>
        <time>2020-01-09T09:07:41Z</time>
      </trkpt>
      <trkpt lat="46.69376" lon="5.97091">
        <ele>764.5</ele>
        <time>2020-01-09T09:07:46Z</time>
      </trkpt>
      <trkpt lat="46.69381" lon="5.97092">
        <ele>764.5</ele>
        <time>2020-01-09T09:07:51Z</time>
      </trkpt>
      <trkpt lat="46.69386" lon="5.97092">
        <ele>764.4</ele>
        <time>2020-01-09T09:07:57Z</time>
      </trkpt>
      <trkpt lat="46.69391" lon="5.97095">
        <ele>763.5</ele>
        <time>2020-01-09T09:08:06Z</time>
      </trkpt>
      <trkpt lat="46.69395" lon="5.97099">
        <ele>762.7</ele>
        <time>2020-01-09T09:08:14Z</time>
      </trkpt>
      <trkpt lat="46.694" lon="5.97101">
        <ele>762.1</ele>
        <time>2020-01-09T09:08:19Z</time>
      </trkpt>
      <trkpt lat="46.69405" lon="5.97102">
        <ele>761.1</ele>
        <time>2020-01-09T09:08:26Z</time>
      </trkpt>
      <trkpt lat="46.69409" lon="5.97103">
        <ele>760.2</ele>
        <time>2020-01-09T09:08:31Z</time>
      </trkpt>
      <trkpt lat="46.69414" lon="5.97105">
        <ele>759.2</ele>
        <time>2020-01-09T09:08:36Z</time>
      </trkpt>
      <trkpt lat="46.69418" lon="5.97108">
        <ele>757.6</ele>
        <time>2020-01-09T09:08:42Z</time>
      </trkpt>
      <trkpt lat="46.69423" lon="5.97109">
        <ele>756.2</ele>
        <time>2020-01-09T09:08:48Z</time>
      </trkpt>
      <trkpt lat="46.69428" lon="5.97108">
        <ele>755.2</ele>
        <time>2020-01-09T09:08:53Z</time>
      </trkpt>
      <trkpt lat="46.69433" lon="5.97105">
        <ele>754.7</ele>
        <time>2020-01-09T09:08:56Z</time>
      </trkpt>
      <trkpt lat="46.69437" lon="5.97101">
        <ele>753.9</ele>
        <time>2020-01-09T09:09:01Z</time>
      </trkpt>
      <trkpt lat="46.69441" lon="5.97097">
        <ele>753.1</ele>
        <time>2020-01-09T09:09:07Z</time>
      </trkpt>
      <trkpt lat="46.69444" lon="5.97093">
        <ele>752.5</ele>
        <time>2020-01-09T09:09:13Z</time>
      </trkpt>
      <trkpt lat="46.69447" lon="5.97085">
        <ele>751.1</ele>
        <time>2020-01-09T09:09:21Z</time>
      </trkpt>
      <trkpt lat="46.6945" lon="5.97079">
        <ele>749.3</ele>
        <time>2020-01-09T09:09:30Z</time>
      </trkpt>
      <trkpt lat="46.69457" lon="5.97064">
        <ele>746.5</ele>
        <time>2020-01-09T09:09:47Z</time>
      </trkpt>
      <trkpt lat="46.69462" lon="5.97057">
        <ele>746.4</ele>
        <time>2020-01-09T09:09:52Z</time>
      </trkpt>
      <trkpt lat="46.69466" lon="5.97053">
        <ele>746.4</ele>
        <time>2020-01-09T09:09:54Z</time>
      </trkpt>
      <trkpt lat="46.69471" lon="5.97049">
        <ele>746.3</ele>
        <time>2020-01-09T09:09:58Z</time>
      </trkpt>
      <trkpt lat="46.69473" lon="5.97043">
        <ele>746.2</ele>
        <time>2020-01-09T09:10:01Z</time>
      </trkpt>
      <trkpt lat="46.69476" lon="5.97037">
        <ele>746.1</ele>
        <time>2020-01-09T09:10:05Z</time>
      </trkpt>
      <trkpt lat="46.69481" lon="5.97032">
        <ele>746.1</ele>
        <time>2020-01-09T09:10:08Z</time>
      </trkpt>
      <trkpt lat="46.69484" lon="5.97028">
        <ele>746</ele>
        <time>2020-01-09T09:10:11Z</time>
      </trkpt>
      <trkpt lat="46.69488" lon="5.97024">
        <ele>745.8</ele>
        <time>2020-01-09T09:10:16Z</time>
      </trkpt>
      <trkpt lat="46.69492" lon="5.97021">
        <ele>745.7</ele>
        <time>2020-01-09T09:10:21Z</time>
      </trkpt>
      <trkpt lat="46.69497" lon="5.97017">
        <ele>745.4</ele>
        <time>2020-01-09T09:10:27Z</time>
      </trkpt>
      <trkpt lat="46.69502" lon="5.97013">
        <ele>745.1</ele>
        <time>2020-01-09T09:10:33Z</time>
      </trkpt>
      <trkpt lat="46.69506" lon="5.97009">
        <ele>744.6</ele>
        <time>2020-01-09T09:10:39Z</time>
      </trkpt>
      <trkpt lat="46.6951" lon="5.97006">
        <ele>744.1</ele>
        <time>2020-01-09T09:10:43Z</time>
      </trkpt>
      <trkpt lat="46.69515" lon="5.97003">
        <ele>744</ele>
        <time>2020-01-09T09:10:48Z</time>
      </trkpt>
      <trkpt lat="46.69519" lon="5.97001">
        <ele>744.8</ele>
        <time>2020-01-09T09:10:56Z</time>
      </trkpt>
      <trkpt lat="46.69524" lon="5.96999">
        <ele>746.3</ele>
        <time>2020-01-09T09:11:05Z</time>
      </trkpt>
      <trkpt lat="46.69529" lon="5.96999">
        <ele>747.2</ele>
        <time>2020-01-09T09:11:11Z</time>
      </trkpt>
      <trkpt lat="46.69535" lon="5.96998">
        <ele>747.9</ele>
        <time>2020-01-09T09:11:15Z</time>
      </trkpt>
      <trkpt lat="46.69539" lon="5.96996">
        <ele>748.4</ele>
        <time>2020-01-09T09:11:19Z</time>
      </trkpt>
      <trkpt lat="46.69544" lon="5.96995">
        <ele>748.7</ele>
        <time>2020-01-09T09:11:24Z</time>
      </trkpt>
      <trkpt lat="46.6955" lon="5.96993">
        <ele>748.6</ele>
        <time>2020-01-09T09:11:29Z</time>
      </trkpt>
      <trkpt lat="46.69555" lon="5.96991">
        <ele>748.4</ele>
        <time>2020-01-09T09:11:34Z</time>
      </trkpt>
      <trkpt lat="46.6956" lon="5.9699">
        <ele>748.2</ele>
        <time>2020-01-09T09:11:38Z</time>
      </trkpt>
      <trkpt lat="46.69565" lon="5.96989">
        <ele>748.3</ele>
        <time>2020-01-09T09:11:45Z</time>
      </trkpt>
      <trkpt lat="46.6957" lon="5.96988">
        <ele>748.2</ele>
        <time>2020-01-09T09:11:52Z</time>
      </trkpt>
      <trkpt lat="46.69575" lon="5.96988">
        <ele>747.8</ele>
        <time>2020-01-09T09:12:00Z</time>
      </trkpt>
      <trkpt lat="46.69579" lon="5.96989">
        <ele>747.4</ele>
        <time>2020-01-09T09:12:06Z</time>
      </trkpt>
      <trkpt lat="46.69584" lon="5.96989">
        <ele>747.2</ele>
        <time>2020-01-09T09:12:13Z</time>
      </trkpt>
      <trkpt lat="46.69589" lon="5.96988">
        <ele>746.9</ele>
        <time>2020-01-09T09:12:19Z</time>
      </trkpt>
      <trkpt lat="46.69593" lon="5.96986">
        <ele>746.6</ele>
        <time>2020-01-09T09:12:23Z</time>
      </trkpt>
      <trkpt lat="46.69597" lon="5.96983">
        <ele>746.3</ele>
        <time>2020-01-09T09:12:26Z</time>
      </trkpt>
      <trkpt lat="46.69601" lon="5.9698">
        <ele>745.8</ele>
        <time>2020-01-09T09:12:30Z</time>
      </trkpt>
      <trkpt lat="46.69607" lon="5.96978">
        <ele>745.2</ele>
        <time>2020-01-09T09:12:35Z</time>
      </trkpt>
      <trkpt lat="46.69612" lon="5.96977">
        <ele>744.6</ele>
        <time>2020-01-09T09:12:39Z</time>
      </trkpt>
      <trkpt lat="46.69618" lon="5.96978">
        <ele>744.4</ele>
        <time>2020-01-09T09:12:43Z</time>
      </trkpt>
      <trkpt lat="46.69623" lon="5.96981">
        <ele>744.4</ele>
        <time>2020-01-09T09:12:47Z</time>
      </trkpt>
      <trkpt lat="46.69628" lon="5.96985">
        <ele>744.6</ele>
        <time>2020-01-09T09:12:54Z</time>
      </trkpt>
      <trkpt lat="46.69633" lon="5.96984">
        <ele>744.9</ele>
        <time>2020-01-09T09:12:59Z</time>
      </trkpt>
      <trkpt lat="46.69638" lon="5.96984">
        <ele>745.2</ele>
        <time>2020-01-09T09:13:04Z</time>
      </trkpt>
      <trkpt lat="46.69643" lon="5.96986">
        <ele>745.5</ele>
        <time>2020-01-09T09:13:09Z</time>
      </trkpt>
      <trkpt lat="46.69648" lon="5.96987">
        <ele>745.6</ele>
        <time>2020-01-09T09:13:12Z</time>
      </trkpt>
      <trkpt lat="46.69654" lon="5.96988">
        <ele>745.6</ele>
        <time>2020-01-09T09:13:15Z</time>
      </trkpt>
      <trkpt lat="46.69659" lon="5.9699">
        <ele>745.5</ele>
        <time>2020-01-09T09:13:18Z</time>
      </trkpt>
      <trkpt lat="46.69665" lon="5.96993">
        <ele>745.5</ele>
        <time>2020-01-09T09:13:22Z</time>
      </trkpt>
      <trkpt lat="46.69669" lon="5.96996">
        <ele>745.4</ele>
        <time>2020-01-09T09:13:26Z</time>
      </trkpt>
      <trkpt lat="46.69674" lon="5.96999">
        <ele>745.3</ele>
        <time>2020-01-09T09:13:31Z</time>
      </trkpt>
      <trkpt lat="46.69678" lon="5.97002">
        <ele>745.3</ele>
        <time>2020-01-09T09:13:35Z</time>
      </trkpt>
      <trkpt lat="46.69683" lon="5.97005">
        <ele>745.4</ele>
        <time>2020-01-09T09:13:39Z</time>
      </trkpt>
      <trkpt lat="46.69688" lon="5.97007">
        <ele>745.6</ele>
        <time>2020-01-09T09:13:47Z</time>
      </trkpt>
      <trkpt lat="46.69693" lon="5.97007">
        <ele>745.9</ele>
        <time>2020-01-09T09:13:52Z</time>
      </trkpt>
      <trkpt lat="46.69696" lon="5.97012">
        <ele>746.4</ele>
        <time>2020-01-09T09:13:59Z</time>
      </trkpt>
      <trkpt lat="46.69693" lon="5.97019">
        <ele>754.6</ele>
        <time>2020-01-09T09:14:49Z</time>
      </trkpt>
      <trkpt lat="46.69699" lon="5.97019">
        <ele>754.6</ele>
        <time>2020-01-09T09:14:53Z</time>
      </trkpt>
      <trkpt lat="46.69704" lon="5.97019">
        <ele>754.6</ele>
        <time>2020-01-09T09:14:57Z</time>
      </trkpt>
      <trkpt lat="46.69709" lon="5.9702">
        <ele>754.6</ele>
        <time>2020-01-09T09:15:00Z</time>
      </trkpt>
      <trkpt lat="46.69715" lon="5.9702">
        <ele>754.6</ele>
        <time>2020-01-09T09:15:04Z</time>
      </trkpt>
      <trkpt lat="46.69719" lon="5.97021">
        <ele>754.5</ele>
        <time>2020-01-09T09:15:07Z</time>
      </trkpt>
      <trkpt lat="46.69724" lon="5.97022">
        <ele>754.5</ele>
        <time>2020-01-09T09:15:10Z</time>
      </trkpt>
      <trkpt lat="46.69729" lon="5.97022">
        <ele>754.6</ele>
        <time>2020-01-09T09:15:13Z</time>
      </trkpt>
      <trkpt lat="46.69734" lon="5.97022">
        <ele>754.7</ele>
        <time>2020-01-09T09:15:16Z</time>
      </trkpt>
      <trkpt lat="46.6974" lon="5.97024">
        <ele>754.8</ele>
        <time>2020-01-09T09:15:20Z</time>
      </trkpt>
      <trkpt lat="46.69744" lon="5.97028">
        <ele>754.7</ele>
        <time>2020-01-09T09:15:24Z</time>
      </trkpt>
      <trkpt lat="46.69748" lon="5.97034">
        <ele>754.5</ele>
        <time>2020-01-09T09:15:27Z</time>
      </trkpt>
      <trkpt lat="46.69752" lon="5.9704">
        <ele>754.3</ele>
        <time>2020-01-09T09:15:30Z</time>
      </trkpt>
      <trkpt lat="46.69755" lon="5.97045">
        <ele>754</ele>
        <time>2020-01-09T09:15:33Z</time>
      </trkpt>
      <trkpt lat="46.69757" lon="5.97052">
        <ele>753.6</ele>
        <time>2020-01-09T09:15:37Z</time>
      </trkpt>
      <trkpt lat="46.69761" lon="5.97057">
        <ele>753.2</ele>
        <time>2020-01-09T09:15:41Z</time>
      </trkpt>
      <trkpt lat="46.69765" lon="5.97061">
        <ele>752.7</ele>
        <time>2020-01-09T09:15:45Z</time>
      </trkpt>
      <trkpt lat="46.6977" lon="5.97063">
        <ele>752.4</ele>
        <time>2020-01-09T09:15:48Z</time>
      </trkpt>
      <trkpt lat="46.69775" lon="5.97066">
        <ele>752.1</ele>
        <time>2020-01-09T09:15:51Z</time>
      </trkpt>
      <trkpt lat="46.6978" lon="5.97068">
        <ele>751.9</ele>
        <time>2020-01-09T09:15:54Z</time>
      </trkpt>
      <trkpt lat="46.69785" lon="5.97071">
        <ele>751.6</ele>
        <time>2020-01-09T09:15:58Z</time>
      </trkpt>
      <trkpt lat="46.6979" lon="5.97073">
        <ele>751.3</ele>
        <time>2020-01-09T09:16:02Z</time>
      </trkpt>
      <trkpt lat="46.69794" lon="5.97076">
        <ele>751.1</ele>
        <time>2020-01-09T09:16:06Z</time>
      </trkpt>
      <trkpt lat="46.69799" lon="5.9708">
        <ele>750.9</ele>
        <time>2020-01-09T09:16:10Z</time>
      </trkpt>
      <trkpt lat="46.69803" lon="5.97083">
        <ele>750.6</ele>
        <time>2020-01-09T09:16:14Z</time>
      </trkpt>
      <trkpt lat="46.69807" lon="5.97086">
        <ele>750.2</ele>
        <time>2020-01-09T09:16:18Z</time>
      </trkpt>
      <trkpt lat="46.69812" lon="5.97088">
        <ele>749.9</ele>
        <time>2020-01-09T09:16:23Z</time>
      </trkpt>
      <trkpt lat="46.69817" lon="5.9709">
        <ele>749.8</ele>
        <time>2020-01-09T09:16:27Z</time>
      </trkpt>
      <trkpt lat="46.69823" lon="5.97092">
        <ele>749.8</ele>
        <time>2020-01-09T09:16:31Z</time>
      </trkpt>
      <trkpt lat="46.69827" lon="5.97092">
        <ele>749.7</ele>
        <time>2020-01-09T09:16:36Z</time>
      </trkpt>
      <trkpt lat="46.69832" lon="5.97092">
        <ele>749.7</ele>
        <time>2020-01-09T09:16:40Z</time>
      </trkpt>
      <trkpt lat="46.69838" lon="5.97094">
        <ele>749.6</ele>
        <time>2020-01-09T09:16:44Z</time>
      </trkpt>
      <trkpt lat="46.69841" lon="5.971">
        <ele>749.4</ele>
        <time>2020-01-09T09:16:48Z</time>
      </trkpt>
      <trkpt lat="46.69844" lon="5.97106">
        <ele>749.1</ele>
        <time>2020-01-09T09:16:52Z</time>
      </trkpt>
      <trkpt lat="46.69846" lon="5.97112">
        <ele>748.7</ele>
        <time>2020-01-09T09:16:56Z</time>
      </trkpt>
      <trkpt lat="46.69849" lon="5.97118">
        <ele>748.4</ele>
        <time>2020-01-09T09:17:00Z</time>
      </trkpt>
      <trkpt lat="46.69851" lon="5.97125">
        <ele>748.1</ele>
        <time>2020-01-09T09:17:04Z</time>
      </trkpt>
      <trkpt lat="46.69854" lon="5.97131">
        <ele>748</ele>
        <time>2020-01-09T09:17:08Z</time>
      </trkpt>
      <trkpt lat="46.69857" lon="5.97137">
        <ele>748.1</ele>
        <time>2020-01-09T09:17:13Z</time>
      </trkpt>
      <trkpt lat="46.6986" lon="5.97142">
        <ele>748.3</ele>
        <time>2020-01-09T09:17:16Z</time>
      </trkpt>
      <trkpt lat="46.69862" lon="5.97148">
        <ele>748.4</ele>
        <time>2020-01-09T09:17:19Z</time>
      </trkpt>
      <trkpt lat="46.69865" lon="5.97154">
        <ele>748.6</ele>
        <time>2020-01-09T09:17:23Z</time>
      </trkpt>
      <trkpt lat="46.69868" lon="5.9716">
        <ele>748.8</ele>
        <time>2020-01-09T09:17:28Z</time>
      </trkpt>
      <trkpt lat="46.69871" lon="5.97166">
        <ele>749.1</ele>
        <time>2020-01-09T09:17:32Z</time>
      </trkpt>
      <trkpt lat="46.69874" lon="5.97171">
        <ele>749.3</ele>
        <time>2020-01-09T09:17:36Z</time>
      </trkpt>
      <trkpt lat="46.69878" lon="5.97177">
        <ele>749.5</ele>
        <time>2020-01-09T09:17:40Z</time>
      </trkpt>
      <trkpt lat="46.69881" lon="5.97182">
        <ele>749.6</ele>
        <time>2020-01-09T09:17:44Z</time>
      </trkpt>
      <trkpt lat="46.69885" lon="5.97187">
        <ele>749.7</ele>
        <time>2020-01-09T09:17:48Z</time>
      </trkpt>
      <trkpt lat="46.69889" lon="5.97192">
        <ele>749.7</ele>
        <time>2020-01-09T09:17:52Z</time>
      </trkpt>
      <trkpt lat="46.69894" lon="5.97195">
        <ele>749.5</ele>
        <time>2020-01-09T09:17:57Z</time>
      </trkpt>
      <trkpt lat="46.69898" lon="5.97197">
        <ele>749.4</ele>
        <time>2020-01-09T09:18:02Z</time>
      </trkpt>
      <trkpt lat="46.69903" lon="5.972">
        <ele>749.2</ele>
        <time>2020-01-09T09:18:09Z</time>
      </trkpt>
      <trkpt lat="46.69908" lon="5.97202">
        <ele>749.1</ele>
        <time>2020-01-09T09:18:15Z</time>
      </trkpt>
      <trkpt lat="46.69914" lon="5.97202">
        <ele>749.1</ele>
        <time>2020-01-09T09:18:19Z</time>
      </trkpt>
      <trkpt lat="46.69919" lon="5.972">
        <ele>749.1</ele>
        <time>2020-01-09T09:18:24Z</time>
      </trkpt>
      <trkpt lat="46.69924" lon="5.972">
        <ele>749.2</ele>
        <time>2020-01-09T09:18:29Z</time>
      </trkpt>
      <trkpt lat="46.6993" lon="5.97199">
        <ele>749.3</ele>
        <time>2020-01-09T09:18:35Z</time>
      </trkpt>
      <trkpt lat="46.69934" lon="5.97198">
        <ele>749.3</ele>
        <time>2020-01-09T09:18:40Z</time>
      </trkpt>
      <trkpt lat="46.69939" lon="5.97198">
        <ele>748.9</ele>
        <time>2020-01-09T09:18:45Z</time>
      </trkpt>
      <trkpt lat="46.69945" lon="5.97198">
        <ele>748.7</ele>
        <time>2020-01-09T09:18:49Z</time>
      </trkpt>
      <trkpt lat="46.6995" lon="5.97199">
        <ele>748.8</ele>
        <time>2020-01-09T09:18:53Z</time>
      </trkpt>
      <trkpt lat="46.69954" lon="5.97198">
        <ele>748.8</ele>
        <time>2020-01-09T09:18:57Z</time>
      </trkpt>
      <trkpt lat="46.6996" lon="5.97198">
        <ele>748.9</ele>
        <time>2020-01-09T09:19:01Z</time>
      </trkpt>
      <trkpt lat="46.69965" lon="5.97197">
        <ele>749.1</ele>
        <time>2020-01-09T09:19:05Z</time>
      </trkpt>
      <trkpt lat="46.69971" lon="5.97196">
        <ele>749.5</ele>
        <time>2020-01-09T09:19:10Z</time>
      </trkpt>
      <trkpt lat="46.69976" lon="5.97195">
        <ele>749.8</ele>
        <time>2020-01-09T09:19:14Z</time>
      </trkpt>
      <trkpt lat="46.69981" lon="5.97196">
        <ele>750.1</ele>
        <time>2020-01-09T09:19:17Z</time>
      </trkpt>
      <trkpt lat="46.69986" lon="5.97196">
        <ele>750.4</ele>
        <time>2020-01-09T09:19:21Z</time>
      </trkpt>
      <trkpt lat="46.6999" lon="5.97195">
        <ele>750.7</ele>
        <time>2020-01-09T09:19:25Z</time>
      </trkpt>
      <trkpt lat="46.69996" lon="5.97194">
        <ele>750.7</ele>
        <time>2020-01-09T09:19:29Z</time>
      </trkpt>
      <trkpt lat="46.7" lon="5.97193">
        <ele>750.7</ele>
        <time>2020-01-09T09:19:33Z</time>
      </trkpt>
      <trkpt lat="46.70005" lon="5.97194">
        <ele>750.8</ele>
        <time>2020-01-09T09:19:37Z</time>
      </trkpt>
      <trkpt lat="46.7001" lon="5.97194">
        <ele>750.7</ele>
        <time>2020-01-09T09:19:41Z</time>
      </trkpt>
      <trkpt lat="46.70014" lon="5.97193">
        <ele>750.7</ele>
        <time>2020-01-09T09:19:45Z</time>
      </trkpt>
      <trkpt lat="46.70019" lon="5.97193">
        <ele>750.6</ele>
        <time>2020-01-09T09:19:49Z</time>
      </trkpt>
      <trkpt lat="46.70024" lon="5.97192">
        <ele>750.6</ele>
        <time>2020-01-09T09:19:53Z</time>
      </trkpt>
      <trkpt lat="46.70029" lon="5.97192">
        <ele>750.5</ele>
        <time>2020-01-09T09:19:58Z</time>
      </trkpt>
      <trkpt lat="46.70034" lon="5.97192">
        <ele>750.4</ele>
        <time>2020-01-09T09:20:03Z</time>
      </trkpt>
      <trkpt lat="46.70039" lon="5.97192">
        <ele>750.3</ele>
        <time>2020-01-09T09:20:07Z</time>
      </trkpt>
      <trkpt lat="46.70044" lon="5.97193">
        <ele>750.2</ele>
        <time>2020-01-09T09:20:11Z</time>
      </trkpt>
      <trkpt lat="46.7005" lon="5.97195">
        <ele>749.9</ele>
        <time>2020-01-09T09:20:15Z</time>
      </trkpt>
      <trkpt lat="46.70055" lon="5.97196">
        <ele>749.6</ele>
        <time>2020-01-09T09:20:19Z</time>
      </trkpt>
      <trkpt lat="46.7006" lon="5.97199">
        <ele>749.2</ele>
        <time>2020-01-09T09:20:24Z</time>
      </trkpt>
      <trkpt lat="46.70065" lon="5.97201">
        <ele>748.8</ele>
        <time>2020-01-09T09:20:29Z</time>
      </trkpt>
      <trkpt lat="46.70069" lon="5.97204">
        <ele>748.5</ele>
        <time>2020-01-09T09:20:33Z</time>
      </trkpt>
      <trkpt lat="46.70073" lon="5.97207">
        <ele>748.2</ele>
        <time>2020-01-09T09:20:37Z</time>
      </trkpt>
      <trkpt lat="46.70078" lon="5.97209">
        <ele>747.8</ele>
        <time>2020-01-09T09:20:41Z</time>
      </trkpt>
      <trkpt lat="46.70082" lon="5.97213">
        <ele>747.3</ele>
        <time>2020-01-09T09:20:46Z</time>
      </trkpt>
      <trkpt lat="46.70086" lon="5.97217">
        <ele>747.1</ele>
        <time>2020-01-09T09:20:50Z</time>
      </trkpt>
      <trkpt lat="46.7009" lon="5.97219">
        <ele>746.8</ele>
        <time>2020-01-09T09:20:55Z</time>
      </trkpt>
      <trkpt lat="46.70095" lon="5.97223">
        <ele>746.7</ele>
        <time>2020-01-09T09:20:59Z</time>
      </trkpt>
      <trkpt lat="46.701" lon="5.97226">
        <ele>746.6</ele>
        <time>2020-01-09T09:21:03Z</time>
      </trkpt>
      <trkpt lat="46.70105" lon="5.97229">
        <ele>746.3</ele>
        <time>2020-01-09T09:21:06Z</time>
      </trkpt>
      <trkpt lat="46.7011" lon="5.97232">
        <ele>745.8</ele>
        <time>2020-01-09T09:21:10Z</time>
      </trkpt>
      <trkpt lat="46.70115" lon="5.97236">
        <ele>745.4</ele>
        <time>2020-01-09T09:21:14Z</time>
      </trkpt>
      <trkpt lat="46.70119" lon="5.97241">
        <ele>745</ele>
        <time>2020-01-09T09:21:18Z</time>
      </trkpt>
      <trkpt lat="46.70123" lon="5.97244">
        <ele>744.7</ele>
        <time>2020-01-09T09:21:22Z</time>
      </trkpt>
      <trkpt lat="46.70128" lon="5.97247">
        <ele>744.4</ele>
        <time>2020-01-09T09:21:26Z</time>
      </trkpt>
      <trkpt lat="46.70133" lon="5.9725">
        <ele>744.3</ele>
        <time>2020-01-09T09:21:31Z</time>
      </trkpt>
      <trkpt lat="46.70138" lon="5.97253">
        <ele>744.2</ele>
        <time>2020-01-09T09:21:36Z</time>
      </trkpt>
      <trkpt lat="46.70142" lon="5.97256">
        <ele>744</ele>
        <time>2020-01-09T09:21:43Z</time>
      </trkpt>
      <trkpt lat="46.70146" lon="5.97257">
        <ele>743.9</ele>
        <time>2020-01-09T09:21:48Z</time>
      </trkpt>
      <trkpt lat="46.70151" lon="5.97258">
        <ele>743.9</ele>
        <time>2020-01-09T09:21:52Z</time>
      </trkpt>
      <trkpt lat="46.70156" lon="5.9726">
        <ele>743.9</ele>
        <time>2020-01-09T09:21:57Z</time>
      </trkpt>
      <trkpt lat="46.70161" lon="5.97262">
        <ele>743.9</ele>
        <time>2020-01-09T09:22:02Z</time>
      </trkpt>
      <trkpt lat="46.70166" lon="5.97265">
        <ele>743.7</ele>
        <time>2020-01-09T09:22:06Z</time>
      </trkpt>
      <trkpt lat="46.70171" lon="5.97266">
        <ele>743.6</ele>
        <time>2020-01-09T09:22:10Z</time>
      </trkpt>
      <trkpt lat="46.70177" lon="5.97268">
        <ele>743.5</ele>
        <time>2020-01-09T09:22:15Z</time>
      </trkpt>
      <trkpt lat="46.70182" lon="5.97268">
        <ele>743.3</ele>
        <time>2020-01-09T09:22:19Z</time>
      </trkpt>
      <trkpt lat="46.70188" lon="5.97269">
        <ele>743</ele>
        <time>2020-01-09T09:22:25Z</time>
      </trkpt>
      <trkpt lat="46.70193" lon="5.97272">
        <ele>742.9</ele>
        <time>2020-01-09T09:22:29Z</time>
      </trkpt>
      <trkpt lat="46.70198" lon="5.97273">
        <ele>742.9</ele>
        <time>2020-01-09T09:22:32Z</time>
      </trkpt>
      <trkpt lat="46.70202" lon="5.97275">
        <ele>742.9</ele>
        <time>2020-01-09T09:22:37Z</time>
      </trkpt>
      <trkpt lat="46.70207" lon="5.97278">
        <ele>742.3</ele>
        <time>2020-01-09T09:22:45Z</time>
      </trkpt>
      <trkpt lat="46.70212" lon="5.9728">
        <ele>742</ele>
        <time>2020-01-09T09:22:50Z</time>
      </trkpt>
      <trkpt lat="46.70216" lon="5.97282">
        <ele>741.9</ele>
        <time>2020-01-09T09:22:55Z</time>
      </trkpt>
      <trkpt lat="46.7022" lon="5.97284">
        <ele>741.6</ele>
        <time>2020-01-09T09:23:00Z</time>
      </trkpt>
      <trkpt lat="46.70226" lon="5.97286">
        <ele>741.5</ele>
        <time>2020-01-09T09:23:05Z</time>
      </trkpt>
      <trkpt lat="46.70231" lon="5.97288">
        <ele>741.4</ele>
        <time>2020-01-09T09:23:09Z</time>
      </trkpt>
      <trkpt lat="46.70236" lon="5.9729">
        <ele>741.2</ele>
        <time>2020-01-09T09:23:13Z</time>
      </trkpt>
      <trkpt lat="46.70241" lon="5.97289">
        <ele>740.7</ele>
        <time>2020-01-09T09:23:18Z</time>
      </trkpt>
      <trkpt lat="46.70246" lon="5.97289">
        <ele>740.1</ele>
        <time>2020-01-09T09:23:22Z</time>
      </trkpt>
      <trkpt lat="46.70251" lon="5.97288">
        <ele>739.3</ele>
        <time>2020-01-09T09:23:28Z</time>
      </trkpt>
      <trkpt lat="46.70256" lon="5.97288">
        <ele>738.5</ele>
        <time>2020-01-09T09:23:33Z</time>
      </trkpt>
      <trkpt lat="46.70261" lon="5.97287">
        <ele>737.9</ele>
        <time>2020-01-09T09:23:38Z</time>
      </trkpt>
      <trkpt lat="46.70265" lon="5.97286">
        <ele>737.3</ele>
        <time>2020-01-09T09:23:43Z</time>
      </trkpt>
      <trkpt lat="46.70271" lon="5.97284">
        <ele>737.3</ele>
        <time>2020-01-09T09:23:48Z</time>
      </trkpt>
      <trkpt lat="46.70277" lon="5.97281">
        <ele>737.5</ele>
        <time>2020-01-09T09:23:54Z</time>
      </trkpt>
      <trkpt lat="46.70282" lon="5.97278">
        <ele>737.4</ele>
        <time>2020-01-09T09:23:58Z</time>
      </trkpt>
      <trkpt lat="46.70287" lon="5.97277">
        <ele>736.9</ele>
        <time>2020-01-09T09:24:03Z</time>
      </trkpt>
      <trkpt lat="46.70292" lon="5.97277">
        <ele>736.4</ele>
        <time>2020-01-09T09:24:09Z</time>
      </trkpt>
      <trkpt lat="46.70297" lon="5.97275">
        <ele>736.6</ele>
        <time>2020-01-09T09:24:18Z</time>
      </trkpt>
      <trkpt lat="46.70301" lon="5.97274">
        <ele>736.7</ele>
        <time>2020-01-09T09:24:25Z</time>
      </trkpt>
      <trkpt lat="46.70306" lon="5.97273">
        <ele>736.6</ele>
        <time>2020-01-09T09:24:30Z</time>
      </trkpt>
      <trkpt lat="46.70311" lon="5.97271">
        <ele>736</ele>
        <time>2020-01-09T09:24:36Z</time>
      </trkpt>
      <trkpt lat="46.70316" lon="5.97271">
        <ele>735.5</ele>
        <time>2020-01-09T09:24:42Z</time>
      </trkpt>
      <trkpt lat="46.70321" lon="5.97272">
        <ele>735.4</ele>
        <time>2020-01-09T09:24:47Z</time>
      </trkpt>
      <trkpt lat="46.70326" lon="5.97273">
        <ele>735.2</ele>
        <time>2020-01-09T09:24:51Z</time>
      </trkpt>
      <trkpt lat="46.70331" lon="5.97273">
        <ele>735</ele>
        <time>2020-01-09T09:24:55Z</time>
      </trkpt>
      <trkpt lat="46.70335" lon="5.97273">
        <ele>734.6</ele>
        <time>2020-01-09T09:25:00Z</time>
      </trkpt>
      <trkpt lat="46.70341" lon="5.97272">
        <ele>734.3</ele>
        <time>2020-01-09T09:25:04Z</time>
      </trkpt>
      <trkpt lat="46.70346" lon="5.97271">
        <ele>733.9</ele>
        <time>2020-01-09T09:25:09Z</time>
      </trkpt>
      <trkpt lat="46.70351" lon="5.97269">
        <ele>733.6</ele>
        <time>2020-01-09T09:25:13Z</time>
      </trkpt>
      <trkpt lat="46.70355" lon="5.97268">
        <ele>733.5</ele>
        <time>2020-01-09T09:25:17Z</time>
      </trkpt>
      <trkpt lat="46.7036" lon="5.97268">
        <ele>733.4</ele>
        <time>2020-01-09T09:25:22Z</time>
      </trkpt>
      <trkpt lat="46.70365" lon="5.97268">
        <ele>733.2</ele>
        <time>2020-01-09T09:25:28Z</time>
      </trkpt>
      <trkpt lat="46.7037" lon="5.97269">
        <ele>732.9</ele>
        <time>2020-01-09T09:25:32Z</time>
      </trkpt>
      <trkpt lat="46.70375" lon="5.97268">
        <ele>732.5</ele>
        <time>2020-01-09T09:25:37Z</time>
      </trkpt>
      <trkpt lat="46.70381" lon="5.97269">
        <ele>732.1</ele>
        <time>2020-01-09T09:25:42Z</time>
      </trkpt>
      <trkpt lat="46.70385" lon="5.97268">
        <ele>731.5</ele>
        <time>2020-01-09T09:25:49Z</time>
      </trkpt>
      <trkpt lat="46.70391" lon="5.97269">
        <ele>731</ele>
        <time>2020-01-09T09:25:54Z</time>
      </trkpt>
      <trkpt lat="46.70395" lon="5.97271">
        <ele>730.6</ele>
        <time>2020-01-09T09:25:57Z</time>
      </trkpt>
      <trkpt lat="46.70399" lon="5.97275">
        <ele>730</ele>
        <time>2020-01-09T09:26:01Z</time>
      </trkpt>
      <trkpt lat="46.704" lon="5.97282">
        <ele>727.3</ele>
        <time>2020-01-09T09:26:13Z</time>
      </trkpt>
      <trkpt lat="46.704" lon="5.97289">
        <ele>726.2</ele>
        <time>2020-01-09T09:26:18Z</time>
      </trkpt>
      <trkpt lat="46.704" lon="5.97297">
        <ele>725.6</ele>
        <time>2020-01-09T09:26:22Z</time>
      </trkpt>
      <trkpt lat="46.70402" lon="5.97304">
        <ele>725</ele>
        <time>2020-01-09T09:26:26Z</time>
      </trkpt>
      <trkpt lat="46.70404" lon="5.9731">
        <ele>724.5</ele>
        <time>2020-01-09T09:26:29Z</time>
      </trkpt>
      <trkpt lat="46.70406" lon="5.97317">
        <ele>724.1</ele>
        <time>2020-01-09T09:26:34Z</time>
      </trkpt>
      <trkpt lat="46.70409" lon="5.97324">
        <ele>724.1</ele>
        <time>2020-01-09T09:26:39Z</time>
      </trkpt>
      <trkpt lat="46.70413" lon="5.97329">
        <ele>724.1</ele>
        <time>2020-01-09T09:26:43Z</time>
      </trkpt>
      <trkpt lat="46.70416" lon="5.97333">
        <ele>724.1</ele>
        <time>2020-01-09T09:26:48Z</time>
      </trkpt>
      <trkpt lat="46.70419" lon="5.97339">
        <ele>724</ele>
        <time>2020-01-09T09:26:52Z</time>
      </trkpt>
      <trkpt lat="46.70421" lon="5.97346">
        <ele>723.7</ele>
        <time>2020-01-09T09:26:56Z</time>
      </trkpt>
      <trkpt lat="46.70424" lon="5.97351">
        <ele>723.5</ele>
        <time>2020-01-09T09:27:01Z</time>
      </trkpt>
      <trkpt lat="46.70428" lon="5.97354">
        <ele>723.2</ele>
        <time>2020-01-09T09:27:07Z</time>
      </trkpt>
      <trkpt lat="46.70433" lon="5.97357">
        <ele>722.9</ele>
        <time>2020-01-09T09:27:11Z</time>
      </trkpt>
      <trkpt lat="46.70437" lon="5.97359">
        <ele>722.6</ele>
        <time>2020-01-09T09:27:15Z</time>
      </trkpt>
      <trkpt lat="46.70442" lon="5.97362">
        <ele>722.1</ele>
        <time>2020-01-09T09:27:21Z</time>
      </trkpt>
      <trkpt lat="46.70447" lon="5.97364">
        <ele>721.4</ele>
        <time>2020-01-09T09:27:27Z</time>
      </trkpt>
      <trkpt lat="46.70451" lon="5.97365">
        <ele>721.1</ele>
        <time>2020-01-09T09:27:31Z</time>
      </trkpt>
      <trkpt lat="46.70456" lon="5.97367">
        <ele>720.6</ele>
        <time>2020-01-09T09:27:35Z</time>
      </trkpt>
      <trkpt lat="46.70461" lon="5.97369">
        <ele>719.9</ele>
        <time>2020-01-09T09:27:41Z</time>
      </trkpt>
      <trkpt lat="46.70466" lon="5.97372">
        <ele>719.6</ele>
        <time>2020-01-09T09:27:47Z</time>
      </trkpt>
      <trkpt lat="46.70471" lon="5.97374">
        <ele>719.5</ele>
        <time>2020-01-09T09:27:52Z</time>
      </trkpt>
      <trkpt lat="46.70476" lon="5.97375">
        <ele>719.4</ele>
        <time>2020-01-09T09:27:57Z</time>
      </trkpt>
      <trkpt lat="46.70481" lon="5.97377">
        <ele>719.3</ele>
        <time>2020-01-09T09:28:01Z</time>
      </trkpt>
      <trkpt lat="46.70486" lon="5.97378">
        <ele>719.1</ele>
        <time>2020-01-09T09:28:05Z</time>
      </trkpt>
      <trkpt lat="46.70492" lon="5.97379">
        <ele>719.1</ele>
        <time>2020-01-09T09:28:10Z</time>
      </trkpt>
      <trkpt lat="46.70496" lon="5.97379">
        <ele>719.3</ele>
        <time>2020-01-09T09:28:14Z</time>
      </trkpt>
      <trkpt lat="46.70502" lon="5.97381">
        <ele>719.7</ele>
        <time>2020-01-09T09:28:18Z</time>
      </trkpt>
      <trkpt lat="46.70507" lon="5.97383">
        <ele>720</ele>
        <time>2020-01-09T09:28:22Z</time>
      </trkpt>
      <trkpt lat="46.70512" lon="5.97387">
        <ele>720.1</ele>
        <time>2020-01-09T09:28:26Z</time>
      </trkpt>
      <trkpt lat="46.70515" lon="5.97391">
        <ele>720</ele>
        <time>2020-01-09T09:28:31Z</time>
      </trkpt>
      <trkpt lat="46.70519" lon="5.97397">
        <ele>720</ele>
        <time>2020-01-09T09:28:36Z</time>
      </trkpt>
      <trkpt lat="46.70523" lon="5.97403">
        <ele>720.2</ele>
        <time>2020-01-09T09:28:40Z</time>
      </trkpt>
      <trkpt lat="46.70526" lon="5.97407">
        <ele>720.4</ele>
        <time>2020-01-09T09:28:44Z</time>
      </trkpt>
      <trkpt lat="46.70529" lon="5.97413">
        <ele>720.6</ele>
        <time>2020-01-09T09:28:49Z</time>
      </trkpt>
      <trkpt lat="46.70533" lon="5.97419">
        <ele>720.7</ele>
        <time>2020-01-09T09:28:53Z</time>
      </trkpt>
      <trkpt lat="46.70537" lon="5.97423">
        <ele>720.7</ele>
        <time>2020-01-09T09:28:57Z</time>
      </trkpt>
      <trkpt lat="46.70541" lon="5.97427">
        <ele>720.7</ele>
        <time>2020-01-09T09:29:02Z</time>
      </trkpt>
      <trkpt lat="46.70546" lon="5.9743">
        <ele>720.7</ele>
        <time>2020-01-09T09:29:06Z</time>
      </trkpt>
      <trkpt lat="46.7055" lon="5.97434">
        <ele>720.9</ele>
        <time>2020-01-09T09:29:10Z</time>
      </trkpt>
      <trkpt lat="46.70553" lon="5.9744">
        <ele>721.2</ele>
        <time>2020-01-09T09:29:16Z</time>
      </trkpt>
      <trkpt lat="46.70557" lon="5.97444">
        <ele>721.2</ele>
        <time>2020-01-09T09:29:20Z</time>
      </trkpt>
      <trkpt lat="46.70561" lon="5.97448">
        <ele>721.1</ele>
        <time>2020-01-09T09:29:24Z</time>
      </trkpt>
      <trkpt lat="46.70565" lon="5.97453">
        <ele>720.8</ele>
        <time>2020-01-09T09:29:29Z</time>
      </trkpt>
      <trkpt lat="46.70569" lon="5.97457">
        <ele>720.6</ele>
        <time>2020-01-09T09:29:33Z</time>
      </trkpt>
      <trkpt lat="46.70573" lon="5.97463">
        <ele>720.4</ele>
        <time>2020-01-09T09:29:38Z</time>
      </trkpt>
      <trkpt lat="46.70577" lon="5.97467">
        <ele>720.3</ele>
        <time>2020-01-09T09:29:42Z</time>
      </trkpt>
      <trkpt lat="46.70581" lon="5.97471">
        <ele>719.6</ele>
        <time>2020-01-09T09:29:51Z</time>
      </trkpt>
      <trkpt lat="46.70585" lon="5.9747">
        <ele>719.1</ele>
        <time>2020-01-09T09:29:59Z</time>
      </trkpt>
      <trkpt lat="46.7059" lon="5.97469">
        <ele>719</ele>
        <time>2020-01-09T09:30:06Z</time>
      </trkpt>
      <trkpt lat="46.70594" lon="5.97466">
        <ele>719.5</ele>
        <time>2020-01-09T09:30:17Z</time>
      </trkpt>
      <trkpt lat="46.70598" lon="5.97461">
        <ele>719.8</ele>
        <time>2020-01-09T09:30:24Z</time>
      </trkpt>
      <trkpt lat="46.70602" lon="5.97456">
        <ele>720</ele>
        <time>2020-01-09T09:30:31Z</time>
      </trkpt>
      <trkpt lat="46.70607" lon="5.97454">
        <ele>720.2</ele>
        <time>2020-01-09T09:30:36Z</time>
      </trkpt>
      <trkpt lat="46.70612" lon="5.97453">
        <ele>720.3</ele>
        <time>2020-01-09T09:30:43Z</time>
      </trkpt>
      <trkpt lat="46.70616" lon="5.97455">
        <ele>720.2</ele>
        <time>2020-01-09T09:30:48Z</time>
      </trkpt>
      <trkpt lat="46.7062" lon="5.97458">
        <ele>719.7</ele>
        <time>2020-01-09T09:30:52Z</time>
      </trkpt>
      <trkpt lat="46.70625" lon="5.9746">
        <ele>719</ele>
        <time>2020-01-09T09:30:57Z</time>
      </trkpt>
      <trkpt lat="46.7063" lon="5.97463">
        <ele>718.5</ele>
        <time>2020-01-09T09:31:03Z</time>
      </trkpt>
      <trkpt lat="46.70634" lon="5.97467">
        <ele>718.4</ele>
        <time>2020-01-09T09:31:09Z</time>
      </trkpt>
      <trkpt lat="46.70638" lon="5.97469">
        <ele>718.4</ele>
        <time>2020-01-09T09:31:16Z</time>
      </trkpt>
      <trkpt lat="46.70642" lon="5.97474">
        <ele>718.7</ele>
        <time>2020-01-09T09:31:28Z</time>
      </trkpt>
      <trkpt lat="46.70641" lon="5.97481">
        <ele>718.8</ele>
        <time>2020-01-09T09:31:33Z</time>
      </trkpt>
      <trkpt lat="46.70641" lon="5.97488">
        <ele>718.9</ele>
        <time>2020-01-09T09:31:37Z</time>
      </trkpt>
      <trkpt lat="46.70641" lon="5.97495">
        <ele>719.1</ele>
        <time>2020-01-09T09:31:42Z</time>
      </trkpt>
      <trkpt lat="46.7064" lon="5.97503">
        <ele>719.2</ele>
        <time>2020-01-09T09:31:46Z</time>
      </trkpt>
      <trkpt lat="46.70639" lon="5.97509">
        <ele>719.6</ele>
        <time>2020-01-09T09:31:52Z</time>
      </trkpt>
      <trkpt lat="46.70638" lon="5.97516">
        <ele>720.3</ele>
        <time>2020-01-09T09:31:59Z</time>
      </trkpt>
      <trkpt lat="46.70636" lon="5.97523">
        <ele>720.9</ele>
        <time>2020-01-09T09:32:06Z</time>
      </trkpt>
      <trkpt lat="46.70632" lon="5.97526">
        <ele>721.1</ele>
        <time>2020-01-09T09:32:10Z</time>
      </trkpt>
      <trkpt lat="46.70628" lon="5.9753">
        <ele>721.4</ele>
        <time>2020-01-09T09:32:14Z</time>
      </trkpt>
      <trkpt lat="46.70624" lon="5.97535">
        <ele>722</ele>
        <time>2020-01-09T09:32:20Z</time>
      </trkpt>
      <trkpt lat="46.7062" lon="5.97535">
        <ele>722.1</ele>
        <time>2020-01-09T09:32:44Z</time>
      </trkpt>
      <trkpt lat="46.70616" lon="5.97538">
        <ele>722.5</ele>
        <time>2020-01-09T09:33:16Z</time>
      </trkpt>
      <trkpt lat="46.70613" lon="5.97544">
        <ele>722.6</ele>
        <time>2020-01-09T09:33:22Z</time>
      </trkpt>
      <trkpt lat="46.70611" lon="5.9755">
        <ele>722.9</ele>
        <time>2020-01-09T09:33:26Z</time>
      </trkpt>
      <trkpt lat="46.70608" lon="5.97555">
        <ele>723.2</ele>
        <time>2020-01-09T09:33:31Z</time>
      </trkpt>
      <trkpt lat="46.70604" lon="5.9756">
        <ele>723.6</ele>
        <time>2020-01-09T09:33:37Z</time>
      </trkpt>
      <trkpt lat="46.706" lon="5.97566">
        <ele>724.1</ele>
        <time>2020-01-09T09:33:43Z</time>
      </trkpt>
      <trkpt lat="46.70597" lon="5.9757">
        <ele>724.6</ele>
        <time>2020-01-09T09:33:48Z</time>
      </trkpt>
      <trkpt lat="46.70593" lon="5.97574">
        <ele>725.4</ele>
        <time>2020-01-09T09:33:54Z</time>
      </trkpt>
      <trkpt lat="46.70589" lon="5.97578">
        <ele>725.8</ele>
        <time>2020-01-09T09:34:00Z</time>
      </trkpt>
      <trkpt lat="46.70586" lon="5.97583">
        <ele>726</ele>
        <time>2020-01-09T09:34:06Z</time>
      </trkpt>
      <trkpt lat="46.70582" lon="5.97587">
        <ele>725.9</ele>
        <time>2020-01-09T09:34:10Z</time>
      </trkpt>
      <trkpt lat="46.70578" lon="5.97592">
        <ele>725.8</ele>
        <time>2020-01-09T09:34:15Z</time>
      </trkpt>
      <trkpt lat="46.70574" lon="5.97597">
        <ele>725.7</ele>
        <time>2020-01-09T09:34:20Z</time>
      </trkpt>
      <trkpt lat="46.70571" lon="5.97602">
        <ele>726</ele>
        <time>2020-01-09T09:34:25Z</time>
      </trkpt>
      <trkpt lat="46.70566" lon="5.97607">
        <ele>726.2</ele>
        <time>2020-01-09T09:34:32Z</time>
      </trkpt>
      <trkpt lat="46.70563" lon="5.97611">
        <ele>726.2</ele>
        <time>2020-01-09T09:34:37Z</time>
      </trkpt>
      <trkpt lat="46.7056" lon="5.97617">
        <ele>726.2</ele>
        <time>2020-01-09T09:34:42Z</time>
      </trkpt>
      <trkpt lat="46.70556" lon="5.97622">
        <ele>726.2</ele>
        <time>2020-01-09T09:34:47Z</time>
      </trkpt>
      <trkpt lat="46.70553" lon="5.97627">
        <ele>726.3</ele>
        <time>2020-01-09T09:34:52Z</time>
      </trkpt>
      <trkpt lat="46.70549" lon="5.97632">
        <ele>726.5</ele>
        <time>2020-01-09T09:34:57Z</time>
      </trkpt>
      <trkpt lat="46.70546" lon="5.97637">
        <ele>726.7</ele>
        <time>2020-01-09T09:35:01Z</time>
      </trkpt>
      <trkpt lat="46.70542" lon="5.97641">
        <ele>726.7</ele>
        <time>2020-01-09T09:35:05Z</time>
      </trkpt>
      <trkpt lat="46.70538" lon="5.97645">
        <ele>726.7</ele>
        <time>2020-01-09T09:35:10Z</time>
      </trkpt>
      <trkpt lat="46.70534" lon="5.9765">
        <ele>726.8</ele>
        <time>2020-01-09T09:35:15Z</time>
      </trkpt>
      <trkpt lat="46.7053" lon="5.97654">
        <ele>727</ele>
        <time>2020-01-09T09:35:20Z</time>
      </trkpt>
      <trkpt lat="46.70525" lon="5.97657">
        <ele>727.2</ele>
        <time>2020-01-09T09:35:25Z</time>
      </trkpt>
      <trkpt lat="46.7052" lon="5.97659">
        <ele>727.5</ele>
        <time>2020-01-09T09:35:31Z</time>
      </trkpt>
      <trkpt lat="46.70515" lon="5.97658">
        <ele>727.8</ele>
        <time>2020-01-09T09:35:36Z</time>
      </trkpt>
      <trkpt lat="46.7051" lon="5.97659">
        <ele>728.9</ele>
        <time>2020-01-09T09:35:45Z</time>
      </trkpt>
      <trkpt lat="46.70506" lon="5.97663">
        <ele>730</ele>
        <time>2020-01-09T09:35:50Z</time>
      </trkpt>
      <trkpt lat="46.70502" lon="5.97663">
        <ele>731</ele>
        <time>2020-01-09T09:35:56Z</time>
      </trkpt>
      <trkpt lat="46.70497" lon="5.97666">
        <ele>731.3</ele>
        <time>2020-01-09T09:36:01Z</time>
      </trkpt>
      <trkpt lat="46.70493" lon="5.97668">
        <ele>731.3</ele>
        <time>2020-01-09T09:36:05Z</time>
      </trkpt>
      <trkpt lat="46.70488" lon="5.97668">
        <ele>731.2</ele>
        <time>2020-01-09T09:36:10Z</time>
      </trkpt>
      <trkpt lat="46.70483" lon="5.97669">
        <ele>731.1</ele>
        <time>2020-01-09T09:36:15Z</time>
      </trkpt>
      <trkpt lat="46.70478" lon="5.97669">
        <ele>731</ele>
        <time>2020-01-09T09:36:19Z</time>
      </trkpt>
      <trkpt lat="46.70473" lon="5.97668">
        <ele>730.9</ele>
        <time>2020-01-09T09:36:24Z</time>
      </trkpt>
      <trkpt lat="46.70468" lon="5.97669">
        <ele>730.9</ele>
        <time>2020-01-09T09:36:30Z</time>
      </trkpt>
      <trkpt lat="46.70463" lon="5.97669">
        <ele>730.8</ele>
        <time>2020-01-09T09:36:36Z</time>
      </trkpt>
      <trkpt lat="46.70458" lon="5.97671">
        <ele>731.1</ele>
        <time>2020-01-09T09:36:43Z</time>
      </trkpt>
      <trkpt lat="46.70454" lon="5.97674">
        <ele>731.5</ele>
        <time>2020-01-09T09:36:48Z</time>
      </trkpt>
      <trkpt lat="46.7045" lon="5.97679">
        <ele>731.8</ele>
        <time>2020-01-09T09:36:52Z</time>
      </trkpt>
      <trkpt lat="46.70446" lon="5.97684">
        <ele>732.2</ele>
        <time>2020-01-09T09:36:56Z</time>
      </trkpt>
      <trkpt lat="46.70443" lon="5.97688">
        <ele>732.7</ele>
        <time>2020-01-09T09:37:00Z</time>
      </trkpt>
      <trkpt lat="46.70439" lon="5.97692">
        <ele>733.1</ele>
        <time>2020-01-09T09:37:04Z</time>
      </trkpt>
      <trkpt lat="46.70436" lon="5.97698">
        <ele>733.6</ele>
        <time>2020-01-09T09:37:08Z</time>
      </trkpt>
      <trkpt lat="46.70433" lon="5.97703">
        <ele>734.4</ele>
        <time>2020-01-09T09:37:14Z</time>
      </trkpt>
      <trkpt lat="46.70432" lon="5.9771">
        <ele>735.4</ele>
        <time>2020-01-09T09:37:20Z</time>
      </trkpt>
      <trkpt lat="46.7043" lon="5.97717">
        <ele>736.2</ele>
        <time>2020-01-09T09:37:25Z</time>
      </trkpt>
      <trkpt lat="46.70429" lon="5.97723">
        <ele>736.7</ele>
        <time>2020-01-09T09:37:28Z</time>
      </trkpt>
      <trkpt lat="46.70428" lon="5.9773">
        <ele>737.3</ele>
        <time>2020-01-09T09:37:31Z</time>
      </trkpt>
      <trkpt lat="46.70426" lon="5.97736">
        <ele>738</ele>
        <time>2020-01-09T09:37:35Z</time>
      </trkpt>
      <trkpt lat="46.70423" lon="5.97742">
        <ele>739</ele>
        <time>2020-01-09T09:37:40Z</time>
      </trkpt>
      <trkpt lat="46.70421" lon="5.97751">
        <ele>739.8</ele>
        <time>2020-01-09T09:37:44Z</time>
      </trkpt>
      <trkpt lat="46.70419" lon="5.97759">
        <ele>740.5</ele>
        <time>2020-01-09T09:37:47Z</time>
      </trkpt>
      <trkpt lat="46.70417" lon="5.97766">
        <ele>741.5</ele>
        <time>2020-01-09T09:37:51Z</time>
      </trkpt>
      <trkpt lat="46.70415" lon="5.97773">
        <ele>742.5</ele>
        <time>2020-01-09T09:37:55Z</time>
      </trkpt>
      <trkpt lat="46.70415" lon="5.9778">
        <ele>743.6</ele>
        <time>2020-01-09T09:38:00Z</time>
      </trkpt>
      <trkpt lat="46.70412" lon="5.97787">
        <ele>744.6</ele>
        <time>2020-01-09T09:38:05Z</time>
      </trkpt>
      <trkpt lat="46.70411" lon="5.97795">
        <ele>745.6</ele>
        <time>2020-01-09T09:38:10Z</time>
      </trkpt>
      <trkpt lat="46.70412" lon="5.97802">
        <ele>746.2</ele>
        <time>2020-01-09T09:38:14Z</time>
      </trkpt>
      <trkpt lat="46.70413" lon="5.97809">
        <ele>747</ele>
        <time>2020-01-09T09:38:20Z</time>
      </trkpt>
      <trkpt lat="46.70413" lon="5.97818">
        <ele>748</ele>
        <time>2020-01-09T09:38:27Z</time>
      </trkpt>
      <trkpt lat="46.70412" lon="5.97825">
        <ele>748.5</ele>
        <time>2020-01-09T09:38:31Z</time>
      </trkpt>
      <trkpt lat="46.70412" lon="5.97831">
        <ele>749.2</ele>
        <time>2020-01-09T09:38:36Z</time>
      </trkpt>
      <trkpt lat="46.70413" lon="5.97838">
        <ele>749.7</ele>
        <time>2020-01-09T09:38:41Z</time>
      </trkpt>
      <trkpt lat="46.70413" lon="5.97846">
        <ele>750.1</ele>
        <time>2020-01-09T09:38:46Z</time>
      </trkpt>
      <trkpt lat="46.70412" lon="5.97854">
        <ele>750.3</ele>
        <time>2020-01-09T09:38:50Z</time>
      </trkpt>
      <trkpt lat="46.70412" lon="5.97861">
        <ele>750.4</ele>
        <time>2020-01-09T09:38:54Z</time>
      </trkpt>
      <trkpt lat="46.70413" lon="5.97867">
        <ele>750.6</ele>
        <time>2020-01-09T09:38:58Z</time>
      </trkpt>
      <trkpt lat="46.70414" lon="5.97875">
        <ele>751.1</ele>
        <time>2020-01-09T09:39:03Z</time>
      </trkpt>
      <trkpt lat="46.70417" lon="5.97883">
        <ele>751.7</ele>
        <time>2020-01-09T09:39:08Z</time>
      </trkpt>
      <trkpt lat="46.70419" lon="5.9789">
        <ele>752.2</ele>
        <time>2020-01-09T09:39:13Z</time>
      </trkpt>
      <trkpt lat="46.7042" lon="5.97897">
        <ele>752.8</ele>
        <time>2020-01-09T09:39:19Z</time>
      </trkpt>
      <trkpt lat="46.70421" lon="5.97904">
        <ele>753.1</ele>
        <time>2020-01-09T09:39:25Z</time>
      </trkpt>
      <trkpt lat="46.70421" lon="5.9791">
        <ele>753.2</ele>
        <time>2020-01-09T09:39:29Z</time>
      </trkpt>
      <trkpt lat="46.70422" lon="5.97918">
        <ele>753.3</ele>
        <time>2020-01-09T09:39:33Z</time>
      </trkpt>
      <trkpt lat="46.70423" lon="5.97925">
        <ele>753.5</ele>
        <time>2020-01-09T09:39:39Z</time>
      </trkpt>
      <trkpt lat="46.70425" lon="5.97932">
        <ele>754</ele>
        <time>2020-01-09T09:39:45Z</time>
      </trkpt>
      <trkpt lat="46.70426" lon="5.9794">
        <ele>754.6</ele>
        <time>2020-01-09T09:39:50Z</time>
      </trkpt>
      <trkpt lat="46.70428" lon="5.97946">
        <ele>755</ele>
        <time>2020-01-09T09:39:55Z</time>
      </trkpt>
      <trkpt lat="46.7043" lon="5.97953">
        <ele>755.4</ele>
        <time>2020-01-09T09:40:00Z</time>
      </trkpt>
      <trkpt lat="46.70433" lon="5.97959">
        <ele>756.1</ele>
        <time>2020-01-09T09:40:07Z</time>
      </trkpt>
      <trkpt lat="46.70435" lon="5.97966">
        <ele>756.6</ele>
        <time>2020-01-09T09:40:12Z</time>
      </trkpt>
      <trkpt lat="46.70436" lon="5.97973">
        <ele>757.3</ele>
        <time>2020-01-09T09:40:17Z</time>
      </trkpt>
      <trkpt lat="46.70436" lon="5.9798">
        <ele>759</ele>
        <time>2020-01-09T09:40:29Z</time>
      </trkpt>
      <trkpt lat="46.70438" lon="5.97987">
        <ele>759.3</ele>
        <time>2020-01-09T09:40:33Z</time>
      </trkpt>
      <trkpt lat="46.7044" lon="5.97994">
        <ele>759.6</ele>
        <time>2020-01-09T09:40:38Z</time>
      </trkpt>
      <trkpt lat="46.70442" lon="5.98">
        <ele>759.9</ele>
        <time>2020-01-09T09:40:42Z</time>
      </trkpt>
      <trkpt lat="46.70444" lon="5.98007">
        <ele>760.1</ele>
        <time>2020-01-09T09:40:47Z</time>
      </trkpt>
      <trkpt lat="46.70447" lon="5.98013">
        <ele>760.4</ele>
        <time>2020-01-09T09:40:52Z</time>
      </trkpt>
      <trkpt lat="46.70448" lon="5.9802">
        <ele>760.7</ele>
        <time>2020-01-09T09:40:58Z</time>
      </trkpt>
      <trkpt lat="46.70451" lon="5.98026">
        <ele>761</ele>
        <time>2020-01-09T09:41:02Z</time>
      </trkpt>
      <trkpt lat="46.70453" lon="5.98033">
        <ele>761.2</ele>
        <time>2020-01-09T09:41:07Z</time>
      </trkpt>
      <trkpt lat="46.70456" lon="5.98039">
        <ele>761.4</ele>
        <time>2020-01-09T09:41:11Z</time>
      </trkpt>
      <trkpt lat="46.70458" lon="5.98046">
        <ele>761.7</ele>
        <time>2020-01-09T09:41:16Z</time>
      </trkpt>
      <trkpt lat="46.70459" lon="5.98052">
        <ele>762.1</ele>
        <time>2020-01-09T09:41:23Z</time>
      </trkpt>
      <trkpt lat="46.70458" lon="5.98059">
        <ele>762.5</ele>
        <time>2020-01-09T09:41:29Z</time>
      </trkpt>
      <trkpt lat="46.70457" lon="5.98066">
        <ele>762.9</ele>
        <time>2020-01-09T09:41:34Z</time>
      </trkpt>
      <trkpt lat="46.70453" lon="5.9807">
        <ele>763.1</ele>
        <time>2020-01-09T09:41:39Z</time>
      </trkpt>
      <trkpt lat="46.70447" lon="5.98071">
        <ele>763.2</ele>
        <time>2020-01-09T09:41:43Z</time>
      </trkpt>
      <trkpt lat="46.70443" lon="5.9807">
        <ele>763</ele>
        <time>2020-01-09T09:41:49Z</time>
      </trkpt>
      <trkpt lat="46.70439" lon="5.98067">
        <ele>762.3</ele>
        <time>2020-01-09T09:41:56Z</time>
      </trkpt>
      <trkpt lat="46.70434" lon="5.98066">
        <ele>761.5</ele>
        <time>2020-01-09T09:42:04Z</time>
      </trkpt>
      <trkpt lat="46.7043" lon="5.98065">
        <ele>761</ele>
        <time>2020-01-09T09:42:09Z</time>
      </trkpt>
      <trkpt lat="46.70425" lon="5.98066">
        <ele>760.8</ele>
        <time>2020-01-09T09:42:13Z</time>
      </trkpt>
      <trkpt lat="46.7042" lon="5.98068">
        <ele>761.1</ele>
        <time>2020-01-09T09:42:24Z</time>
      </trkpt>
      <trkpt lat="46.70416" lon="5.98071">
        <ele>761.5</ele>
        <time>2020-01-09T09:42:29Z</time>
      </trkpt>
      <trkpt lat="46.7041" lon="5.98071">
        <ele>761.8</ele>
        <time>2020-01-09T09:42:35Z</time>
      </trkpt>
      <trkpt lat="46.70405" lon="5.98071">
        <ele>762</ele>
        <time>2020-01-09T09:42:39Z</time>
      </trkpt>
      <trkpt lat="46.704" lon="5.98072">
        <ele>762.3</ele>
        <time>2020-01-09T09:42:43Z</time>
      </trkpt>
      <trkpt lat="46.70395" lon="5.98073">
        <ele>762.4</ele>
        <time>2020-01-09T09:42:48Z</time>
      </trkpt>
      <trkpt lat="46.70391" lon="5.98073">
        <ele>762.3</ele>
        <time>2020-01-09T09:42:53Z</time>
      </trkpt>
      <trkpt lat="46.70385" lon="5.98074">
        <ele>762.3</ele>
        <time>2020-01-09T09:42:59Z</time>
      </trkpt>
      <trkpt lat="46.70381" lon="5.98073">
        <ele>762.3</ele>
        <time>2020-01-09T09:43:03Z</time>
      </trkpt>
      <trkpt lat="46.70375" lon="5.98072">
        <ele>762.6</ele>
        <time>2020-01-09T09:43:09Z</time>
      </trkpt>
      <trkpt lat="46.70371" lon="5.98074">
        <ele>763.5</ele>
        <time>2020-01-09T09:43:16Z</time>
      </trkpt>
      <trkpt lat="46.70366" lon="5.98072">
        <ele>764.3</ele>
        <time>2020-01-09T09:43:23Z</time>
      </trkpt>
      <trkpt lat="46.70361" lon="5.98071">
        <ele>765</ele>
        <time>2020-01-09T09:43:30Z</time>
      </trkpt>
      <trkpt lat="46.70356" lon="5.98072">
        <ele>765.6</ele>
        <time>2020-01-09T09:43:36Z</time>
      </trkpt>
      <trkpt lat="46.70352" lon="5.98075">
        <ele>766.1</ele>
        <time>2020-01-09T09:43:41Z</time>
      </trkpt>
      <trkpt lat="46.70347" lon="5.98076">
        <ele>766.4</ele>
        <time>2020-01-09T09:43:44Z</time>
      </trkpt>
      <trkpt lat="46.70342" lon="5.98076">
        <ele>766.7</ele>
        <time>2020-01-09T09:43:48Z</time>
      </trkpt>
      <trkpt lat="46.70337" lon="5.98076">
        <ele>767.2</ele>
        <time>2020-01-09T09:43:54Z</time>
      </trkpt>
      <trkpt lat="46.70332" lon="5.98076">
        <ele>768</ele>
        <time>2020-01-09T09:44:00Z</time>
      </trkpt>
      <trkpt lat="46.70327" lon="5.98078">
        <ele>768.5</ele>
        <time>2020-01-09T09:44:05Z</time>
      </trkpt>
      <trkpt lat="46.70323" lon="5.9808">
        <ele>769.4</ele>
        <time>2020-01-09T09:44:13Z</time>
      </trkpt>
      <trkpt lat="46.70318" lon="5.98083">
        <ele>770.3</ele>
        <time>2020-01-09T09:44:19Z</time>
      </trkpt>
      <trkpt lat="46.70313" lon="5.98085">
        <ele>770.8</ele>
        <time>2020-01-09T09:44:23Z</time>
      </trkpt>
      <trkpt lat="46.70309" lon="5.98087">
        <ele>771.3</ele>
        <time>2020-01-09T09:44:28Z</time>
      </trkpt>
      <trkpt lat="46.70305" lon="5.98092">
        <ele>772</ele>
        <time>2020-01-09T09:44:34Z</time>
      </trkpt>
      <trkpt lat="46.703" lon="5.98095">
        <ele>772.5</ele>
        <time>2020-01-09T09:44:38Z</time>
      </trkpt>
      <trkpt lat="46.70295" lon="5.98098">
        <ele>772.9</ele>
        <time>2020-01-09T09:44:42Z</time>
      </trkpt>
      <trkpt lat="46.70291" lon="5.98099">
        <ele>773.6</ele>
        <time>2020-01-09T09:44:48Z</time>
      </trkpt>
      <trkpt lat="46.70287" lon="5.98103">
        <ele>774.2</ele>
        <time>2020-01-09T09:45:05Z</time>
      </trkpt>
      <trkpt lat="46.70282" lon="5.98107">
        <ele>775.5</ele>
        <time>2020-01-09T09:45:17Z</time>
      </trkpt>
      <trkpt lat="46.70278" lon="5.98109">
        <ele>776.1</ele>
        <time>2020-01-09T09:45:21Z</time>
      </trkpt>
      <trkpt lat="46.70273" lon="5.98111">
        <ele>776.5</ele>
        <time>2020-01-09T09:45:25Z</time>
      </trkpt>
      <trkpt lat="46.70269" lon="5.98113">
        <ele>777.3</ele>
        <time>2020-01-09T09:45:30Z</time>
      </trkpt>
      <trkpt lat="46.70264" lon="5.98117">
        <ele>778.4</ele>
        <time>2020-01-09T09:45:36Z</time>
      </trkpt>
      <trkpt lat="46.7026" lon="5.9812">
        <ele>779</ele>
        <time>2020-01-09T09:45:40Z</time>
      </trkpt>
      <trkpt lat="46.70255" lon="5.98124">
        <ele>779.9</ele>
        <time>2020-01-09T09:45:45Z</time>
      </trkpt>
      <trkpt lat="46.7025" lon="5.98127">
        <ele>781.1</ele>
        <time>2020-01-09T09:45:51Z</time>
      </trkpt>
      <trkpt lat="46.70245" lon="5.98129">
        <ele>781.7</ele>
        <time>2020-01-09T09:45:55Z</time>
      </trkpt>
      <trkpt lat="46.7024" lon="5.98132">
        <ele>782.2</ele>
        <time>2020-01-09T09:45:59Z</time>
      </trkpt>
      <trkpt lat="46.70234" lon="5.98134">
        <ele>782.8</ele>
        <time>2020-01-09T09:46:04Z</time>
      </trkpt>
      <trkpt lat="46.7023" lon="5.98136">
        <ele>783.3</ele>
        <time>2020-01-09T09:46:09Z</time>
      </trkpt>
      <trkpt lat="46.70225" lon="5.98138">
        <ele>783.8</ele>
        <time>2020-01-09T09:46:14Z</time>
      </trkpt>
      <trkpt lat="46.7022" lon="5.98141">
        <ele>784.3</ele>
        <time>2020-01-09T09:46:19Z</time>
      </trkpt>
      <trkpt lat="46.70215" lon="5.98144">
        <ele>784.8</ele>
        <time>2020-01-09T09:46:24Z</time>
      </trkpt>
      <trkpt lat="46.70211" lon="5.98148">
        <ele>785.5</ele>
        <time>2020-01-09T09:46:30Z</time>
      </trkpt>
      <trkpt lat="46.70207" lon="5.98151">
        <ele>785.9</ele>
        <time>2020-01-09T09:46:36Z</time>
      </trkpt>
      <trkpt lat="46.70204" lon="5.98156">
        <ele>785.8</ele>
        <time>2020-01-09T09:46:42Z</time>
      </trkpt>
      <trkpt lat="46.70203" lon="5.98163">
        <ele>785.6</ele>
        <time>2020-01-09T09:46:48Z</time>
      </trkpt>
      <trkpt lat="46.70203" lon="5.9817">
        <ele>785.6</ele>
        <time>2020-01-09T09:46:52Z</time>
      </trkpt>
      <trkpt lat="46.70203" lon="5.98178">
        <ele>785.7</ele>
        <time>2020-01-09T09:46:57Z</time>
      </trkpt>
      <trkpt lat="46.70205" lon="5.98184">
        <ele>786</ele>
        <time>2020-01-09T09:47:02Z</time>
      </trkpt>
      <trkpt lat="46.70208" lon="5.9819">
        <ele>786.3</ele>
        <time>2020-01-09T09:47:06Z</time>
      </trkpt>
      <trkpt lat="46.7021" lon="5.98196">
        <ele>786.8</ele>
        <time>2020-01-09T09:47:10Z</time>
      </trkpt>
      <trkpt lat="46.7021" lon="5.98203">
        <ele>787.5</ele>
        <time>2020-01-09T09:47:14Z</time>
      </trkpt>
      <trkpt lat="46.7021" lon="5.98211">
        <ele>788.5</ele>
        <time>2020-01-09T09:47:20Z</time>
      </trkpt>
      <trkpt lat="46.70211" lon="5.98218">
        <ele>789.5</ele>
        <time>2020-01-09T09:47:26Z</time>
      </trkpt>
      <trkpt lat="46.70211" lon="5.98225">
        <ele>790.4</ele>
        <time>2020-01-09T09:47:32Z</time>
      </trkpt>
      <trkpt lat="46.70212" lon="5.98233">
        <ele>791.1</ele>
        <time>2020-01-09T09:47:37Z</time>
      </trkpt>
      <trkpt lat="46.70212" lon="5.98239">
        <ele>791.8</ele>
        <time>2020-01-09T09:47:43Z</time>
      </trkpt>
      <trkpt lat="46.70213" lon="5.98247">
        <ele>792.4</ele>
        <time>2020-01-09T09:47:49Z</time>
      </trkpt>
      <trkpt lat="46.70213" lon="5.98255">
        <ele>793</ele>
        <time>2020-01-09T09:47:54Z</time>
      </trkpt>
      <trkpt lat="46.7021" lon="5.98261">
        <ele>793.6</ele>
        <time>2020-01-09T09:48:00Z</time>
      </trkpt>
      <trkpt lat="46.70209" lon="5.98268">
        <ele>794.1</ele>
        <time>2020-01-09T09:48:06Z</time>
      </trkpt>
      <trkpt lat="46.70207" lon="5.98275">
        <ele>794.5</ele>
        <time>2020-01-09T09:48:13Z</time>
      </trkpt>
      <trkpt lat="46.70204" lon="5.98281">
        <ele>794.8</ele>
        <time>2020-01-09T09:48:19Z</time>
      </trkpt>
      <trkpt lat="46.702" lon="5.98287">
        <ele>795</ele>
        <time>2020-01-09T09:48:25Z</time>
      </trkpt>
      <trkpt lat="46.70197" lon="5.98291">
        <ele>795.3</ele>
        <time>2020-01-09T09:48:31Z</time>
      </trkpt>
      <trkpt lat="46.70194" lon="5.98297">
        <ele>795.5</ele>
        <time>2020-01-09T09:48:36Z</time>
      </trkpt>
      <trkpt lat="46.7019" lon="5.98303">
        <ele>795.7</ele>
        <time>2020-01-09T09:48:41Z</time>
      </trkpt>
      <trkpt lat="46.70187" lon="5.98308">
        <ele>795.9</ele>
        <time>2020-01-09T09:48:47Z</time>
      </trkpt>
      <trkpt lat="46.70183" lon="5.98312">
        <ele>796.2</ele>
        <time>2020-01-09T09:48:55Z</time>
      </trkpt>
      <trkpt lat="46.70178" lon="5.98315">
        <ele>796.6</ele>
        <time>2020-01-09T09:49:01Z</time>
      </trkpt>
      <trkpt lat="46.70173" lon="5.98316">
        <ele>796.6</ele>
        <time>2020-01-09T09:49:05Z</time>
      </trkpt>
      <trkpt lat="46.70169" lon="5.98318">
        <ele>796.7</ele>
        <time>2020-01-09T09:49:09Z</time>
      </trkpt>
      <trkpt lat="46.70164" lon="5.9832">
        <ele>796.9</ele>
        <time>2020-01-09T09:49:13Z</time>
      </trkpt>
      <trkpt lat="46.7016" lon="5.98324">
        <ele>797.2</ele>
        <time>2020-01-09T09:49:18Z</time>
      </trkpt>
      <trkpt lat="46.70156" lon="5.98328">
        <ele>797.3</ele>
        <time>2020-01-09T09:49:25Z</time>
      </trkpt>
      <trkpt lat="46.70151" lon="5.98331">
        <ele>797.1</ele>
        <time>2020-01-09T09:49:31Z</time>
      </trkpt>
      <trkpt lat="46.70147" lon="5.98336">
        <ele>797.1</ele>
        <time>2020-01-09T09:49:36Z</time>
      </trkpt>
      <trkpt lat="46.70143" lon="5.98341">
        <ele>797.2</ele>
        <time>2020-01-09T09:49:40Z</time>
      </trkpt>
      <trkpt lat="46.70139" lon="5.98345">
        <ele>797.4</ele>
        <time>2020-01-09T09:49:44Z</time>
      </trkpt>
      <trkpt lat="46.70134" lon="5.98348">
        <ele>797.7</ele>
        <time>2020-01-09T09:49:49Z</time>
      </trkpt>
      <trkpt lat="46.70129" lon="5.98349">
        <ele>798.4</ele>
        <time>2020-01-09T09:49:56Z</time>
      </trkpt>
      <trkpt lat="46.70125" lon="5.98352">
        <ele>799.4</ele>
        <time>2020-01-09T09:50:03Z</time>
      </trkpt>
      <trkpt lat="46.70121" lon="5.98356">
        <ele>800.4</ele>
        <time>2020-01-09T09:50:09Z</time>
      </trkpt>
      <trkpt lat="46.70118" lon="5.98361">
        <ele>801.5</ele>
        <time>2020-01-09T09:50:16Z</time>
      </trkpt>
      <trkpt lat="46.70116" lon="5.98367">
        <ele>802</ele>
        <time>2020-01-09T09:50:21Z</time>
      </trkpt>
      <trkpt lat="46.70111" lon="5.98371">
        <ele>802.6</ele>
        <time>2020-01-09T09:50:28Z</time>
      </trkpt>
      <trkpt lat="46.70108" lon="5.98378">
        <ele>803.2</ele>
        <time>2020-01-09T09:50:34Z</time>
      </trkpt>
      <trkpt lat="46.70104" lon="5.98382">
        <ele>803.5</ele>
        <time>2020-01-09T09:50:37Z</time>
      </trkpt>
      <trkpt lat="46.701" lon="5.98386">
        <ele>803.8</ele>
        <time>2020-01-09T09:50:41Z</time>
      </trkpt>
      <trkpt lat="46.70096" lon="5.98391">
        <ele>804.3</ele>
        <time>2020-01-09T09:50:45Z</time>
      </trkpt>
      <trkpt lat="46.70093" lon="5.98397">
        <ele>804.7</ele>
        <time>2020-01-09T09:50:49Z</time>
      </trkpt>
      <trkpt lat="46.70089" lon="5.98404">
        <ele>805.2</ele>
        <time>2020-01-09T09:50:53Z</time>
      </trkpt>
      <trkpt lat="46.70085" lon="5.9841">
        <ele>805.6</ele>
        <time>2020-01-09T09:50:56Z</time>
      </trkpt>
      <trkpt lat="46.70083" lon="5.98416">
        <ele>806.1</ele>
        <time>2020-01-09T09:51:00Z</time>
      </trkpt>
      <trkpt lat="46.70079" lon="5.98422">
        <ele>806.8</ele>
        <time>2020-01-09T09:51:05Z</time>
      </trkpt>
      <trkpt lat="46.70076" lon="5.98426">
        <ele>807.3</ele>
        <time>2020-01-09T09:51:09Z</time>
      </trkpt>
      <trkpt lat="46.70072" lon="5.9843">
        <ele>807.7</ele>
        <time>2020-01-09T09:51:13Z</time>
      </trkpt>
      <trkpt lat="46.70067" lon="5.98433">
        <ele>808.3</ele>
        <time>2020-01-09T09:51:19Z</time>
      </trkpt>
      <trkpt lat="46.70063" lon="5.98435">
        <ele>808.7</ele>
        <time>2020-01-09T09:51:24Z</time>
      </trkpt>
      <trkpt lat="46.70058" lon="5.98439">
        <ele>808.9</ele>
        <time>2020-01-09T09:51:28Z</time>
      </trkpt>
      <trkpt lat="46.70054" lon="5.98441">
        <ele>809.3</ele>
        <time>2020-01-09T09:51:33Z</time>
      </trkpt>
      <trkpt lat="46.70049" lon="5.98444">
        <ele>809.7</ele>
        <time>2020-01-09T09:51:40Z</time>
      </trkpt>
      <trkpt lat="46.70044" lon="5.98442">
        <ele>810.1</ele>
        <time>2020-01-09T09:51:47Z</time>
      </trkpt>
      <trkpt lat="46.7004" lon="5.9844">
        <ele>810.3</ele>
        <time>2020-01-09T09:51:53Z</time>
      </trkpt>
      <trkpt lat="46.70036" lon="5.98437">
        <ele>810.3</ele>
        <time>2020-01-09T09:52:00Z</time>
      </trkpt>
      <trkpt lat="46.7003" lon="5.98435">
        <ele>810.3</ele>
        <time>2020-01-09T09:52:06Z</time>
      </trkpt>
      <trkpt lat="46.70025" lon="5.98437">
        <ele>810.2</ele>
        <time>2020-01-09T09:52:09Z</time>
      </trkpt>
      <trkpt lat="46.70021" lon="5.98438">
        <ele>809.9</ele>
        <time>2020-01-09T09:52:14Z</time>
      </trkpt>
      <trkpt lat="46.70016" lon="5.9844">
        <ele>809.5</ele>
        <time>2020-01-09T09:52:20Z</time>
      </trkpt>
      <trkpt lat="46.70011" lon="5.98444">
        <ele>809.2</ele>
        <time>2020-01-09T09:52:24Z</time>
      </trkpt>
      <trkpt lat="46.70006" lon="5.98447">
        <ele>809.1</ele>
        <time>2020-01-09T09:52:30Z</time>
      </trkpt>
      <trkpt lat="46.70001" lon="5.98447">
        <ele>809.6</ele>
        <time>2020-01-09T09:52:38Z</time>
      </trkpt>
      <trkpt lat="46.69997" lon="5.98448">
        <ele>810</ele>
        <time>2020-01-09T09:52:43Z</time>
      </trkpt>
      <trkpt lat="46.69992" lon="5.98451">
        <ele>810.3</ele>
        <time>2020-01-09T09:52:47Z</time>
      </trkpt>
      <trkpt lat="46.69987" lon="5.98454">
        <ele>811</ele>
        <time>2020-01-09T09:52:53Z</time>
      </trkpt>
      <trkpt lat="46.69983" lon="5.98458">
        <ele>811.5</ele>
        <time>2020-01-09T09:52:58Z</time>
      </trkpt>
      <trkpt lat="46.69979" lon="5.9846">
        <ele>812.2</ele>
        <time>2020-01-09T09:53:03Z</time>
      </trkpt>
      <trkpt lat="46.69973" lon="5.98463">
        <ele>814.7</ele>
        <time>2020-01-09T09:53:14Z</time>
      </trkpt>
      <trkpt lat="46.69969" lon="5.98464">
        <ele>816.4</ele>
        <time>2020-01-09T09:53:20Z</time>
      </trkpt>
      <trkpt lat="46.69962" lon="5.98465">
        <ele>817.6</ele>
        <time>2020-01-09T09:53:26Z</time>
      </trkpt>
      <trkpt lat="46.69957" lon="5.98466">
        <ele>818</ele>
        <time>2020-01-09T09:53:28Z</time>
      </trkpt>
      <trkpt lat="46.69952" lon="5.98468">
        <ele>818.3</ele>
        <time>2020-01-09T09:53:31Z</time>
      </trkpt>
      <trkpt lat="46.69947" lon="5.98469">
        <ele>819</ele>
        <time>2020-01-09T09:53:36Z</time>
      </trkpt>
      <trkpt lat="46.69942" lon="5.9847">
        <ele>819.7</ele>
        <time>2020-01-09T09:53:40Z</time>
      </trkpt>
      <trkpt lat="46.69934" lon="5.98472">
        <ele>820.3</ele>
        <time>2020-01-09T09:53:43Z</time>
      </trkpt>
      <trkpt lat="46.69928" lon="5.98474">
        <ele>820.6</ele>
        <time>2020-01-09T09:53:45Z</time>
      </trkpt>
      <trkpt lat="46.69922" lon="5.98474">
        <ele>821.2</ele>
        <time>2020-01-09T09:53:49Z</time>
      </trkpt>
      <trkpt lat="46.69918" lon="5.98475">
        <ele>821.4</ele>
        <time>2020-01-09T09:53:53Z</time>
      </trkpt>
      <trkpt lat="46.69913" lon="5.98477">
        <ele>821.5</ele>
        <time>2020-01-09T09:53:58Z</time>
      </trkpt>
      <trkpt lat="46.69908" lon="5.98478">
        <ele>821.6</ele>
        <time>2020-01-09T09:54:03Z</time>
      </trkpt>
      <trkpt lat="46.69903" lon="5.98479">
        <ele>821.6</ele>
        <time>2020-01-09T09:54:12Z</time>
      </trkpt>
      <trkpt lat="46.69898" lon="5.98479">
        <ele>822</ele>
        <time>2020-01-09T09:54:21Z</time>
      </trkpt>
      <trkpt lat="46.69893" lon="5.98479">
        <ele>822.2</ele>
        <time>2020-01-09T09:54:25Z</time>
      </trkpt>
      <trkpt lat="46.69888" lon="5.98477">
        <ele>822.4</ele>
        <time>2020-01-09T09:54:31Z</time>
      </trkpt>
      <trkpt lat="46.69883" lon="5.98477">
        <ele>822.7</ele>
        <time>2020-01-09T09:54:37Z</time>
      </trkpt>
      <trkpt lat="46.69879" lon="5.98477">
        <ele>823.6</ele>
        <time>2020-01-09T09:54:44Z</time>
      </trkpt>
      <trkpt lat="46.69873" lon="5.98476">
        <ele>824.4</ele>
        <time>2020-01-09T09:54:49Z</time>
      </trkpt>
      <trkpt lat="46.69869" lon="5.98476">
        <ele>824.8</ele>
        <time>2020-01-09T09:54:53Z</time>
      </trkpt>
      <trkpt lat="46.69864" lon="5.98476">
        <ele>825</ele>
        <time>2020-01-09T09:54:57Z</time>
      </trkpt>
      <trkpt lat="46.69859" lon="5.98475">
        <ele>825.1</ele>
        <time>2020-01-09T09:55:02Z</time>
      </trkpt>
      <trkpt lat="46.69854" lon="5.98476">
        <ele>825.3</ele>
        <time>2020-01-09T09:55:07Z</time>
      </trkpt>
      <trkpt lat="46.69849" lon="5.98476">
        <ele>825.5</ele>
        <time>2020-01-09T09:55:13Z</time>
      </trkpt>
      <trkpt lat="46.69844" lon="5.98475">
        <ele>825.6</ele>
        <time>2020-01-09T09:55:19Z</time>
      </trkpt>
      <trkpt lat="46.69839" lon="5.98474">
        <ele>826</ele>
        <time>2020-01-09T09:55:24Z</time>
      </trkpt>
      <trkpt lat="46.69834" lon="5.98472">
        <ele>826.6</ele>
        <time>2020-01-09T09:55:29Z</time>
      </trkpt>
      <trkpt lat="46.69829" lon="5.98469">
        <ele>827</ele>
        <time>2020-01-09T09:55:34Z</time>
      </trkpt>
      <trkpt lat="46.69825" lon="5.98467">
        <ele>827.3</ele>
        <time>2020-01-09T09:55:38Z</time>
      </trkpt>
      <trkpt lat="46.6982" lon="5.98465">
        <ele>827.5</ele>
        <time>2020-01-09T09:55:43Z</time>
      </trkpt>
      <trkpt lat="46.69816" lon="5.98463">
        <ele>827.7</ele>
        <time>2020-01-09T09:55:48Z</time>
      </trkpt>
      <trkpt lat="46.69811" lon="5.98461">
        <ele>827.3</ele>
        <time>2020-01-09T09:55:56Z</time>
      </trkpt>
      <trkpt lat="46.69806" lon="5.98459">
        <ele>826.3</ele>
        <time>2020-01-09T09:56:03Z</time>
      </trkpt>
      <trkpt lat="46.69801" lon="5.98458">
        <ele>825.8</ele>
        <time>2020-01-09T09:56:06Z</time>
      </trkpt>
      <trkpt lat="46.69796" lon="5.98457">
        <ele>825.1</ele>
        <time>2020-01-09T09:56:10Z</time>
      </trkpt>
      <trkpt lat="46.69792" lon="5.98455">
        <ele>824.1</ele>
        <time>2020-01-09T09:56:15Z</time>
      </trkpt>
      <trkpt lat="46.69787" lon="5.98453">
        <ele>823.3</ele>
        <time>2020-01-09T09:56:19Z</time>
      </trkpt>
      <trkpt lat="46.69782" lon="5.98453">
        <ele>822.1</ele>
        <time>2020-01-09T09:56:25Z</time>
      </trkpt>
      <trkpt lat="46.69777" lon="5.98454">
        <ele>821</ele>
        <time>2020-01-09T09:56:31Z</time>
      </trkpt>
      <trkpt lat="46.69772" lon="5.98454">
        <ele>820.3</ele>
        <time>2020-01-09T09:56:35Z</time>
      </trkpt>
      <trkpt lat="46.69767" lon="5.98454">
        <ele>819.9</ele>
        <time>2020-01-09T09:56:39Z</time>
      </trkpt>
      <trkpt lat="46.69761" lon="5.98454">
        <ele>819.9</ele>
        <time>2020-01-09T09:56:44Z</time>
      </trkpt>
      <trkpt lat="46.69756" lon="5.98455">
        <ele>820.2</ele>
        <time>2020-01-09T09:56:48Z</time>
      </trkpt>
      <trkpt lat="46.69752" lon="5.98461">
        <ele>820.5</ele>
        <time>2020-01-09T09:56:52Z</time>
      </trkpt>
      <trkpt lat="46.69748" lon="5.98467">
        <ele>821</ele>
        <time>2020-01-09T09:56:56Z</time>
      </trkpt>
      <trkpt lat="46.69743" lon="5.98471">
        <ele>821.4</ele>
        <time>2020-01-09T09:57:01Z</time>
      </trkpt>
      <trkpt lat="46.6974" lon="5.98477">
        <ele>821.7</ele>
        <time>2020-01-09T09:57:07Z</time>
      </trkpt>
      <trkpt lat="46.69735" lon="5.98481">
        <ele>822.1</ele>
        <time>2020-01-09T09:57:12Z</time>
      </trkpt>
      <trkpt lat="46.69731" lon="5.98483">
        <ele>822.5</ele>
        <time>2020-01-09T09:57:16Z</time>
      </trkpt>
      <trkpt lat="46.69726" lon="5.98484">
        <ele>823.1</ele>
        <time>2020-01-09T09:57:21Z</time>
      </trkpt>
      <trkpt lat="46.69721" lon="5.98484">
        <ele>823.6</ele>
        <time>2020-01-09T09:57:25Z</time>
      </trkpt>
      <trkpt lat="46.69716" lon="5.98485">
        <ele>824.5</ele>
        <time>2020-01-09T09:57:32Z</time>
      </trkpt>
      <trkpt lat="46.69711" lon="5.98488">
        <ele>825.5</ele>
        <time>2020-01-09T09:57:38Z</time>
      </trkpt>
      <trkpt lat="46.69705" lon="5.98488">
        <ele>825.8</ele>
        <time>2020-01-09T09:57:42Z</time>
      </trkpt>
      <trkpt lat="46.69701" lon="5.9849">
        <ele>825.9</ele>
        <time>2020-01-09T09:57:46Z</time>
      </trkpt>
      <trkpt lat="46.69696" lon="5.98494">
        <ele>825.7</ele>
        <time>2020-01-09T09:57:52Z</time>
      </trkpt>
      <trkpt lat="46.69692" lon="5.98498">
        <ele>825.5</ele>
        <time>2020-01-09T09:57:58Z</time>
      </trkpt>
      <trkpt lat="46.69688" lon="5.98502">
        <ele>825.3</ele>
        <time>2020-01-09T09:58:03Z</time>
      </trkpt>
      <trkpt lat="46.69683" lon="5.98503">
        <ele>825.1</ele>
        <time>2020-01-09T09:58:09Z</time>
      </trkpt>
      <trkpt lat="46.69678" lon="5.98505">
        <ele>824.7</ele>
        <time>2020-01-09T09:58:15Z</time>
      </trkpt>
      <trkpt lat="46.69673" lon="5.98507">
        <ele>824.6</ele>
        <time>2020-01-09T09:58:21Z</time>
      </trkpt>
      <trkpt lat="46.69669" lon="5.9851">
        <ele>823.8</ele>
        <time>2020-01-09T09:58:37Z</time>
      </trkpt>
      <trkpt lat="46.69668" lon="5.98517">
        <ele>823.5</ele>
        <time>2020-01-09T09:58:44Z</time>
      </trkpt>
      <trkpt lat="46.69663" lon="5.9852">
        <ele>823.8</ele>
        <time>2020-01-09T09:58:59Z</time>
      </trkpt>
      <trkpt lat="46.69658" lon="5.98522">
        <ele>823.6</ele>
        <time>2020-01-09T09:59:13Z</time>
      </trkpt>
      <trkpt lat="46.69655" lon="5.98519">
        <ele>823.1</ele>
        <time>2020-01-09T09:59:23Z</time>
      </trkpt>
      <trkpt lat="46.69659" lon="5.98515">
        <ele>822.1</ele>
        <time>2020-01-09T09:59:38Z</time>
      </trkpt>
      <trkpt lat="46.69664" lon="5.98517">
        <ele>822.2</ele>
        <time>2020-01-09T09:59:44Z</time>
      </trkpt>
      <trkpt lat="46.69659" lon="5.98518">
        <ele>822.9</ele>
        <time>2020-01-09T10:00:00Z</time>
      </trkpt>
      <trkpt lat="46.69654" lon="5.98521">
        <ele>823</ele>
        <time>2020-01-09T10:00:07Z</time>
      </trkpt>
      <trkpt lat="46.69649" lon="5.98524">
        <ele>823.1</ele>
        <time>2020-01-09T10:00:14Z</time>
      </trkpt>
      <trkpt lat="46.69645" lon="5.98529">
        <ele>823.3</ele>
        <time>2020-01-09T10:00:20Z</time>
      </trkpt>
      <trkpt lat="46.69642" lon="5.98535">
        <ele>823.2</ele>
        <time>2020-01-09T10:00:24Z</time>
      </trkpt>
      <trkpt lat="46.69639" lon="5.9854">
        <ele>823.2</ele>
        <time>2020-01-09T10:00:28Z</time>
      </trkpt>
      <trkpt lat="46.69637" lon="5.98547">
        <ele>823.4</ele>
        <time>2020-01-09T10:00:32Z</time>
      </trkpt>
      <trkpt lat="46.69634" lon="5.98554">
        <ele>823.7</ele>
        <time>2020-01-09T10:00:36Z</time>
      </trkpt>
      <trkpt lat="46.69631" lon="5.9856">
        <ele>824</ele>
        <time>2020-01-09T10:00:39Z</time>
      </trkpt>
      <trkpt lat="46.69629" lon="5.98566">
        <ele>824.3</ele>
        <time>2020-01-09T10:00:42Z</time>
      </trkpt>
      <trkpt lat="46.69626" lon="5.98573">
        <ele>824.8</ele>
        <time>2020-01-09T10:00:46Z</time>
      </trkpt>
      <trkpt lat="46.69625" lon="5.9858">
        <ele>825.4</ele>
        <time>2020-01-09T10:00:50Z</time>
      </trkpt>
      <trkpt lat="46.69622" lon="5.98586">
        <ele>826</ele>
        <time>2020-01-09T10:00:54Z</time>
      </trkpt>
      <trkpt lat="46.69619" lon="5.98593">
        <ele>826.7</ele>
        <time>2020-01-09T10:00:59Z</time>
      </trkpt>
      <trkpt lat="46.69615" lon="5.98597">
        <ele>827.1</ele>
        <time>2020-01-09T10:01:03Z</time>
      </trkpt>
      <trkpt lat="46.69612" lon="5.98604">
        <ele>827.3</ele>
        <time>2020-01-09T10:01:08Z</time>
      </trkpt>
      <trkpt lat="46.6961" lon="5.98612">
        <ele>827.3</ele>
        <time>2020-01-09T10:01:13Z</time>
      </trkpt>
      <trkpt lat="46.6961" lon="5.9862">
        <ele>827.2</ele>
        <time>2020-01-09T10:01:17Z</time>
      </trkpt>
      <trkpt lat="46.6961" lon="5.98627">
        <ele>827.3</ele>
        <time>2020-01-09T10:01:21Z</time>
      </trkpt>
      <trkpt lat="46.69609" lon="5.98634">
        <ele>827.3</ele>
        <time>2020-01-09T10:01:25Z</time>
      </trkpt>
      <trkpt lat="46.69608" lon="5.98642">
        <ele>827.2</ele>
        <time>2020-01-09T10:01:30Z</time>
      </trkpt>
      <trkpt lat="46.69608" lon="5.98649">
        <ele>827.2</ele>
        <time>2020-01-09T10:01:35Z</time>
      </trkpt>
      <trkpt lat="46.69608" lon="5.98656">
        <ele>827.5</ele>
        <time>2020-01-09T10:01:41Z</time>
      </trkpt>
      <trkpt lat="46.69607" lon="5.98664">
        <ele>827.9</ele>
        <time>2020-01-09T10:01:46Z</time>
      </trkpt>
      <trkpt lat="46.69606" lon="5.98671">
        <ele>828.4</ele>
        <time>2020-01-09T10:01:50Z</time>
      </trkpt>
      <trkpt lat="46.69606" lon="5.98678">
        <ele>829.1</ele>
        <time>2020-01-09T10:01:55Z</time>
      </trkpt>
      <trkpt lat="46.69604" lon="5.98685">
        <ele>830.1</ele>
        <time>2020-01-09T10:02:00Z</time>
      </trkpt>
      <trkpt lat="46.69603" lon="5.98692">
        <ele>830.7</ele>
        <time>2020-01-09T10:02:05Z</time>
      </trkpt>
      <trkpt lat="46.69603" lon="5.987">
        <ele>831.5</ele>
        <time>2020-01-09T10:02:11Z</time>
      </trkpt>
      <trkpt lat="46.69602" lon="5.98707">
        <ele>832.2</ele>
        <time>2020-01-09T10:02:15Z</time>
      </trkpt>
      <trkpt lat="46.696" lon="5.98714">
        <ele>832.9</ele>
        <time>2020-01-09T10:02:19Z</time>
      </trkpt>
      <trkpt lat="46.69598" lon="5.98721">
        <ele>833.6</ele>
        <time>2020-01-09T10:02:24Z</time>
      </trkpt>
      <trkpt lat="46.69596" lon="5.98728">
        <ele>834.1</ele>
        <time>2020-01-09T10:02:29Z</time>
      </trkpt>
      <trkpt lat="46.69594" lon="5.98735">
        <ele>834.4</ele>
        <time>2020-01-09T10:02:33Z</time>
      </trkpt>
      <trkpt lat="46.69592" lon="5.98741">
        <ele>834.6</ele>
        <time>2020-01-09T10:02:37Z</time>
      </trkpt>
      <trkpt lat="46.6959" lon="5.98748">
        <ele>834.5</ele>
        <time>2020-01-09T10:02:40Z</time>
      </trkpt>
      <trkpt lat="46.69589" lon="5.98754">
        <ele>834.4</ele>
        <time>2020-01-09T10:02:43Z</time>
      </trkpt>
      <trkpt lat="46.69587" lon="5.9876">
        <ele>834.1</ele>
        <time>2020-01-09T10:02:48Z</time>
      </trkpt>
      <trkpt lat="46.69584" lon="5.98765">
        <ele>833.5</ele>
        <time>2020-01-09T10:02:54Z</time>
      </trkpt>
      <trkpt lat="46.69581" lon="5.98771">
        <ele>832.9</ele>
        <time>2020-01-09T10:03:00Z</time>
      </trkpt>
      <trkpt lat="46.69577" lon="5.98778">
        <ele>832.7</ele>
        <time>2020-01-09T10:03:05Z</time>
      </trkpt>
      <trkpt lat="46.69574" lon="5.98784">
        <ele>832.5</ele>
        <time>2020-01-09T10:03:11Z</time>
      </trkpt>
      <trkpt lat="46.6957" lon="5.9879">
        <ele>832</ele>
        <time>2020-01-09T10:03:17Z</time>
      </trkpt>
      <trkpt lat="46.69567" lon="5.98795">
        <ele>831.8</ele>
        <time>2020-01-09T10:03:21Z</time>
      </trkpt>
      <trkpt lat="46.69563" lon="5.98801">
        <ele>831.8</ele>
        <time>2020-01-09T10:03:25Z</time>
      </trkpt>
      <trkpt lat="46.69561" lon="5.98806">
        <ele>831.7</ele>
        <time>2020-01-09T10:03:30Z</time>
      </trkpt>
      <trkpt lat="46.69558" lon="5.98813">
        <ele>832</ele>
        <time>2020-01-09T10:03:35Z</time>
      </trkpt>
      <trkpt lat="46.69556" lon="5.98819">
        <ele>832.4</ele>
        <time>2020-01-09T10:03:39Z</time>
      </trkpt>
      <trkpt lat="46.69554" lon="5.98826">
        <ele>833.1</ele>
        <time>2020-01-09T10:03:44Z</time>
      </trkpt>
      <trkpt lat="46.69551" lon="5.98832">
        <ele>833.5</ele>
        <time>2020-01-09T10:03:48Z</time>
      </trkpt>
      <trkpt lat="46.69547" lon="5.98838">
        <ele>833.7</ele>
        <time>2020-01-09T10:03:52Z</time>
      </trkpt>
      <trkpt lat="46.69544" lon="5.98843">
        <ele>833.9</ele>
        <time>2020-01-09T10:03:55Z</time>
      </trkpt>
      <trkpt lat="46.69541" lon="5.98848">
        <ele>834.1</ele>
        <time>2020-01-09T10:03:58Z</time>
      </trkpt>
      <trkpt lat="46.69538" lon="5.98854">
        <ele>834.2</ele>
        <time>2020-01-09T10:04:02Z</time>
      </trkpt>
      <trkpt lat="46.69535" lon="5.9886">
        <ele>834.2</ele>
        <time>2020-01-09T10:04:06Z</time>
      </trkpt>
      <trkpt lat="46.69533" lon="5.98868">
        <ele>834</ele>
        <time>2020-01-09T10:04:09Z</time>
      </trkpt>
      <trkpt lat="46.69531" lon="5.98874">
        <ele>833.8</ele>
        <time>2020-01-09T10:04:13Z</time>
      </trkpt>
      <trkpt lat="46.69527" lon="5.9888">
        <ele>833.7</ele>
        <time>2020-01-09T10:04:18Z</time>
      </trkpt>
      <trkpt lat="46.69524" lon="5.98884">
        <ele>833.7</ele>
        <time>2020-01-09T10:04:22Z</time>
      </trkpt>
      <trkpt lat="46.6952" lon="5.98889">
        <ele>833.4</ele>
        <time>2020-01-09T10:04:27Z</time>
      </trkpt>
      <trkpt lat="46.69516" lon="5.98894">
        <ele>833.1</ele>
        <time>2020-01-09T10:04:31Z</time>
      </trkpt>
      <trkpt lat="46.69513" lon="5.98899">
        <ele>832.9</ele>
        <time>2020-01-09T10:04:36Z</time>
      </trkpt>
      <trkpt lat="46.69509" lon="5.98904">
        <ele>833</ele>
        <time>2020-01-09T10:04:40Z</time>
      </trkpt>
      <trkpt lat="46.69506" lon="5.9891">
        <ele>833</ele>
        <time>2020-01-09T10:04:45Z</time>
      </trkpt>
      <trkpt lat="46.69504" lon="5.98918">
        <ele>833.6</ele>
        <time>2020-01-09T10:04:52Z</time>
      </trkpt>
      <trkpt lat="46.69502" lon="5.98925">
        <ele>834</ele>
        <time>2020-01-09T10:04:57Z</time>
      </trkpt>
      <trkpt lat="46.695" lon="5.98931">
        <ele>834.2</ele>
        <time>2020-01-09T10:05:01Z</time>
      </trkpt>
      <trkpt lat="46.69498" lon="5.98938">
        <ele>834.6</ele>
        <time>2020-01-09T10:05:07Z</time>
      </trkpt>
      <trkpt lat="46.69495" lon="5.98946">
        <ele>834.9</ele>
        <time>2020-01-09T10:05:12Z</time>
      </trkpt>
      <trkpt lat="46.69494" lon="5.98953">
        <ele>835.5</ele>
        <time>2020-01-09T10:05:17Z</time>
      </trkpt>
      <trkpt lat="46.69493" lon="5.98959">
        <ele>836.2</ele>
        <time>2020-01-09T10:05:22Z</time>
      </trkpt>
      <trkpt lat="46.69492" lon="5.98967">
        <ele>836.9</ele>
        <time>2020-01-09T10:05:26Z</time>
      </trkpt>
      <trkpt lat="46.69491" lon="5.98974">
        <ele>837.6</ele>
        <time>2020-01-09T10:05:30Z</time>
      </trkpt>
      <trkpt lat="46.69491" lon="5.98981">
        <ele>838.4</ele>
        <time>2020-01-09T10:05:35Z</time>
      </trkpt>
      <trkpt lat="46.69492" lon="5.98989">
        <ele>839.5</ele>
        <time>2020-01-09T10:05:41Z</time>
      </trkpt>
      <trkpt lat="46.69493" lon="5.98997">
        <ele>840.2</ele>
        <time>2020-01-09T10:05:45Z</time>
      </trkpt>
      <trkpt lat="46.69494" lon="5.99003">
        <ele>841</ele>
        <time>2020-01-09T10:05:49Z</time>
      </trkpt>
      <trkpt lat="46.69495" lon="5.99012">
        <ele>841.7</ele>
        <time>2020-01-09T10:05:53Z</time>
      </trkpt>
      <trkpt lat="46.69497" lon="5.99019">
        <ele>842.6</ele>
        <time>2020-01-09T10:05:58Z</time>
      </trkpt>
      <trkpt lat="46.69499" lon="5.99025">
        <ele>843.2</ele>
        <time>2020-01-09T10:06:03Z</time>
      </trkpt>
      <trkpt lat="46.695" lon="5.99033">
        <ele>843.8</ele>
        <time>2020-01-09T10:06:08Z</time>
      </trkpt>
      <trkpt lat="46.69502" lon="5.9904">
        <ele>844.4</ele>
        <time>2020-01-09T10:06:12Z</time>
      </trkpt>
      <trkpt lat="46.69504" lon="5.99047">
        <ele>844.9</ele>
        <time>2020-01-09T10:06:16Z</time>
      </trkpt>
      <trkpt lat="46.69503" lon="5.99055">
        <ele>845.2</ele>
        <time>2020-01-09T10:06:21Z</time>
      </trkpt>
      <trkpt lat="46.69503" lon="5.99062">
        <ele>845.4</ele>
        <time>2020-01-09T10:06:25Z</time>
      </trkpt>
      <trkpt lat="46.69503" lon="5.99069">
        <ele>845.7</ele>
        <time>2020-01-09T10:06:29Z</time>
      </trkpt>
      <trkpt lat="46.69502" lon="5.99076">
        <ele>846</ele>
        <time>2020-01-09T10:06:33Z</time>
      </trkpt>
      <trkpt lat="46.69501" lon="5.99083">
        <ele>846.3</ele>
        <time>2020-01-09T10:06:38Z</time>
      </trkpt>
      <trkpt lat="46.695" lon="5.99089">
        <ele>846.7</ele>
        <time>2020-01-09T10:06:42Z</time>
      </trkpt>
      <trkpt lat="46.69499" lon="5.99096">
        <ele>847.3</ele>
        <time>2020-01-09T10:06:47Z</time>
      </trkpt>
      <trkpt lat="46.69498" lon="5.99103">
        <ele>847.9</ele>
        <time>2020-01-09T10:06:51Z</time>
      </trkpt>
      <trkpt lat="46.69496" lon="5.99109">
        <ele>848.6</ele>
        <time>2020-01-09T10:06:55Z</time>
      </trkpt>
      <trkpt lat="46.69495" lon="5.99116">
        <ele>849.6</ele>
        <time>2020-01-09T10:07:00Z</time>
      </trkpt>
      <trkpt lat="46.69493" lon="5.99123">
        <ele>850.6</ele>
        <time>2020-01-09T10:07:05Z</time>
      </trkpt>
      <trkpt lat="46.69493" lon="5.99131">
        <ele>851.5</ele>
        <time>2020-01-09T10:07:11Z</time>
      </trkpt>
      <trkpt lat="46.69492" lon="5.99138">
        <ele>851.9</ele>
        <time>2020-01-09T10:07:16Z</time>
      </trkpt>
      <trkpt lat="46.69492" lon="5.99145">
        <ele>852.5</ele>
        <time>2020-01-09T10:07:21Z</time>
      </trkpt>
      <trkpt lat="46.69491" lon="5.99153">
        <ele>853.1</ele>
        <time>2020-01-09T10:07:26Z</time>
      </trkpt>
      <trkpt lat="46.6949" lon="5.99161">
        <ele>853.6</ele>
        <time>2020-01-09T10:07:31Z</time>
      </trkpt>
      <trkpt lat="46.69489" lon="5.99168">
        <ele>854.2</ele>
        <time>2020-01-09T10:07:37Z</time>
      </trkpt>
      <trkpt lat="46.69488" lon="5.99186">
        <ele>855.6</ele>
        <time>2020-01-09T10:07:51Z</time>
      </trkpt>
      <trkpt lat="46.69487" lon="5.99193">
        <ele>855.7</ele>
        <time>2020-01-09T10:07:56Z</time>
      </trkpt>
      <trkpt lat="46.69485" lon="5.992">
        <ele>855.8</ele>
        <time>2020-01-09T10:08:01Z</time>
      </trkpt>
      <trkpt lat="46.69484" lon="5.99208">
        <ele>855.9</ele>
        <time>2020-01-09T10:08:05Z</time>
      </trkpt>
      <trkpt lat="46.69483" lon="5.99215">
        <ele>856.1</ele>
        <time>2020-01-09T10:08:10Z</time>
      </trkpt>
      <trkpt lat="46.69483" lon="5.99222">
        <ele>856.6</ele>
        <time>2020-01-09T10:08:16Z</time>
      </trkpt>
      <trkpt lat="46.69484" lon="5.9923">
        <ele>857.1</ele>
        <time>2020-01-09T10:08:20Z</time>
      </trkpt>
      <trkpt lat="46.69485" lon="5.99237">
        <ele>857.8</ele>
        <time>2020-01-09T10:08:26Z</time>
      </trkpt>
      <trkpt lat="46.69484" lon="5.99244">
        <ele>858.5</ele>
        <time>2020-01-09T10:08:39Z</time>
      </trkpt>
      <trkpt lat="46.69484" lon="5.99252">
        <ele>858.7</ele>
        <time>2020-01-09T10:08:46Z</time>
      </trkpt>
      <trkpt lat="46.69485" lon="5.99258">
        <ele>858.8</ele>
        <time>2020-01-09T10:08:49Z</time>
      </trkpt>
      <trkpt lat="46.69487" lon="5.99265">
        <ele>858.8</ele>
        <time>2020-01-09T10:08:53Z</time>
      </trkpt>
      <trkpt lat="46.69488" lon="5.99272">
        <ele>858.8</ele>
        <time>2020-01-09T10:08:57Z</time>
      </trkpt>
      <trkpt lat="46.6949" lon="5.9928">
        <ele>858.9</ele>
        <time>2020-01-09T10:09:01Z</time>
      </trkpt>
      <trkpt lat="46.69492" lon="5.99286">
        <ele>858.8</ele>
        <time>2020-01-09T10:09:05Z</time>
      </trkpt>
      <trkpt lat="46.69496" lon="5.99292">
        <ele>858.4</ele>
        <time>2020-01-09T10:09:10Z</time>
      </trkpt>
      <trkpt lat="46.69498" lon="5.99299">
        <ele>858.1</ele>
        <time>2020-01-09T10:09:14Z</time>
      </trkpt>
      <trkpt lat="46.695" lon="5.99306">
        <ele>857.9</ele>
        <time>2020-01-09T10:09:19Z</time>
      </trkpt>
      <trkpt lat="46.69503" lon="5.99313">
        <ele>858</ele>
        <time>2020-01-09T10:09:23Z</time>
      </trkpt>
      <trkpt lat="46.69505" lon="5.99318">
        <ele>858.2</ele>
        <time>2020-01-09T10:09:26Z</time>
      </trkpt>
      <trkpt lat="46.69507" lon="5.99324">
        <ele>858.4</ele>
        <time>2020-01-09T10:09:31Z</time>
      </trkpt>
      <trkpt lat="46.69509" lon="5.99331">
        <ele>858.2</ele>
        <time>2020-01-09T10:09:38Z</time>
      </trkpt>
      <trkpt lat="46.69512" lon="5.99336">
        <ele>857.8</ele>
        <time>2020-01-09T10:09:43Z</time>
      </trkpt>
      <trkpt lat="46.69515" lon="5.99343">
        <ele>857.4</ele>
        <time>2020-01-09T10:09:47Z</time>
      </trkpt>
      <trkpt lat="46.69519" lon="5.99347">
        <ele>857.1</ele>
        <time>2020-01-09T10:09:51Z</time>
      </trkpt>
      <trkpt lat="46.69521" lon="5.99353">
        <ele>857</ele>
        <time>2020-01-09T10:09:55Z</time>
      </trkpt>
      <trkpt lat="46.69524" lon="5.99359">
        <ele>857.2</ele>
        <time>2020-01-09T10:09:59Z</time>
      </trkpt>
      <trkpt lat="46.69526" lon="5.99366">
        <ele>857.6</ele>
        <time>2020-01-09T10:10:03Z</time>
      </trkpt>
      <trkpt lat="46.69529" lon="5.99372">
        <ele>858.4</ele>
        <time>2020-01-09T10:10:08Z</time>
      </trkpt>
      <trkpt lat="46.69532" lon="5.99378">
        <ele>859.1</ele>
        <time>2020-01-09T10:10:12Z</time>
      </trkpt>
      <trkpt lat="46.69535" lon="5.99384">
        <ele>860.2</ele>
        <time>2020-01-09T10:10:17Z</time>
      </trkpt>
      <trkpt lat="46.69538" lon="5.9939">
        <ele>860.9</ele>
        <time>2020-01-09T10:10:21Z</time>
      </trkpt>
      <trkpt lat="46.69541" lon="5.99396">
        <ele>861.8</ele>
        <time>2020-01-09T10:10:26Z</time>
      </trkpt>
      <trkpt lat="46.69544" lon="5.99402">
        <ele>862.3</ele>
        <time>2020-01-09T10:10:30Z</time>
      </trkpt>
      <trkpt lat="46.69547" lon="5.99408">
        <ele>862.6</ele>
        <time>2020-01-09T10:10:34Z</time>
      </trkpt>
      <trkpt lat="46.69549" lon="5.99415">
        <ele>862.7</ele>
        <time>2020-01-09T10:10:38Z</time>
      </trkpt>
      <trkpt lat="46.69551" lon="5.99423">
        <ele>862.5</ele>
        <time>2020-01-09T10:10:43Z</time>
      </trkpt>
      <trkpt lat="46.69554" lon="5.9943">
        <ele>862.6</ele>
        <time>2020-01-09T10:10:47Z</time>
      </trkpt>
      <trkpt lat="46.69555" lon="5.99436">
        <ele>862.7</ele>
        <time>2020-01-09T10:10:52Z</time>
      </trkpt>
      <trkpt lat="46.69558" lon="5.99442">
        <ele>862.9</ele>
        <time>2020-01-09T10:10:57Z</time>
      </trkpt>
      <trkpt lat="46.69561" lon="5.99448">
        <ele>862.9</ele>
        <time>2020-01-09T10:11:01Z</time>
      </trkpt>
      <trkpt lat="46.69563" lon="5.99455">
        <ele>862.9</ele>
        <time>2020-01-09T10:11:05Z</time>
      </trkpt>
      <trkpt lat="46.69563" lon="5.99462">
        <ele>862.6</ele>
        <time>2020-01-09T10:11:12Z</time>
      </trkpt>
      <trkpt lat="46.69562" lon="5.99469">
        <ele>862.3</ele>
        <time>2020-01-09T10:11:16Z</time>
      </trkpt>
      <trkpt lat="46.69561" lon="5.99478">
        <ele>862</ele>
        <time>2020-01-09T10:11:20Z</time>
      </trkpt>
      <trkpt lat="46.6956" lon="5.99485">
        <ele>861.7</ele>
        <time>2020-01-09T10:11:24Z</time>
      </trkpt>
      <trkpt lat="46.6956" lon="5.99492">
        <ele>861.7</ele>
        <time>2020-01-09T10:11:29Z</time>
      </trkpt>
      <trkpt lat="46.6956" lon="5.995">
        <ele>862.3</ele>
        <time>2020-01-09T10:11:35Z</time>
      </trkpt>
      <trkpt lat="46.6956" lon="5.99507">
        <ele>863.1</ele>
        <time>2020-01-09T10:11:40Z</time>
      </trkpt>
      <trkpt lat="46.6956" lon="5.99515">
        <ele>863.9</ele>
        <time>2020-01-09T10:11:46Z</time>
      </trkpt>
      <trkpt lat="46.69559" lon="5.99522">
        <ele>865</ele>
        <time>2020-01-09T10:11:52Z</time>
      </trkpt>
      <trkpt lat="46.69557" lon="5.9953">
        <ele>865.7</ele>
        <time>2020-01-09T10:11:57Z</time>
      </trkpt>
      <trkpt lat="46.69555" lon="5.99536">
        <ele>866</ele>
        <time>2020-01-09T10:12:00Z</time>
      </trkpt>
      <trkpt lat="46.69553" lon="5.99544">
        <ele>866.3</ele>
        <time>2020-01-09T10:12:05Z</time>
      </trkpt>
      <trkpt lat="46.69552" lon="5.99551">
        <ele>866.5</ele>
        <time>2020-01-09T10:12:11Z</time>
      </trkpt>
      <trkpt lat="46.6955" lon="5.99558">
        <ele>866.5</ele>
        <time>2020-01-09T10:12:16Z</time>
      </trkpt>
      <trkpt lat="46.69548" lon="5.99564">
        <ele>866.5</ele>
        <time>2020-01-09T10:12:21Z</time>
      </trkpt>
      <trkpt lat="46.69546" lon="5.99571">
        <ele>866.8</ele>
        <time>2020-01-09T10:12:26Z</time>
      </trkpt>
      <trkpt lat="46.69544" lon="5.99578">
        <ele>867</ele>
        <time>2020-01-09T10:12:30Z</time>
      </trkpt>
      <trkpt lat="46.69542" lon="5.99586">
        <ele>867.5</ele>
        <time>2020-01-09T10:12:35Z</time>
      </trkpt>
      <trkpt lat="46.6954" lon="5.99592">
        <ele>867.9</ele>
        <time>2020-01-09T10:12:39Z</time>
      </trkpt>
      <trkpt lat="46.69537" lon="5.99598">
        <ele>868.3</ele>
        <time>2020-01-09T10:12:44Z</time>
      </trkpt>
      <trkpt lat="46.69535" lon="5.99605">
        <ele>868.2</ele>
        <time>2020-01-09T10:12:48Z</time>
      </trkpt>
      <trkpt lat="46.69533" lon="5.99612">
        <ele>867.8</ele>
        <time>2020-01-09T10:12:55Z</time>
      </trkpt>
      <trkpt lat="46.69532" lon="5.99619">
        <ele>867.5</ele>
        <time>2020-01-09T10:13:01Z</time>
      </trkpt>
      <trkpt lat="46.69531" lon="5.99626">
        <ele>867.1</ele>
        <time>2020-01-09T10:13:07Z</time>
      </trkpt>
      <trkpt lat="46.69532" lon="5.99633">
        <ele>866.9</ele>
        <time>2020-01-09T10:13:12Z</time>
      </trkpt>
      <trkpt lat="46.69532" lon="5.9964">
        <ele>866.3</ele>
        <time>2020-01-09T10:13:17Z</time>
      </trkpt>
      <trkpt lat="46.69532" lon="5.99648">
        <ele>865.8</ele>
        <time>2020-01-09T10:13:22Z</time>
      </trkpt>
      <trkpt lat="46.69533" lon="5.99655">
        <ele>865.3</ele>
        <time>2020-01-09T10:13:27Z</time>
      </trkpt>
      <trkpt lat="46.69533" lon="5.99661">
        <ele>865</ele>
        <time>2020-01-09T10:13:30Z</time>
      </trkpt>
      <trkpt lat="46.69532" lon="5.99668">
        <ele>864.7</ele>
        <time>2020-01-09T10:13:33Z</time>
      </trkpt>
      <trkpt lat="46.69533" lon="5.99676">
        <ele>864.5</ele>
        <time>2020-01-09T10:13:36Z</time>
      </trkpt>
      <trkpt lat="46.69535" lon="5.99683">
        <ele>864.2</ele>
        <time>2020-01-09T10:13:40Z</time>
      </trkpt>
      <trkpt lat="46.69536" lon="5.99691">
        <ele>863.8</ele>
        <time>2020-01-09T10:13:45Z</time>
      </trkpt>
      <trkpt lat="46.69536" lon="5.99698">
        <ele>863.6</ele>
        <time>2020-01-09T10:13:50Z</time>
      </trkpt>
      <trkpt lat="46.69536" lon="5.99715">
        <ele>863</ele>
        <time>2020-01-09T10:13:59Z</time>
      </trkpt>
      <trkpt lat="46.69536" lon="5.99723">
        <ele>862.8</ele>
        <time>2020-01-09T10:14:03Z</time>
      </trkpt>
      <trkpt lat="46.69537" lon="5.9973">
        <ele>862.7</ele>
        <time>2020-01-09T10:14:07Z</time>
      </trkpt>
      <trkpt lat="46.6954" lon="5.99736">
        <ele>862.7</ele>
        <time>2020-01-09T10:14:10Z</time>
      </trkpt>
      <trkpt lat="46.69541" lon="5.99743">
        <ele>862.8</ele>
        <time>2020-01-09T10:14:14Z</time>
      </trkpt>
      <trkpt lat="46.69541" lon="5.9975">
        <ele>863</ele>
        <time>2020-01-09T10:14:19Z</time>
      </trkpt>
      <trkpt lat="46.69542" lon="5.99756">
        <ele>863.4</ele>
        <time>2020-01-09T10:14:25Z</time>
      </trkpt>
      <trkpt lat="46.69544" lon="5.99763">
        <ele>863.7</ele>
        <time>2020-01-09T10:14:30Z</time>
      </trkpt>
      <trkpt lat="46.69547" lon="5.99771">
        <ele>864.3</ele>
        <time>2020-01-09T10:14:36Z</time>
      </trkpt>
      <trkpt lat="46.69549" lon="5.99777">
        <ele>864.8</ele>
        <time>2020-01-09T10:14:41Z</time>
      </trkpt>
      <trkpt lat="46.69551" lon="5.99783">
        <ele>865.3</ele>
        <time>2020-01-09T10:14:46Z</time>
      </trkpt>
      <trkpt lat="46.69553" lon="5.99789">
        <ele>865.4</ele>
        <time>2020-01-09T10:14:50Z</time>
      </trkpt>
      <trkpt lat="46.69554" lon="5.99795">
        <ele>865.4</ele>
        <time>2020-01-09T10:14:55Z</time>
      </trkpt>
      <trkpt lat="46.69557" lon="5.99802">
        <ele>865.2</ele>
        <time>2020-01-09T10:14:58Z</time>
      </trkpt>
      <trkpt lat="46.69558" lon="5.99808">
        <ele>865.1</ele>
        <time>2020-01-09T10:15:02Z</time>
      </trkpt>
      <trkpt lat="46.69559" lon="5.99815">
        <ele>864.9</ele>
        <time>2020-01-09T10:15:06Z</time>
      </trkpt>
      <trkpt lat="46.69562" lon="5.99821">
        <ele>864.6</ele>
        <time>2020-01-09T10:15:10Z</time>
      </trkpt>
      <trkpt lat="46.69563" lon="5.99828">
        <ele>864.6</ele>
        <time>2020-01-09T10:15:16Z</time>
      </trkpt>
      <trkpt lat="46.69564" lon="5.99835">
        <ele>864.7</ele>
        <time>2020-01-09T10:15:20Z</time>
      </trkpt>
      <trkpt lat="46.69565" lon="5.99842">
        <ele>864.5</ele>
        <time>2020-01-09T10:15:25Z</time>
      </trkpt>
      <trkpt lat="46.69567" lon="5.99849">
        <ele>864.3</ele>
        <time>2020-01-09T10:15:30Z</time>
      </trkpt>
      <trkpt lat="46.69567" lon="5.99858">
        <ele>864.2</ele>
        <time>2020-01-09T10:15:34Z</time>
      </trkpt>
      <trkpt lat="46.69566" lon="5.99865">
        <ele>864</ele>
        <time>2020-01-09T10:15:39Z</time>
      </trkpt>
      <trkpt lat="46.69567" lon="5.99872">
        <ele>863.9</ele>
        <time>2020-01-09T10:15:44Z</time>
      </trkpt>
      <trkpt lat="46.69567" lon="5.99879">
        <ele>863.8</ele>
        <time>2020-01-09T10:15:48Z</time>
      </trkpt>
      <trkpt lat="46.69566" lon="5.99887">
        <ele>863.8</ele>
        <time>2020-01-09T10:15:53Z</time>
      </trkpt>
      <trkpt lat="46.69566" lon="5.99894">
        <ele>863.9</ele>
        <time>2020-01-09T10:15:58Z</time>
      </trkpt>
      <trkpt lat="46.69565" lon="5.99901">
        <ele>864</ele>
        <time>2020-01-09T10:16:03Z</time>
      </trkpt>
      <trkpt lat="46.69565" lon="5.99908">
        <ele>864.3</ele>
        <time>2020-01-09T10:16:09Z</time>
      </trkpt>
      <trkpt lat="46.69567" lon="5.99917">
        <ele>864.2</ele>
        <time>2020-01-09T10:16:14Z</time>
      </trkpt>
      <trkpt lat="46.6957" lon="5.99923">
        <ele>863.9</ele>
        <time>2020-01-09T10:16:20Z</time>
      </trkpt>
      <trkpt lat="46.69572" lon="5.99929">
        <ele>863.3</ele>
        <time>2020-01-09T10:16:25Z</time>
      </trkpt>
      <trkpt lat="46.69574" lon="5.99936">
        <ele>862.8</ele>
        <time>2020-01-09T10:16:30Z</time>
      </trkpt>
      <trkpt lat="46.69575" lon="5.99944">
        <ele>862.3</ele>
        <time>2020-01-09T10:16:32Z</time>
      </trkpt>
      <trkpt lat="46.69575" lon="5.99951">
        <ele>861.9</ele>
        <time>2020-01-09T10:16:35Z</time>
      </trkpt>
      <trkpt lat="46.69576" lon="5.99958">
        <ele>861.4</ele>
        <time>2020-01-09T10:16:39Z</time>
      </trkpt>
      <trkpt lat="46.69576" lon="5.99965">
        <ele>861.1</ele>
        <time>2020-01-09T10:16:42Z</time>
      </trkpt>
      <trkpt lat="46.69576" lon="5.99972">
        <ele>860.8</ele>
        <time>2020-01-09T10:16:46Z</time>
      </trkpt>
      <trkpt lat="46.69576" lon="5.9998">
        <ele>860.7</ele>
        <time>2020-01-09T10:16:50Z</time>
      </trkpt>
      <trkpt lat="46.69575" lon="5.99987">
        <ele>860.6</ele>
        <time>2020-01-09T10:16:54Z</time>
      </trkpt>
      <trkpt lat="46.69574" lon="5.99994">
        <ele>860.5</ele>
        <time>2020-01-09T10:16:59Z</time>
      </trkpt>
      <trkpt lat="46.69571" lon="6.00001">
        <ele>860.4</ele>
        <time>2020-01-09T10:17:04Z</time>
      </trkpt>
      <trkpt lat="46.6957" lon="6.00008">
        <ele>860.2</ele>
        <time>2020-01-09T10:17:09Z</time>
      </trkpt>
      <trkpt lat="46.69568" lon="6.00014">
        <ele>860</ele>
        <time>2020-01-09T10:17:13Z</time>
      </trkpt>
      <trkpt lat="46.69565" lon="6.00021">
        <ele>859.9</ele>
        <time>2020-01-09T10:17:17Z</time>
      </trkpt>
      <trkpt lat="46.69563" lon="6.00027">
        <ele>860</ele>
        <time>2020-01-09T10:17:21Z</time>
      </trkpt>
      <trkpt lat="46.69563" lon="6.00034">
        <ele>860.2</ele>
        <time>2020-01-09T10:17:25Z</time>
      </trkpt>
      <trkpt lat="46.69564" lon="6.00043">
        <ele>860.5</ele>
        <time>2020-01-09T10:17:30Z</time>
      </trkpt>
      <trkpt lat="46.69562" lon="6.00049">
        <ele>860.9</ele>
        <time>2020-01-09T10:17:35Z</time>
      </trkpt>
      <trkpt lat="46.69562" lon="6.00057">
        <ele>861.4</ele>
        <time>2020-01-09T10:17:43Z</time>
      </trkpt>
      <trkpt lat="46.6956" lon="6.00063">
        <ele>861.9</ele>
        <time>2020-01-09T10:17:45Z</time>
      </trkpt>
      <trkpt lat="46.69559" lon="6.00071">
        <ele>862.5</ele>
        <time>2020-01-09T10:17:49Z</time>
      </trkpt>
      <trkpt lat="46.69559" lon="6.00081">
        <ele>863.2</ele>
        <time>2020-01-09T10:17:53Z</time>
      </trkpt>
      <trkpt lat="46.69559" lon="6.00088">
        <ele>863.9</ele>
        <time>2020-01-09T10:17:59Z</time>
      </trkpt>
      <trkpt lat="46.69559" lon="6.00095">
        <ele>864.6</ele>
        <time>2020-01-09T10:18:01Z</time>
      </trkpt>
      <trkpt lat="46.69558" lon="6.00102">
        <ele>866.1</ele>
        <time>2020-01-09T10:18:07Z</time>
      </trkpt>
      <trkpt lat="46.69556" lon="6.00109">
        <ele>867.1</ele>
        <time>2020-01-09T10:18:12Z</time>
      </trkpt>
      <trkpt lat="46.69553" lon="6.00114">
        <ele>867.9</ele>
        <time>2020-01-09T10:18:17Z</time>
      </trkpt>
      <trkpt lat="46.6955" lon="6.0012">
        <ele>868.5</ele>
        <time>2020-01-09T10:18:22Z</time>
      </trkpt>
      <trkpt lat="46.69548" lon="6.00125">
        <ele>868.8</ele>
        <time>2020-01-09T10:18:26Z</time>
      </trkpt>
      <trkpt lat="46.69546" lon="6.00132">
        <ele>869.1</ele>
        <time>2020-01-09T10:18:29Z</time>
      </trkpt>
      <trkpt lat="46.69541" lon="6.00145">
        <ele>869.5</ele>
        <time>2020-01-09T10:18:40Z</time>
      </trkpt>
      <trkpt lat="46.69539" lon="6.00152">
        <ele>869.5</ele>
        <time>2020-01-09T10:18:47Z</time>
      </trkpt>
      <trkpt lat="46.69536" lon="6.00158">
        <ele>869.6</ele>
        <time>2020-01-09T10:18:51Z</time>
      </trkpt>
      <trkpt lat="46.69533" lon="6.00164">
        <ele>869.5</ele>
        <time>2020-01-09T10:18:56Z</time>
      </trkpt>
      <trkpt lat="46.6953" lon="6.0017">
        <ele>869.4</ele>
        <time>2020-01-09T10:19:03Z</time>
      </trkpt>
      <trkpt lat="46.69527" lon="6.00175">
        <ele>869.3</ele>
        <time>2020-01-09T10:19:06Z</time>
      </trkpt>
      <trkpt lat="46.69523" lon="6.0018">
        <ele>869.2</ele>
        <time>2020-01-09T10:19:10Z</time>
      </trkpt>
      <trkpt lat="46.69518" lon="6.00185">
        <ele>869.3</ele>
        <time>2020-01-09T10:19:16Z</time>
      </trkpt>
      <trkpt lat="46.69514" lon="6.00189">
        <ele>869.5</ele>
        <time>2020-01-09T10:19:21Z</time>
      </trkpt>
      <trkpt lat="46.69509" lon="6.00193">
        <ele>869.6</ele>
        <time>2020-01-09T10:19:25Z</time>
      </trkpt>
      <trkpt lat="46.69505" lon="6.00198">
        <ele>869.6</ele>
        <time>2020-01-09T10:19:29Z</time>
      </trkpt>
      <trkpt lat="46.69503" lon="6.00205">
        <ele>869.5</ele>
        <time>2020-01-09T10:19:34Z</time>
      </trkpt>
      <trkpt lat="46.69504" lon="6.00212">
        <ele>869.2</ele>
        <time>2020-01-09T10:19:38Z</time>
      </trkpt>
      <trkpt lat="46.69506" lon="6.0022">
        <ele>868.7</ele>
        <time>2020-01-09T10:19:43Z</time>
      </trkpt>
      <trkpt lat="46.69508" lon="6.00226">
        <ele>868.2</ele>
        <time>2020-01-09T10:19:48Z</time>
      </trkpt>
      <trkpt lat="46.69508" lon="6.00233">
        <ele>867.5</ele>
        <time>2020-01-09T10:19:55Z</time>
      </trkpt>
      <trkpt lat="46.69507" lon="6.00239">
        <ele>866.8</ele>
        <time>2020-01-09T10:20:01Z</time>
      </trkpt>
      <trkpt lat="46.69507" lon="6.00246">
        <ele>866.2</ele>
        <time>2020-01-09T10:20:05Z</time>
      </trkpt>
      <trkpt lat="46.69507" lon="6.00252">
        <ele>865.6</ele>
        <time>2020-01-09T10:20:10Z</time>
      </trkpt>
      <trkpt lat="46.69506" lon="6.00259">
        <ele>865.2</ele>
        <time>2020-01-09T10:20:14Z</time>
      </trkpt>
      <trkpt lat="46.69507" lon="6.00266">
        <ele>864.7</ele>
        <time>2020-01-09T10:20:18Z</time>
      </trkpt>
      <trkpt lat="46.69506" lon="6.00274">
        <ele>864.2</ele>
        <time>2020-01-09T10:20:22Z</time>
      </trkpt>
      <trkpt lat="46.69505" lon="6.0028">
        <ele>863.5</ele>
        <time>2020-01-09T10:20:31Z</time>
      </trkpt>
      <trkpt lat="46.69504" lon="6.00288">
        <ele>863.1</ele>
        <time>2020-01-09T10:20:37Z</time>
      </trkpt>
      <trkpt lat="46.69504" lon="6.00296">
        <ele>862.8</ele>
        <time>2020-01-09T10:20:43Z</time>
      </trkpt>
      <trkpt lat="46.69503" lon="6.00304">
        <ele>862.5</ele>
        <time>2020-01-09T10:20:47Z</time>
      </trkpt>
      <trkpt lat="46.69501" lon="6.00312">
        <ele>862.4</ele>
        <time>2020-01-09T10:20:51Z</time>
      </trkpt>
      <trkpt lat="46.69499" lon="6.00318">
        <ele>862.3</ele>
        <time>2020-01-09T10:20:55Z</time>
      </trkpt>
      <trkpt lat="46.69499" lon="6.00325">
        <ele>862.2</ele>
        <time>2020-01-09T10:20:59Z</time>
      </trkpt>
      <trkpt lat="46.69498" lon="6.00332">
        <ele>862.3</ele>
        <time>2020-01-09T10:21:04Z</time>
      </trkpt>
      <trkpt lat="46.69495" lon="6.0034">
        <ele>862.4</ele>
        <time>2020-01-09T10:21:08Z</time>
      </trkpt>
      <trkpt lat="46.69494" lon="6.00347">
        <ele>862.8</ele>
        <time>2020-01-09T10:21:12Z</time>
      </trkpt>
      <trkpt lat="46.69493" lon="6.00355">
        <ele>863.2</ele>
        <time>2020-01-09T10:21:17Z</time>
      </trkpt>
      <trkpt lat="46.69492" lon="6.00361">
        <ele>863.7</ele>
        <time>2020-01-09T10:21:23Z</time>
      </trkpt>
      <trkpt lat="46.69489" lon="6.00367">
        <ele>863.6</ele>
        <time>2020-01-09T10:21:33Z</time>
      </trkpt>
      <trkpt lat="46.69488" lon="6.00375">
        <ele>863.3</ele>
        <time>2020-01-09T10:21:39Z</time>
      </trkpt>
      <trkpt lat="46.69486" lon="6.00382">
        <ele>863.1</ele>
        <time>2020-01-09T10:21:43Z</time>
      </trkpt>
      <trkpt lat="46.69486" lon="6.00389">
        <ele>862.7</ele>
        <time>2020-01-09T10:21:49Z</time>
      </trkpt>
      <trkpt lat="46.69483" lon="6.00394">
        <ele>861.9</ele>
        <time>2020-01-09T10:21:56Z</time>
      </trkpt>
      <trkpt lat="46.69476" lon="6.00411">
        <ele>860.6</ele>
        <time>2020-01-09T10:22:06Z</time>
      </trkpt>
      <trkpt lat="46.69473" lon="6.00418">
        <ele>860.7</ele>
        <time>2020-01-09T10:22:13Z</time>
      </trkpt>
      <trkpt lat="46.6947" lon="6.00424">
        <ele>860.7</ele>
        <time>2020-01-09T10:22:18Z</time>
      </trkpt>
      <trkpt lat="46.69467" lon="6.0043">
        <ele>860.9</ele>
        <time>2020-01-09T10:22:21Z</time>
      </trkpt>
      <trkpt lat="46.69464" lon="6.00437">
        <ele>861.1</ele>
        <time>2020-01-09T10:22:25Z</time>
      </trkpt>
      <trkpt lat="46.69462" lon="6.00444">
        <ele>861.1</ele>
        <time>2020-01-09T10:22:30Z</time>
      </trkpt>
      <trkpt lat="46.69459" lon="6.0045">
        <ele>861</ele>
        <time>2020-01-09T10:22:34Z</time>
      </trkpt>
      <trkpt lat="46.69456" lon="6.00455">
        <ele>860.9</ele>
        <time>2020-01-09T10:22:39Z</time>
      </trkpt>
      <trkpt lat="46.69454" lon="6.00462">
        <ele>860.6</ele>
        <time>2020-01-09T10:22:44Z</time>
      </trkpt>
      <trkpt lat="46.69451" lon="6.00468">
        <ele>860</ele>
        <time>2020-01-09T10:22:49Z</time>
      </trkpt>
      <trkpt lat="46.69448" lon="6.00473">
        <ele>859.6</ele>
        <time>2020-01-09T10:22:52Z</time>
      </trkpt>
      <trkpt lat="46.69445" lon="6.0048">
        <ele>859.2</ele>
        <time>2020-01-09T10:22:56Z</time>
      </trkpt>
      <trkpt lat="46.69444" lon="6.00487">
        <ele>859.1</ele>
        <time>2020-01-09T10:23:00Z</time>
      </trkpt>
      <trkpt lat="46.69443" lon="6.00494">
        <ele>858.7</ele>
        <time>2020-01-09T10:23:05Z</time>
      </trkpt>
      <trkpt lat="46.69442" lon="6.00501">
        <ele>858.1</ele>
        <time>2020-01-09T10:23:13Z</time>
      </trkpt>
      <trkpt lat="46.6944" lon="6.00508">
        <ele>857.6</ele>
        <time>2020-01-09T10:23:19Z</time>
      </trkpt>
      <trkpt lat="46.69439" lon="6.00515">
        <ele>856.9</ele>
        <time>2020-01-09T10:23:25Z</time>
      </trkpt>
      <trkpt lat="46.69437" lon="6.00522">
        <ele>855.5</ele>
        <time>2020-01-09T10:23:34Z</time>
      </trkpt>
      <trkpt lat="46.69436" lon="6.00529">
        <ele>854.5</ele>
        <time>2020-01-09T10:23:39Z</time>
      </trkpt>
      <trkpt lat="46.69435" lon="6.00536">
        <ele>853.7</ele>
        <time>2020-01-09T10:23:44Z</time>
      </trkpt>
      <trkpt lat="46.69433" lon="6.00542">
        <ele>852.9</ele>
        <time>2020-01-09T10:23:49Z</time>
      </trkpt>
      <trkpt lat="46.69431" lon="6.00549">
        <ele>852.2</ele>
        <time>2020-01-09T10:23:54Z</time>
      </trkpt>
      <trkpt lat="46.69432" lon="6.00556">
        <ele>851.7</ele>
        <time>2020-01-09T10:23:58Z</time>
      </trkpt>
      <trkpt lat="46.69432" lon="6.00563">
        <ele>851.4</ele>
        <time>2020-01-09T10:24:02Z</time>
      </trkpt>
      <trkpt lat="46.69433" lon="6.0057">
        <ele>851.1</ele>
        <time>2020-01-09T10:24:06Z</time>
      </trkpt>
      <trkpt lat="46.69433" lon="6.00579">
        <ele>851</ele>
        <time>2020-01-09T10:24:09Z</time>
      </trkpt>
      <trkpt lat="46.69434" lon="6.00585">
        <ele>850.9</ele>
        <time>2020-01-09T10:24:12Z</time>
      </trkpt>
      <trkpt lat="46.69437" lon="6.00592">
        <ele>851</ele>
        <time>2020-01-09T10:24:17Z</time>
      </trkpt>
      <trkpt lat="46.6944" lon="6.00598">
        <ele>851.4</ele>
        <time>2020-01-09T10:24:22Z</time>
      </trkpt>
      <trkpt lat="46.69443" lon="6.00603">
        <ele>851.9</ele>
        <time>2020-01-09T10:24:27Z</time>
      </trkpt>
      <trkpt lat="46.69447" lon="6.00608">
        <ele>852.3</ele>
        <time>2020-01-09T10:24:31Z</time>
      </trkpt>
      <trkpt lat="46.69449" lon="6.00614">
        <ele>853</ele>
        <time>2020-01-09T10:24:38Z</time>
      </trkpt>
      <trkpt lat="46.69452" lon="6.0062">
        <ele>853.4</ele>
        <time>2020-01-09T10:24:43Z</time>
      </trkpt>
      <trkpt lat="46.69454" lon="6.00627">
        <ele>853.7</ele>
        <time>2020-01-09T10:24:48Z</time>
      </trkpt>
      <trkpt lat="46.69456" lon="6.00634">
        <ele>853.9</ele>
        <time>2020-01-09T10:24:52Z</time>
      </trkpt>
      <trkpt lat="46.69457" lon="6.00641">
        <ele>854.1</ele>
        <time>2020-01-09T10:24:56Z</time>
      </trkpt>
      <trkpt lat="46.69458" lon="6.00647">
        <ele>854.2</ele>
        <time>2020-01-09T10:25:01Z</time>
      </trkpt>
      <trkpt lat="46.69457" lon="6.00654">
        <ele>854.4</ele>
        <time>2020-01-09T10:25:06Z</time>
      </trkpt>
      <trkpt lat="46.69454" lon="6.0066">
        <ele>854.8</ele>
        <time>2020-01-09T10:25:12Z</time>
      </trkpt>
      <trkpt lat="46.6945" lon="6.00665">
        <ele>854.9</ele>
        <time>2020-01-09T10:25:17Z</time>
      </trkpt>
      <trkpt lat="46.69445" lon="6.00669">
        <ele>855</ele>
        <time>2020-01-09T10:25:22Z</time>
      </trkpt>
      <trkpt lat="46.69441" lon="6.00672">
        <ele>855</ele>
        <time>2020-01-09T10:25:27Z</time>
      </trkpt>
      <trkpt lat="46.69439" lon="6.00678">
        <ele>855</ele>
        <time>2020-01-09T10:25:33Z</time>
      </trkpt>
      <trkpt lat="46.69437" lon="6.00685">
        <ele>854.9</ele>
        <time>2020-01-09T10:25:37Z</time>
      </trkpt>
      <trkpt lat="46.69434" lon="6.00692">
        <ele>855.5</ele>
        <time>2020-01-09T10:26:05Z</time>
      </trkpt>
      <trkpt lat="46.69433" lon="6.00699">
        <ele>855.2</ele>
        <time>2020-01-09T10:26:17Z</time>
      </trkpt>
      <trkpt lat="46.69436" lon="6.00694">
        <ele>853.1</ele>
        <time>2020-01-09T10:26:51Z</time>
      </trkpt>
      <trkpt lat="46.69439" lon="6.007">
        <ele>853.1</ele>
        <time>2020-01-09T10:27:40Z</time>
      </trkpt>
      <trkpt lat="46.69439" lon="6.00707">
        <ele>853</ele>
        <time>2020-01-09T10:27:44Z</time>
      </trkpt>
      <trkpt lat="46.6944" lon="6.00714">
        <ele>853.1</ele>
        <time>2020-01-09T10:27:48Z</time>
      </trkpt>
      <trkpt lat="46.69441" lon="6.00721">
        <ele>853.3</ele>
        <time>2020-01-09T10:27:52Z</time>
      </trkpt>
      <trkpt lat="46.69443" lon="6.00729">
        <ele>853.6</ele>
        <time>2020-01-09T10:27:56Z</time>
      </trkpt>
      <trkpt lat="46.69443" lon="6.00736">
        <ele>854</ele>
        <time>2020-01-09T10:28:00Z</time>
      </trkpt>
      <trkpt lat="46.69443" lon="6.00744">
        <ele>854.6</ele>
        <time>2020-01-09T10:28:06Z</time>
      </trkpt>
      <trkpt lat="46.69442" lon="6.00751">
        <ele>855</ele>
        <time>2020-01-09T10:28:10Z</time>
      </trkpt>
      <trkpt lat="46.69441" lon="6.00757">
        <ele>855.3</ele>
        <time>2020-01-09T10:28:16Z</time>
      </trkpt>
      <trkpt lat="46.6944" lon="6.00764">
        <ele>855.8</ele>
        <time>2020-01-09T10:28:21Z</time>
      </trkpt>
      <trkpt lat="46.69439" lon="6.00771">
        <ele>856.1</ele>
        <time>2020-01-09T10:28:27Z</time>
      </trkpt>
      <trkpt lat="46.69437" lon="6.00778">
        <ele>856.1</ele>
        <time>2020-01-09T10:28:33Z</time>
      </trkpt>
      <trkpt lat="46.69436" lon="6.00786">
        <ele>855.9</ele>
        <time>2020-01-09T10:28:37Z</time>
      </trkpt>
      <trkpt lat="46.69436" lon="6.00794">
        <ele>855.6</ele>
        <time>2020-01-09T10:28:42Z</time>
      </trkpt>
      <trkpt lat="46.69436" lon="6.00801">
        <ele>855.3</ele>
        <time>2020-01-09T10:28:46Z</time>
      </trkpt>
      <trkpt lat="46.69436" lon="6.00808">
        <ele>855.3</ele>
        <time>2020-01-09T10:28:50Z</time>
      </trkpt>
      <trkpt lat="46.69438" lon="6.00816">
        <ele>855.6</ele>
        <time>2020-01-09T10:28:56Z</time>
      </trkpt>
      <trkpt lat="46.69438" lon="6.00824">
        <ele>855.7</ele>
        <time>2020-01-09T10:29:00Z</time>
      </trkpt>
      <trkpt lat="46.69438" lon="6.00831">
        <ele>855.7</ele>
        <time>2020-01-09T10:29:04Z</time>
      </trkpt>
      <trkpt lat="46.6944" lon="6.00838">
        <ele>855.7</ele>
        <time>2020-01-09T10:29:08Z</time>
      </trkpt>
      <trkpt lat="46.69441" lon="6.00845">
        <ele>855.4</ele>
        <time>2020-01-09T10:29:12Z</time>
      </trkpt>
      <trkpt lat="46.69441" lon="6.00853">
        <ele>855</ele>
        <time>2020-01-09T10:29:17Z</time>
      </trkpt>
      <trkpt lat="46.69442" lon="6.0086">
        <ele>854.7</ele>
        <time>2020-01-09T10:29:21Z</time>
      </trkpt>
      <trkpt lat="46.69444" lon="6.00866">
        <ele>854.5</ele>
        <time>2020-01-09T10:29:26Z</time>
      </trkpt>
      <trkpt lat="46.69445" lon="6.00873">
        <ele>854.4</ele>
        <time>2020-01-09T10:29:31Z</time>
      </trkpt>
      <trkpt lat="46.69448" lon="6.00879">
        <ele>854.3</ele>
        <time>2020-01-09T10:29:37Z</time>
      </trkpt>
      <trkpt lat="46.69449" lon="6.00886">
        <ele>854.2</ele>
        <time>2020-01-09T10:29:42Z</time>
      </trkpt>
      <trkpt lat="46.6945" lon="6.00894">
        <ele>853.8</ele>
        <time>2020-01-09T10:29:46Z</time>
      </trkpt>
      <trkpt lat="46.69452" lon="6.009">
        <ele>853.5</ele>
        <time>2020-01-09T10:29:50Z</time>
      </trkpt>
      <trkpt lat="46.69454" lon="6.00906">
        <ele>853</ele>
        <time>2020-01-09T10:29:54Z</time>
      </trkpt>
      <trkpt lat="46.69457" lon="6.00912">
        <ele>852.5</ele>
        <time>2020-01-09T10:29:58Z</time>
      </trkpt>
      <trkpt lat="46.69459" lon="6.00918">
        <ele>852.1</ele>
        <time>2020-01-09T10:30:02Z</time>
      </trkpt>
      <trkpt lat="46.69462" lon="6.00925">
        <ele>851.6</ele>
        <time>2020-01-09T10:30:06Z</time>
      </trkpt>
      <trkpt lat="46.69463" lon="6.00932">
        <ele>851</ele>
        <time>2020-01-09T10:30:11Z</time>
      </trkpt>
      <trkpt lat="46.69465" lon="6.00938">
        <ele>850.7</ele>
        <time>2020-01-09T10:30:15Z</time>
      </trkpt>
      <trkpt lat="46.69465" lon="6.00947">
        <ele>850.2</ele>
        <time>2020-01-09T10:30:20Z</time>
      </trkpt>
      <trkpt lat="46.69464" lon="6.00954">
        <ele>849.5</ele>
        <time>2020-01-09T10:30:25Z</time>
      </trkpt>
      <trkpt lat="46.69464" lon="6.00961">
        <ele>848.7</ele>
        <time>2020-01-09T10:30:29Z</time>
      </trkpt>
      <trkpt lat="46.69463" lon="6.00968">
        <ele>847.8</ele>
        <time>2020-01-09T10:30:35Z</time>
      </trkpt>
      <trkpt lat="46.69461" lon="6.00976">
        <ele>847.4</ele>
        <time>2020-01-09T10:30:39Z</time>
      </trkpt>
      <trkpt lat="46.69457" lon="6.00981">
        <ele>846.8</ele>
        <time>2020-01-09T10:30:44Z</time>
      </trkpt>
      <trkpt lat="46.69453" lon="6.00985">
        <ele>846.2</ele>
        <time>2020-01-09T10:30:48Z</time>
      </trkpt>
      <trkpt lat="46.69449" lon="6.00989">
        <ele>845.6</ele>
        <time>2020-01-09T10:30:53Z</time>
      </trkpt>
      <trkpt lat="46.69445" lon="6.00993">
        <ele>844.7</ele>
        <time>2020-01-09T10:31:03Z</time>
      </trkpt>
      <trkpt lat="46.69442" lon="6.00999">
        <ele>843.8</ele>
        <time>2020-01-09T10:31:11Z</time>
      </trkpt>
      <trkpt lat="46.69438" lon="6.01001">
        <ele>843.1</ele>
        <time>2020-01-09T10:31:15Z</time>
      </trkpt>
      <trkpt lat="46.69432" lon="6.01004">
        <ele>842.4</ele>
        <time>2020-01-09T10:31:19Z</time>
      </trkpt>
      <trkpt lat="46.69427" lon="6.01007">
        <ele>841.6</ele>
        <time>2020-01-09T10:31:23Z</time>
      </trkpt>
      <trkpt lat="46.69422" lon="6.0101">
        <ele>840.8</ele>
        <time>2020-01-09T10:31:27Z</time>
      </trkpt>
      <trkpt lat="46.69416" lon="6.01012">
        <ele>840.1</ele>
        <time>2020-01-09T10:31:30Z</time>
      </trkpt>
      <trkpt lat="46.6941" lon="6.01014">
        <ele>839.4</ele>
        <time>2020-01-09T10:31:33Z</time>
      </trkpt>
      <trkpt lat="46.69405" lon="6.01016">
        <ele>838.8</ele>
        <time>2020-01-09T10:31:36Z</time>
      </trkpt>
      <trkpt lat="46.69401" lon="6.01019">
        <ele>838.2</ele>
        <time>2020-01-09T10:31:39Z</time>
      </trkpt>
      <trkpt lat="46.69395" lon="6.01023">
        <ele>837.6</ele>
        <time>2020-01-09T10:31:43Z</time>
      </trkpt>
      <trkpt lat="46.69391" lon="6.01026">
        <ele>837</ele>
        <time>2020-01-09T10:31:47Z</time>
      </trkpt>
      <trkpt lat="46.69387" lon="6.01029">
        <ele>836.2</ele>
        <time>2020-01-09T10:31:52Z</time>
      </trkpt>
      <trkpt lat="46.69382" lon="6.01032">
        <ele>835.6</ele>
        <time>2020-01-09T10:31:57Z</time>
      </trkpt>
      <trkpt lat="46.69377" lon="6.01034">
        <ele>835.2</ele>
        <time>2020-01-09T10:32:01Z</time>
      </trkpt>
      <trkpt lat="46.69372" lon="6.01037">
        <ele>835</ele>
        <time>2020-01-09T10:32:07Z</time>
      </trkpt>
      <trkpt lat="46.69368" lon="6.01041">
        <ele>834.5</ele>
        <time>2020-01-09T10:32:10Z</time>
      </trkpt>
      <trkpt lat="46.69364" lon="6.01045">
        <ele>834</ele>
        <time>2020-01-09T10:32:14Z</time>
      </trkpt>
      <trkpt lat="46.6936" lon="6.01049">
        <ele>833.7</ele>
        <time>2020-01-09T10:32:18Z</time>
      </trkpt>
      <trkpt lat="46.69355" lon="6.01052">
        <ele>833.3</ele>
        <time>2020-01-09T10:32:22Z</time>
      </trkpt>
      <trkpt lat="46.6935" lon="6.01055">
        <ele>833</ele>
        <time>2020-01-09T10:32:26Z</time>
      </trkpt>
      <trkpt lat="46.69346" lon="6.01057">
        <ele>832.9</ele>
        <time>2020-01-09T10:32:30Z</time>
      </trkpt>
      <trkpt lat="46.69341" lon="6.01061">
        <ele>832.8</ele>
        <time>2020-01-09T10:32:34Z</time>
      </trkpt>
      <trkpt lat="46.69337" lon="6.01064">
        <ele>832.9</ele>
        <time>2020-01-09T10:32:39Z</time>
      </trkpt>
      <trkpt lat="46.69332" lon="6.01066">
        <ele>833.1</ele>
        <time>2020-01-09T10:32:45Z</time>
      </trkpt>
      <trkpt lat="46.69327" lon="6.01069">
        <ele>833.2</ele>
        <time>2020-01-09T10:32:51Z</time>
      </trkpt>
      <trkpt lat="46.69323" lon="6.01071">
        <ele>833.2</ele>
        <time>2020-01-09T10:32:55Z</time>
      </trkpt>
      <trkpt lat="46.69318" lon="6.01075">
        <ele>833.2</ele>
        <time>2020-01-09T10:33:00Z</time>
      </trkpt>
      <trkpt lat="46.69313" lon="6.01078">
        <ele>833.2</ele>
        <time>2020-01-09T10:33:05Z</time>
      </trkpt>
      <trkpt lat="46.69309" lon="6.01081">
        <ele>833.5</ele>
        <time>2020-01-09T10:33:10Z</time>
      </trkpt>
      <trkpt lat="46.69305" lon="6.01085">
        <ele>833.8</ele>
        <time>2020-01-09T10:33:16Z</time>
      </trkpt>
      <trkpt lat="46.69301" lon="6.01088">
        <ele>834</ele>
        <time>2020-01-09T10:33:20Z</time>
      </trkpt>
      <trkpt lat="46.69295" lon="6.01089">
        <ele>834.2</ele>
        <time>2020-01-09T10:33:24Z</time>
      </trkpt>
      <trkpt lat="46.6929" lon="6.01089">
        <ele>834.2</ele>
        <time>2020-01-09T10:33:29Z</time>
      </trkpt>
      <trkpt lat="46.69284" lon="6.01092">
        <ele>834.2</ele>
        <time>2020-01-09T10:33:33Z</time>
      </trkpt>
      <trkpt lat="46.6928" lon="6.01095">
        <ele>834</ele>
        <time>2020-01-09T10:33:36Z</time>
      </trkpt>
      <trkpt lat="46.69275" lon="6.01098">
        <ele>833.9</ele>
        <time>2020-01-09T10:33:41Z</time>
      </trkpt>
      <trkpt lat="46.69271" lon="6.01101">
        <ele>833.7</ele>
        <time>2020-01-09T10:33:47Z</time>
      </trkpt>
      <trkpt lat="46.69266" lon="6.01103">
        <ele>833.7</ele>
        <time>2020-01-09T10:33:53Z</time>
      </trkpt>
      <trkpt lat="46.69262" lon="6.01106">
        <ele>833.8</ele>
        <time>2020-01-09T10:34:00Z</time>
      </trkpt>
      <trkpt lat="46.69257" lon="6.01109">
        <ele>833.6</ele>
        <time>2020-01-09T10:34:06Z</time>
      </trkpt>
      <trkpt lat="46.69253" lon="6.01114">
        <ele>833.7</ele>
        <time>2020-01-09T10:34:10Z</time>
      </trkpt>
      <trkpt lat="46.69249" lon="6.01118">
        <ele>833.9</ele>
        <time>2020-01-09T10:34:14Z</time>
      </trkpt>
      <trkpt lat="46.69245" lon="6.01122">
        <ele>834.2</ele>
        <time>2020-01-09T10:34:19Z</time>
      </trkpt>
      <trkpt lat="46.6924" lon="6.01125">
        <ele>834.6</ele>
        <time>2020-01-09T10:34:24Z</time>
      </trkpt>
      <trkpt lat="46.69235" lon="6.01129">
        <ele>834.8</ele>
        <time>2020-01-09T10:34:29Z</time>
      </trkpt>
      <trkpt lat="46.69232" lon="6.01133">
        <ele>834.8</ele>
        <time>2020-01-09T10:34:33Z</time>
      </trkpt>
      <trkpt lat="46.69228" lon="6.01137">
        <ele>835</ele>
        <time>2020-01-09T10:34:37Z</time>
      </trkpt>
      <trkpt lat="46.69224" lon="6.01142">
        <ele>835.2</ele>
        <time>2020-01-09T10:34:41Z</time>
      </trkpt>
      <trkpt lat="46.69219" lon="6.01146">
        <ele>835.3</ele>
        <time>2020-01-09T10:34:47Z</time>
      </trkpt>
      <trkpt lat="46.69215" lon="6.01151">
        <ele>835.4</ele>
        <time>2020-01-09T10:34:49Z</time>
      </trkpt>
      <trkpt lat="46.69211" lon="6.01155">
        <ele>835.7</ele>
        <time>2020-01-09T10:34:53Z</time>
      </trkpt>
      <trkpt lat="46.69208" lon="6.0116">
        <ele>835.8</ele>
        <time>2020-01-09T10:34:57Z</time>
      </trkpt>
      <trkpt lat="46.69205" lon="6.01165">
        <ele>836</ele>
        <time>2020-01-09T10:35:03Z</time>
      </trkpt>
      <trkpt lat="46.692" lon="6.01173">
        <ele>836.4</ele>
        <time>2020-01-09T10:35:05Z</time>
      </trkpt>
      <trkpt lat="46.69196" lon="6.01178">
        <ele>837</ele>
        <time>2020-01-09T10:35:09Z</time>
      </trkpt>
      <trkpt lat="46.69193" lon="6.01184">
        <ele>837.4</ele>
        <time>2020-01-09T10:35:14Z</time>
      </trkpt>
      <trkpt lat="46.69189" lon="6.01189">
        <ele>837.5</ele>
        <time>2020-01-09T10:35:17Z</time>
      </trkpt>
      <trkpt lat="46.69186" lon="6.01195">
        <ele>837.6</ele>
        <time>2020-01-09T10:35:21Z</time>
      </trkpt>
      <trkpt lat="46.69183" lon="6.012">
        <ele>837.7</ele>
        <time>2020-01-09T10:35:25Z</time>
      </trkpt>
      <trkpt lat="46.6918" lon="6.01205">
        <ele>837.8</ele>
        <time>2020-01-09T10:35:30Z</time>
      </trkpt>
      <trkpt lat="46.6917" lon="6.01217">
        <ele>838</ele>
        <time>2020-01-09T10:35:41Z</time>
      </trkpt>
      <trkpt lat="46.69167" lon="6.01223">
        <ele>838</ele>
        <time>2020-01-09T10:35:46Z</time>
      </trkpt>
      <trkpt lat="46.6916" lon="6.01237">
        <ele>838.8</ele>
        <time>2020-01-09T10:35:57Z</time>
      </trkpt>
      <trkpt lat="46.69152" lon="6.01251">
        <ele>840.9</ele>
        <time>2020-01-09T10:36:12Z</time>
      </trkpt>
      <trkpt lat="46.69148" lon="6.01255">
        <ele>841.5</ele>
        <time>2020-01-09T10:36:17Z</time>
      </trkpt>
      <trkpt lat="46.69142" lon="6.01258">
        <ele>842.2</ele>
        <time>2020-01-09T10:36:21Z</time>
      </trkpt>
      <trkpt lat="46.69138" lon="6.01261">
        <ele>842.5</ele>
        <time>2020-01-09T10:36:25Z</time>
      </trkpt>
      <trkpt lat="46.69134" lon="6.01263">
        <ele>843</ele>
        <time>2020-01-09T10:36:29Z</time>
      </trkpt>
      <trkpt lat="46.69129" lon="6.01268">
        <ele>843.6</ele>
        <time>2020-01-09T10:36:34Z</time>
      </trkpt>
      <trkpt lat="46.69125" lon="6.01271">
        <ele>844</ele>
        <time>2020-01-09T10:36:38Z</time>
      </trkpt>
      <trkpt lat="46.69121" lon="6.01275">
        <ele>844.4</ele>
        <time>2020-01-09T10:36:44Z</time>
      </trkpt>
      <trkpt lat="46.69116" lon="6.01279">
        <ele>844.6</ele>
        <time>2020-01-09T10:36:49Z</time>
      </trkpt>
      <trkpt lat="46.69111" lon="6.01282">
        <ele>844.6</ele>
        <time>2020-01-09T10:36:53Z</time>
      </trkpt>
      <trkpt lat="46.69107" lon="6.01287">
        <ele>844.7</ele>
        <time>2020-01-09T10:36:57Z</time>
      </trkpt>
      <trkpt lat="46.69103" lon="6.01291">
        <ele>844.8</ele>
        <time>2020-01-09T10:37:00Z</time>
      </trkpt>
      <trkpt lat="46.69099" lon="6.01296">
        <ele>844.8</ele>
        <time>2020-01-09T10:37:04Z</time>
      </trkpt>
      <trkpt lat="46.69095" lon="6.01299">
        <ele>844.8</ele>
        <time>2020-01-09T10:37:08Z</time>
      </trkpt>
      <trkpt lat="46.69091" lon="6.01302">
        <ele>844.8</ele>
        <time>2020-01-09T10:37:11Z</time>
      </trkpt>
      <trkpt lat="46.69086" lon="6.01306">
        <ele>844.7</ele>
        <time>2020-01-09T10:37:15Z</time>
      </trkpt>
      <trkpt lat="46.69076" lon="6.01318">
        <ele>844.8</ele>
        <time>2020-01-09T10:37:25Z</time>
      </trkpt>
      <trkpt lat="46.69073" lon="6.01324">
        <ele>844.6</ele>
        <time>2020-01-09T10:37:29Z</time>
      </trkpt>
      <trkpt lat="46.69069" lon="6.01329">
        <ele>844.5</ele>
        <time>2020-01-09T10:37:33Z</time>
      </trkpt>
      <trkpt lat="46.69064" lon="6.01333">
        <ele>844.5</ele>
        <time>2020-01-09T10:37:38Z</time>
      </trkpt>
      <trkpt lat="46.69059" lon="6.01338">
        <ele>844.5</ele>
        <time>2020-01-09T10:37:41Z</time>
      </trkpt>
      <trkpt lat="46.69056" lon="6.01342">
        <ele>844.5</ele>
        <time>2020-01-09T10:37:45Z</time>
      </trkpt>
      <trkpt lat="46.69053" lon="6.01349">
        <ele>844.6</ele>
        <time>2020-01-09T10:37:49Z</time>
      </trkpt>
      <trkpt lat="46.69049" lon="6.01354">
        <ele>845</ele>
        <time>2020-01-09T10:37:54Z</time>
      </trkpt>
      <trkpt lat="46.69046" lon="6.01359">
        <ele>845.3</ele>
        <time>2020-01-09T10:37:58Z</time>
      </trkpt>
      <trkpt lat="46.69042" lon="6.01364">
        <ele>845.4</ele>
        <time>2020-01-09T10:38:02Z</time>
      </trkpt>
      <trkpt lat="46.69038" lon="6.01369">
        <ele>845.5</ele>
        <time>2020-01-09T10:38:07Z</time>
      </trkpt>
      <trkpt lat="46.69034" lon="6.01373">
        <ele>845.5</ele>
        <time>2020-01-09T10:38:11Z</time>
      </trkpt>
      <trkpt lat="46.6903" lon="6.01378">
        <ele>845.7</ele>
        <time>2020-01-09T10:38:15Z</time>
      </trkpt>
      <trkpt lat="46.69025" lon="6.01382">
        <ele>845.9</ele>
        <time>2020-01-09T10:38:19Z</time>
      </trkpt>
      <trkpt lat="46.6902" lon="6.01386">
        <ele>845.9</ele>
        <time>2020-01-09T10:38:23Z</time>
      </trkpt>
      <trkpt lat="46.69016" lon="6.01389">
        <ele>846.1</ele>
        <time>2020-01-09T10:38:27Z</time>
      </trkpt>
      <trkpt lat="46.69011" lon="6.01392">
        <ele>846.1</ele>
        <time>2020-01-09T10:38:31Z</time>
      </trkpt>
      <trkpt lat="46.69006" lon="6.01394">
        <ele>846.2</ele>
        <time>2020-01-09T10:38:36Z</time>
      </trkpt>
      <trkpt lat="46.69" lon="6.01397">
        <ele>846.4</ele>
        <time>2020-01-09T10:38:41Z</time>
      </trkpt>
      <trkpt lat="46.68996" lon="6.014">
        <ele>846.4</ele>
        <time>2020-01-09T10:38:45Z</time>
      </trkpt>
      <trkpt lat="46.68992" lon="6.01403">
        <ele>846.1</ele>
        <time>2020-01-09T10:38:50Z</time>
      </trkpt>
      <trkpt lat="46.68987" lon="6.01407">
        <ele>845.7</ele>
        <time>2020-01-09T10:38:55Z</time>
      </trkpt>
      <trkpt lat="46.68983" lon="6.01411">
        <ele>845.3</ele>
        <time>2020-01-09T10:38:59Z</time>
      </trkpt>
      <trkpt lat="46.68979" lon="6.01415">
        <ele>845.1</ele>
        <time>2020-01-09T10:39:02Z</time>
      </trkpt>
      <trkpt lat="46.68976" lon="6.01419">
        <ele>844.9</ele>
        <time>2020-01-09T10:39:06Z</time>
      </trkpt>
      <trkpt lat="46.68972" lon="6.01425">
        <ele>844.7</ele>
        <time>2020-01-09T10:39:11Z</time>
      </trkpt>
      <trkpt lat="46.68968" lon="6.01429">
        <ele>844.6</ele>
        <time>2020-01-09T10:39:15Z</time>
      </trkpt>
      <trkpt lat="46.68964" lon="6.01434">
        <ele>844.5</ele>
        <time>2020-01-09T10:39:19Z</time>
      </trkpt>
      <trkpt lat="46.68959" lon="6.01439">
        <ele>844.6</ele>
        <time>2020-01-09T10:39:23Z</time>
      </trkpt>
      <trkpt lat="46.68955" lon="6.01443">
        <ele>844.7</ele>
        <time>2020-01-09T10:39:27Z</time>
      </trkpt>
      <trkpt lat="46.68953" lon="6.01449">
        <ele>844.8</ele>
        <time>2020-01-09T10:39:32Z</time>
      </trkpt>
      <trkpt lat="46.68951" lon="6.01455">
        <ele>844.8</ele>
        <time>2020-01-09T10:39:36Z</time>
      </trkpt>
      <trkpt lat="46.68949" lon="6.01461">
        <ele>845.1</ele>
        <time>2020-01-09T10:39:41Z</time>
      </trkpt>
      <trkpt lat="46.68947" lon="6.01468">
        <ele>845.5</ele>
        <time>2020-01-09T10:39:46Z</time>
      </trkpt>
      <trkpt lat="46.68946" lon="6.01475">
        <ele>846</ele>
        <time>2020-01-09T10:39:50Z</time>
      </trkpt>
      <trkpt lat="46.68945" lon="6.01482">
        <ele>846.3</ele>
        <time>2020-01-09T10:39:54Z</time>
      </trkpt>
      <trkpt lat="46.68943" lon="6.01489">
        <ele>846.5</ele>
        <time>2020-01-09T10:39:58Z</time>
      </trkpt>
      <trkpt lat="46.68941" lon="6.01496">
        <ele>846.9</ele>
        <time>2020-01-09T10:40:02Z</time>
      </trkpt>
      <trkpt lat="46.68939" lon="6.01502">
        <ele>847.5</ele>
        <time>2020-01-09T10:40:06Z</time>
      </trkpt>
      <trkpt lat="46.68937" lon="6.01508">
        <ele>848</ele>
        <time>2020-01-09T10:40:10Z</time>
      </trkpt>
      <trkpt lat="46.68932" lon="6.01513">
        <ele>848.5</ele>
        <time>2020-01-09T10:40:15Z</time>
      </trkpt>
      <trkpt lat="46.68928" lon="6.01515">
        <ele>848.9</ele>
        <time>2020-01-09T10:40:19Z</time>
      </trkpt>
      <trkpt lat="46.68924" lon="6.01519">
        <ele>849.1</ele>
        <time>2020-01-09T10:40:22Z</time>
      </trkpt>
      <trkpt lat="46.68919" lon="6.01522">
        <ele>849.1</ele>
        <time>2020-01-09T10:40:27Z</time>
      </trkpt>
      <trkpt lat="46.68914" lon="6.01526">
        <ele>848.9</ele>
        <time>2020-01-09T10:40:33Z</time>
      </trkpt>
      <trkpt lat="46.6891" lon="6.01529">
        <ele>848.9</ele>
        <time>2020-01-09T10:40:38Z</time>
      </trkpt>
      <trkpt lat="46.68905" lon="6.01533">
        <ele>848.8</ele>
        <time>2020-01-09T10:40:43Z</time>
      </trkpt>
      <trkpt lat="46.68897" lon="6.01547">
        <ele>849.3</ele>
        <time>2020-01-09T10:40:57Z</time>
      </trkpt>
      <trkpt lat="46.68894" lon="6.01552">
        <ele>849.4</ele>
        <time>2020-01-09T10:41:03Z</time>
      </trkpt>
      <trkpt lat="46.68888" lon="6.01554">
        <ele>849.4</ele>
        <time>2020-01-09T10:41:08Z</time>
      </trkpt>
      <trkpt lat="46.68883" lon="6.01555">
        <ele>849.5</ele>
        <time>2020-01-09T10:41:14Z</time>
      </trkpt>
      <trkpt lat="46.68879" lon="6.01555">
        <ele>849.4</ele>
        <time>2020-01-09T10:41:18Z</time>
      </trkpt>
      <trkpt lat="46.68874" lon="6.01555">
        <ele>849.1</ele>
        <time>2020-01-09T10:41:23Z</time>
      </trkpt>
      <trkpt lat="46.68869" lon="6.01554">
        <ele>848.6</ele>
        <time>2020-01-09T10:41:27Z</time>
      </trkpt>
      <trkpt lat="46.68863" lon="6.01553">
        <ele>848.1</ele>
        <time>2020-01-09T10:41:31Z</time>
      </trkpt>
      <trkpt lat="46.68858" lon="6.01553">
        <ele>847.7</ele>
        <time>2020-01-09T10:41:35Z</time>
      </trkpt>
      <trkpt lat="46.68852" lon="6.01552">
        <ele>847.5</ele>
        <time>2020-01-09T10:41:40Z</time>
      </trkpt>
      <trkpt lat="46.68847" lon="6.01553">
        <ele>847.3</ele>
        <time>2020-01-09T10:41:45Z</time>
      </trkpt>
      <trkpt lat="46.68842" lon="6.01552">
        <ele>847.1</ele>
        <time>2020-01-09T10:41:50Z</time>
      </trkpt>
      <trkpt lat="46.68837" lon="6.0155">
        <ele>847.1</ele>
        <time>2020-01-09T10:41:53Z</time>
      </trkpt>
      <trkpt lat="46.68832" lon="6.01548">
        <ele>847.1</ele>
        <time>2020-01-09T10:41:58Z</time>
      </trkpt>
      <trkpt lat="46.68827" lon="6.01545">
        <ele>847.2</ele>
        <time>2020-01-09T10:42:02Z</time>
      </trkpt>
      <trkpt lat="46.68822" lon="6.01545">
        <ele>847.4</ele>
        <time>2020-01-09T10:42:07Z</time>
      </trkpt>
      <trkpt lat="46.68817" lon="6.01547">
        <ele>847.8</ele>
        <time>2020-01-09T10:42:13Z</time>
      </trkpt>
      <trkpt lat="46.68811" lon="6.0155">
        <ele>848</ele>
        <time>2020-01-09T10:42:17Z</time>
      </trkpt>
      <trkpt lat="46.68807" lon="6.01552">
        <ele>848.2</ele>
        <time>2020-01-09T10:42:20Z</time>
      </trkpt>
      <trkpt lat="46.68802" lon="6.01556">
        <ele>848.3</ele>
        <time>2020-01-09T10:42:24Z</time>
      </trkpt>
      <trkpt lat="46.68798" lon="6.0156">
        <ele>848.6</ele>
        <time>2020-01-09T10:42:30Z</time>
      </trkpt>
      <trkpt lat="46.68795" lon="6.01566">
        <ele>849.1</ele>
        <time>2020-01-09T10:42:38Z</time>
      </trkpt>
      <trkpt lat="46.68791" lon="6.01572">
        <ele>849.2</ele>
        <time>2020-01-09T10:42:44Z</time>
      </trkpt>
      <trkpt lat="46.68787" lon="6.01578">
        <ele>849.3</ele>
        <time>2020-01-09T10:42:48Z</time>
      </trkpt>
      <trkpt lat="46.68783" lon="6.01581">
        <ele>849.5</ele>
        <time>2020-01-09T10:42:52Z</time>
      </trkpt>
      <trkpt lat="46.68777" lon="6.01584">
        <ele>849.7</ele>
        <time>2020-01-09T10:42:56Z</time>
      </trkpt>
      <trkpt lat="46.68773" lon="6.01586">
        <ele>850</ele>
        <time>2020-01-09T10:42:59Z</time>
      </trkpt>
      <trkpt lat="46.68768" lon="6.01588">
        <ele>850.1</ele>
        <time>2020-01-09T10:43:03Z</time>
      </trkpt>
      <trkpt lat="46.68763" lon="6.01588">
        <ele>850.3</ele>
        <time>2020-01-09T10:43:08Z</time>
      </trkpt>
      <trkpt lat="46.68759" lon="6.01588">
        <ele>850.6</ele>
        <time>2020-01-09T10:43:13Z</time>
      </trkpt>
      <trkpt lat="46.68754" lon="6.01588">
        <ele>850.7</ele>
        <time>2020-01-09T10:43:17Z</time>
      </trkpt>
      <trkpt lat="46.68749" lon="6.01589">
        <ele>850.9</ele>
        <time>2020-01-09T10:43:22Z</time>
      </trkpt>
      <trkpt lat="46.68743" lon="6.01589">
        <ele>851.1</ele>
        <time>2020-01-09T10:43:28Z</time>
      </trkpt>
      <trkpt lat="46.68739" lon="6.01591">
        <ele>851.3</ele>
        <time>2020-01-09T10:43:32Z</time>
      </trkpt>
      <trkpt lat="46.68734" lon="6.01594">
        <ele>851.5</ele>
        <time>2020-01-09T10:43:36Z</time>
      </trkpt>
      <trkpt lat="46.6873" lon="6.01596">
        <ele>851.9</ele>
        <time>2020-01-09T10:43:43Z</time>
      </trkpt>
      <trkpt lat="46.68726" lon="6.01599">
        <ele>852</ele>
        <time>2020-01-09T10:43:47Z</time>
      </trkpt>
      <trkpt lat="46.68706" lon="6.01636">
        <ele>851.6</ele>
        <time>2020-01-09T10:44:14Z</time>
      </trkpt>
      <trkpt lat="46.68694" lon="6.01653">
        <ele>852.4</ele>
        <time>2020-01-09T10:44:31Z</time>
      </trkpt>
      <trkpt lat="46.68688" lon="6.01654">
        <ele>852.4</ele>
        <time>2020-01-09T10:44:36Z</time>
      </trkpt>
      <trkpt lat="46.68683" lon="6.01654">
        <ele>852.5</ele>
        <time>2020-01-09T10:44:40Z</time>
      </trkpt>
      <trkpt lat="46.68677" lon="6.01654">
        <ele>852.5</ele>
        <time>2020-01-09T10:44:44Z</time>
      </trkpt>
      <trkpt lat="46.68672" lon="6.01655">
        <ele>852.7</ele>
        <time>2020-01-09T10:44:48Z</time>
      </trkpt>
      <trkpt lat="46.68667" lon="6.01656">
        <ele>853</ele>
        <time>2020-01-09T10:44:54Z</time>
      </trkpt>
      <trkpt lat="46.68656" lon="6.01661">
        <ele>853.2</ele>
        <time>2020-01-09T10:45:04Z</time>
      </trkpt>
      <trkpt lat="46.68651" lon="6.01664">
        <ele>853.1</ele>
        <time>2020-01-09T10:45:08Z</time>
      </trkpt>
      <trkpt lat="46.68646" lon="6.01667">
        <ele>852.8</ele>
        <time>2020-01-09T10:45:12Z</time>
      </trkpt>
      <trkpt lat="46.68641" lon="6.01669">
        <ele>852.6</ele>
        <time>2020-01-09T10:45:16Z</time>
      </trkpt>
      <trkpt lat="46.68636" lon="6.01671">
        <ele>852.5</ele>
        <time>2020-01-09T10:45:20Z</time>
      </trkpt>
      <trkpt lat="46.68631" lon="6.0167">
        <ele>852.5</ele>
        <time>2020-01-09T10:45:24Z</time>
      </trkpt>
      <trkpt lat="46.68627" lon="6.01672">
        <ele>852.5</ele>
        <time>2020-01-09T10:45:28Z</time>
      </trkpt>
      <trkpt lat="46.68622" lon="6.01675">
        <ele>852.4</ele>
        <time>2020-01-09T10:45:31Z</time>
      </trkpt>
      <trkpt lat="46.68618" lon="6.01678">
        <ele>852.3</ele>
        <time>2020-01-09T10:45:34Z</time>
      </trkpt>
      <trkpt lat="46.68613" lon="6.01682">
        <ele>852.2</ele>
        <time>2020-01-09T10:45:37Z</time>
      </trkpt>
      <trkpt lat="46.68609" lon="6.01685">
        <ele>852.2</ele>
        <time>2020-01-09T10:45:40Z</time>
      </trkpt>
      <trkpt lat="46.68604" lon="6.01687">
        <ele>852.3</ele>
        <time>2020-01-09T10:45:44Z</time>
      </trkpt>
      <trkpt lat="46.68599" lon="6.01691">
        <ele>852.5</ele>
        <time>2020-01-09T10:45:49Z</time>
      </trkpt>
      <trkpt lat="46.68595" lon="6.01693">
        <ele>852.5</ele>
        <time>2020-01-09T10:45:53Z</time>
      </trkpt>
      <trkpt lat="46.6859" lon="6.01696">
        <ele>852.6</ele>
        <time>2020-01-09T10:45:57Z</time>
      </trkpt>
      <trkpt lat="46.68585" lon="6.01699">
        <ele>852.7</ele>
        <time>2020-01-09T10:46:01Z</time>
      </trkpt>
      <trkpt lat="46.68581" lon="6.01701">
        <ele>852.8</ele>
        <time>2020-01-09T10:46:05Z</time>
      </trkpt>
      <trkpt lat="46.68576" lon="6.01704">
        <ele>852.9</ele>
        <time>2020-01-09T10:46:10Z</time>
      </trkpt>
      <trkpt lat="46.6857" lon="6.01708">
        <ele>852.8</ele>
        <time>2020-01-09T10:46:14Z</time>
      </trkpt>
      <trkpt lat="46.68565" lon="6.0171">
        <ele>852.9</ele>
        <time>2020-01-09T10:46:18Z</time>
      </trkpt>
      <trkpt lat="46.68561" lon="6.01712">
        <ele>852.9</ele>
        <time>2020-01-09T10:46:21Z</time>
      </trkpt>
      <trkpt lat="46.68556" lon="6.01715">
        <ele>852.9</ele>
        <time>2020-01-09T10:46:25Z</time>
      </trkpt>
      <trkpt lat="46.68552" lon="6.01719">
        <ele>852.7</ele>
        <time>2020-01-09T10:46:30Z</time>
      </trkpt>
      <trkpt lat="46.68548" lon="6.01723">
        <ele>852.6</ele>
        <time>2020-01-09T10:46:34Z</time>
      </trkpt>
      <trkpt lat="46.68544" lon="6.01727">
        <ele>852.6</ele>
        <time>2020-01-09T10:46:38Z</time>
      </trkpt>
      <trkpt lat="46.68539" lon="6.0173">
        <ele>852.6</ele>
        <time>2020-01-09T10:46:41Z</time>
      </trkpt>
      <trkpt lat="46.68535" lon="6.01735">
        <ele>852.9</ele>
        <time>2020-01-09T10:46:46Z</time>
      </trkpt>
      <trkpt lat="46.68531" lon="6.01738">
        <ele>853.2</ele>
        <time>2020-01-09T10:46:50Z</time>
      </trkpt>
      <trkpt lat="46.68527" lon="6.01741">
        <ele>853.3</ele>
        <time>2020-01-09T10:46:54Z</time>
      </trkpt>
      <trkpt lat="46.68523" lon="6.01745">
        <ele>853.4</ele>
        <time>2020-01-09T10:46:58Z</time>
      </trkpt>
      <trkpt lat="46.6852" lon="6.01749">
        <ele>853.5</ele>
        <time>2020-01-09T10:47:02Z</time>
      </trkpt>
      <trkpt lat="46.68515" lon="6.01753">
        <ele>853.4</ele>
        <time>2020-01-09T10:47:07Z</time>
      </trkpt>
      <trkpt lat="46.68511" lon="6.01757">
        <ele>853.5</ele>
        <time>2020-01-09T10:47:12Z</time>
      </trkpt>
      <trkpt lat="46.68507" lon="6.01762">
        <ele>853.4</ele>
        <time>2020-01-09T10:47:17Z</time>
      </trkpt>
      <trkpt lat="46.68503" lon="6.01767">
        <ele>853.4</ele>
        <time>2020-01-09T10:47:22Z</time>
      </trkpt>
      <trkpt lat="46.685" lon="6.01773">
        <ele>853.3</ele>
        <time>2020-01-09T10:47:27Z</time>
      </trkpt>
      <trkpt lat="46.68497" lon="6.01778">
        <ele>853.3</ele>
        <time>2020-01-09T10:47:33Z</time>
      </trkpt>
      <trkpt lat="46.68493" lon="6.01782">
        <ele>853.2</ele>
        <time>2020-01-09T10:47:38Z</time>
      </trkpt>
      <trkpt lat="46.68489" lon="6.01785">
        <ele>853.3</ele>
        <time>2020-01-09T10:47:42Z</time>
      </trkpt>
      <trkpt lat="46.68484" lon="6.01789">
        <ele>853.3</ele>
        <time>2020-01-09T10:47:47Z</time>
      </trkpt>
      <trkpt lat="46.68481" lon="6.01793">
        <ele>853.1</ele>
        <time>2020-01-09T10:47:52Z</time>
      </trkpt>
      <trkpt lat="46.68477" lon="6.01797">
        <ele>852.9</ele>
        <time>2020-01-09T10:47:56Z</time>
      </trkpt>
      <trkpt lat="46.68448" lon="6.01817">
        <ele>851.8</ele>
        <time>2020-01-09T10:48:22Z</time>
      </trkpt>
      <trkpt lat="46.68444" lon="6.0182">
        <ele>851.9</ele>
        <time>2020-01-09T10:48:27Z</time>
      </trkpt>
      <trkpt lat="46.68439" lon="6.01823">
        <ele>852</ele>
        <time>2020-01-09T10:48:30Z</time>
      </trkpt>
      <trkpt lat="46.68434" lon="6.01825">
        <ele>852.1</ele>
        <time>2020-01-09T10:48:33Z</time>
      </trkpt>
      <trkpt lat="46.68429" lon="6.01826">
        <ele>852.1</ele>
        <time>2020-01-09T10:48:36Z</time>
      </trkpt>
      <trkpt lat="46.68424" lon="6.01828">
        <ele>852.2</ele>
        <time>2020-01-09T10:48:39Z</time>
      </trkpt>
      <trkpt lat="46.68419" lon="6.0183">
        <ele>852.3</ele>
        <time>2020-01-09T10:48:43Z</time>
      </trkpt>
      <trkpt lat="46.68414" lon="6.0183">
        <ele>852.3</ele>
        <time>2020-01-09T10:48:47Z</time>
      </trkpt>
      <trkpt lat="46.68409" lon="6.01831">
        <ele>852.4</ele>
        <time>2020-01-09T10:48:52Z</time>
      </trkpt>
      <trkpt lat="46.68403" lon="6.01831">
        <ele>852.6</ele>
        <time>2020-01-09T10:48:57Z</time>
      </trkpt>
      <trkpt lat="46.68399" lon="6.01833">
        <ele>852.8</ele>
        <time>2020-01-09T10:49:01Z</time>
      </trkpt>
      <trkpt lat="46.68394" lon="6.01835">
        <ele>853.1</ele>
        <time>2020-01-09T10:49:06Z</time>
      </trkpt>
      <trkpt lat="46.6839" lon="6.01839">
        <ele>853.6</ele>
        <time>2020-01-09T10:49:15Z</time>
      </trkpt>
      <trkpt lat="46.68385" lon="6.01838">
        <ele>855</ele>
        <time>2020-01-09T10:49:52Z</time>
      </trkpt>
      <trkpt lat="46.6838" lon="6.01838">
        <ele>855.1</ele>
        <time>2020-01-09T10:49:58Z</time>
      </trkpt>
      <trkpt lat="46.68375" lon="6.0184">
        <ele>855</ele>
        <time>2020-01-09T10:50:03Z</time>
      </trkpt>
      <trkpt lat="46.68371" lon="6.01842">
        <ele>854.8</ele>
        <time>2020-01-09T10:50:10Z</time>
      </trkpt>
      <trkpt lat="46.68367" lon="6.01846">
        <ele>854.8</ele>
        <time>2020-01-09T10:50:17Z</time>
      </trkpt>
      <trkpt lat="46.68362" lon="6.01849">
        <ele>854.9</ele>
        <time>2020-01-09T10:50:21Z</time>
      </trkpt>
      <trkpt lat="46.68358" lon="6.01852">
        <ele>854.9</ele>
        <time>2020-01-09T10:50:24Z</time>
      </trkpt>
      <trkpt lat="46.68354" lon="6.01854">
        <ele>854.8</ele>
        <time>2020-01-09T10:50:35Z</time>
      </trkpt>
      <trkpt lat="46.68349" lon="6.01852">
        <ele>854.7</ele>
        <time>2020-01-09T10:50:39Z</time>
      </trkpt>
      <trkpt lat="46.68344" lon="6.01852">
        <ele>854.6</ele>
        <time>2020-01-09T10:50:43Z</time>
      </trkpt>
      <trkpt lat="46.68339" lon="6.01853">
        <ele>854.8</ele>
        <time>2020-01-09T10:50:49Z</time>
      </trkpt>
      <trkpt lat="46.68334" lon="6.01855">
        <ele>854.9</ele>
        <time>2020-01-09T10:50:54Z</time>
      </trkpt>
      <trkpt lat="46.68329" lon="6.01856">
        <ele>855</ele>
        <time>2020-01-09T10:50:59Z</time>
      </trkpt>
      <trkpt lat="46.68324" lon="6.01859">
        <ele>854.9</ele>
        <time>2020-01-09T10:51:03Z</time>
      </trkpt>
      <trkpt lat="46.6832" lon="6.01863">
        <ele>854.8</ele>
        <time>2020-01-09T10:51:07Z</time>
      </trkpt>
      <trkpt lat="46.68316" lon="6.01867">
        <ele>854.8</ele>
        <time>2020-01-09T10:51:11Z</time>
      </trkpt>
      <trkpt lat="46.68312" lon="6.01872">
        <ele>854.9</ele>
        <time>2020-01-09T10:51:16Z</time>
      </trkpt>
      <trkpt lat="46.68308" lon="6.01876">
        <ele>855.1</ele>
        <time>2020-01-09T10:51:19Z</time>
      </trkpt>
      <trkpt lat="46.68303" lon="6.0188">
        <ele>855.3</ele>
        <time>2020-01-09T10:51:23Z</time>
      </trkpt>
      <trkpt lat="46.68299" lon="6.01883">
        <ele>855.5</ele>
        <time>2020-01-09T10:51:27Z</time>
      </trkpt>
      <trkpt lat="46.68295" lon="6.01886">
        <ele>855.5</ele>
        <time>2020-01-09T10:51:32Z</time>
      </trkpt>
      <trkpt lat="46.68292" lon="6.01892">
        <ele>855.6</ele>
        <time>2020-01-09T10:51:37Z</time>
      </trkpt>
      <trkpt lat="46.68289" lon="6.01897">
        <ele>855.7</ele>
        <time>2020-01-09T10:51:43Z</time>
      </trkpt>
      <trkpt lat="46.68279" lon="6.01907">
        <ele>856.7</ele>
        <time>2020-01-09T10:51:53Z</time>
      </trkpt>
      <trkpt lat="46.68275" lon="6.01913">
        <ele>856.9</ele>
        <time>2020-01-09T10:51:57Z</time>
      </trkpt>
      <trkpt lat="46.68271" lon="6.01916">
        <ele>857</ele>
        <time>2020-01-09T10:52:01Z</time>
      </trkpt>
      <trkpt lat="46.68266" lon="6.0192">
        <ele>857.3</ele>
        <time>2020-01-09T10:52:05Z</time>
      </trkpt>
      <trkpt lat="46.68262" lon="6.01925">
        <ele>857.7</ele>
        <time>2020-01-09T10:52:10Z</time>
      </trkpt>
      <trkpt lat="46.68257" lon="6.01931">
        <ele>858.1</ele>
        <time>2020-01-09T10:52:14Z</time>
      </trkpt>
      <trkpt lat="46.68253" lon="6.01935">
        <ele>858.6</ele>
        <time>2020-01-09T10:52:18Z</time>
      </trkpt>
      <trkpt lat="46.68249" lon="6.01939">
        <ele>859.1</ele>
        <time>2020-01-09T10:52:22Z</time>
      </trkpt>
      <trkpt lat="46.68245" lon="6.01943">
        <ele>859.6</ele>
        <time>2020-01-09T10:52:26Z</time>
      </trkpt>
      <trkpt lat="46.68241" lon="6.01947">
        <ele>859.9</ele>
        <time>2020-01-09T10:52:30Z</time>
      </trkpt>
      <trkpt lat="46.68236" lon="6.0195">
        <ele>860.1</ele>
        <time>2020-01-09T10:52:34Z</time>
      </trkpt>
      <trkpt lat="46.68232" lon="6.01954">
        <ele>860.3</ele>
        <time>2020-01-09T10:52:38Z</time>
      </trkpt>
      <trkpt lat="46.68228" lon="6.01959">
        <ele>860.4</ele>
        <time>2020-01-09T10:52:44Z</time>
      </trkpt>
      <trkpt lat="46.68224" lon="6.01963">
        <ele>860.7</ele>
        <time>2020-01-09T10:52:49Z</time>
      </trkpt>
      <trkpt lat="46.68222" lon="6.01969">
        <ele>861.2</ele>
        <time>2020-01-09T10:52:55Z</time>
      </trkpt>
      <trkpt lat="46.6822" lon="6.01977">
        <ele>861.6</ele>
        <time>2020-01-09T10:53:00Z</time>
      </trkpt>
      <trkpt lat="46.68219" lon="6.01984">
        <ele>861.9</ele>
        <time>2020-01-09T10:53:04Z</time>
      </trkpt>
      <trkpt lat="46.68217" lon="6.01991">
        <ele>862.3</ele>
        <time>2020-01-09T10:53:09Z</time>
      </trkpt>
      <trkpt lat="46.68214" lon="6.01998">
        <ele>862.6</ele>
        <time>2020-01-09T10:53:13Z</time>
      </trkpt>
      <trkpt lat="46.68212" lon="6.02004">
        <ele>863.4</ele>
        <time>2020-01-09T10:53:19Z</time>
      </trkpt>
      <trkpt lat="46.68209" lon="6.02011">
        <ele>864</ele>
        <time>2020-01-09T10:53:23Z</time>
      </trkpt>
      <trkpt lat="46.68206" lon="6.02016">
        <ele>864.4</ele>
        <time>2020-01-09T10:53:26Z</time>
      </trkpt>
      <trkpt lat="46.68203" lon="6.02022">
        <ele>865</ele>
        <time>2020-01-09T10:53:30Z</time>
      </trkpt>
      <trkpt lat="46.68199" lon="6.02027">
        <ele>865.5</ele>
        <time>2020-01-09T10:53:36Z</time>
      </trkpt>
      <trkpt lat="46.68195" lon="6.0203">
        <ele>865.7</ele>
        <time>2020-01-09T10:53:41Z</time>
      </trkpt>
      <trkpt lat="46.6819" lon="6.02033">
        <ele>865.8</ele>
        <time>2020-01-09T10:53:47Z</time>
      </trkpt>
      <trkpt lat="46.68185" lon="6.02034">
        <ele>865.8</ele>
        <time>2020-01-09T10:53:50Z</time>
      </trkpt>
      <trkpt lat="46.68179" lon="6.02034">
        <ele>865.8</ele>
        <time>2020-01-09T10:53:53Z</time>
      </trkpt>
      <trkpt lat="46.68175" lon="6.02032">
        <ele>865.8</ele>
        <time>2020-01-09T10:53:55Z</time>
      </trkpt>
      <trkpt lat="46.6817" lon="6.0203">
        <ele>865.7</ele>
        <time>2020-01-09T10:53:58Z</time>
      </trkpt>
      <trkpt lat="46.68165" lon="6.02028">
        <ele>865.4</ele>
        <time>2020-01-09T10:54:03Z</time>
      </trkpt>
      <trkpt lat="46.6816" lon="6.02028">
        <ele>865.2</ele>
        <time>2020-01-09T10:54:08Z</time>
      </trkpt>
      <trkpt lat="46.68155" lon="6.02026">
        <ele>865</ele>
        <time>2020-01-09T10:54:12Z</time>
      </trkpt>
      <trkpt lat="46.6815" lon="6.02025">
        <ele>864.8</ele>
        <time>2020-01-09T10:54:15Z</time>
      </trkpt>
      <trkpt lat="46.68145" lon="6.02024">
        <ele>864.4</ele>
        <time>2020-01-09T10:54:19Z</time>
      </trkpt>
      <trkpt lat="46.6814" lon="6.02024">
        <ele>864.1</ele>
        <time>2020-01-09T10:54:22Z</time>
      </trkpt>
      <trkpt lat="46.68135" lon="6.02026">
        <ele>863.8</ele>
        <time>2020-01-09T10:54:25Z</time>
      </trkpt>
      <trkpt lat="46.6813" lon="6.02029">
        <ele>863.6</ele>
        <time>2020-01-09T10:54:30Z</time>
      </trkpt>
      <trkpt lat="46.68126" lon="6.02031">
        <ele>863.4</ele>
        <time>2020-01-09T10:54:35Z</time>
      </trkpt>
      <trkpt lat="46.68121" lon="6.02032">
        <ele>863.1</ele>
        <time>2020-01-09T10:54:40Z</time>
      </trkpt>
      <trkpt lat="46.68117" lon="6.02034">
        <ele>862.8</ele>
        <time>2020-01-09T10:54:44Z</time>
      </trkpt>
      <trkpt lat="46.68112" lon="6.02037">
        <ele>862.4</ele>
        <time>2020-01-09T10:54:48Z</time>
      </trkpt>
      <trkpt lat="46.68108" lon="6.0204">
        <ele>862</ele>
        <time>2020-01-09T10:54:52Z</time>
      </trkpt>
      <trkpt lat="46.68103" lon="6.02042">
        <ele>861.4</ele>
        <time>2020-01-09T10:54:59Z</time>
      </trkpt>
      <trkpt lat="46.68099" lon="6.02046">
        <ele>861.1</ele>
        <time>2020-01-09T10:55:07Z</time>
      </trkpt>
      <trkpt lat="46.68103" lon="6.02037">
        <ele>859.9</ele>
        <time>2020-01-09T10:55:30Z</time>
      </trkpt>
      <trkpt lat="46.68098" lon="6.02035">
        <ele>859.5</ele>
        <time>2020-01-09T10:55:34Z</time>
      </trkpt>
      <trkpt lat="46.68094" lon="6.02034">
        <ele>859.2</ele>
        <time>2020-01-09T10:55:39Z</time>
      </trkpt>
      <trkpt lat="46.68097" lon="6.0204">
        <ele>859.5</ele>
        <time>2020-01-09T10:55:47Z</time>
      </trkpt>
      <trkpt lat="46.68099" lon="6.02047">
        <ele>860.1</ele>
        <time>2020-01-09T10:55:52Z</time>
      </trkpt>
      <trkpt lat="46.68102" lon="6.02052">
        <ele>860.5</ele>
        <time>2020-01-09T10:55:55Z</time>
      </trkpt>
      <trkpt lat="46.68099" lon="6.02058">
        <ele>861.5</ele>
        <time>2020-01-09T10:56:04Z</time>
      </trkpt>
      <trkpt lat="46.68095" lon="6.0206">
        <ele>861.6</ele>
        <time>2020-01-09T10:56:07Z</time>
      </trkpt>
      <trkpt lat="46.6809" lon="6.02062">
        <ele>861.7</ele>
        <time>2020-01-09T10:56:14Z</time>
      </trkpt>
      <trkpt lat="46.68086" lon="6.02058">
        <ele>862.2</ele>
        <time>2020-01-09T10:56:37Z</time>
      </trkpt>
      <trkpt lat="46.68092" lon="6.02054">
        <ele>871.4</ele>
        <time>2020-01-09T11:00:16Z</time>
      </trkpt>
      <trkpt lat="46.68094" lon="6.02048">
        <ele>883.1</ele>
        <time>2020-01-09T11:33:11Z</time>
      </trkpt>
      <trkpt lat="46.6809" lon="6.02043">
        <ele>882.5</ele>
        <time>2020-01-09T11:33:17Z</time>
      </trkpt>
      <trkpt lat="46.68087" lon="6.02037">
        <ele>881.8</ele>
        <time>2020-01-09T11:33:23Z</time>
      </trkpt>
      <trkpt lat="46.68083" lon="6.02033">
        <ele>881.1</ele>
        <time>2020-01-09T11:33:30Z</time>
      </trkpt>
      <trkpt lat="46.6808" lon="6.02029">
        <ele>880.6</ele>
        <time>2020-01-09T11:33:35Z</time>
      </trkpt>
      <trkpt lat="46.68076" lon="6.02023">
        <ele>880</ele>
        <time>2020-01-09T11:33:41Z</time>
      </trkpt>
      <trkpt lat="46.68072" lon="6.02019">
        <ele>879.5</ele>
        <time>2020-01-09T11:33:46Z</time>
      </trkpt>
      <trkpt lat="46.68068" lon="6.02013">
        <ele>879.3</ele>
        <time>2020-01-09T11:33:50Z</time>
      </trkpt>
      <trkpt lat="46.68064" lon="6.0201">
        <ele>879.1</ele>
        <time>2020-01-09T11:33:54Z</time>
      </trkpt>
      <trkpt lat="46.6806" lon="6.02006">
        <ele>879.1</ele>
        <time>2020-01-09T11:33:58Z</time>
      </trkpt>
      <trkpt lat="46.68057" lon="6.02001">
        <ele>879.1</ele>
        <time>2020-01-09T11:34:02Z</time>
      </trkpt>
      <trkpt lat="46.68053" lon="6.01996">
        <ele>879.1</ele>
        <time>2020-01-09T11:34:07Z</time>
      </trkpt>
      <trkpt lat="46.6805" lon="6.01991">
        <ele>878.9</ele>
        <time>2020-01-09T11:34:11Z</time>
      </trkpt>
      <trkpt lat="46.68047" lon="6.01985">
        <ele>878.9</ele>
        <time>2020-01-09T11:34:15Z</time>
      </trkpt>
      <trkpt lat="46.68044" lon="6.01979">
        <ele>878.8</ele>
        <time>2020-01-09T11:34:19Z</time>
      </trkpt>
      <trkpt lat="46.68042" lon="6.01971">
        <ele>878.8</ele>
        <time>2020-01-09T11:34:23Z</time>
      </trkpt>
      <trkpt lat="46.6804" lon="6.01965">
        <ele>878.9</ele>
        <time>2020-01-09T11:34:27Z</time>
      </trkpt>
      <trkpt lat="46.68036" lon="6.01958">
        <ele>879</ele>
        <time>2020-01-09T11:34:32Z</time>
      </trkpt>
      <trkpt lat="46.68033" lon="6.01953">
        <ele>879.1</ele>
        <time>2020-01-09T11:34:36Z</time>
      </trkpt>
      <trkpt lat="46.6803" lon="6.01946">
        <ele>879.2</ele>
        <time>2020-01-09T11:34:41Z</time>
      </trkpt>
      <trkpt lat="46.68028" lon="6.0194">
        <ele>879.6</ele>
        <time>2020-01-09T11:34:46Z</time>
      </trkpt>
      <trkpt lat="46.68024" lon="6.01934">
        <ele>880</ele>
        <time>2020-01-09T11:34:51Z</time>
      </trkpt>
      <trkpt lat="46.68021" lon="6.01928">
        <ele>880.3</ele>
        <time>2020-01-09T11:34:55Z</time>
      </trkpt>
      <trkpt lat="46.68018" lon="6.01923">
        <ele>880.5</ele>
        <time>2020-01-09T11:34:59Z</time>
      </trkpt>
      <trkpt lat="46.68015" lon="6.01917">
        <ele>880.6</ele>
        <time>2020-01-09T11:35:02Z</time>
      </trkpt>
      <trkpt lat="46.68012" lon="6.01911">
        <ele>880.7</ele>
        <time>2020-01-09T11:35:06Z</time>
      </trkpt>
      <trkpt lat="46.68009" lon="6.01906">
        <ele>880.6</ele>
        <time>2020-01-09T11:35:11Z</time>
      </trkpt>
      <trkpt lat="46.68006" lon="6.019">
        <ele>880.4</ele>
        <time>2020-01-09T11:35:17Z</time>
      </trkpt>
      <trkpt lat="46.68004" lon="6.01894">
        <ele>880.3</ele>
        <time>2020-01-09T11:35:22Z</time>
      </trkpt>
      <trkpt lat="46.68" lon="6.01888">
        <ele>880.3</ele>
        <time>2020-01-09T11:35:27Z</time>
      </trkpt>
      <trkpt lat="46.67997" lon="6.01883">
        <ele>880.2</ele>
        <time>2020-01-09T11:35:31Z</time>
      </trkpt>
      <trkpt lat="46.67994" lon="6.01877">
        <ele>880.1</ele>
        <time>2020-01-09T11:35:35Z</time>
      </trkpt>
      <trkpt lat="46.6799" lon="6.01869">
        <ele>880.2</ele>
        <time>2020-01-09T11:35:39Z</time>
      </trkpt>
      <trkpt lat="46.67988" lon="6.01864">
        <ele>880.3</ele>
        <time>2020-01-09T11:35:42Z</time>
      </trkpt>
      <trkpt lat="46.67985" lon="6.01858">
        <ele>880.3</ele>
        <time>2020-01-09T11:35:47Z</time>
      </trkpt>
      <trkpt lat="46.67982" lon="6.01853">
        <ele>880.3</ele>
        <time>2020-01-09T11:35:52Z</time>
      </trkpt>
      <trkpt lat="46.67979" lon="6.01848">
        <ele>880.6</ele>
        <time>2020-01-09T11:35:56Z</time>
      </trkpt>
      <trkpt lat="46.67976" lon="6.01842">
        <ele>881</ele>
        <time>2020-01-09T11:36:00Z</time>
      </trkpt>
      <trkpt lat="46.67973" lon="6.01836">
        <ele>881.5</ele>
        <time>2020-01-09T11:36:04Z</time>
      </trkpt>
      <trkpt lat="46.67971" lon="6.01828">
        <ele>881.9</ele>
        <time>2020-01-09T11:36:08Z</time>
      </trkpt>
      <trkpt lat="46.6797" lon="6.01822">
        <ele>882.3</ele>
        <time>2020-01-09T11:36:13Z</time>
      </trkpt>
      <trkpt lat="46.67969" lon="6.01814">
        <ele>882.6</ele>
        <time>2020-01-09T11:36:18Z</time>
      </trkpt>
      <trkpt lat="46.67967" lon="6.01806">
        <ele>882.7</ele>
        <time>2020-01-09T11:36:23Z</time>
      </trkpt>
      <trkpt lat="46.6797" lon="6.01801">
        <ele>883.4</ele>
        <time>2020-01-09T11:36:33Z</time>
      </trkpt>
      <trkpt lat="46.67968" lon="6.01793">
        <ele>883.4</ele>
        <time>2020-01-09T11:36:37Z</time>
      </trkpt>
      <trkpt lat="46.67964" lon="6.01788">
        <ele>883.2</ele>
        <time>2020-01-09T11:36:42Z</time>
      </trkpt>
      <trkpt lat="46.67962" lon="6.01782">
        <ele>883.1</ele>
        <time>2020-01-09T11:36:45Z</time>
      </trkpt>
      <trkpt lat="46.67959" lon="6.01774">
        <ele>882.8</ele>
        <time>2020-01-09T11:36:49Z</time>
      </trkpt>
      <trkpt lat="46.67957" lon="6.01769">
        <ele>882.8</ele>
        <time>2020-01-09T11:36:52Z</time>
      </trkpt>
      <trkpt lat="46.67954" lon="6.01764">
        <ele>882.8</ele>
        <time>2020-01-09T11:36:55Z</time>
      </trkpt>
      <trkpt lat="46.67949" lon="6.01758">
        <ele>882.8</ele>
        <time>2020-01-09T11:36:59Z</time>
      </trkpt>
      <trkpt lat="46.67947" lon="6.01751">
        <ele>882.8</ele>
        <time>2020-01-09T11:37:02Z</time>
      </trkpt>
      <trkpt lat="46.67945" lon="6.01744">
        <ele>882.8</ele>
        <time>2020-01-09T11:37:05Z</time>
      </trkpt>
      <trkpt lat="46.67942" lon="6.01737">
        <ele>882.9</ele>
        <time>2020-01-09T11:37:09Z</time>
      </trkpt>
      <trkpt lat="46.6794" lon="6.0173">
        <ele>883.2</ele>
        <time>2020-01-09T11:37:16Z</time>
      </trkpt>
      <trkpt lat="46.67937" lon="6.01723">
        <ele>883.5</ele>
        <time>2020-01-09T11:37:21Z</time>
      </trkpt>
      <trkpt lat="46.67934" lon="6.01716">
        <ele>884</ele>
        <time>2020-01-09T11:37:26Z</time>
      </trkpt>
      <trkpt lat="46.67932" lon="6.0171">
        <ele>884.6</ele>
        <time>2020-01-09T11:37:36Z</time>
      </trkpt>
      <trkpt lat="46.67929" lon="6.01705">
        <ele>884.8</ele>
        <time>2020-01-09T11:37:41Z</time>
      </trkpt>
      <trkpt lat="46.67925" lon="6.017">
        <ele>885</ele>
        <time>2020-01-09T11:37:45Z</time>
      </trkpt>
      <trkpt lat="46.67922" lon="6.01695">
        <ele>885.2</ele>
        <time>2020-01-09T11:37:48Z</time>
      </trkpt>
      <trkpt lat="46.67918" lon="6.01691">
        <ele>885.7</ele>
        <time>2020-01-09T11:37:52Z</time>
      </trkpt>
      <trkpt lat="46.67914" lon="6.01685">
        <ele>886.2</ele>
        <time>2020-01-09T11:37:57Z</time>
      </trkpt>
      <trkpt lat="46.67912" lon="6.01677">
        <ele>886.6</ele>
        <time>2020-01-09T11:38:05Z</time>
      </trkpt>
      <trkpt lat="46.6791" lon="6.0167">
        <ele>886.7</ele>
        <time>2020-01-09T11:38:09Z</time>
      </trkpt>
      <trkpt lat="46.67907" lon="6.01664">
        <ele>886.8</ele>
        <time>2020-01-09T11:38:13Z</time>
      </trkpt>
      <trkpt lat="46.67904" lon="6.01658">
        <ele>887</ele>
        <time>2020-01-09T11:38:17Z</time>
      </trkpt>
      <trkpt lat="46.67901" lon="6.01652">
        <ele>887.2</ele>
        <time>2020-01-09T11:38:21Z</time>
      </trkpt>
      <trkpt lat="46.67898" lon="6.01647">
        <ele>887.5</ele>
        <time>2020-01-09T11:38:27Z</time>
      </trkpt>
      <trkpt lat="46.67896" lon="6.01639">
        <ele>887.8</ele>
        <time>2020-01-09T11:38:32Z</time>
      </trkpt>
      <trkpt lat="46.67894" lon="6.01632">
        <ele>887.9</ele>
        <time>2020-01-09T11:38:35Z</time>
      </trkpt>
      <trkpt lat="46.67891" lon="6.01626">
        <ele>888</ele>
        <time>2020-01-09T11:38:39Z</time>
      </trkpt>
      <trkpt lat="46.67887" lon="6.0162">
        <ele>888</ele>
        <time>2020-01-09T11:38:43Z</time>
      </trkpt>
      <trkpt lat="46.67884" lon="6.01614">
        <ele>887.8</ele>
        <time>2020-01-09T11:38:48Z</time>
      </trkpt>
      <trkpt lat="46.67881" lon="6.01607">
        <ele>887.3</ele>
        <time>2020-01-09T11:38:53Z</time>
      </trkpt>
      <trkpt lat="46.67879" lon="6.01601">
        <ele>886.8</ele>
        <time>2020-01-09T11:38:58Z</time>
      </trkpt>
      <trkpt lat="46.67876" lon="6.01595">
        <ele>886.4</ele>
        <time>2020-01-09T11:39:02Z</time>
      </trkpt>
      <trkpt lat="46.67873" lon="6.01589">
        <ele>886</ele>
        <time>2020-01-09T11:39:06Z</time>
      </trkpt>
      <trkpt lat="46.67869" lon="6.01583">
        <ele>885.4</ele>
        <time>2020-01-09T11:39:12Z</time>
      </trkpt>
      <trkpt lat="46.67867" lon="6.01577">
        <ele>885.1</ele>
        <time>2020-01-09T11:39:16Z</time>
      </trkpt>
      <trkpt lat="46.67865" lon="6.0157">
        <ele>884.6</ele>
        <time>2020-01-09T11:39:21Z</time>
      </trkpt>
      <trkpt lat="46.67862" lon="6.01563">
        <ele>884.4</ele>
        <time>2020-01-09T11:39:26Z</time>
      </trkpt>
      <trkpt lat="46.6786" lon="6.01557">
        <ele>884.1</ele>
        <time>2020-01-09T11:39:30Z</time>
      </trkpt>
      <trkpt lat="46.67857" lon="6.01552">
        <ele>883.9</ele>
        <time>2020-01-09T11:39:33Z</time>
      </trkpt>
      <trkpt lat="46.67853" lon="6.01545">
        <ele>883.9</ele>
        <time>2020-01-09T11:39:37Z</time>
      </trkpt>
      <trkpt lat="46.67849" lon="6.0154">
        <ele>884</ele>
        <time>2020-01-09T11:39:41Z</time>
      </trkpt>
      <trkpt lat="46.67846" lon="6.01535">
        <ele>884</ele>
        <time>2020-01-09T11:39:45Z</time>
      </trkpt>
      <trkpt lat="46.67843" lon="6.01528">
        <ele>884.3</ele>
        <time>2020-01-09T11:39:49Z</time>
      </trkpt>
      <trkpt lat="46.67841" lon="6.01521">
        <ele>884.6</ele>
        <time>2020-01-09T11:39:53Z</time>
      </trkpt>
      <trkpt lat="46.67838" lon="6.01516">
        <ele>884.9</ele>
        <time>2020-01-09T11:39:56Z</time>
      </trkpt>
      <trkpt lat="46.67835" lon="6.01511">
        <ele>885.1</ele>
        <time>2020-01-09T11:40:00Z</time>
      </trkpt>
      <trkpt lat="46.67831" lon="6.01505">
        <ele>885.2</ele>
        <time>2020-01-09T11:40:05Z</time>
      </trkpt>
      <trkpt lat="46.67827" lon="6.01499">
        <ele>885.3</ele>
        <time>2020-01-09T11:40:09Z</time>
      </trkpt>
      <trkpt lat="46.67824" lon="6.01495">
        <ele>885.3</ele>
        <time>2020-01-09T11:40:12Z</time>
      </trkpt>
      <trkpt lat="46.6782" lon="6.01488">
        <ele>885.3</ele>
        <time>2020-01-09T11:40:16Z</time>
      </trkpt>
      <trkpt lat="46.67816" lon="6.01482">
        <ele>885.4</ele>
        <time>2020-01-09T11:40:20Z</time>
      </trkpt>
      <trkpt lat="46.67813" lon="6.01476">
        <ele>885.5</ele>
        <time>2020-01-09T11:40:25Z</time>
      </trkpt>
      <trkpt lat="46.6781" lon="6.01471">
        <ele>885.7</ele>
        <time>2020-01-09T11:40:30Z</time>
      </trkpt>
      <trkpt lat="46.67806" lon="6.01466">
        <ele>885.9</ele>
        <time>2020-01-09T11:40:34Z</time>
      </trkpt>
      <trkpt lat="46.67803" lon="6.01461">
        <ele>886.1</ele>
        <time>2020-01-09T11:40:39Z</time>
      </trkpt>
      <trkpt lat="46.678" lon="6.01456">
        <ele>886.3</ele>
        <time>2020-01-09T11:40:43Z</time>
      </trkpt>
      <trkpt lat="46.67796" lon="6.0145">
        <ele>886.5</ele>
        <time>2020-01-09T11:40:47Z</time>
      </trkpt>
      <trkpt lat="46.67792" lon="6.01445">
        <ele>886.7</ele>
        <time>2020-01-09T11:40:52Z</time>
      </trkpt>
      <trkpt lat="46.67788" lon="6.01439">
        <ele>886.7</ele>
        <time>2020-01-09T11:40:56Z</time>
      </trkpt>
      <trkpt lat="46.67784" lon="6.01434">
        <ele>886.5</ele>
        <time>2020-01-09T11:41:02Z</time>
      </trkpt>
      <trkpt lat="46.67781" lon="6.0143">
        <ele>886.1</ele>
        <time>2020-01-09T11:41:06Z</time>
      </trkpt>
      <trkpt lat="46.67778" lon="6.01423">
        <ele>885.9</ele>
        <time>2020-01-09T11:41:11Z</time>
      </trkpt>
      <trkpt lat="46.67774" lon="6.01418">
        <ele>885.9</ele>
        <time>2020-01-09T11:41:16Z</time>
      </trkpt>
      <trkpt lat="46.67771" lon="6.01414">
        <ele>885.9</ele>
        <time>2020-01-09T11:41:21Z</time>
      </trkpt>
      <trkpt lat="46.67766" lon="6.0141">
        <ele>885.8</ele>
        <time>2020-01-09T11:41:26Z</time>
      </trkpt>
      <trkpt lat="46.67761" lon="6.01407">
        <ele>885.8</ele>
        <time>2020-01-09T11:41:30Z</time>
      </trkpt>
      <trkpt lat="46.67756" lon="6.01404">
        <ele>885.7</ele>
        <time>2020-01-09T11:41:33Z</time>
      </trkpt>
      <trkpt lat="46.67752" lon="6.01401">
        <ele>885.4</ele>
        <time>2020-01-09T11:41:37Z</time>
      </trkpt>
      <trkpt lat="46.67748" lon="6.01397">
        <ele>885.2</ele>
        <time>2020-01-09T11:41:41Z</time>
      </trkpt>
      <trkpt lat="46.67743" lon="6.01393">
        <ele>885</ele>
        <time>2020-01-09T11:41:46Z</time>
      </trkpt>
      <trkpt lat="46.67739" lon="6.01391">
        <ele>884.7</ele>
        <time>2020-01-09T11:41:50Z</time>
      </trkpt>
      <trkpt lat="46.67734" lon="6.01389">
        <ele>884.2</ele>
        <time>2020-01-09T11:41:55Z</time>
      </trkpt>
      <trkpt lat="46.6773" lon="6.01386">
        <ele>883.5</ele>
        <time>2020-01-09T11:42:01Z</time>
      </trkpt>
      <trkpt lat="46.67725" lon="6.01382">
        <ele>883.1</ele>
        <time>2020-01-09T11:42:05Z</time>
      </trkpt>
      <trkpt lat="46.67721" lon="6.01378">
        <ele>882.6</ele>
        <time>2020-01-09T11:42:09Z</time>
      </trkpt>
      <trkpt lat="46.67716" lon="6.01374">
        <ele>882.1</ele>
        <time>2020-01-09T11:42:14Z</time>
      </trkpt>
      <trkpt lat="46.67705" lon="6.0137">
        <ele>880.7</ele>
        <time>2020-01-09T11:42:24Z</time>
      </trkpt>
      <trkpt lat="46.67699" lon="6.0137">
        <ele>880.4</ele>
        <time>2020-01-09T11:42:28Z</time>
      </trkpt>
      <trkpt lat="46.67695" lon="6.01367">
        <ele>880</ele>
        <time>2020-01-09T11:42:33Z</time>
      </trkpt>
      <trkpt lat="46.6769" lon="6.01365">
        <ele>879.5</ele>
        <time>2020-01-09T11:42:37Z</time>
      </trkpt>
      <trkpt lat="46.67685" lon="6.01361">
        <ele>879</ele>
        <time>2020-01-09T11:42:41Z</time>
      </trkpt>
      <trkpt lat="46.6768" lon="6.01357">
        <ele>878.5</ele>
        <time>2020-01-09T11:42:45Z</time>
      </trkpt>
      <trkpt lat="46.67675" lon="6.01354">
        <ele>878.1</ele>
        <time>2020-01-09T11:42:51Z</time>
      </trkpt>
      <trkpt lat="46.6767" lon="6.01352">
        <ele>877.8</ele>
        <time>2020-01-09T11:42:57Z</time>
      </trkpt>
      <trkpt lat="46.67665" lon="6.01349">
        <ele>877.6</ele>
        <time>2020-01-09T11:43:00Z</time>
      </trkpt>
      <trkpt lat="46.6766" lon="6.01347">
        <ele>877.3</ele>
        <time>2020-01-09T11:43:05Z</time>
      </trkpt>
      <trkpt lat="46.67655" lon="6.01344">
        <ele>877</ele>
        <time>2020-01-09T11:43:10Z</time>
      </trkpt>
      <trkpt lat="46.6765" lon="6.01341">
        <ele>876.8</ele>
        <time>2020-01-09T11:43:14Z</time>
      </trkpt>
      <trkpt lat="46.67645" lon="6.01337">
        <ele>876.7</ele>
        <time>2020-01-09T11:43:18Z</time>
      </trkpt>
      <trkpt lat="46.6764" lon="6.01335">
        <ele>876.7</ele>
        <time>2020-01-09T11:43:22Z</time>
      </trkpt>
      <trkpt lat="46.67634" lon="6.01334">
        <ele>876.8</ele>
        <time>2020-01-09T11:43:27Z</time>
      </trkpt>
      <trkpt lat="46.67629" lon="6.01334">
        <ele>876.9</ele>
        <time>2020-01-09T11:43:32Z</time>
      </trkpt>
      <trkpt lat="46.67624" lon="6.01332">
        <ele>877.3</ele>
        <time>2020-01-09T11:43:39Z</time>
      </trkpt>
      <trkpt lat="46.67619" lon="6.0133">
        <ele>877.9</ele>
        <time>2020-01-09T11:43:45Z</time>
      </trkpt>
      <trkpt lat="46.67613" lon="6.01328">
        <ele>878.2</ele>
        <time>2020-01-09T11:43:49Z</time>
      </trkpt>
      <trkpt lat="46.67609" lon="6.01324">
        <ele>878.5</ele>
        <time>2020-01-09T11:43:54Z</time>
      </trkpt>
      <trkpt lat="46.67604" lon="6.01318">
        <ele>878.6</ele>
        <time>2020-01-09T11:43:59Z</time>
      </trkpt>
      <trkpt lat="46.67601" lon="6.01314">
        <ele>878.6</ele>
        <time>2020-01-09T11:44:03Z</time>
      </trkpt>
      <trkpt lat="46.67597" lon="6.0131">
        <ele>878.6</ele>
        <time>2020-01-09T11:44:07Z</time>
      </trkpt>
      <trkpt lat="46.67592" lon="6.01306">
        <ele>878.6</ele>
        <time>2020-01-09T11:44:10Z</time>
      </trkpt>
      <trkpt lat="46.67589" lon="6.01302">
        <ele>878.7</ele>
        <time>2020-01-09T11:44:14Z</time>
      </trkpt>
      <trkpt lat="46.67585" lon="6.01298">
        <ele>878.9</ele>
        <time>2020-01-09T11:44:19Z</time>
      </trkpt>
      <trkpt lat="46.67581" lon="6.01293">
        <ele>879.2</ele>
        <time>2020-01-09T11:44:22Z</time>
      </trkpt>
      <trkpt lat="46.67577" lon="6.01289">
        <ele>879.6</ele>
        <time>2020-01-09T11:44:25Z</time>
      </trkpt>
      <trkpt lat="46.67574" lon="6.01285">
        <ele>880</ele>
        <time>2020-01-09T11:44:29Z</time>
      </trkpt>
      <trkpt lat="46.6757" lon="6.01281">
        <ele>880.6</ele>
        <time>2020-01-09T11:44:33Z</time>
      </trkpt>
      <trkpt lat="46.67566" lon="6.01276">
        <ele>881</ele>
        <time>2020-01-09T11:44:37Z</time>
      </trkpt>
      <trkpt lat="46.67563" lon="6.0127">
        <ele>881.7</ele>
        <time>2020-01-09T11:44:43Z</time>
      </trkpt>
      <trkpt lat="46.6756" lon="6.01265">
        <ele>882.2</ele>
        <time>2020-01-09T11:44:49Z</time>
      </trkpt>
      <trkpt lat="46.67557" lon="6.0126">
        <ele>882.6</ele>
        <time>2020-01-09T11:44:54Z</time>
      </trkpt>
      <trkpt lat="46.67554" lon="6.01253">
        <ele>882.8</ele>
        <time>2020-01-09T11:44:58Z</time>
      </trkpt>
      <trkpt lat="46.67551" lon="6.01247">
        <ele>883.1</ele>
        <time>2020-01-09T11:45:03Z</time>
      </trkpt>
      <trkpt lat="46.67548" lon="6.0124">
        <ele>883.5</ele>
        <time>2020-01-09T11:45:08Z</time>
      </trkpt>
      <trkpt lat="46.67546" lon="6.01234">
        <ele>884.1</ele>
        <time>2020-01-09T11:45:14Z</time>
      </trkpt>
      <trkpt lat="46.67543" lon="6.01228">
        <ele>884.3</ele>
        <time>2020-01-09T11:45:18Z</time>
      </trkpt>
      <trkpt lat="46.67539" lon="6.01222">
        <ele>884.6</ele>
        <time>2020-01-09T11:45:23Z</time>
      </trkpt>
      <trkpt lat="46.67538" lon="6.01215">
        <ele>884.8</ele>
        <time>2020-01-09T11:45:27Z</time>
      </trkpt>
      <trkpt lat="46.67536" lon="6.01207">
        <ele>885.1</ele>
        <time>2020-01-09T11:45:33Z</time>
      </trkpt>
      <trkpt lat="46.67533" lon="6.01202">
        <ele>885.2</ele>
        <time>2020-01-09T11:45:37Z</time>
      </trkpt>
      <trkpt lat="46.67531" lon="6.01196">
        <ele>885.2</ele>
        <time>2020-01-09T11:45:42Z</time>
      </trkpt>
      <trkpt lat="46.67529" lon="6.01189">
        <ele>884.8</ele>
        <time>2020-01-09T11:45:47Z</time>
      </trkpt>
      <trkpt lat="46.67518" lon="6.0118">
        <ele>884</ele>
        <time>2020-01-09T11:46:04Z</time>
      </trkpt>
      <trkpt lat="46.67514" lon="6.01177">
        <ele>883.7</ele>
        <time>2020-01-09T11:46:09Z</time>
      </trkpt>
      <trkpt lat="46.6751" lon="6.01174">
        <ele>882</ele>
        <time>2020-01-09T11:46:18Z</time>
      </trkpt>
      <trkpt lat="46.67505" lon="6.0117">
        <ele>879.7</ele>
        <time>2020-01-09T11:46:26Z</time>
      </trkpt>
      <trkpt lat="46.675" lon="6.01169">
        <ele>878.3</ele>
        <time>2020-01-09T11:46:32Z</time>
      </trkpt>
      <trkpt lat="46.67485" lon="6.01166">
        <ele>875.4</ele>
        <time>2020-01-09T11:46:53Z</time>
      </trkpt>
      <trkpt lat="46.6748" lon="6.01165">
        <ele>874.6</ele>
        <time>2020-01-09T11:46:59Z</time>
      </trkpt>
      <trkpt lat="46.67475" lon="6.01166">
        <ele>873.5</ele>
        <time>2020-01-09T11:47:04Z</time>
      </trkpt>
      <trkpt lat="46.6747" lon="6.0117">
        <ele>871.8</ele>
        <time>2020-01-09T11:47:12Z</time>
      </trkpt>
      <trkpt lat="46.67465" lon="6.01172">
        <ele>870.3</ele>
        <time>2020-01-09T11:47:18Z</time>
      </trkpt>
      <trkpt lat="46.6746" lon="6.01171">
        <ele>868.9</ele>
        <time>2020-01-09T11:47:22Z</time>
      </trkpt>
      <trkpt lat="46.67455" lon="6.01171">
        <ele>867.1</ele>
        <time>2020-01-09T11:47:26Z</time>
      </trkpt>
      <trkpt lat="46.67451" lon="6.01173">
        <ele>865.2</ele>
        <time>2020-01-09T11:47:30Z</time>
      </trkpt>
      <trkpt lat="46.67445" lon="6.01173">
        <ele>862.8</ele>
        <time>2020-01-09T11:47:35Z</time>
      </trkpt>
      <trkpt lat="46.67441" lon="6.01172">
        <ele>861.2</ele>
        <time>2020-01-09T11:47:39Z</time>
      </trkpt>
      <trkpt lat="46.67435" lon="6.01171">
        <ele>860.2</ele>
        <time>2020-01-09T11:47:43Z</time>
      </trkpt>
      <trkpt lat="46.6743" lon="6.0117">
        <ele>859.8</ele>
        <time>2020-01-09T11:47:46Z</time>
      </trkpt>
      <trkpt lat="46.67425" lon="6.0117">
        <ele>859.5</ele>
        <time>2020-01-09T11:47:50Z</time>
      </trkpt>
      <trkpt lat="46.67421" lon="6.01167">
        <ele>859.2</ele>
        <time>2020-01-09T11:47:56Z</time>
      </trkpt>
      <trkpt lat="46.67416" lon="6.01163">
        <ele>858.7</ele>
        <time>2020-01-09T11:48:02Z</time>
      </trkpt>
      <trkpt lat="46.67412" lon="6.01162">
        <ele>858.5</ele>
        <time>2020-01-09T11:48:05Z</time>
      </trkpt>
      <trkpt lat="46.67407" lon="6.01162">
        <ele>858.5</ele>
        <time>2020-01-09T11:48:08Z</time>
      </trkpt>
      <trkpt lat="46.67402" lon="6.01164">
        <ele>858.5</ele>
        <time>2020-01-09T11:48:12Z</time>
      </trkpt>
      <trkpt lat="46.67397" lon="6.0116">
        <ele>858.3</ele>
        <time>2020-01-09T11:48:18Z</time>
      </trkpt>
      <trkpt lat="46.67393" lon="6.01157">
        <ele>858.5</ele>
        <time>2020-01-09T11:48:22Z</time>
      </trkpt>
      <trkpt lat="46.67388" lon="6.01154">
        <ele>858.9</ele>
        <time>2020-01-09T11:48:26Z</time>
      </trkpt>
      <trkpt lat="46.67383" lon="6.01149">
        <ele>859.6</ele>
        <time>2020-01-09T11:48:30Z</time>
      </trkpt>
      <trkpt lat="46.67378" lon="6.01143">
        <ele>860.3</ele>
        <time>2020-01-09T11:48:33Z</time>
      </trkpt>
      <trkpt lat="46.67374" lon="6.01139">
        <ele>861.3</ele>
        <time>2020-01-09T11:48:37Z</time>
      </trkpt>
      <trkpt lat="46.67371" lon="6.01135">
        <ele>862.3</ele>
        <time>2020-01-09T11:48:41Z</time>
      </trkpt>
      <trkpt lat="46.67366" lon="6.01133">
        <ele>863.2</ele>
        <time>2020-01-09T11:48:46Z</time>
      </trkpt>
      <trkpt lat="46.67361" lon="6.01132">
        <ele>864.3</ele>
        <time>2020-01-09T11:48:52Z</time>
      </trkpt>
      <trkpt lat="46.67356" lon="6.0113">
        <ele>865.6</ele>
        <time>2020-01-09T11:48:57Z</time>
      </trkpt>
      <trkpt lat="46.67353" lon="6.01126">
        <ele>866.9</ele>
        <time>2020-01-09T11:49:02Z</time>
      </trkpt>
      <trkpt lat="46.67349" lon="6.01121">
        <ele>867.7</ele>
        <time>2020-01-09T11:49:07Z</time>
      </trkpt>
      <trkpt lat="46.67345" lon="6.01117">
        <ele>868.1</ele>
        <time>2020-01-09T11:49:13Z</time>
      </trkpt>
      <trkpt lat="46.67343" lon="6.01112">
        <ele>868.2</ele>
        <time>2020-01-09T11:49:17Z</time>
      </trkpt>
      <trkpt lat="46.67339" lon="6.01107">
        <ele>868.2</ele>
        <time>2020-01-09T11:49:21Z</time>
      </trkpt>
      <trkpt lat="46.67329" lon="6.01097">
        <ele>865.8</ele>
        <time>2020-01-09T11:49:41Z</time>
      </trkpt>
      <trkpt lat="46.67324" lon="6.01096">
        <ele>865.4</ele>
        <time>2020-01-09T11:49:49Z</time>
      </trkpt>
      <trkpt lat="46.6732" lon="6.01094">
        <ele>865.3</ele>
        <time>2020-01-09T11:49:53Z</time>
      </trkpt>
      <trkpt lat="46.67315" lon="6.01091">
        <ele>865.5</ele>
        <time>2020-01-09T11:49:58Z</time>
      </trkpt>
      <trkpt lat="46.67311" lon="6.01088">
        <ele>865.6</ele>
        <time>2020-01-09T11:50:02Z</time>
      </trkpt>
      <trkpt lat="46.67306" lon="6.01086">
        <ele>865.5</ele>
        <time>2020-01-09T11:50:06Z</time>
      </trkpt>
      <trkpt lat="46.67301" lon="6.01085">
        <ele>865.2</ele>
        <time>2020-01-09T11:50:14Z</time>
      </trkpt>
      <trkpt lat="46.67296" lon="6.01082">
        <ele>864.7</ele>
        <time>2020-01-09T11:50:20Z</time>
      </trkpt>
      <trkpt lat="46.67291" lon="6.0108">
        <ele>864.4</ele>
        <time>2020-01-09T11:50:25Z</time>
      </trkpt>
      <trkpt lat="46.67286" lon="6.01079">
        <ele>864.1</ele>
        <time>2020-01-09T11:50:30Z</time>
      </trkpt>
      <trkpt lat="46.67282" lon="6.01077">
        <ele>863.9</ele>
        <time>2020-01-09T11:50:35Z</time>
      </trkpt>
      <trkpt lat="46.67276" lon="6.01077">
        <ele>863.8</ele>
        <time>2020-01-09T11:50:39Z</time>
      </trkpt>
      <trkpt lat="46.67271" lon="6.01077">
        <ele>863.4</ele>
        <time>2020-01-09T11:50:44Z</time>
      </trkpt>
      <trkpt lat="46.67265" lon="6.01076">
        <ele>863.1</ele>
        <time>2020-01-09T11:50:48Z</time>
      </trkpt>
      <trkpt lat="46.6726" lon="6.01075">
        <ele>863.1</ele>
        <time>2020-01-09T11:50:51Z</time>
      </trkpt>
      <trkpt lat="46.67255" lon="6.01075">
        <ele>863.2</ele>
        <time>2020-01-09T11:50:54Z</time>
      </trkpt>
      <trkpt lat="46.6725" lon="6.01073">
        <ele>863.5</ele>
        <time>2020-01-09T11:50:59Z</time>
      </trkpt>
      <trkpt lat="46.67246" lon="6.01069">
        <ele>863.6</ele>
        <time>2020-01-09T11:51:04Z</time>
      </trkpt>
      <trkpt lat="46.67242" lon="6.01064">
        <ele>863.4</ele>
        <time>2020-01-09T11:51:08Z</time>
      </trkpt>
      <trkpt lat="46.67238" lon="6.01059">
        <ele>863.1</ele>
        <time>2020-01-09T11:51:11Z</time>
      </trkpt>
      <trkpt lat="46.67233" lon="6.01055">
        <ele>862.8</ele>
        <time>2020-01-09T11:51:15Z</time>
      </trkpt>
      <trkpt lat="46.6723" lon="6.0105">
        <ele>862.6</ele>
        <time>2020-01-09T11:51:20Z</time>
      </trkpt>
      <trkpt lat="46.67226" lon="6.01044">
        <ele>862.2</ele>
        <time>2020-01-09T11:51:25Z</time>
      </trkpt>
      <trkpt lat="46.67222" lon="6.01038">
        <ele>861.8</ele>
        <time>2020-01-09T11:51:29Z</time>
      </trkpt>
      <trkpt lat="46.67219" lon="6.01032">
        <ele>861.5</ele>
        <time>2020-01-09T11:51:34Z</time>
      </trkpt>
      <trkpt lat="46.67216" lon="6.01027">
        <ele>861.4</ele>
        <time>2020-01-09T11:51:38Z</time>
      </trkpt>
      <trkpt lat="46.67213" lon="6.01021">
        <ele>861.4</ele>
        <time>2020-01-09T11:51:42Z</time>
      </trkpt>
      <trkpt lat="46.67209" lon="6.01015">
        <ele>861.3</ele>
        <time>2020-01-09T11:51:46Z</time>
      </trkpt>
      <trkpt lat="46.67206" lon="6.01008">
        <ele>861.2</ele>
        <time>2020-01-09T11:51:50Z</time>
      </trkpt>
      <trkpt lat="46.67202" lon="6.01003">
        <ele>861.2</ele>
        <time>2020-01-09T11:51:53Z</time>
      </trkpt>
      <trkpt lat="46.67199" lon="6.00997">
        <ele>861</ele>
        <time>2020-01-09T11:51:57Z</time>
      </trkpt>
      <trkpt lat="46.67196" lon="6.00991">
        <ele>860.7</ele>
        <time>2020-01-09T11:52:02Z</time>
      </trkpt>
      <trkpt lat="46.67193" lon="6.00984">
        <ele>860.6</ele>
        <time>2020-01-09T11:52:07Z</time>
      </trkpt>
      <trkpt lat="46.67191" lon="6.00976">
        <ele>860.3</ele>
        <time>2020-01-09T11:52:12Z</time>
      </trkpt>
      <trkpt lat="46.6719" lon="6.00968">
        <ele>860</ele>
        <time>2020-01-09T11:52:17Z</time>
      </trkpt>
      <trkpt lat="46.67188" lon="6.00961">
        <ele>859.6</ele>
        <time>2020-01-09T11:52:22Z</time>
      </trkpt>
      <trkpt lat="46.67186" lon="6.00955">
        <ele>859.1</ele>
        <time>2020-01-09T11:52:27Z</time>
      </trkpt>
      <trkpt lat="46.67185" lon="6.00947">
        <ele>858.8</ele>
        <time>2020-01-09T11:52:32Z</time>
      </trkpt>
      <trkpt lat="46.67182" lon="6.00939">
        <ele>858.6</ele>
        <time>2020-01-09T11:52:36Z</time>
      </trkpt>
      <trkpt lat="46.67179" lon="6.00932">
        <ele>858.4</ele>
        <time>2020-01-09T11:52:39Z</time>
      </trkpt>
      <trkpt lat="46.67177" lon="6.00927">
        <ele>857.8</ele>
        <time>2020-01-09T11:52:46Z</time>
      </trkpt>
      <trkpt lat="46.67174" lon="6.00921">
        <ele>857.5</ele>
        <time>2020-01-09T11:52:49Z</time>
      </trkpt>
      <trkpt lat="46.67171" lon="6.00915">
        <ele>857.2</ele>
        <time>2020-01-09T11:52:53Z</time>
      </trkpt>
      <trkpt lat="46.67168" lon="6.00909">
        <ele>856.9</ele>
        <time>2020-01-09T11:52:58Z</time>
      </trkpt>
      <trkpt lat="46.67164" lon="6.00903">
        <ele>856.6</ele>
        <time>2020-01-09T11:53:01Z</time>
      </trkpt>
      <trkpt lat="46.6716" lon="6.00898">
        <ele>856.1</ele>
        <time>2020-01-09T11:53:05Z</time>
      </trkpt>
      <trkpt lat="46.67155" lon="6.00894">
        <ele>855.7</ele>
        <time>2020-01-09T11:53:08Z</time>
      </trkpt>
      <trkpt lat="46.6715" lon="6.00891">
        <ele>855.1</ele>
        <time>2020-01-09T11:53:13Z</time>
      </trkpt>
      <trkpt lat="46.67146" lon="6.00887">
        <ele>854.2</ele>
        <time>2020-01-09T11:53:20Z</time>
      </trkpt>
      <trkpt lat="46.67142" lon="6.00883">
        <ele>853.8</ele>
        <time>2020-01-09T11:53:24Z</time>
      </trkpt>
      <trkpt lat="46.67138" lon="6.00879">
        <ele>853.5</ele>
        <time>2020-01-09T11:53:27Z</time>
      </trkpt>
      <trkpt lat="46.67134" lon="6.00874">
        <ele>853.2</ele>
        <time>2020-01-09T11:53:32Z</time>
      </trkpt>
      <trkpt lat="46.6713" lon="6.0087">
        <ele>853.1</ele>
        <time>2020-01-09T11:53:36Z</time>
      </trkpt>
      <trkpt lat="46.67125" lon="6.00869">
        <ele>853.1</ele>
        <time>2020-01-09T11:53:41Z</time>
      </trkpt>
      <trkpt lat="46.6712" lon="6.00865">
        <ele>852.8</ele>
        <time>2020-01-09T11:53:47Z</time>
      </trkpt>
      <trkpt lat="46.67117" lon="6.0086">
        <ele>852.3</ele>
        <time>2020-01-09T11:53:51Z</time>
      </trkpt>
      <trkpt lat="46.67112" lon="6.00856">
        <ele>851.8</ele>
        <time>2020-01-09T11:53:55Z</time>
      </trkpt>
      <trkpt lat="46.67108" lon="6.00852">
        <ele>851.4</ele>
        <time>2020-01-09T11:53:58Z</time>
      </trkpt>
      <trkpt lat="46.67105" lon="6.00848">
        <ele>851.1</ele>
        <time>2020-01-09T11:54:01Z</time>
      </trkpt>
      <trkpt lat="46.67101" lon="6.00845">
        <ele>850.8</ele>
        <time>2020-01-09T11:54:05Z</time>
      </trkpt>
      <trkpt lat="46.67096" lon="6.00841">
        <ele>850.8</ele>
        <time>2020-01-09T11:54:09Z</time>
      </trkpt>
      <trkpt lat="46.67091" lon="6.00838">
        <ele>850.9</ele>
        <time>2020-01-09T11:54:12Z</time>
      </trkpt>
      <trkpt lat="46.67086" lon="6.00835">
        <ele>851.4</ele>
        <time>2020-01-09T11:54:20Z</time>
      </trkpt>
      <trkpt lat="46.67081" lon="6.00831">
        <ele>851.4</ele>
        <time>2020-01-09T11:54:24Z</time>
      </trkpt>
      <trkpt lat="46.67077" lon="6.00828">
        <ele>851.1</ele>
        <time>2020-01-09T11:54:28Z</time>
      </trkpt>
      <trkpt lat="46.67072" lon="6.00823">
        <ele>850.7</ele>
        <time>2020-01-09T11:54:32Z</time>
      </trkpt>
      <trkpt lat="46.67068" lon="6.0082">
        <ele>850.3</ele>
        <time>2020-01-09T11:54:37Z</time>
      </trkpt>
      <trkpt lat="46.67063" lon="6.00817">
        <ele>850</ele>
        <time>2020-01-09T11:54:41Z</time>
      </trkpt>
      <trkpt lat="46.6706" lon="6.00813">
        <ele>849.8</ele>
        <time>2020-01-09T11:54:45Z</time>
      </trkpt>
      <trkpt lat="46.67055" lon="6.0081">
        <ele>849.5</ele>
        <time>2020-01-09T11:54:49Z</time>
      </trkpt>
      <trkpt lat="46.6705" lon="6.00808">
        <ele>849.2</ele>
        <time>2020-01-09T11:54:53Z</time>
      </trkpt>
      <trkpt lat="46.67044" lon="6.00806">
        <ele>848.8</ele>
        <time>2020-01-09T11:54:57Z</time>
      </trkpt>
      <trkpt lat="46.67039" lon="6.00806">
        <ele>848.2</ele>
        <time>2020-01-09T11:55:02Z</time>
      </trkpt>
      <trkpt lat="46.67035" lon="6.00803">
        <ele>847.8</ele>
        <time>2020-01-09T11:55:06Z</time>
      </trkpt>
      <trkpt lat="46.67031" lon="6.00799">
        <ele>847.5</ele>
        <time>2020-01-09T11:55:09Z</time>
      </trkpt>
      <trkpt lat="46.67028" lon="6.00794">
        <ele>847.3</ele>
        <time>2020-01-09T11:55:13Z</time>
      </trkpt>
      <trkpt lat="46.67025" lon="6.00789">
        <ele>847</ele>
        <time>2020-01-09T11:55:17Z</time>
      </trkpt>
      <trkpt lat="46.67021" lon="6.00785">
        <ele>846.4</ele>
        <time>2020-01-09T11:55:22Z</time>
      </trkpt>
      <trkpt lat="46.67016" lon="6.00782">
        <ele>846.1</ele>
        <time>2020-01-09T11:55:26Z</time>
      </trkpt>
      <trkpt lat="46.67012" lon="6.00779">
        <ele>845.9</ele>
        <time>2020-01-09T11:55:30Z</time>
      </trkpt>
      <trkpt lat="46.67008" lon="6.00775">
        <ele>845.8</ele>
        <time>2020-01-09T11:55:35Z</time>
      </trkpt>
      <trkpt lat="46.67003" lon="6.0077">
        <ele>845.7</ele>
        <time>2020-01-09T11:55:39Z</time>
      </trkpt>
      <trkpt lat="46.66999" lon="6.00766">
        <ele>845.4</ele>
        <time>2020-01-09T11:55:43Z</time>
      </trkpt>
      <trkpt lat="46.66995" lon="6.00761">
        <ele>845.2</ele>
        <time>2020-01-09T11:55:47Z</time>
      </trkpt>
      <trkpt lat="46.6699" lon="6.00757">
        <ele>844.9</ele>
        <time>2020-01-09T11:55:51Z</time>
      </trkpt>
      <trkpt lat="46.66986" lon="6.00752">
        <ele>844.6</ele>
        <time>2020-01-09T11:55:56Z</time>
      </trkpt>
      <trkpt lat="46.66982" lon="6.0075">
        <ele>844.2</ele>
        <time>2020-01-09T11:56:01Z</time>
      </trkpt>
      <trkpt lat="46.66977" lon="6.00747">
        <ele>843.9</ele>
        <time>2020-01-09T11:56:05Z</time>
      </trkpt>
      <trkpt lat="46.66972" lon="6.00743">
        <ele>843.5</ele>
        <time>2020-01-09T11:56:10Z</time>
      </trkpt>
      <trkpt lat="46.66968" lon="6.00738">
        <ele>843</ele>
        <time>2020-01-09T11:56:14Z</time>
      </trkpt>
      <trkpt lat="46.66964" lon="6.00736">
        <ele>842.1</ele>
        <time>2020-01-09T11:56:18Z</time>
      </trkpt>
      <trkpt lat="46.66958" lon="6.00733">
        <ele>841.6</ele>
        <time>2020-01-09T11:56:21Z</time>
      </trkpt>
      <trkpt lat="46.66953" lon="6.00729">
        <ele>841.1</ele>
        <time>2020-01-09T11:56:24Z</time>
      </trkpt>
      <trkpt lat="46.66949" lon="6.00724">
        <ele>840.8</ele>
        <time>2020-01-09T11:56:27Z</time>
      </trkpt>
      <trkpt lat="46.66946" lon="6.00718">
        <ele>840.5</ele>
        <time>2020-01-09T11:56:31Z</time>
      </trkpt>
      <trkpt lat="46.66943" lon="6.00713">
        <ele>840.4</ele>
        <time>2020-01-09T11:56:35Z</time>
      </trkpt>
      <trkpt lat="46.6694" lon="6.00708">
        <ele>840</ele>
        <time>2020-01-09T11:56:40Z</time>
      </trkpt>
      <trkpt lat="46.66937" lon="6.00701">
        <ele>839.4</ele>
        <time>2020-01-09T11:56:45Z</time>
      </trkpt>
      <trkpt lat="46.66935" lon="6.00693">
        <ele>838.6</ele>
        <time>2020-01-09T11:56:50Z</time>
      </trkpt>
      <trkpt lat="46.66934" lon="6.00686">
        <ele>837.5</ele>
        <time>2020-01-09T11:56:57Z</time>
      </trkpt>
      <trkpt lat="46.66931" lon="6.00681">
        <ele>836.3</ele>
        <time>2020-01-09T11:57:02Z</time>
      </trkpt>
      <trkpt lat="46.66928" lon="6.00676">
        <ele>835.2</ele>
        <time>2020-01-09T11:57:06Z</time>
      </trkpt>
      <trkpt lat="46.66925" lon="6.00671">
        <ele>834.2</ele>
        <time>2020-01-09T11:57:09Z</time>
      </trkpt>
      <trkpt lat="46.66922" lon="6.00665">
        <ele>833</ele>
        <time>2020-01-09T11:57:12Z</time>
      </trkpt>
      <trkpt lat="46.66918" lon="6.0066">
        <ele>831.1</ele>
        <time>2020-01-09T11:57:16Z</time>
      </trkpt>
      <trkpt lat="46.66914" lon="6.00656">
        <ele>829.5</ele>
        <time>2020-01-09T11:57:19Z</time>
      </trkpt>
      <trkpt lat="46.6691" lon="6.00653">
        <ele>828.1</ele>
        <time>2020-01-09T11:57:22Z</time>
      </trkpt>
      <trkpt lat="46.66904" lon="6.00652">
        <ele>826.4</ele>
        <time>2020-01-09T11:57:27Z</time>
      </trkpt>
      <trkpt lat="46.669" lon="6.00647">
        <ele>825.4</ele>
        <time>2020-01-09T11:57:35Z</time>
      </trkpt>
      <trkpt lat="46.66897" lon="6.00642">
        <ele>824.9</ele>
        <time>2020-01-09T11:57:39Z</time>
      </trkpt>
      <trkpt lat="46.66892" lon="6.0064">
        <ele>824.2</ele>
        <time>2020-01-09T11:57:44Z</time>
      </trkpt>
      <trkpt lat="46.66887" lon="6.0064">
        <ele>824</ele>
        <time>2020-01-09T11:57:48Z</time>
      </trkpt>
      <trkpt lat="46.66882" lon="6.00639">
        <ele>824</ele>
        <time>2020-01-09T11:57:52Z</time>
      </trkpt>
      <trkpt lat="46.66877" lon="6.00637">
        <ele>824.3</ele>
        <time>2020-01-09T11:57:57Z</time>
      </trkpt>
      <trkpt lat="46.66872" lon="6.00635">
        <ele>825</ele>
        <time>2020-01-09T11:58:02Z</time>
      </trkpt>
      <trkpt lat="46.66867" lon="6.00634">
        <ele>825.6</ele>
        <time>2020-01-09T11:58:07Z</time>
      </trkpt>
      <trkpt lat="46.66862" lon="6.00636">
        <ele>825.1</ele>
        <time>2020-01-09T11:58:16Z</time>
      </trkpt>
      <trkpt lat="46.66857" lon="6.00636">
        <ele>824</ele>
        <time>2020-01-09T11:58:21Z</time>
      </trkpt>
      <trkpt lat="46.66853" lon="6.00639">
        <ele>823.5</ele>
        <time>2020-01-09T11:58:24Z</time>
      </trkpt>
      <trkpt lat="46.66849" lon="6.00646">
        <ele>823.3</ele>
        <time>2020-01-09T11:58:27Z</time>
      </trkpt>
      <trkpt lat="46.66846" lon="6.00651">
        <ele>823.2</ele>
        <time>2020-01-09T11:58:30Z</time>
      </trkpt>
      <trkpt lat="46.66842" lon="6.00655">
        <ele>823.3</ele>
        <time>2020-01-09T11:58:34Z</time>
      </trkpt>
      <trkpt lat="46.66837" lon="6.00659">
        <ele>823.2</ele>
        <time>2020-01-09T11:58:39Z</time>
      </trkpt>
      <trkpt lat="46.66832" lon="6.00662">
        <ele>823.2</ele>
        <time>2020-01-09T11:58:43Z</time>
      </trkpt>
      <trkpt lat="46.66826" lon="6.00664">
        <ele>823.2</ele>
        <time>2020-01-09T11:58:50Z</time>
      </trkpt>
      <trkpt lat="46.66819" lon="6.00666">
        <ele>823.3</ele>
        <time>2020-01-09T11:58:53Z</time>
      </trkpt>
      <trkpt lat="46.66815" lon="6.00667">
        <ele>823.2</ele>
        <time>2020-01-09T11:58:55Z</time>
      </trkpt>
      <trkpt lat="46.6681" lon="6.00669">
        <ele>823.1</ele>
        <time>2020-01-09T11:58:58Z</time>
      </trkpt>
      <trkpt lat="46.66805" lon="6.00669">
        <ele>822.8</ele>
        <time>2020-01-09T11:59:02Z</time>
      </trkpt>
      <trkpt lat="46.66799" lon="6.0067">
        <ele>822.6</ele>
        <time>2020-01-09T11:59:05Z</time>
      </trkpt>
      <trkpt lat="46.66794" lon="6.00671">
        <ele>822</ele>
        <time>2020-01-09T11:59:09Z</time>
      </trkpt>
      <trkpt lat="46.66789" lon="6.00671">
        <ele>821.7</ele>
        <time>2020-01-09T11:59:12Z</time>
      </trkpt>
      <trkpt lat="46.66784" lon="6.00673">
        <ele>821.3</ele>
        <time>2020-01-09T11:59:16Z</time>
      </trkpt>
      <trkpt lat="46.66779" lon="6.00675">
        <ele>820.9</ele>
        <time>2020-01-09T11:59:20Z</time>
      </trkpt>
      <trkpt lat="46.66774" lon="6.00675">
        <ele>820</ele>
        <time>2020-01-09T11:59:26Z</time>
      </trkpt>
      <trkpt lat="46.66769" lon="6.00675">
        <ele>819.3</ele>
        <time>2020-01-09T11:59:31Z</time>
      </trkpt>
      <trkpt lat="46.66765" lon="6.00671">
        <ele>818.7</ele>
        <time>2020-01-09T11:59:35Z</time>
      </trkpt>
      <trkpt lat="46.66762" lon="6.00666">
        <ele>818.3</ele>
        <time>2020-01-09T11:59:38Z</time>
      </trkpt>
      <trkpt lat="46.66759" lon="6.0066">
        <ele>818.1</ele>
        <time>2020-01-09T11:59:42Z</time>
      </trkpt>
      <trkpt lat="46.66764" lon="6.00663">
        <ele>815.7</ele>
        <time>2020-01-09T12:00:27Z</time>
      </trkpt>
      <trkpt lat="46.66765" lon="6.0067">
        <ele>814.7</ele>
        <time>2020-01-09T12:00:32Z</time>
      </trkpt>
      <trkpt lat="46.66764" lon="6.00677">
        <ele>814.4</ele>
        <time>2020-01-09T12:00:35Z</time>
      </trkpt>
      <trkpt lat="46.66763" lon="6.00684">
        <ele>814.2</ele>
        <time>2020-01-09T12:00:38Z</time>
      </trkpt>
      <trkpt lat="46.66759" lon="6.00688">
        <ele>814.1</ele>
        <time>2020-01-09T12:00:42Z</time>
      </trkpt>
      <trkpt lat="46.66755" lon="6.00692">
        <ele>813.9</ele>
        <time>2020-01-09T12:00:47Z</time>
      </trkpt>
      <trkpt lat="46.66751" lon="6.00696">
        <ele>813.8</ele>
        <time>2020-01-09T12:00:52Z</time>
      </trkpt>
      <trkpt lat="46.66746" lon="6.00695">
        <ele>813.7</ele>
        <time>2020-01-09T12:00:59Z</time>
      </trkpt>
      <trkpt lat="46.66741" lon="6.00691">
        <ele>813.3</ele>
        <time>2020-01-09T12:01:03Z</time>
      </trkpt>
      <trkpt lat="46.66738" lon="6.00686">
        <ele>812.7</ele>
        <time>2020-01-09T12:01:07Z</time>
      </trkpt>
      <trkpt lat="46.66734" lon="6.00681">
        <ele>812.2</ele>
        <time>2020-01-09T12:01:11Z</time>
      </trkpt>
      <trkpt lat="46.6673" lon="6.00678">
        <ele>811.6</ele>
        <time>2020-01-09T12:01:15Z</time>
      </trkpt>
      <trkpt lat="46.66725" lon="6.00681">
        <ele>811.5</ele>
        <time>2020-01-09T12:01:18Z</time>
      </trkpt>
      <trkpt lat="46.66719" lon="6.00685">
        <ele>811.5</ele>
        <time>2020-01-09T12:01:21Z</time>
      </trkpt>
      <trkpt lat="46.66714" lon="6.00687">
        <ele>811.7</ele>
        <time>2020-01-09T12:01:24Z</time>
      </trkpt>
      <trkpt lat="46.66709" lon="6.00687">
        <ele>812.2</ele>
        <time>2020-01-09T12:01:28Z</time>
      </trkpt>
      <trkpt lat="46.66704" lon="6.00686">
        <ele>812.8</ele>
        <time>2020-01-09T12:01:33Z</time>
      </trkpt>
      <trkpt lat="46.66699" lon="6.00683">
        <ele>813.2</ele>
        <time>2020-01-09T12:01:37Z</time>
      </trkpt>
      <trkpt lat="46.66695" lon="6.0068">
        <ele>813.7</ele>
        <time>2020-01-09T12:01:41Z</time>
      </trkpt>
      <trkpt lat="46.66689" lon="6.00676">
        <ele>814.3</ele>
        <time>2020-01-09T12:01:45Z</time>
      </trkpt>
      <trkpt lat="46.66685" lon="6.00673">
        <ele>814.7</ele>
        <time>2020-01-09T12:01:48Z</time>
      </trkpt>
      <trkpt lat="46.6668" lon="6.00672">
        <ele>815.3</ele>
        <time>2020-01-09T12:01:51Z</time>
      </trkpt>
      <trkpt lat="46.66676" lon="6.00668">
        <ele>815.9</ele>
        <time>2020-01-09T12:01:54Z</time>
      </trkpt>
      <trkpt lat="46.66672" lon="6.00663">
        <ele>816.3</ele>
        <time>2020-01-09T12:01:57Z</time>
      </trkpt>
      <trkpt lat="46.66668" lon="6.0066">
        <ele>816.6</ele>
        <time>2020-01-09T12:02:02Z</time>
      </trkpt>
      <trkpt lat="46.66664" lon="6.00656">
        <ele>817</ele>
        <time>2020-01-09T12:02:06Z</time>
      </trkpt>
      <trkpt lat="46.6666" lon="6.00652">
        <ele>817.5</ele>
        <time>2020-01-09T12:02:10Z</time>
      </trkpt>
      <trkpt lat="46.66655" lon="6.00655">
        <ele>818.4</ele>
        <time>2020-01-09T12:02:20Z</time>
      </trkpt>
      <trkpt lat="46.6665" lon="6.00656">
        <ele>818.4</ele>
        <time>2020-01-09T12:02:27Z</time>
      </trkpt>
      <trkpt lat="46.66646" lon="6.00653">
        <ele>818</ele>
        <time>2020-01-09T12:02:35Z</time>
      </trkpt>
      <trkpt lat="46.66642" lon="6.00655">
        <ele>817.8</ele>
        <time>2020-01-09T12:02:40Z</time>
      </trkpt>
      <trkpt lat="46.66637" lon="6.00657">
        <ele>817.6</ele>
        <time>2020-01-09T12:02:43Z</time>
      </trkpt>
      <trkpt lat="46.66631" lon="6.00657">
        <ele>817.4</ele>
        <time>2020-01-09T12:02:48Z</time>
      </trkpt>
      <trkpt lat="46.66627" lon="6.00654">
        <ele>817.1</ele>
        <time>2020-01-09T12:02:52Z</time>
      </trkpt>
      <trkpt lat="46.66623" lon="6.00648">
        <ele>816.6</ele>
        <time>2020-01-09T12:02:57Z</time>
      </trkpt>
      <trkpt lat="46.66621" lon="6.00642">
        <ele>816.1</ele>
        <time>2020-01-09T12:03:01Z</time>
      </trkpt>
      <trkpt lat="46.66618" lon="6.00637">
        <ele>815.4</ele>
        <time>2020-01-09T12:03:05Z</time>
      </trkpt>
      <trkpt lat="46.66607" lon="6.00632">
        <ele>813.8</ele>
        <time>2020-01-09T12:03:15Z</time>
      </trkpt>
      <trkpt lat="46.66603" lon="6.0063">
        <ele>814.1</ele>
        <time>2020-01-09T12:03:19Z</time>
      </trkpt>
      <trkpt lat="46.66597" lon="6.00629">
        <ele>814.4</ele>
        <time>2020-01-09T12:03:23Z</time>
      </trkpt>
      <trkpt lat="46.66592" lon="6.00628">
        <ele>814.7</ele>
        <time>2020-01-09T12:03:28Z</time>
      </trkpt>
      <trkpt lat="46.66588" lon="6.00625">
        <ele>815.1</ele>
        <time>2020-01-09T12:03:32Z</time>
      </trkpt>
      <trkpt lat="46.66583" lon="6.00623">
        <ele>815.6</ele>
        <time>2020-01-09T12:03:36Z</time>
      </trkpt>
      <trkpt lat="46.66579" lon="6.0062">
        <ele>816.1</ele>
        <time>2020-01-09T12:03:39Z</time>
      </trkpt>
      <trkpt lat="46.66574" lon="6.00616">
        <ele>816.7</ele>
        <time>2020-01-09T12:03:43Z</time>
      </trkpt>
      <trkpt lat="46.6657" lon="6.00612">
        <ele>817.2</ele>
        <time>2020-01-09T12:03:49Z</time>
      </trkpt>
      <trkpt lat="46.66566" lon="6.00607">
        <ele>817.4</ele>
        <time>2020-01-09T12:03:53Z</time>
      </trkpt>
      <trkpt lat="46.66562" lon="6.00601">
        <ele>817.6</ele>
        <time>2020-01-09T12:03:57Z</time>
      </trkpt>
      <trkpt lat="46.66559" lon="6.00594">
        <ele>817.6</ele>
        <time>2020-01-09T12:04:00Z</time>
      </trkpt>
      <trkpt lat="46.66556" lon="6.00588">
        <ele>817.6</ele>
        <time>2020-01-09T12:04:03Z</time>
      </trkpt>
      <trkpt lat="46.66554" lon="6.00581">
        <ele>817.6</ele>
        <time>2020-01-09T12:04:06Z</time>
      </trkpt>
      <trkpt lat="46.66553" lon="6.00575">
        <ele>817.7</ele>
        <time>2020-01-09T12:04:10Z</time>
      </trkpt>
      <trkpt lat="46.66551" lon="6.00568">
        <ele>817.8</ele>
        <time>2020-01-09T12:04:15Z</time>
      </trkpt>
      <trkpt lat="46.66549" lon="6.00562">
        <ele>817.8</ele>
        <time>2020-01-09T12:04:19Z</time>
      </trkpt>
      <trkpt lat="46.66546" lon="6.00554">
        <ele>817.8</ele>
        <time>2020-01-09T12:04:23Z</time>
      </trkpt>
      <trkpt lat="46.66545" lon="6.00548">
        <ele>817.9</ele>
        <time>2020-01-09T12:04:26Z</time>
      </trkpt>
      <trkpt lat="46.66543" lon="6.00542">
        <ele>817.8</ele>
        <time>2020-01-09T12:04:31Z</time>
      </trkpt>
      <trkpt lat="46.66539" lon="6.00535">
        <ele>817.3</ele>
        <time>2020-01-09T12:04:46Z</time>
      </trkpt>
      <trkpt lat="46.66536" lon="6.00529">
        <ele>816.9</ele>
        <time>2020-01-09T12:04:50Z</time>
      </trkpt>
      <trkpt lat="46.66534" lon="6.00522">
        <ele>816.1</ele>
        <time>2020-01-09T12:04:55Z</time>
      </trkpt>
      <trkpt lat="46.6653" lon="6.00518">
        <ele>815.4</ele>
        <time>2020-01-09T12:04:59Z</time>
      </trkpt>
      <trkpt lat="46.66526" lon="6.00513">
        <ele>814.9</ele>
        <time>2020-01-09T12:05:03Z</time>
      </trkpt>
      <trkpt lat="46.66521" lon="6.0051">
        <ele>814.7</ele>
        <time>2020-01-09T12:05:07Z</time>
      </trkpt>
      <trkpt lat="46.66517" lon="6.00506">
        <ele>814.6</ele>
        <time>2020-01-09T12:05:11Z</time>
      </trkpt>
      <trkpt lat="46.66511" lon="6.00505">
        <ele>814.7</ele>
        <time>2020-01-09T12:05:18Z</time>
      </trkpt>
      <trkpt lat="46.66506" lon="6.00505">
        <ele>814.8</ele>
        <time>2020-01-09T12:05:21Z</time>
      </trkpt>
      <trkpt lat="46.66501" lon="6.00506">
        <ele>814.6</ele>
        <time>2020-01-09T12:05:26Z</time>
      </trkpt>
      <trkpt lat="46.66496" lon="6.00509">
        <ele>814.2</ele>
        <time>2020-01-09T12:05:30Z</time>
      </trkpt>
      <trkpt lat="46.66491" lon="6.0051">
        <ele>813.5</ele>
        <time>2020-01-09T12:05:36Z</time>
      </trkpt>
      <trkpt lat="46.66486" lon="6.00509">
        <ele>812.9</ele>
        <time>2020-01-09T12:05:41Z</time>
      </trkpt>
      <trkpt lat="46.66482" lon="6.00507">
        <ele>812.3</ele>
        <time>2020-01-09T12:05:45Z</time>
      </trkpt>
      <trkpt lat="46.66476" lon="6.00508">
        <ele>811.5</ele>
        <time>2020-01-09T12:05:50Z</time>
      </trkpt>
      <trkpt lat="46.66472" lon="6.00509">
        <ele>811</ele>
        <time>2020-01-09T12:05:53Z</time>
      </trkpt>
      <trkpt lat="46.66466" lon="6.00511">
        <ele>810.4</ele>
        <time>2020-01-09T12:05:57Z</time>
      </trkpt>
      <trkpt lat="46.66461" lon="6.00512">
        <ele>809.6</ele>
        <time>2020-01-09T12:06:01Z</time>
      </trkpt>
      <trkpt lat="46.66456" lon="6.00513">
        <ele>808.8</ele>
        <time>2020-01-09T12:06:07Z</time>
      </trkpt>
      <trkpt lat="46.66451" lon="6.00514">
        <ele>808.4</ele>
        <time>2020-01-09T12:06:13Z</time>
      </trkpt>
      <trkpt lat="46.66446" lon="6.00515">
        <ele>808.2</ele>
        <time>2020-01-09T12:06:20Z</time>
      </trkpt>
      <trkpt lat="46.66441" lon="6.00518">
        <ele>808.5</ele>
        <time>2020-01-09T12:06:27Z</time>
      </trkpt>
      <trkpt lat="46.66437" lon="6.00522">
        <ele>808.8</ele>
        <time>2020-01-09T12:06:30Z</time>
      </trkpt>
      <trkpt lat="46.66433" lon="6.00527">
        <ele>809.2</ele>
        <time>2020-01-09T12:06:34Z</time>
      </trkpt>
      <trkpt lat="46.6643" lon="6.00533">
        <ele>809.4</ele>
        <time>2020-01-09T12:06:38Z</time>
      </trkpt>
      <trkpt lat="46.66425" lon="6.00539">
        <ele>809.5</ele>
        <time>2020-01-09T12:06:42Z</time>
      </trkpt>
      <trkpt lat="46.66421" lon="6.00542">
        <ele>809.5</ele>
        <time>2020-01-09T12:06:45Z</time>
      </trkpt>
      <trkpt lat="46.66416" lon="6.00545">
        <ele>809.4</ele>
        <time>2020-01-09T12:06:49Z</time>
      </trkpt>
      <trkpt lat="46.66411" lon="6.00545">
        <ele>809.2</ele>
        <time>2020-01-09T12:06:53Z</time>
      </trkpt>
      <trkpt lat="46.66406" lon="6.00543">
        <ele>808.8</ele>
        <time>2020-01-09T12:06:59Z</time>
      </trkpt>
      <trkpt lat="46.66402" lon="6.00541">
        <ele>808.4</ele>
        <time>2020-01-09T12:07:04Z</time>
      </trkpt>
      <trkpt lat="46.66398" lon="6.00537">
        <ele>807.8</ele>
        <time>2020-01-09T12:07:11Z</time>
      </trkpt>
      <trkpt lat="46.66393" lon="6.00534">
        <ele>807</ele>
        <time>2020-01-09T12:07:19Z</time>
      </trkpt>
      <trkpt lat="46.66389" lon="6.00531">
        <ele>806.5</ele>
        <time>2020-01-09T12:07:22Z</time>
      </trkpt>
      <trkpt lat="46.66384" lon="6.00528">
        <ele>806.2</ele>
        <time>2020-01-09T12:07:25Z</time>
      </trkpt>
      <trkpt lat="46.6638" lon="6.00525">
        <ele>805.8</ele>
        <time>2020-01-09T12:07:30Z</time>
      </trkpt>
      <trkpt lat="46.66376" lon="6.0052">
        <ele>805.5</ele>
        <time>2020-01-09T12:07:35Z</time>
      </trkpt>
      <trkpt lat="46.66372" lon="6.00517">
        <ele>805.3</ele>
        <time>2020-01-09T12:07:42Z</time>
      </trkpt>
      <trkpt lat="46.66368" lon="6.00512">
        <ele>805.5</ele>
        <time>2020-01-09T12:07:48Z</time>
      </trkpt>
      <trkpt lat="46.66365" lon="6.00507">
        <ele>805.9</ele>
        <time>2020-01-09T12:07:52Z</time>
      </trkpt>
      <trkpt lat="46.66363" lon="6.005">
        <ele>806.3</ele>
        <time>2020-01-09T12:07:56Z</time>
      </trkpt>
      <trkpt lat="46.6636" lon="6.00493">
        <ele>806.7</ele>
        <time>2020-01-09T12:08:00Z</time>
      </trkpt>
      <trkpt lat="46.66358" lon="6.00487">
        <ele>807.1</ele>
        <time>2020-01-09T12:08:04Z</time>
      </trkpt>
      <trkpt lat="46.66355" lon="6.00482">
        <ele>807.5</ele>
        <time>2020-01-09T12:08:08Z</time>
      </trkpt>
      <trkpt lat="46.66353" lon="6.00476">
        <ele>807.9</ele>
        <time>2020-01-09T12:08:11Z</time>
      </trkpt>
      <trkpt lat="46.6635" lon="6.0047">
        <ele>808.3</ele>
        <time>2020-01-09T12:08:14Z</time>
      </trkpt>
      <trkpt lat="46.66347" lon="6.00463">
        <ele>808.8</ele>
        <time>2020-01-09T12:08:19Z</time>
      </trkpt>
      <trkpt lat="46.66344" lon="6.00458">
        <ele>809.2</ele>
        <time>2020-01-09T12:08:24Z</time>
      </trkpt>
      <trkpt lat="46.66341" lon="6.00454">
        <ele>809.6</ele>
        <time>2020-01-09T12:08:31Z</time>
      </trkpt>
      <trkpt lat="46.66336" lon="6.00451">
        <ele>810.2</ele>
        <time>2020-01-09T12:08:37Z</time>
      </trkpt>
      <trkpt lat="46.66332" lon="6.00447">
        <ele>810.8</ele>
        <time>2020-01-09T12:08:42Z</time>
      </trkpt>
      <trkpt lat="46.66328" lon="6.00444">
        <ele>811.2</ele>
        <time>2020-01-09T12:08:46Z</time>
      </trkpt>
      <trkpt lat="46.66324" lon="6.00441">
        <ele>811.5</ele>
        <time>2020-01-09T12:08:51Z</time>
      </trkpt>
      <trkpt lat="46.66319" lon="6.0044">
        <ele>811.9</ele>
        <time>2020-01-09T12:08:55Z</time>
      </trkpt>
      <trkpt lat="46.66314" lon="6.00438">
        <ele>812.2</ele>
        <time>2020-01-09T12:08:58Z</time>
      </trkpt>
      <trkpt lat="46.66309" lon="6.00436">
        <ele>812.8</ele>
        <time>2020-01-09T12:09:02Z</time>
      </trkpt>
      <trkpt lat="46.66304" lon="6.00434">
        <ele>813.5</ele>
        <time>2020-01-09T12:09:06Z</time>
      </trkpt>
      <trkpt lat="46.66299" lon="6.00434">
        <ele>814.3</ele>
        <time>2020-01-09T12:09:10Z</time>
      </trkpt>
      <trkpt lat="46.66294" lon="6.00433">
        <ele>815.4</ele>
        <time>2020-01-09T12:09:15Z</time>
      </trkpt>
      <trkpt lat="46.6629" lon="6.0043">
        <ele>818</ele>
        <time>2020-01-09T12:09:26Z</time>
      </trkpt>
      <trkpt lat="46.66284" lon="6.00429">
        <ele>818.8</ele>
        <time>2020-01-09T12:09:31Z</time>
      </trkpt>
      <trkpt lat="46.66279" lon="6.00426">
        <ele>819.1</ele>
        <time>2020-01-09T12:09:36Z</time>
      </trkpt>
      <trkpt lat="46.66275" lon="6.00424">
        <ele>819.2</ele>
        <time>2020-01-09T12:09:42Z</time>
      </trkpt>
      <trkpt lat="46.6627" lon="6.00422">
        <ele>819.5</ele>
        <time>2020-01-09T12:09:48Z</time>
      </trkpt>
      <trkpt lat="46.66265" lon="6.0042">
        <ele>820</ele>
        <time>2020-01-09T12:09:53Z</time>
      </trkpt>
      <trkpt lat="46.6626" lon="6.0042">
        <ele>820.5</ele>
        <time>2020-01-09T12:09:58Z</time>
      </trkpt>
      <trkpt lat="46.66255" lon="6.00419">
        <ele>821.1</ele>
        <time>2020-01-09T12:10:04Z</time>
      </trkpt>
      <trkpt lat="46.6625" lon="6.00418">
        <ele>821.6</ele>
        <time>2020-01-09T12:10:11Z</time>
      </trkpt>
      <trkpt lat="46.66245" lon="6.00417">
        <ele>821.9</ele>
        <time>2020-01-09T12:10:18Z</time>
      </trkpt>
      <trkpt lat="46.6624" lon="6.00417">
        <ele>822.4</ele>
        <time>2020-01-09T12:10:28Z</time>
      </trkpt>
      <trkpt lat="46.66232" lon="6.00413">
        <ele>823.5</ele>
        <time>2020-01-09T12:10:39Z</time>
      </trkpt>
      <trkpt lat="46.66208" lon="6.00407">
        <ele>835.9</ele>
        <time>2020-01-09T12:11:13Z</time>
      </trkpt>
      <trkpt lat="46.66203" lon="6.00408">
        <ele>839.2</ele>
        <time>2020-01-09T12:11:19Z</time>
      </trkpt>
      <trkpt lat="46.66198" lon="6.00418">
        <ele>848.7</ele>
        <time>2020-01-09T12:11:33Z</time>
      </trkpt>
      <trkpt lat="46.66188" lon="6.00427">
        <ele>855.3</ele>
        <time>2020-01-09T12:11:48Z</time>
      </trkpt>
      <trkpt lat="46.66184" lon="6.00427">
        <ele>856.7</ele>
        <time>2020-01-09T12:11:55Z</time>
      </trkpt>
      <trkpt lat="46.66179" lon="6.00428">
        <ele>858</ele>
        <time>2020-01-09T12:12:02Z</time>
      </trkpt>
      <trkpt lat="46.66162" lon="6.00436">
        <ele>862.9</ele>
        <time>2020-01-09T12:12:28Z</time>
      </trkpt>
      <trkpt lat="46.66158" lon="6.00439">
        <ele>863</ele>
        <time>2020-01-09T12:12:34Z</time>
      </trkpt>
      <trkpt lat="46.66153" lon="6.0044">
        <ele>863.6</ele>
        <time>2020-01-09T12:12:40Z</time>
      </trkpt>
      <trkpt lat="46.66148" lon="6.00443">
        <ele>864</ele>
        <time>2020-01-09T12:12:43Z</time>
      </trkpt>
      <trkpt lat="46.66143" lon="6.00445">
        <ele>864.3</ele>
        <time>2020-01-09T12:12:46Z</time>
      </trkpt>
      <trkpt lat="46.66138" lon="6.00445">
        <ele>864.5</ele>
        <time>2020-01-09T12:12:49Z</time>
      </trkpt>
      <trkpt lat="46.66134" lon="6.00449">
        <ele>864.6</ele>
        <time>2020-01-09T12:12:56Z</time>
      </trkpt>
      <trkpt lat="46.6613" lon="6.00446">
        <ele>862.9</ele>
        <time>2020-01-09T12:13:08Z</time>
      </trkpt>
      <trkpt lat="46.66129" lon="6.0044">
        <ele>859.5</ele>
        <time>2020-01-09T12:13:19Z</time>
      </trkpt>
      <trkpt lat="46.66117" lon="6.00442">
        <ele>849</ele>
        <time>2020-01-09T12:16:10Z</time>
      </trkpt>
      <trkpt lat="46.66119" lon="6.00453">
        <ele>851</ele>
        <time>2020-01-09T12:19:58Z</time>
      </trkpt>
      <trkpt lat="46.66121" lon="6.00459">
        <ele>849.6</ele>
        <time>2020-01-09T12:20:05Z</time>
      </trkpt>
      <trkpt lat="46.66122" lon="6.00466">
        <ele>848.9</ele>
        <time>2020-01-09T12:20:10Z</time>
      </trkpt>
      <trkpt lat="46.66119" lon="6.005">
        <ele>847.7</ele>
        <time>2020-01-09T12:20:37Z</time>
      </trkpt>
      <trkpt lat="46.66118" lon="6.00508">
        <ele>847.1</ele>
        <time>2020-01-09T12:20:41Z</time>
      </trkpt>
      <trkpt lat="46.66118" lon="6.00515">
        <ele>846.8</ele>
        <time>2020-01-09T12:20:45Z</time>
      </trkpt>
      <trkpt lat="46.66118" lon="6.00522">
        <ele>846.4</ele>
        <time>2020-01-09T12:20:49Z</time>
      </trkpt>
      <trkpt lat="46.66118" lon="6.0053">
        <ele>845.9</ele>
        <time>2020-01-09T12:20:54Z</time>
      </trkpt>
      <trkpt lat="46.66117" lon="6.00537">
        <ele>845.5</ele>
        <time>2020-01-09T12:20:59Z</time>
      </trkpt>
      <trkpt lat="46.66115" lon="6.00544">
        <ele>845.1</ele>
        <time>2020-01-09T12:21:04Z</time>
      </trkpt>
      <trkpt lat="46.66114" lon="6.0055">
        <ele>844.5</ele>
        <time>2020-01-09T12:21:09Z</time>
      </trkpt>
      <trkpt lat="46.66112" lon="6.00557">
        <ele>843.3</ele>
        <time>2020-01-09T12:21:16Z</time>
      </trkpt>
      <trkpt lat="46.66113" lon="6.00564">
        <ele>842.2</ele>
        <time>2020-01-09T12:21:22Z</time>
      </trkpt>
      <trkpt lat="46.66116" lon="6.0057">
        <ele>841.3</ele>
        <time>2020-01-09T12:21:32Z</time>
      </trkpt>
      <trkpt lat="46.66118" lon="6.00578">
        <ele>840.8</ele>
        <time>2020-01-09T12:21:40Z</time>
      </trkpt>
      <trkpt lat="46.6612" lon="6.00584">
        <ele>840.3</ele>
        <time>2020-01-09T12:21:45Z</time>
      </trkpt>
      <trkpt lat="46.66118" lon="6.00591">
        <ele>839.4</ele>
        <time>2020-01-09T12:21:54Z</time>
      </trkpt>
      <trkpt lat="46.66112" lon="6.00593">
        <ele>839.1</ele>
        <time>2020-01-09T12:21:57Z</time>
      </trkpt>
      <trkpt lat="46.66109" lon="6.006">
        <ele>838.2</ele>
        <time>2020-01-09T12:22:01Z</time>
      </trkpt>
      <trkpt lat="46.6611" lon="6.00607">
        <ele>837.5</ele>
        <time>2020-01-09T12:22:04Z</time>
      </trkpt>
      <trkpt lat="46.6611" lon="6.00614">
        <ele>836.6</ele>
        <time>2020-01-09T12:22:08Z</time>
      </trkpt>
      <trkpt lat="46.66116" lon="6.0063">
        <ele>833.1</ele>
        <time>2020-01-09T12:22:20Z</time>
      </trkpt>
      <trkpt lat="46.66119" lon="6.00636">
        <ele>832.1</ele>
        <time>2020-01-09T12:22:26Z</time>
      </trkpt>
      <trkpt lat="46.66121" lon="6.00643">
        <ele>831.4</ele>
        <time>2020-01-09T12:22:30Z</time>
      </trkpt>
      <trkpt lat="46.66125" lon="6.00648">
        <ele>830.8</ele>
        <time>2020-01-09T12:22:34Z</time>
      </trkpt>
      <trkpt lat="46.66129" lon="6.00654">
        <ele>829.6</ele>
        <time>2020-01-09T12:22:40Z</time>
      </trkpt>
      <trkpt lat="46.66131" lon="6.0067">
        <ele>826.7</ele>
        <time>2020-01-09T12:22:57Z</time>
      </trkpt>
      <trkpt lat="46.66133" lon="6.00676">
        <ele>826.4</ele>
        <time>2020-01-09T12:23:00Z</time>
      </trkpt>
      <trkpt lat="46.66135" lon="6.00682">
        <ele>825.9</ele>
        <time>2020-01-09T12:23:04Z</time>
      </trkpt>
      <trkpt lat="46.66144" lon="6.00696">
        <ele>823.3</ele>
        <time>2020-01-09T12:23:14Z</time>
      </trkpt>
      <trkpt lat="46.66147" lon="6.007">
        <ele>823</ele>
        <time>2020-01-09T12:23:18Z</time>
      </trkpt>
      <trkpt lat="46.66149" lon="6.00706">
        <ele>822.6</ele>
        <time>2020-01-09T12:23:22Z</time>
      </trkpt>
      <trkpt lat="46.66151" lon="6.00713">
        <ele>822.3</ele>
        <time>2020-01-09T12:23:28Z</time>
      </trkpt>
      <trkpt lat="46.66153" lon="6.00719">
        <ele>821.9</ele>
        <time>2020-01-09T12:23:34Z</time>
      </trkpt>
      <trkpt lat="46.66155" lon="6.00725">
        <ele>822</ele>
        <time>2020-01-09T12:23:38Z</time>
      </trkpt>
      <trkpt lat="46.66158" lon="6.00732">
        <ele>822.3</ele>
        <time>2020-01-09T12:23:42Z</time>
      </trkpt>
      <trkpt lat="46.6616" lon="6.00752">
        <ele>823.7</ele>
        <time>2020-01-09T12:23:52Z</time>
      </trkpt>
      <trkpt lat="46.66161" lon="6.0076">
        <ele>824.1</ele>
        <time>2020-01-09T12:23:56Z</time>
      </trkpt>
      <trkpt lat="46.66163" lon="6.00766">
        <ele>824.8</ele>
        <time>2020-01-09T12:24:02Z</time>
      </trkpt>
      <trkpt lat="46.66165" lon="6.00772">
        <ele>825.2</ele>
        <time>2020-01-09T12:24:08Z</time>
      </trkpt>
      <trkpt lat="46.66167" lon="6.0078">
        <ele>825.2</ele>
        <time>2020-01-09T12:24:12Z</time>
      </trkpt>
      <trkpt lat="46.66168" lon="6.00787">
        <ele>825.2</ele>
        <time>2020-01-09T12:24:20Z</time>
      </trkpt>
      <trkpt lat="46.66167" lon="6.00794">
        <ele>825.2</ele>
        <time>2020-01-09T12:24:24Z</time>
      </trkpt>
      <trkpt lat="46.66162" lon="6.00813">
        <ele>827.6</ele>
        <time>2020-01-09T12:24:42Z</time>
      </trkpt>
      <trkpt lat="46.66163" lon="6.0082">
        <ele>827.3</ele>
        <time>2020-01-09T12:24:47Z</time>
      </trkpt>
      <trkpt lat="46.66165" lon="6.00828">
        <ele>827</ele>
        <time>2020-01-09T12:24:51Z</time>
      </trkpt>
      <trkpt lat="46.66166" lon="6.00834">
        <ele>826.9</ele>
        <time>2020-01-09T12:24:53Z</time>
      </trkpt>
      <trkpt lat="46.66168" lon="6.00841">
        <ele>826.4</ele>
        <time>2020-01-09T12:24:58Z</time>
      </trkpt>
      <trkpt lat="46.66171" lon="6.00847">
        <ele>825.7</ele>
        <time>2020-01-09T12:25:03Z</time>
      </trkpt>
      <trkpt lat="46.66174" lon="6.00854">
        <ele>824.5</ele>
        <time>2020-01-09T12:25:08Z</time>
      </trkpt>
      <trkpt lat="46.66176" lon="6.00861">
        <ele>823.4</ele>
        <time>2020-01-09T12:25:11Z</time>
      </trkpt>
      <trkpt lat="46.66177" lon="6.00869">
        <ele>822.6</ele>
        <time>2020-01-09T12:25:14Z</time>
      </trkpt>
      <trkpt lat="46.6618" lon="6.00876">
        <ele>821.2</ele>
        <time>2020-01-09T12:25:19Z</time>
      </trkpt>
      <trkpt lat="46.66187" lon="6.00895">
        <ele>817</ele>
        <time>2020-01-09T12:25:39Z</time>
      </trkpt>
      <trkpt lat="46.6619" lon="6.00901">
        <ele>816.6</ele>
        <time>2020-01-09T12:25:44Z</time>
      </trkpt>
      <trkpt lat="46.66193" lon="6.00908">
        <ele>816.3</ele>
        <time>2020-01-09T12:25:51Z</time>
      </trkpt>
      <trkpt lat="46.66196" lon="6.00913">
        <ele>816.2</ele>
        <time>2020-01-09T12:25:54Z</time>
      </trkpt>
      <trkpt lat="46.66198" lon="6.00919">
        <ele>816.1</ele>
        <time>2020-01-09T12:25:56Z</time>
      </trkpt>
      <trkpt lat="46.66204" lon="6.00925">
        <ele>816</ele>
        <time>2020-01-09T12:25:58Z</time>
      </trkpt>
      <trkpt lat="46.66207" lon="6.0093">
        <ele>815.9</ele>
        <time>2020-01-09T12:26:01Z</time>
      </trkpt>
      <trkpt lat="46.66214" lon="6.00944">
        <ele>815.3</ele>
        <time>2020-01-09T12:26:09Z</time>
      </trkpt>
      <trkpt lat="46.66216" lon="6.0095">
        <ele>815.3</ele>
        <time>2020-01-09T12:26:11Z</time>
      </trkpt>
      <trkpt lat="46.66218" lon="6.00955">
        <ele>815.5</ele>
        <time>2020-01-09T12:26:15Z</time>
      </trkpt>
      <trkpt lat="46.66222" lon="6.00964">
        <ele>816</ele>
        <time>2020-01-09T12:26:20Z</time>
      </trkpt>
      <trkpt lat="46.66227" lon="6.00981">
        <ele>818.4</ele>
        <time>2020-01-09T12:26:34Z</time>
      </trkpt>
      <trkpt lat="46.66229" lon="6.00988">
        <ele>818.9</ele>
        <time>2020-01-09T12:26:37Z</time>
      </trkpt>
      <trkpt lat="46.66231" lon="6.00995">
        <ele>819.9</ele>
        <time>2020-01-09T12:26:43Z</time>
      </trkpt>
      <trkpt lat="46.66234" lon="6.01001">
        <ele>820.8</ele>
        <time>2020-01-09T12:26:48Z</time>
      </trkpt>
      <trkpt lat="46.66237" lon="6.01006">
        <ele>821.1</ele>
        <time>2020-01-09T12:26:51Z</time>
      </trkpt>
      <trkpt lat="46.66242" lon="6.01023">
        <ele>822.2</ele>
        <time>2020-01-09T12:27:10Z</time>
      </trkpt>
      <trkpt lat="46.66244" lon="6.01029">
        <ele>822</ele>
        <time>2020-01-09T12:27:15Z</time>
      </trkpt>
      <trkpt lat="46.66245" lon="6.01036">
        <ele>821.7</ele>
        <time>2020-01-09T12:27:19Z</time>
      </trkpt>
      <trkpt lat="46.66246" lon="6.01043">
        <ele>820.9</ele>
        <time>2020-01-09T12:27:24Z</time>
      </trkpt>
      <trkpt lat="46.66238" lon="6.01049">
        <ele>810.8</ele>
        <time>2020-01-09T12:27:48Z</time>
      </trkpt>
      <trkpt lat="46.66234" lon="6.01054">
        <ele>808.2</ele>
        <time>2020-01-09T12:27:59Z</time>
      </trkpt>
      <trkpt lat="46.66233" lon="6.01061">
        <ele>808.2</ele>
        <time>2020-01-09T12:28:03Z</time>
      </trkpt>
      <trkpt lat="46.66232" lon="6.0107">
        <ele>808.5</ele>
        <time>2020-01-09T12:28:06Z</time>
      </trkpt>
      <trkpt lat="46.66231" lon="6.01076">
        <ele>809.2</ele>
        <time>2020-01-09T12:28:09Z</time>
      </trkpt>
      <trkpt lat="46.66231" lon="6.01083">
        <ele>810.3</ele>
        <time>2020-01-09T12:28:13Z</time>
      </trkpt>
      <trkpt lat="46.66232" lon="6.0109">
        <ele>811.1</ele>
        <time>2020-01-09T12:28:16Z</time>
      </trkpt>
      <trkpt lat="46.66237" lon="6.01113">
        <ele>815.5</ele>
        <time>2020-01-09T12:28:28Z</time>
      </trkpt>
      <trkpt lat="46.66239" lon="6.01119">
        <ele>816.6</ele>
        <time>2020-01-09T12:28:32Z</time>
      </trkpt>
      <trkpt lat="46.6624" lon="6.01125">
        <ele>818</ele>
        <time>2020-01-09T12:28:37Z</time>
      </trkpt>
      <trkpt lat="46.66241" lon="6.01132">
        <ele>819.6</ele>
        <time>2020-01-09T12:28:43Z</time>
      </trkpt>
      <trkpt lat="46.66244" lon="6.01138">
        <ele>821.2</ele>
        <time>2020-01-09T12:28:50Z</time>
      </trkpt>
      <trkpt lat="46.66247" lon="6.01143">
        <ele>823.3</ele>
        <time>2020-01-09T12:29:00Z</time>
      </trkpt>
      <trkpt lat="46.66249" lon="6.01149">
        <ele>824.3</ele>
        <time>2020-01-09T12:29:05Z</time>
      </trkpt>
      <trkpt lat="46.66251" lon="6.01156">
        <ele>825.5</ele>
        <time>2020-01-09T12:29:11Z</time>
      </trkpt>
      <trkpt lat="46.66254" lon="6.01165">
        <ele>826.1</ele>
        <time>2020-01-09T12:29:15Z</time>
      </trkpt>
      <trkpt lat="46.66256" lon="6.01171">
        <ele>826.5</ele>
        <time>2020-01-09T12:29:18Z</time>
      </trkpt>
      <trkpt lat="46.66258" lon="6.01177">
        <ele>826.8</ele>
        <time>2020-01-09T12:29:21Z</time>
      </trkpt>
      <trkpt lat="46.6626" lon="6.01183">
        <ele>827.4</ele>
        <time>2020-01-09T12:29:27Z</time>
      </trkpt>
      <trkpt lat="46.66263" lon="6.01189">
        <ele>828.3</ele>
        <time>2020-01-09T12:29:38Z</time>
      </trkpt>
      <trkpt lat="46.66267" lon="6.01193">
        <ele>828.7</ele>
        <time>2020-01-09T12:29:43Z</time>
      </trkpt>
      <trkpt lat="46.6627" lon="6.01199">
        <ele>829</ele>
        <time>2020-01-09T12:29:51Z</time>
      </trkpt>
      <trkpt lat="46.66273" lon="6.01206">
        <ele>829.2</ele>
        <time>2020-01-09T12:29:55Z</time>
      </trkpt>
      <trkpt lat="46.66275" lon="6.01212">
        <ele>829.3</ele>
        <time>2020-01-09T12:30:01Z</time>
      </trkpt>
      <trkpt lat="46.66279" lon="6.01217">
        <ele>829</ele>
        <time>2020-01-09T12:30:07Z</time>
      </trkpt>
      <trkpt lat="46.66297" lon="6.01235">
        <ele>820.9</ele>
        <time>2020-01-09T12:30:51Z</time>
      </trkpt>
      <trkpt lat="46.66299" lon="6.01241">
        <ele>819.7</ele>
        <time>2020-01-09T12:30:57Z</time>
      </trkpt>
      <trkpt lat="46.66301" lon="6.01248">
        <ele>818.5</ele>
        <time>2020-01-09T12:31:02Z</time>
      </trkpt>
      <trkpt lat="46.66303" lon="6.01255">
        <ele>817.2</ele>
        <time>2020-01-09T12:31:09Z</time>
      </trkpt>
      <trkpt lat="46.6631" lon="6.01268">
        <ele>812.1</ele>
        <time>2020-01-09T12:31:27Z</time>
      </trkpt>
      <trkpt lat="46.66313" lon="6.01276">
        <ele>811.1</ele>
        <time>2020-01-09T12:31:31Z</time>
      </trkpt>
      <trkpt lat="46.66326" lon="6.01318">
        <ele>804.3</ele>
        <time>2020-01-09T12:32:09Z</time>
      </trkpt>
      <trkpt lat="46.6634" lon="6.01342">
        <ele>799.4</ele>
        <time>2020-01-09T12:32:26Z</time>
      </trkpt>
      <trkpt lat="46.66343" lon="6.0135">
        <ele>798.8</ele>
        <time>2020-01-09T12:32:28Z</time>
      </trkpt>
      <trkpt lat="46.66345" lon="6.01356">
        <ele>798.1</ele>
        <time>2020-01-09T12:32:31Z</time>
      </trkpt>
      <trkpt lat="46.66348" lon="6.01364">
        <ele>797.6</ele>
        <time>2020-01-09T12:32:33Z</time>
      </trkpt>
      <trkpt lat="46.6635" lon="6.01369">
        <ele>796.4</ele>
        <time>2020-01-09T12:32:39Z</time>
      </trkpt>
      <trkpt lat="46.66353" lon="6.01376">
        <ele>794.6</ele>
        <time>2020-01-09T12:32:45Z</time>
      </trkpt>
      <trkpt lat="46.66357" lon="6.01386">
        <ele>791.8</ele>
        <time>2020-01-09T12:32:54Z</time>
      </trkpt>
      <trkpt lat="46.66358" lon="6.01393">
        <ele>791.2</ele>
        <time>2020-01-09T12:32:59Z</time>
      </trkpt>
      <trkpt lat="46.66361" lon="6.01399">
        <ele>790.7</ele>
        <time>2020-01-09T12:33:02Z</time>
      </trkpt>
      <trkpt lat="46.66365" lon="6.01402">
        <ele>790.1</ele>
        <time>2020-01-09T12:33:05Z</time>
      </trkpt>
      <trkpt lat="46.66372" lon="6.01415">
        <ele>787.7</ele>
        <time>2020-01-09T12:33:19Z</time>
      </trkpt>
      <trkpt lat="46.66379" lon="6.01431">
        <ele>783.9</ele>
        <time>2020-01-09T12:33:41Z</time>
      </trkpt>
      <trkpt lat="46.66384" lon="6.01443">
        <ele>784.9</ele>
        <time>2020-01-09T12:33:49Z</time>
      </trkpt>
      <trkpt lat="46.66403" lon="6.01482">
        <ele>792.3</ele>
        <time>2020-01-09T12:34:31Z</time>
      </trkpt>
      <trkpt lat="46.66406" lon="6.01489">
        <ele>792.9</ele>
        <time>2020-01-09T12:34:35Z</time>
      </trkpt>
      <trkpt lat="46.6641" lon="6.01497">
        <ele>793.7</ele>
        <time>2020-01-09T12:34:39Z</time>
      </trkpt>
      <trkpt lat="46.66414" lon="6.01503">
        <ele>794.1</ele>
        <time>2020-01-09T12:34:41Z</time>
      </trkpt>
      <trkpt lat="46.66418" lon="6.0151">
        <ele>794.6</ele>
        <time>2020-01-09T12:34:43Z</time>
      </trkpt>
      <trkpt lat="46.66421" lon="6.01515">
        <ele>795</ele>
        <time>2020-01-09T12:34:45Z</time>
      </trkpt>
      <trkpt lat="46.66424" lon="6.01521">
        <ele>795.7</ele>
        <time>2020-01-09T12:34:48Z</time>
      </trkpt>
      <trkpt lat="46.66427" lon="6.01528">
        <ele>796.2</ele>
        <time>2020-01-09T12:34:51Z</time>
      </trkpt>
      <trkpt lat="46.6643" lon="6.01534">
        <ele>796.5</ele>
        <time>2020-01-09T12:34:53Z</time>
      </trkpt>
      <trkpt lat="46.66433" lon="6.01542">
        <ele>796.8</ele>
        <time>2020-01-09T12:34:57Z</time>
      </trkpt>
      <trkpt lat="46.66436" lon="6.01548">
        <ele>797.1</ele>
        <time>2020-01-09T12:35:02Z</time>
      </trkpt>
      <trkpt lat="46.66438" lon="6.01555">
        <ele>797.4</ele>
        <time>2020-01-09T12:35:10Z</time>
      </trkpt>
      <trkpt lat="46.66448" lon="6.01566">
        <ele>798.2</ele>
        <time>2020-01-09T12:35:19Z</time>
      </trkpt>
      <trkpt lat="46.6645" lon="6.01572">
        <ele>798.4</ele>
        <time>2020-01-09T12:35:23Z</time>
      </trkpt>
      <trkpt lat="46.66452" lon="6.01579">
        <ele>798.3</ele>
        <time>2020-01-09T12:35:28Z</time>
      </trkpt>
      <trkpt lat="46.66454" lon="6.01592">
        <ele>796.2</ele>
        <time>2020-01-09T12:35:46Z</time>
      </trkpt>
      <trkpt lat="46.66459" lon="6.01608">
        <ele>798.7</ele>
        <time>2020-01-09T12:36:09Z</time>
      </trkpt>
      <trkpt lat="46.66463" lon="6.01612">
        <ele>798.5</ele>
        <time>2020-01-09T12:36:21Z</time>
      </trkpt>
      <trkpt lat="46.66465" lon="6.01618">
        <ele>798.7</ele>
        <time>2020-01-09T12:36:25Z</time>
      </trkpt>
      <trkpt lat="46.66467" lon="6.01637">
        <ele>801.1</ele>
        <time>2020-01-09T12:36:37Z</time>
      </trkpt>
      <trkpt lat="46.66469" lon="6.01644">
        <ele>801.8</ele>
        <time>2020-01-09T12:36:42Z</time>
      </trkpt>
      <trkpt lat="46.66472" lon="6.0165">
        <ele>802.4</ele>
        <time>2020-01-09T12:36:45Z</time>
      </trkpt>
      <trkpt lat="46.66473" lon="6.01658">
        <ele>802.9</ele>
        <time>2020-01-09T12:36:48Z</time>
      </trkpt>
      <trkpt lat="46.6648" lon="6.01671">
        <ele>805.7</ele>
        <time>2020-01-09T12:37:02Z</time>
      </trkpt>
      <trkpt lat="46.66484" lon="6.01675">
        <ele>807.3</ele>
        <time>2020-01-09T12:37:08Z</time>
      </trkpt>
      <trkpt lat="46.66488" lon="6.01679">
        <ele>809.5</ele>
        <time>2020-01-09T12:37:18Z</time>
      </trkpt>
      <trkpt lat="46.66493" lon="6.01681">
        <ele>810.6</ele>
        <time>2020-01-09T12:37:23Z</time>
      </trkpt>
      <trkpt lat="46.66498" lon="6.01682">
        <ele>811.7</ele>
        <time>2020-01-09T12:37:28Z</time>
      </trkpt>
      <trkpt lat="46.66503" lon="6.01685">
        <ele>812.5</ele>
        <time>2020-01-09T12:37:33Z</time>
      </trkpt>
      <trkpt lat="46.66506" lon="6.0169">
        <ele>813.1</ele>
        <time>2020-01-09T12:37:38Z</time>
      </trkpt>
      <trkpt lat="46.66511" lon="6.01692">
        <ele>813.5</ele>
        <time>2020-01-09T12:37:44Z</time>
      </trkpt>
      <trkpt lat="46.66513" lon="6.017">
        <ele>813.7</ele>
        <time>2020-01-09T12:37:49Z</time>
      </trkpt>
      <trkpt lat="46.66516" lon="6.01706">
        <ele>814</ele>
        <time>2020-01-09T12:37:55Z</time>
      </trkpt>
      <trkpt lat="46.66518" lon="6.01712">
        <ele>814.6</ele>
        <time>2020-01-09T12:38:01Z</time>
      </trkpt>
      <trkpt lat="46.6652" lon="6.01718">
        <ele>815.1</ele>
        <time>2020-01-09T12:38:07Z</time>
      </trkpt>
      <trkpt lat="46.66522" lon="6.01724">
        <ele>815.4</ele>
        <time>2020-01-09T12:38:10Z</time>
      </trkpt>
      <trkpt lat="46.66524" lon="6.01732">
        <ele>815.8</ele>
        <time>2020-01-09T12:38:13Z</time>
      </trkpt>
      <trkpt lat="46.66526" lon="6.01738">
        <ele>815.9</ele>
        <time>2020-01-09T12:38:17Z</time>
      </trkpt>
      <trkpt lat="46.66529" lon="6.01744">
        <ele>816</ele>
        <time>2020-01-09T12:38:20Z</time>
      </trkpt>
      <trkpt lat="46.66531" lon="6.0175">
        <ele>816</ele>
        <time>2020-01-09T12:38:25Z</time>
      </trkpt>
      <trkpt lat="46.66534" lon="6.01756">
        <ele>815.8</ele>
        <time>2020-01-09T12:38:29Z</time>
      </trkpt>
      <trkpt lat="46.66537" lon="6.01761">
        <ele>816.2</ele>
        <time>2020-01-09T12:38:36Z</time>
      </trkpt>
      <trkpt lat="46.66539" lon="6.01768">
        <ele>816.9</ele>
        <time>2020-01-09T12:38:44Z</time>
      </trkpt>
      <trkpt lat="46.66542" lon="6.01774">
        <ele>818.2</ele>
        <time>2020-01-09T12:38:53Z</time>
      </trkpt>
      <trkpt lat="46.66545" lon="6.0178">
        <ele>818.9</ele>
        <time>2020-01-09T12:38:59Z</time>
      </trkpt>
      <trkpt lat="46.66549" lon="6.01786">
        <ele>819</ele>
        <time>2020-01-09T12:39:02Z</time>
      </trkpt>
      <trkpt lat="46.66552" lon="6.01791">
        <ele>818.9</ele>
        <time>2020-01-09T12:39:06Z</time>
      </trkpt>
      <trkpt lat="46.66556" lon="6.01796">
        <ele>817.8</ele>
        <time>2020-01-09T12:39:13Z</time>
      </trkpt>
      <trkpt lat="46.66559" lon="6.01802">
        <ele>816.4</ele>
        <time>2020-01-09T12:39:19Z</time>
      </trkpt>
      <trkpt lat="46.66564" lon="6.01804">
        <ele>815.2</ele>
        <time>2020-01-09T12:39:23Z</time>
      </trkpt>
      <trkpt lat="46.66568" lon="6.01805">
        <ele>813.5</ele>
        <time>2020-01-09T12:39:28Z</time>
      </trkpt>
      <trkpt lat="46.66572" lon="6.0181">
        <ele>811.9</ele>
        <time>2020-01-09T12:39:35Z</time>
      </trkpt>
      <trkpt lat="46.66576" lon="6.01815">
        <ele>810.5</ele>
        <time>2020-01-09T12:39:42Z</time>
      </trkpt>
      <trkpt lat="46.66579" lon="6.0182">
        <ele>808.6</ele>
        <time>2020-01-09T12:39:48Z</time>
      </trkpt>
      <trkpt lat="46.66584" lon="6.01832">
        <ele>800.4</ele>
        <time>2020-01-09T12:40:07Z</time>
      </trkpt>
      <trkpt lat="46.66586" lon="6.01838">
        <ele>800.1</ele>
        <time>2020-01-09T12:40:13Z</time>
      </trkpt>
      <trkpt lat="46.66589" lon="6.01844">
        <ele>801.5</ele>
        <time>2020-01-09T12:40:20Z</time>
      </trkpt>
      <trkpt lat="46.66593" lon="6.01849">
        <ele>803.9</ele>
        <time>2020-01-09T12:40:29Z</time>
      </trkpt>
      <trkpt lat="46.66596" lon="6.01854">
        <ele>804.5</ele>
        <time>2020-01-09T12:40:32Z</time>
      </trkpt>
      <trkpt lat="46.666" lon="6.01859">
        <ele>804.9</ele>
        <time>2020-01-09T12:40:35Z</time>
      </trkpt>
      <trkpt lat="46.66603" lon="6.01866">
        <ele>805.3</ele>
        <time>2020-01-09T12:40:39Z</time>
      </trkpt>
      <trkpt lat="46.66607" lon="6.01872">
        <ele>805.7</ele>
        <time>2020-01-09T12:40:44Z</time>
      </trkpt>
      <trkpt lat="46.66609" lon="6.01878">
        <ele>806.8</ele>
        <time>2020-01-09T12:40:50Z</time>
      </trkpt>
      <trkpt lat="46.66612" lon="6.01884">
        <ele>807.8</ele>
        <time>2020-01-09T12:40:55Z</time>
      </trkpt>
      <trkpt lat="46.66606" lon="6.01881">
        <ele>802.3</ele>
        <time>2020-01-09T12:42:08Z</time>
      </trkpt>
      <trkpt lat="46.66601" lon="6.0188">
        <ele>803.9</ele>
        <time>2020-01-09T12:42:12Z</time>
      </trkpt>
      <trkpt lat="46.66596" lon="6.01879">
        <ele>806.4</ele>
        <time>2020-01-09T12:42:18Z</time>
      </trkpt>
      <trkpt lat="46.66591" lon="6.01877">
        <ele>808.5</ele>
        <time>2020-01-09T12:42:23Z</time>
      </trkpt>
      <trkpt lat="46.66563" lon="6.01857">
        <ele>819.5</ele>
        <time>2020-01-09T12:42:56Z</time>
      </trkpt>
      <trkpt lat="46.66557" lon="6.01851">
        <ele>820</ele>
        <time>2020-01-09T12:42:59Z</time>
      </trkpt>
      <trkpt lat="46.66553" lon="6.01848">
        <ele>820.7</ele>
        <time>2020-01-09T12:43:02Z</time>
      </trkpt>
      <trkpt lat="46.66541" lon="6.01848">
        <ele>824.6</ele>
        <time>2020-01-09T12:43:14Z</time>
      </trkpt>
      <trkpt lat="46.66535" lon="6.01845">
        <ele>824.9</ele>
        <time>2020-01-09T12:43:17Z</time>
      </trkpt>
      <trkpt lat="46.66531" lon="6.01843">
        <ele>825.8</ele>
        <time>2020-01-09T12:43:22Z</time>
      </trkpt>
      <trkpt lat="46.66522" lon="6.01834">
        <ele>831.4</ele>
        <time>2020-01-09T12:43:36Z</time>
      </trkpt>
      <trkpt lat="46.66519" lon="6.01829">
        <ele>834.7</ele>
        <time>2020-01-09T12:43:48Z</time>
      </trkpt>
      <trkpt lat="46.66516" lon="6.01825">
        <ele>836.9</ele>
        <time>2020-01-09T12:43:54Z</time>
      </trkpt>
      <trkpt lat="46.66512" lon="6.01818">
        <ele>838.6</ele>
        <time>2020-01-09T12:44:01Z</time>
      </trkpt>
      <trkpt lat="46.66509" lon="6.01811">
        <ele>838.7</ele>
        <time>2020-01-09T12:44:04Z</time>
      </trkpt>
      <trkpt lat="46.66506" lon="6.01805">
        <ele>838.5</ele>
        <time>2020-01-09T12:44:09Z</time>
      </trkpt>
      <trkpt lat="46.66497" lon="6.01794">
        <ele>833.2</ele>
        <time>2020-01-09T12:44:28Z</time>
      </trkpt>
      <trkpt lat="46.66497" lon="6.01787">
        <ele>831.7</ele>
        <time>2020-01-09T12:44:34Z</time>
      </trkpt>
      <trkpt lat="46.66493" lon="6.0178">
        <ele>829.6</ele>
        <time>2020-01-09T12:44:41Z</time>
      </trkpt>
      <trkpt lat="46.66491" lon="6.01774">
        <ele>828.3</ele>
        <time>2020-01-09T12:44:45Z</time>
      </trkpt>
      <trkpt lat="46.66488" lon="6.01769">
        <ele>827.8</ele>
        <time>2020-01-09T12:44:47Z</time>
      </trkpt>
      <trkpt lat="46.66485" lon="6.01763">
        <ele>827</ele>
        <time>2020-01-09T12:44:51Z</time>
      </trkpt>
      <trkpt lat="46.66481" lon="6.01759">
        <ele>825.8</ele>
        <time>2020-01-09T12:45:01Z</time>
      </trkpt>
      <trkpt lat="46.66478" lon="6.01753">
        <ele>824.5</ele>
        <time>2020-01-09T12:45:07Z</time>
      </trkpt>
      <trkpt lat="46.66474" lon="6.01746">
        <ele>823.7</ele>
        <time>2020-01-09T12:45:11Z</time>
      </trkpt>
      <trkpt lat="46.6647" lon="6.01741">
        <ele>822.8</ele>
        <time>2020-01-09T12:45:17Z</time>
      </trkpt>
      <trkpt lat="46.66466" lon="6.01738">
        <ele>821.9</ele>
        <time>2020-01-09T12:45:23Z</time>
      </trkpt>
      <trkpt lat="46.66461" lon="6.01734">
        <ele>821.2</ele>
        <time>2020-01-09T12:45:30Z</time>
      </trkpt>
      <trkpt lat="46.66457" lon="6.0173">
        <ele>821.2</ele>
        <time>2020-01-09T12:45:35Z</time>
      </trkpt>
      <trkpt lat="46.66453" lon="6.01726">
        <ele>821.3</ele>
        <time>2020-01-09T12:45:38Z</time>
      </trkpt>
      <trkpt lat="46.66448" lon="6.01721">
        <ele>821.4</ele>
        <time>2020-01-09T12:45:41Z</time>
      </trkpt>
      <trkpt lat="46.66436" lon="6.0171">
        <ele>821.5</ele>
        <time>2020-01-09T12:45:52Z</time>
      </trkpt>
      <trkpt lat="46.66433" lon="6.01705">
        <ele>820.6</ele>
        <time>2020-01-09T12:45:59Z</time>
      </trkpt>
      <trkpt lat="46.66429" lon="6.01701">
        <ele>819.7</ele>
        <time>2020-01-09T12:46:06Z</time>
      </trkpt>
      <trkpt lat="46.66418" lon="6.01688">
        <ele>814.7</ele>
        <time>2020-01-09T12:46:23Z</time>
      </trkpt>
      <trkpt lat="46.66414" lon="6.01683">
        <ele>813.3</ele>
        <time>2020-01-09T12:46:28Z</time>
      </trkpt>
      <trkpt lat="46.6641" lon="6.01678">
        <ele>812</ele>
        <time>2020-01-09T12:46:33Z</time>
      </trkpt>
      <trkpt lat="46.66406" lon="6.01671">
        <ele>810.6</ele>
        <time>2020-01-09T12:46:38Z</time>
      </trkpt>
      <trkpt lat="46.66404" lon="6.01663">
        <ele>810</ele>
        <time>2020-01-09T12:46:40Z</time>
      </trkpt>
      <trkpt lat="46.66401" lon="6.01658">
        <ele>809</ele>
        <time>2020-01-09T12:46:45Z</time>
      </trkpt>
      <trkpt lat="46.66396" lon="6.01659">
        <ele>807.7</ele>
        <time>2020-01-09T12:46:53Z</time>
      </trkpt>
      <trkpt lat="46.66392" lon="6.01655">
        <ele>806.9</ele>
        <time>2020-01-09T12:47:06Z</time>
      </trkpt>
      <trkpt lat="46.66388" lon="6.01651">
        <ele>806.8</ele>
        <time>2020-01-09T12:47:10Z</time>
      </trkpt>
      <trkpt lat="46.66385" lon="6.01647">
        <ele>806.5</ele>
        <time>2020-01-09T12:47:17Z</time>
      </trkpt>
      <trkpt lat="46.66383" lon="6.01641">
        <ele>806.2</ele>
        <time>2020-01-09T12:47:22Z</time>
      </trkpt>
      <trkpt lat="46.66383" lon="6.01633">
        <ele>803.3</ele>
        <time>2020-01-09T12:47:36Z</time>
      </trkpt>
      <trkpt lat="46.66381" lon="6.01627">
        <ele>802.1</ele>
        <time>2020-01-09T12:47:41Z</time>
      </trkpt>
      <trkpt lat="46.66381" lon="6.0162">
        <ele>800.4</ele>
        <time>2020-01-09T12:47:50Z</time>
      </trkpt>
      <trkpt lat="46.66378" lon="6.01614">
        <ele>799.3</ele>
        <time>2020-01-09T12:47:56Z</time>
      </trkpt>
      <trkpt lat="46.66376" lon="6.01607">
        <ele>798.3</ele>
        <time>2020-01-09T12:48:00Z</time>
      </trkpt>
      <trkpt lat="46.66373" lon="6.01598">
        <ele>797.4</ele>
        <time>2020-01-09T12:48:03Z</time>
      </trkpt>
      <trkpt lat="46.6637" lon="6.01593">
        <ele>796.1</ele>
        <time>2020-01-09T12:48:08Z</time>
      </trkpt>
      <trkpt lat="46.66365" lon="6.01589">
        <ele>795.4</ele>
        <time>2020-01-09T12:48:11Z</time>
      </trkpt>
      <trkpt lat="46.66361" lon="6.01584">
        <ele>794.3</ele>
        <time>2020-01-09T12:48:17Z</time>
      </trkpt>
      <trkpt lat="46.66358" lon="6.0158">
        <ele>793.4</ele>
        <time>2020-01-09T12:48:22Z</time>
      </trkpt>
      <trkpt lat="46.66353" lon="6.01576">
        <ele>791.7</ele>
        <time>2020-01-09T12:48:31Z</time>
      </trkpt>
      <trkpt lat="46.66348" lon="6.01568">
        <ele>791</ele>
        <time>2020-01-09T12:48:34Z</time>
      </trkpt>
      <trkpt lat="46.66344" lon="6.01563">
        <ele>790.3</ele>
        <time>2020-01-09T12:48:37Z</time>
      </trkpt>
      <trkpt lat="46.6634" lon="6.01559">
        <ele>789.2</ele>
        <time>2020-01-09T12:48:41Z</time>
      </trkpt>
      <trkpt lat="46.66335" lon="6.01554">
        <ele>787.8</ele>
        <time>2020-01-09T12:48:45Z</time>
      </trkpt>
      <trkpt lat="46.66332" lon="6.01548">
        <ele>786.2</ele>
        <time>2020-01-09T12:48:49Z</time>
      </trkpt>
      <trkpt lat="46.66329" lon="6.01543">
        <ele>783.3</ele>
        <time>2020-01-09T12:48:55Z</time>
      </trkpt>
      <trkpt lat="46.66325" lon="6.01539">
        <ele>781.2</ele>
        <time>2020-01-09T12:48:59Z</time>
      </trkpt>
      <trkpt lat="46.66314" lon="6.01529">
        <ele>775.3</ele>
        <time>2020-01-09T12:49:10Z</time>
      </trkpt>
      <trkpt lat="46.66308" lon="6.01526">
        <ele>774.3</ele>
        <time>2020-01-09T12:49:16Z</time>
      </trkpt>
      <trkpt lat="46.66304" lon="6.01522">
        <ele>773.9</ele>
        <time>2020-01-09T12:49:19Z</time>
      </trkpt>
      <trkpt lat="46.66299" lon="6.01518">
        <ele>773.3</ele>
        <time>2020-01-09T12:49:24Z</time>
      </trkpt>
      <trkpt lat="46.66296" lon="6.01513">
        <ele>773</ele>
        <time>2020-01-09T12:49:27Z</time>
      </trkpt>
      <trkpt lat="46.6629" lon="6.01509">
        <ele>773.1</ele>
        <time>2020-01-09T12:49:34Z</time>
      </trkpt>
      <trkpt lat="46.66277" lon="6.01499">
        <ele>775.4</ele>
        <time>2020-01-09T12:49:44Z</time>
      </trkpt>
      <trkpt lat="46.66273" lon="6.01495">
        <ele>776.1</ele>
        <time>2020-01-09T12:49:48Z</time>
      </trkpt>
      <trkpt lat="46.66269" lon="6.01491">
        <ele>777.1</ele>
        <time>2020-01-09T12:49:53Z</time>
      </trkpt>
      <trkpt lat="46.66265" lon="6.01491">
        <ele>777.9</ele>
        <time>2020-01-09T12:50:03Z</time>
      </trkpt>
      <trkpt lat="46.6626" lon="6.01485">
        <ele>777.5</ele>
        <time>2020-01-09T12:50:11Z</time>
      </trkpt>
      <trkpt lat="46.66257" lon="6.01481">
        <ele>777.4</ele>
        <time>2020-01-09T12:50:13Z</time>
      </trkpt>
      <trkpt lat="46.66253" lon="6.01475">
        <ele>777.2</ele>
        <time>2020-01-09T12:50:16Z</time>
      </trkpt>
      <trkpt lat="46.66248" lon="6.01471">
        <ele>776.9</ele>
        <time>2020-01-09T12:50:20Z</time>
      </trkpt>
      <trkpt lat="46.66244" lon="6.01467">
        <ele>776.1</ele>
        <time>2020-01-09T12:50:25Z</time>
      </trkpt>
      <trkpt lat="46.66239" lon="6.01465">
        <ele>774.1</ele>
        <time>2020-01-09T12:50:33Z</time>
      </trkpt>
      <trkpt lat="46.66238" lon="6.01459">
        <ele>771.8</ele>
        <time>2020-01-09T12:50:41Z</time>
      </trkpt>
      <trkpt lat="46.66231" lon="6.0145">
        <ele>768</ele>
        <time>2020-01-09T12:50:53Z</time>
      </trkpt>
      <trkpt lat="46.66227" lon="6.01446">
        <ele>767.5</ele>
        <time>2020-01-09T12:50:57Z</time>
      </trkpt>
      <trkpt lat="46.66224" lon="6.0144">
        <ele>767.1</ele>
        <time>2020-01-09T12:50:59Z</time>
      </trkpt>
      <trkpt lat="46.66222" lon="6.01429">
        <ele>766.8</ele>
        <time>2020-01-09T12:51:01Z</time>
      </trkpt>
      <trkpt lat="46.6622" lon="6.01422">
        <ele>766</ele>
        <time>2020-01-09T12:51:05Z</time>
      </trkpt>
      <trkpt lat="46.66215" lon="6.01418">
        <ele>764.5</ele>
        <time>2020-01-09T12:51:12Z</time>
      </trkpt>
      <trkpt lat="46.66203" lon="6.01406">
        <ele>762.8</ele>
        <time>2020-01-09T12:51:21Z</time>
      </trkpt>
      <trkpt lat="46.66199" lon="6.01403">
        <ele>762.6</ele>
        <time>2020-01-09T12:51:25Z</time>
      </trkpt>
      <trkpt lat="46.66195" lon="6.01399">
        <ele>762.3</ele>
        <time>2020-01-09T12:51:28Z</time>
      </trkpt>
      <trkpt lat="46.6619" lon="6.01396">
        <ele>761.9</ele>
        <time>2020-01-09T12:51:32Z</time>
      </trkpt>
      <trkpt lat="46.66185" lon="6.01396">
        <ele>761</ele>
        <time>2020-01-09T12:51:37Z</time>
      </trkpt>
      <trkpt lat="46.66181" lon="6.01396">
        <ele>759.7</ele>
        <time>2020-01-09T12:51:42Z</time>
      </trkpt>
      <trkpt lat="46.66176" lon="6.01395">
        <ele>756.7</ele>
        <time>2020-01-09T12:51:51Z</time>
      </trkpt>
      <trkpt lat="46.66171" lon="6.01396">
        <ele>754.7</ele>
        <time>2020-01-09T12:51:56Z</time>
      </trkpt>
      <trkpt lat="46.66166" lon="6.01396">
        <ele>753.3</ele>
        <time>2020-01-09T12:52:00Z</time>
      </trkpt>
      <trkpt lat="46.66162" lon="6.01397">
        <ele>752.2</ele>
        <time>2020-01-09T12:52:05Z</time>
      </trkpt>
      <trkpt lat="46.66156" lon="6.01398">
        <ele>751.9</ele>
        <time>2020-01-09T12:52:07Z</time>
      </trkpt>
      <trkpt lat="46.6615" lon="6.01399">
        <ele>751.6</ele>
        <time>2020-01-09T12:52:09Z</time>
      </trkpt>
      <trkpt lat="46.66146" lon="6.01402">
        <ele>751.2</ele>
        <time>2020-01-09T12:52:12Z</time>
      </trkpt>
      <trkpt lat="46.66141" lon="6.01404">
        <ele>750.8</ele>
        <time>2020-01-09T12:52:17Z</time>
      </trkpt>
      <trkpt lat="46.66136" lon="6.01405">
        <ele>749.5</ele>
        <time>2020-01-09T12:52:24Z</time>
      </trkpt>
      <trkpt lat="46.6612" lon="6.01404">
        <ele>744</ele>
        <time>2020-01-09T12:52:39Z</time>
      </trkpt>
      <trkpt lat="46.66116" lon="6.01402">
        <ele>743.3</ele>
        <time>2020-01-09T12:52:44Z</time>
      </trkpt>
      <trkpt lat="46.66111" lon="6.014">
        <ele>742.7</ele>
        <time>2020-01-09T12:52:49Z</time>
      </trkpt>
      <trkpt lat="46.66105" lon="6.01401">
        <ele>742</ele>
        <time>2020-01-09T12:52:54Z</time>
      </trkpt>
      <trkpt lat="46.66101" lon="6.014">
        <ele>741.2</ele>
        <time>2020-01-09T12:53:00Z</time>
      </trkpt>
      <trkpt lat="46.66095" lon="6.01399">
        <ele>740.4</ele>
        <time>2020-01-09T12:53:05Z</time>
      </trkpt>
      <trkpt lat="46.66091" lon="6.01397">
        <ele>739.9</ele>
        <time>2020-01-09T12:53:09Z</time>
      </trkpt>
      <trkpt lat="46.66086" lon="6.01397">
        <ele>739.5</ele>
        <time>2020-01-09T12:53:12Z</time>
      </trkpt>
      <trkpt lat="46.66081" lon="6.01397">
        <ele>739</ele>
        <time>2020-01-09T12:53:16Z</time>
      </trkpt>
      <trkpt lat="46.66077" lon="6.01396">
        <ele>738.4</ele>
        <time>2020-01-09T12:53:21Z</time>
      </trkpt>
      <trkpt lat="46.66072" lon="6.01395">
        <ele>737.9</ele>
        <time>2020-01-09T12:53:26Z</time>
      </trkpt>
      <trkpt lat="46.66068" lon="6.01391">
        <ele>737.6</ele>
        <time>2020-01-09T12:53:29Z</time>
      </trkpt>
      <trkpt lat="46.66063" lon="6.0139">
        <ele>737</ele>
        <time>2020-01-09T12:53:36Z</time>
      </trkpt>
      <trkpt lat="46.66057" lon="6.01389">
        <ele>736.8</ele>
        <time>2020-01-09T12:53:41Z</time>
      </trkpt>
      <trkpt lat="46.66053" lon="6.01385">
        <ele>737</ele>
        <time>2020-01-09T12:53:44Z</time>
      </trkpt>
      <trkpt lat="46.66048" lon="6.0138">
        <ele>737</ele>
        <time>2020-01-09T12:53:46Z</time>
      </trkpt>
      <trkpt lat="46.66044" lon="6.01376">
        <ele>737.2</ele>
        <time>2020-01-09T12:53:49Z</time>
      </trkpt>
      <trkpt lat="46.6604" lon="6.01372">
        <ele>737.2</ele>
        <time>2020-01-09T12:53:53Z</time>
      </trkpt>
      <trkpt lat="46.66035" lon="6.0137">
        <ele>737.3</ele>
        <time>2020-01-09T12:53:57Z</time>
      </trkpt>
      <trkpt lat="46.66032" lon="6.01366">
        <ele>737.5</ele>
        <time>2020-01-09T12:54:03Z</time>
      </trkpt>
      <trkpt lat="46.66028" lon="6.0136">
        <ele>737.9</ele>
        <time>2020-01-09T12:54:08Z</time>
      </trkpt>
      <trkpt lat="46.66018" lon="6.01349">
        <ele>739.4</ele>
        <time>2020-01-09T12:54:25Z</time>
      </trkpt>
      <trkpt lat="46.66015" lon="6.01343">
        <ele>739.5</ele>
        <time>2020-01-09T12:54:30Z</time>
      </trkpt>
      <trkpt lat="46.66012" lon="6.01338">
        <ele>739.4</ele>
        <time>2020-01-09T12:54:34Z</time>
      </trkpt>
      <trkpt lat="46.66008" lon="6.01334">
        <ele>739</ele>
        <time>2020-01-09T12:54:40Z</time>
      </trkpt>
      <trkpt lat="46.66006" lon="6.01327">
        <ele>738.7</ele>
        <time>2020-01-09T12:54:46Z</time>
      </trkpt>
      <trkpt lat="46.66002" lon="6.01323">
        <ele>738.5</ele>
        <time>2020-01-09T12:54:49Z</time>
      </trkpt>
      <trkpt lat="46.65999" lon="6.01314">
        <ele>738.7</ele>
        <time>2020-01-09T12:54:57Z</time>
      </trkpt>
      <trkpt lat="46.65997" lon="6.01307">
        <ele>739.1</ele>
        <time>2020-01-09T12:55:02Z</time>
      </trkpt>
      <trkpt lat="46.65996" lon="6.01301">
        <ele>739.4</ele>
        <time>2020-01-09T12:55:08Z</time>
      </trkpt>
      <trkpt lat="46.65989" lon="6.01291">
        <ele>741.4</ele>
        <time>2020-01-09T12:55:22Z</time>
      </trkpt>
      <trkpt lat="46.65982" lon="6.01282">
        <ele>742.3</ele>
        <time>2020-01-09T12:55:38Z</time>
      </trkpt>
      <trkpt lat="46.65981" lon="6.01276">
        <ele>742.4</ele>
        <time>2020-01-09T12:55:42Z</time>
      </trkpt>
      <trkpt lat="46.65977" lon="6.01268">
        <ele>741.9</ele>
        <time>2020-01-09T12:55:47Z</time>
      </trkpt>
      <trkpt lat="46.65974" lon="6.01263">
        <ele>740.3</ele>
        <time>2020-01-09T12:55:55Z</time>
      </trkpt>
      <trkpt lat="46.65969" lon="6.0125">
        <ele>737.7</ele>
        <time>2020-01-09T12:56:12Z</time>
      </trkpt>
      <trkpt lat="46.65963" lon="6.01241">
        <ele>739.3</ele>
        <time>2020-01-09T12:56:34Z</time>
      </trkpt>
      <trkpt lat="46.65953" lon="6.01222">
        <ele>743.8</ele>
        <time>2020-01-09T12:57:39Z</time>
      </trkpt>
      <trkpt lat="46.65951" lon="6.01215">
        <ele>744</ele>
        <time>2020-01-09T12:57:43Z</time>
      </trkpt>
      <trkpt lat="46.6595" lon="6.01209">
        <ele>744</ele>
        <time>2020-01-09T12:57:47Z</time>
      </trkpt>
      <trkpt lat="46.65949" lon="6.01201">
        <ele>743.5</ele>
        <time>2020-01-09T12:57:52Z</time>
      </trkpt>
      <trkpt lat="46.65946" lon="6.01194">
        <ele>742.9</ele>
        <time>2020-01-09T12:57:56Z</time>
      </trkpt>
      <trkpt lat="46.65944" lon="6.01185">
        <ele>742.4</ele>
        <time>2020-01-09T12:57:58Z</time>
      </trkpt>
      <trkpt lat="46.65942" lon="6.01178">
        <ele>741.6</ele>
        <time>2020-01-09T12:58:01Z</time>
      </trkpt>
      <trkpt lat="46.65938" lon="6.01172">
        <ele>740.5</ele>
        <time>2020-01-09T12:58:05Z</time>
      </trkpt>
      <trkpt lat="46.65935" lon="6.01166">
        <ele>739.5</ele>
        <time>2020-01-09T12:58:09Z</time>
      </trkpt>
      <trkpt lat="46.65933" lon="6.0116">
        <ele>738.5</ele>
        <time>2020-01-09T12:58:12Z</time>
      </trkpt>
      <trkpt lat="46.65931" lon="6.01154">
        <ele>737.2</ele>
        <time>2020-01-09T12:58:16Z</time>
      </trkpt>
      <trkpt lat="46.65929" lon="6.01147">
        <ele>735.6</ele>
        <time>2020-01-09T12:58:22Z</time>
      </trkpt>
      <trkpt lat="46.65927" lon="6.0114">
        <ele>734.3</ele>
        <time>2020-01-09T12:58:28Z</time>
      </trkpt>
      <trkpt lat="46.65925" lon="6.01134">
        <ele>733.7</ele>
        <time>2020-01-09T12:58:35Z</time>
      </trkpt>
      <trkpt lat="46.65921" lon="6.0113">
        <ele>733.6</ele>
        <time>2020-01-09T12:58:38Z</time>
      </trkpt>
      <trkpt lat="46.65917" lon="6.01124">
        <ele>733.5</ele>
        <time>2020-01-09T12:58:44Z</time>
      </trkpt>
      <trkpt lat="46.65914" lon="6.01119">
        <ele>734.3</ele>
        <time>2020-01-09T12:58:54Z</time>
      </trkpt>
      <trkpt lat="46.65911" lon="6.01114">
        <ele>734.8</ele>
        <time>2020-01-09T12:58:58Z</time>
      </trkpt>
      <trkpt lat="46.65908" lon="6.01107">
        <ele>735.2</ele>
        <time>2020-01-09T12:59:04Z</time>
      </trkpt>
      <trkpt lat="46.659" lon="6.01086">
        <ele>735</ele>
        <time>2020-01-09T12:59:11Z</time>
      </trkpt>
      <trkpt lat="46.65897" lon="6.0108">
        <ele>734.9</ele>
        <time>2020-01-09T12:59:13Z</time>
      </trkpt>
      <trkpt lat="46.65894" lon="6.01075">
        <ele>734.8</ele>
        <time>2020-01-09T12:59:18Z</time>
      </trkpt>
      <trkpt lat="46.65889" lon="6.01065">
        <ele>732.2</ele>
        <time>2020-01-09T13:00:27Z</time>
      </trkpt>
      <trkpt lat="46.6589" lon="6.01059">
        <ele>728.5</ele>
        <time>2020-01-09T13:00:44Z</time>
      </trkpt>
      <trkpt lat="46.65895" lon="6.01055">
        <ele>728.1</ele>
        <time>2020-01-09T13:00:55Z</time>
      </trkpt>
      <trkpt lat="46.659" lon="6.01052">
        <ele>728.3</ele>
        <time>2020-01-09T13:01:01Z</time>
      </trkpt>
      <trkpt lat="46.65904" lon="6.01049">
        <ele>728.3</ele>
        <time>2020-01-09T13:01:05Z</time>
      </trkpt>
      <trkpt lat="46.65909" lon="6.01046">
        <ele>728.4</ele>
        <time>2020-01-09T13:01:10Z</time>
      </trkpt>
      <trkpt lat="46.65914" lon="6.01044">
        <ele>728.1</ele>
        <time>2020-01-09T13:01:16Z</time>
      </trkpt>
      <trkpt lat="46.65918" lon="6.0104">
        <ele>727.3</ele>
        <time>2020-01-09T13:01:24Z</time>
      </trkpt>
      <trkpt lat="46.65922" lon="6.01036">
        <ele>726.8</ele>
        <time>2020-01-09T13:01:28Z</time>
      </trkpt>
      <trkpt lat="46.65927" lon="6.01031">
        <ele>726.4</ele>
        <time>2020-01-09T13:01:30Z</time>
      </trkpt>
      <trkpt lat="46.65931" lon="6.01027">
        <ele>726</ele>
        <time>2020-01-09T13:01:32Z</time>
      </trkpt>
      <trkpt lat="46.65934" lon="6.01022">
        <ele>725.3</ele>
        <time>2020-01-09T13:01:36Z</time>
      </trkpt>
      <trkpt lat="46.65938" lon="6.01018">
        <ele>724.4</ele>
        <time>2020-01-09T13:01:42Z</time>
      </trkpt>
      <trkpt lat="46.65941" lon="6.01013">
        <ele>723.7</ele>
        <time>2020-01-09T13:01:47Z</time>
      </trkpt>
      <trkpt lat="46.65944" lon="6.01008">
        <ele>723.4</ele>
        <time>2020-01-09T13:01:53Z</time>
      </trkpt>
      <trkpt lat="46.65947" lon="6.01001">
        <ele>723.5</ele>
        <time>2020-01-09T13:01:57Z</time>
      </trkpt>
      <trkpt lat="46.65949" lon="6.00995">
        <ele>723.4</ele>
        <time>2020-01-09T13:02:00Z</time>
      </trkpt>
      <trkpt lat="46.65952" lon="6.00989">
        <ele>723.4</ele>
        <time>2020-01-09T13:02:04Z</time>
      </trkpt>
      <trkpt lat="46.65954" lon="6.00983">
        <ele>723.1</ele>
        <time>2020-01-09T13:02:09Z</time>
      </trkpt>
      <trkpt lat="46.65957" lon="6.00976">
        <ele>722.5</ele>
        <time>2020-01-09T13:02:15Z</time>
      </trkpt>
      <trkpt lat="46.65959" lon="6.0097">
        <ele>722.4</ele>
        <time>2020-01-09T13:02:18Z</time>
      </trkpt>
      <trkpt lat="46.65961" lon="6.00963">
        <ele>722.4</ele>
        <time>2020-01-09T13:02:24Z</time>
      </trkpt>
      <trkpt lat="46.65962" lon="6.00955">
        <ele>722.3</ele>
        <time>2020-01-09T13:02:28Z</time>
      </trkpt>
      <trkpt lat="46.65962" lon="6.00948">
        <ele>722</ele>
        <time>2020-01-09T13:02:33Z</time>
      </trkpt>
      <trkpt lat="46.65961" lon="6.00941">
        <ele>721.3</ele>
        <time>2020-01-09T13:02:41Z</time>
      </trkpt>
      <trkpt lat="46.6596" lon="6.00934">
        <ele>720.5</ele>
        <time>2020-01-09T13:02:48Z</time>
      </trkpt>
      <trkpt lat="46.65958" lon="6.00925">
        <ele>719.8</ele>
        <time>2020-01-09T13:02:55Z</time>
      </trkpt>
      <trkpt lat="46.65957" lon="6.00918">
        <ele>719.6</ele>
        <time>2020-01-09T13:02:57Z</time>
      </trkpt>
      <trkpt lat="46.65956" lon="6.00912">
        <ele>719.5</ele>
        <time>2020-01-09T13:02:59Z</time>
      </trkpt>
      <trkpt lat="46.65955" lon="6.00905">
        <ele>719.1</ele>
        <time>2020-01-09T13:03:07Z</time>
      </trkpt>
      <trkpt lat="46.65952" lon="6.00898">
        <ele>719.3</ele>
        <time>2020-01-09T13:03:12Z</time>
      </trkpt>
      <trkpt lat="46.65949" lon="6.0089">
        <ele>719.5</ele>
        <time>2020-01-09T13:03:16Z</time>
      </trkpt>
      <trkpt lat="46.65948" lon="6.00884">
        <ele>719.8</ele>
        <time>2020-01-09T13:03:20Z</time>
      </trkpt>
      <trkpt lat="46.65945" lon="6.00877">
        <ele>720.1</ele>
        <time>2020-01-09T13:03:25Z</time>
      </trkpt>
      <trkpt lat="46.65942" lon="6.00871">
        <ele>720.4</ele>
        <time>2020-01-09T13:03:29Z</time>
      </trkpt>
      <trkpt lat="46.65938" lon="6.00867">
        <ele>720.9</ele>
        <time>2020-01-09T13:03:35Z</time>
      </trkpt>
      <trkpt lat="46.65934" lon="6.00861">
        <ele>720.7</ele>
        <time>2020-01-09T13:03:41Z</time>
      </trkpt>
      <trkpt lat="46.6593" lon="6.00855">
        <ele>720.4</ele>
        <time>2020-01-09T13:03:45Z</time>
      </trkpt>
      <trkpt lat="46.65927" lon="6.0085">
        <ele>719.9</ele>
        <time>2020-01-09T13:03:49Z</time>
      </trkpt>
      <trkpt lat="46.65924" lon="6.00844">
        <ele>719.2</ele>
        <time>2020-01-09T13:03:54Z</time>
      </trkpt>
      <trkpt lat="46.65921" lon="6.00836">
        <ele>718.7</ele>
        <time>2020-01-09T13:03:58Z</time>
      </trkpt>
      <trkpt lat="46.6592" lon="6.0083">
        <ele>717.9</ele>
        <time>2020-01-09T13:04:03Z</time>
      </trkpt>
      <trkpt lat="46.65917" lon="6.00824">
        <ele>716.6</ele>
        <time>2020-01-09T13:04:09Z</time>
      </trkpt>
      <trkpt lat="46.65915" lon="6.00818">
        <ele>715.3</ele>
        <time>2020-01-09T13:04:15Z</time>
      </trkpt>
      <trkpt lat="46.65912" lon="6.00812">
        <ele>714.5</ele>
        <time>2020-01-09T13:04:19Z</time>
      </trkpt>
      <trkpt lat="46.65909" lon="6.00805">
        <ele>713.5</ele>
        <time>2020-01-09T13:04:24Z</time>
      </trkpt>
      <trkpt lat="46.65907" lon="6.00799">
        <ele>713.1</ele>
        <time>2020-01-09T13:04:27Z</time>
      </trkpt>
      <trkpt lat="46.65905" lon="6.00793">
        <ele>712.7</ele>
        <time>2020-01-09T13:04:30Z</time>
      </trkpt>
      <trkpt lat="46.65902" lon="6.00787">
        <ele>712.1</ele>
        <time>2020-01-09T13:04:34Z</time>
      </trkpt>
      <trkpt lat="46.659" lon="6.0078">
        <ele>710.9</ele>
        <time>2020-01-09T13:04:40Z</time>
      </trkpt>
      <trkpt lat="46.65898" lon="6.00773">
        <ele>709.6</ele>
        <time>2020-01-09T13:04:45Z</time>
      </trkpt>
      <trkpt lat="46.65896" lon="6.00767">
        <ele>708.4</ele>
        <time>2020-01-09T13:04:50Z</time>
      </trkpt>
      <trkpt lat="46.65894" lon="6.0076">
        <ele>707.6</ele>
        <time>2020-01-09T13:04:54Z</time>
      </trkpt>
      <trkpt lat="46.65892" lon="6.00753">
        <ele>707.2</ele>
        <time>2020-01-09T13:04:57Z</time>
      </trkpt>
      <trkpt lat="46.6589" lon="6.00746">
        <ele>706.9</ele>
        <time>2020-01-09T13:05:01Z</time>
      </trkpt>
      <trkpt lat="46.65888" lon="6.0074">
        <ele>706.8</ele>
        <time>2020-01-09T13:05:05Z</time>
      </trkpt>
      <trkpt lat="46.65887" lon="6.00733">
        <ele>707.1</ele>
        <time>2020-01-09T13:05:09Z</time>
      </trkpt>
      <trkpt lat="46.65886" lon="6.00726">
        <ele>707.9</ele>
        <time>2020-01-09T13:05:15Z</time>
      </trkpt>
      <trkpt lat="46.65884" lon="6.0072">
        <ele>708.9</ele>
        <time>2020-01-09T13:05:21Z</time>
      </trkpt>
      <trkpt lat="46.65882" lon="6.00704">
        <ele>711.9</ele>
        <time>2020-01-09T13:05:32Z</time>
      </trkpt>
      <trkpt lat="46.65882" lon="6.00697">
        <ele>712.8</ele>
        <time>2020-01-09T13:05:37Z</time>
      </trkpt>
      <trkpt lat="46.65884" lon="6.0069">
        <ele>713.7</ele>
        <time>2020-01-09T13:05:43Z</time>
      </trkpt>
      <trkpt lat="46.65885" lon="6.00684">
        <ele>714.5</ele>
        <time>2020-01-09T13:05:48Z</time>
      </trkpt>
      <trkpt lat="46.65887" lon="6.00677">
        <ele>715</ele>
        <time>2020-01-09T13:05:52Z</time>
      </trkpt>
      <trkpt lat="46.65889" lon="6.00671">
        <ele>715.4</ele>
        <time>2020-01-09T13:05:56Z</time>
      </trkpt>
      <trkpt lat="46.65891" lon="6.00665">
        <ele>715.7</ele>
        <time>2020-01-09T13:06:00Z</time>
      </trkpt>
      <trkpt lat="46.65894" lon="6.00659">
        <ele>716</ele>
        <time>2020-01-09T13:06:04Z</time>
      </trkpt>
      <trkpt lat="46.65897" lon="6.00652">
        <ele>716.2</ele>
        <time>2020-01-09T13:06:08Z</time>
      </trkpt>
      <trkpt lat="46.659" lon="6.00646">
        <ele>716.8</ele>
        <time>2020-01-09T13:06:14Z</time>
      </trkpt>
      <trkpt lat="46.65902" lon="6.00638">
        <ele>717.7</ele>
        <time>2020-01-09T13:06:21Z</time>
      </trkpt>
      <trkpt lat="46.65905" lon="6.00632">
        <ele>718.4</ele>
        <time>2020-01-09T13:06:26Z</time>
      </trkpt>
      <trkpt lat="46.65907" lon="6.00626">
        <ele>718.7</ele>
        <time>2020-01-09T13:06:29Z</time>
      </trkpt>
      <trkpt lat="46.65908" lon="6.00619">
        <ele>718.9</ele>
        <time>2020-01-09T13:06:32Z</time>
      </trkpt>
      <trkpt lat="46.65909" lon="6.00612">
        <ele>719.2</ele>
        <time>2020-01-09T13:06:35Z</time>
      </trkpt>
      <trkpt lat="46.65911" lon="6.00605">
        <ele>719.7</ele>
        <time>2020-01-09T13:06:39Z</time>
      </trkpt>
      <trkpt lat="46.65912" lon="6.00598">
        <ele>720.6</ele>
        <time>2020-01-09T13:06:43Z</time>
      </trkpt>
      <trkpt lat="46.65914" lon="6.00591">
        <ele>721.7</ele>
        <time>2020-01-09T13:06:47Z</time>
      </trkpt>
      <trkpt lat="46.65916" lon="6.00584">
        <ele>723</ele>
        <time>2020-01-09T13:06:52Z</time>
      </trkpt>
      <trkpt lat="46.65919" lon="6.00578">
        <ele>724.2</ele>
        <time>2020-01-09T13:06:57Z</time>
      </trkpt>
      <trkpt lat="46.65922" lon="6.00572">
        <ele>724.9</ele>
        <time>2020-01-09T13:07:01Z</time>
      </trkpt>
      <trkpt lat="46.65928" lon="6.00558">
        <ele>726.2</ele>
        <time>2020-01-09T13:07:12Z</time>
      </trkpt>
      <trkpt lat="46.65932" lon="6.00553">
        <ele>726.4</ele>
        <time>2020-01-09T13:07:16Z</time>
      </trkpt>
      <trkpt lat="46.65936" lon="6.00548">
        <ele>726.8</ele>
        <time>2020-01-09T13:07:22Z</time>
      </trkpt>
      <trkpt lat="46.65939" lon="6.00543">
        <ele>727</ele>
        <time>2020-01-09T13:07:26Z</time>
      </trkpt>
      <trkpt lat="46.65942" lon="6.00537">
        <ele>727.1</ele>
        <time>2020-01-09T13:07:30Z</time>
      </trkpt>
      <trkpt lat="46.65944" lon="6.00529">
        <ele>727.1</ele>
        <time>2020-01-09T13:07:35Z</time>
      </trkpt>
      <trkpt lat="46.65947" lon="6.00524">
        <ele>727.1</ele>
        <time>2020-01-09T13:07:39Z</time>
      </trkpt>
      <trkpt lat="46.6595" lon="6.00518">
        <ele>727.2</ele>
        <time>2020-01-09T13:07:42Z</time>
      </trkpt>
      <trkpt lat="46.65952" lon="6.00508">
        <ele>727.5</ele>
        <time>2020-01-09T13:07:46Z</time>
      </trkpt>
      <trkpt lat="46.65953" lon="6.005">
        <ele>727.9</ele>
        <time>2020-01-09T13:07:50Z</time>
      </trkpt>
      <trkpt lat="46.65956" lon="6.00494">
        <ele>728.6</ele>
        <time>2020-01-09T13:07:56Z</time>
      </trkpt>
      <trkpt lat="46.6596" lon="6.00489">
        <ele>729.2</ele>
        <time>2020-01-09T13:08:02Z</time>
      </trkpt>
      <trkpt lat="46.65964" lon="6.00484">
        <ele>729.6</ele>
        <time>2020-01-09T13:08:06Z</time>
      </trkpt>
      <trkpt lat="46.65967" lon="6.00479">
        <ele>729.8</ele>
        <time>2020-01-09T13:08:11Z</time>
      </trkpt>
      <trkpt lat="46.65972" lon="6.00475">
        <ele>730</ele>
        <time>2020-01-09T13:08:16Z</time>
      </trkpt>
      <trkpt lat="46.65976" lon="6.00471">
        <ele>730.3</ele>
        <time>2020-01-09T13:08:21Z</time>
      </trkpt>
      <trkpt lat="46.65979" lon="6.00466">
        <ele>730.6</ele>
        <time>2020-01-09T13:08:25Z</time>
      </trkpt>
      <trkpt lat="46.65982" lon="6.00461">
        <ele>731.2</ele>
        <time>2020-01-09T13:08:30Z</time>
      </trkpt>
      <trkpt lat="46.65984" lon="6.00454">
        <ele>731.7</ele>
        <time>2020-01-09T13:08:34Z</time>
      </trkpt>
      <trkpt lat="46.65987" lon="6.00448">
        <ele>732.3</ele>
        <time>2020-01-09T13:08:39Z</time>
      </trkpt>
      <trkpt lat="46.65991" lon="6.00442">
        <ele>732.9</ele>
        <time>2020-01-09T13:08:44Z</time>
      </trkpt>
      <trkpt lat="46.65995" lon="6.00436">
        <ele>733.3</ele>
        <time>2020-01-09T13:08:49Z</time>
      </trkpt>
      <trkpt lat="46.65999" lon="6.0043">
        <ele>733.6</ele>
        <time>2020-01-09T13:08:53Z</time>
      </trkpt>
      <trkpt lat="46.66002" lon="6.00425">
        <ele>733.9</ele>
        <time>2020-01-09T13:08:59Z</time>
      </trkpt>
      <trkpt lat="46.66127" lon="6.00332">
        <ele>743.2</ele>
        <time>2020-01-09T13:11:18Z</time>
      </trkpt>
      <trkpt lat="46.66131" lon="6.00328">
        <ele>743.1</ele>
        <time>2020-01-09T13:11:21Z</time>
      </trkpt>
      <trkpt lat="46.66137" lon="6.00324">
        <ele>742.8</ele>
        <time>2020-01-09T13:11:25Z</time>
      </trkpt>
      <trkpt lat="46.66142" lon="6.0032">
        <ele>742.4</ele>
        <time>2020-01-09T13:11:29Z</time>
      </trkpt>
      <trkpt lat="46.66146" lon="6.00317">
        <ele>742.1</ele>
        <time>2020-01-09T13:11:32Z</time>
      </trkpt>
      <trkpt lat="46.6615" lon="6.00314">
        <ele>741.7</ele>
        <time>2020-01-09T13:11:35Z</time>
      </trkpt>
      <trkpt lat="46.66154" lon="6.0031">
        <ele>741.4</ele>
        <time>2020-01-09T13:11:38Z</time>
      </trkpt>
      <trkpt lat="46.66159" lon="6.00306">
        <ele>741.1</ele>
        <time>2020-01-09T13:11:42Z</time>
      </trkpt>
      <trkpt lat="46.66163" lon="6.00303">
        <ele>740.8</ele>
        <time>2020-01-09T13:11:45Z</time>
      </trkpt>
      <trkpt lat="46.66168" lon="6.00301">
        <ele>740.6</ele>
        <time>2020-01-09T13:11:49Z</time>
      </trkpt>
      <trkpt lat="46.66173" lon="6.00297">
        <ele>740.1</ele>
        <time>2020-01-09T13:11:54Z</time>
      </trkpt>
      <trkpt lat="46.66178" lon="6.00292">
        <ele>739.7</ele>
        <time>2020-01-09T13:11:58Z</time>
      </trkpt>
      <trkpt lat="46.66183" lon="6.00288">
        <ele>739.3</ele>
        <time>2020-01-09T13:12:02Z</time>
      </trkpt>
      <trkpt lat="46.66188" lon="6.00285">
        <ele>738.9</ele>
        <time>2020-01-09T13:12:06Z</time>
      </trkpt>
      <trkpt lat="46.66193" lon="6.00282">
        <ele>738.5</ele>
        <time>2020-01-09T13:12:09Z</time>
      </trkpt>
      <trkpt lat="46.66197" lon="6.00279">
        <ele>738.1</ele>
        <time>2020-01-09T13:12:13Z</time>
      </trkpt>
      <trkpt lat="46.66201" lon="6.00274">
        <ele>737.6</ele>
        <time>2020-01-09T13:12:19Z</time>
      </trkpt>
      <trkpt lat="46.66211" lon="6.00268">
        <ele>737.1</ele>
        <time>2020-01-09T13:12:28Z</time>
      </trkpt>
      <trkpt lat="46.66215" lon="6.00262">
        <ele>737</ele>
        <time>2020-01-09T13:12:32Z</time>
      </trkpt>
      <trkpt lat="46.66219" lon="6.0026">
        <ele>736.8</ele>
        <time>2020-01-09T13:12:36Z</time>
      </trkpt>
      <trkpt lat="46.66224" lon="6.00258">
        <ele>736.7</ele>
        <time>2020-01-09T13:12:40Z</time>
      </trkpt>
      <trkpt lat="46.6623" lon="6.00256">
        <ele>736.7</ele>
        <time>2020-01-09T13:12:43Z</time>
      </trkpt>
      <trkpt lat="46.66235" lon="6.00251">
        <ele>736.8</ele>
        <time>2020-01-09T13:12:46Z</time>
      </trkpt>
      <trkpt lat="46.6624" lon="6.00247">
        <ele>736.9</ele>
        <time>2020-01-09T13:12:50Z</time>
      </trkpt>
      <trkpt lat="46.66246" lon="6.00247">
        <ele>736.9</ele>
        <time>2020-01-09T13:12:54Z</time>
      </trkpt>
      <trkpt lat="46.6625" lon="6.00247">
        <ele>736.9</ele>
        <time>2020-01-09T13:12:57Z</time>
      </trkpt>
      <trkpt lat="46.66256" lon="6.00247">
        <ele>737</ele>
        <time>2020-01-09T13:13:00Z</time>
      </trkpt>
      <trkpt lat="46.6626" lon="6.00244">
        <ele>737.1</ele>
        <time>2020-01-09T13:13:04Z</time>
      </trkpt>
      <trkpt lat="46.66264" lon="6.00241">
        <ele>737.1</ele>
        <time>2020-01-09T13:13:09Z</time>
      </trkpt>
      <trkpt lat="46.66269" lon="6.00238">
        <ele>737</ele>
        <time>2020-01-09T13:13:14Z</time>
      </trkpt>
      <trkpt lat="46.66274" lon="6.00233">
        <ele>736.8</ele>
        <time>2020-01-09T13:13:18Z</time>
      </trkpt>
      <trkpt lat="46.66278" lon="6.0023">
        <ele>736.7</ele>
        <time>2020-01-09T13:13:22Z</time>
      </trkpt>
      <trkpt lat="46.66282" lon="6.00225">
        <ele>736.6</ele>
        <time>2020-01-09T13:13:26Z</time>
      </trkpt>
      <trkpt lat="46.66286" lon="6.00221">
        <ele>736.7</ele>
        <time>2020-01-09T13:13:30Z</time>
      </trkpt>
      <trkpt lat="46.66291" lon="6.00219">
        <ele>736.8</ele>
        <time>2020-01-09T13:13:35Z</time>
      </trkpt>
      <trkpt lat="46.66304" lon="6.00203">
        <ele>737.1</ele>
        <time>2020-01-09T13:13:50Z</time>
      </trkpt>
      <trkpt lat="46.6634" lon="6.0019">
        <ele>737.9</ele>
        <time>2020-01-09T13:14:18Z</time>
      </trkpt>
      <trkpt lat="46.66364" lon="6.0019">
        <ele>739.9</ele>
        <time>2020-01-09T13:14:41Z</time>
      </trkpt>
      <trkpt lat="46.66369" lon="6.00191">
        <ele>740.3</ele>
        <time>2020-01-09T13:14:45Z</time>
      </trkpt>
      <trkpt lat="46.66374" lon="6.00192">
        <ele>740.8</ele>
        <time>2020-01-09T13:14:49Z</time>
      </trkpt>
      <trkpt lat="46.66382" lon="6.00191">
        <ele>741.9</ele>
        <time>2020-01-09T13:15:42Z</time>
      </trkpt>
      <trkpt lat="46.66385" lon="6.00186">
        <ele>742</ele>
        <time>2020-01-09T13:15:50Z</time>
      </trkpt>
      <trkpt lat="46.6639" lon="6.0018">
        <ele>741.7</ele>
        <time>2020-01-09T13:15:56Z</time>
      </trkpt>
      <trkpt lat="46.66395" lon="6.00178">
        <ele>741.5</ele>
        <time>2020-01-09T13:16:02Z</time>
      </trkpt>
      <trkpt lat="46.66399" lon="6.00174">
        <ele>740.9</ele>
        <time>2020-01-09T13:16:07Z</time>
      </trkpt>
      <trkpt lat="46.66403" lon="6.0017">
        <ele>739.9</ele>
        <time>2020-01-09T13:16:13Z</time>
      </trkpt>
      <trkpt lat="46.66406" lon="6.00165">
        <ele>739.4</ele>
        <time>2020-01-09T13:16:17Z</time>
      </trkpt>
      <trkpt lat="46.66409" lon="6.00159">
        <ele>739</ele>
        <time>2020-01-09T13:16:22Z</time>
      </trkpt>
      <trkpt lat="46.66413" lon="6.00154">
        <ele>738.7</ele>
        <time>2020-01-09T13:16:28Z</time>
      </trkpt>
      <trkpt lat="46.66417" lon="6.00151">
        <ele>738.6</ele>
        <time>2020-01-09T13:16:34Z</time>
      </trkpt>
      <trkpt lat="46.66421" lon="6.00146">
        <ele>738.7</ele>
        <time>2020-01-09T13:16:39Z</time>
      </trkpt>
      <trkpt lat="46.66425" lon="6.00141">
        <ele>738.9</ele>
        <time>2020-01-09T13:16:43Z</time>
      </trkpt>
      <trkpt lat="46.6643" lon="6.00136">
        <ele>739.3</ele>
        <time>2020-01-09T13:16:47Z</time>
      </trkpt>
      <trkpt lat="46.66433" lon="6.00131">
        <ele>739.9</ele>
        <time>2020-01-09T13:16:52Z</time>
      </trkpt>
      <trkpt lat="46.66436" lon="6.00126">
        <ele>740.6</ele>
        <time>2020-01-09T13:16:58Z</time>
      </trkpt>
      <trkpt lat="46.6644" lon="6.00121">
        <ele>741.1</ele>
        <time>2020-01-09T13:17:02Z</time>
      </trkpt>
      <trkpt lat="46.66444" lon="6.00117">
        <ele>741.6</ele>
        <time>2020-01-09T13:17:07Z</time>
      </trkpt>
      <trkpt lat="46.66448" lon="6.00112">
        <ele>742</ele>
        <time>2020-01-09T13:17:11Z</time>
      </trkpt>
      <trkpt lat="46.66453" lon="6.00108">
        <ele>742.4</ele>
        <time>2020-01-09T13:17:15Z</time>
      </trkpt>
      <trkpt lat="46.66458" lon="6.00106">
        <ele>742.8</ele>
        <time>2020-01-09T13:17:19Z</time>
      </trkpt>
      <trkpt lat="46.66463" lon="6.00103">
        <ele>743</ele>
        <time>2020-01-09T13:17:23Z</time>
      </trkpt>
      <trkpt lat="46.66467" lon="6.00097">
        <ele>743.1</ele>
        <time>2020-01-09T13:17:28Z</time>
      </trkpt>
      <trkpt lat="46.66473" lon="6.00094">
        <ele>743.2</ele>
        <time>2020-01-09T13:17:33Z</time>
      </trkpt>
      <trkpt lat="46.66477" lon="6.00092">
        <ele>743.2</ele>
        <time>2020-01-09T13:17:37Z</time>
      </trkpt>
      <trkpt lat="46.66481" lon="6.0009">
        <ele>743.2</ele>
        <time>2020-01-09T13:17:44Z</time>
      </trkpt>
      <trkpt lat="46.66487" lon="6.00087">
        <ele>743.1</ele>
        <time>2020-01-09T13:17:48Z</time>
      </trkpt>
      <trkpt lat="46.66492" lon="6.00084">
        <ele>742.8</ele>
        <time>2020-01-09T13:17:52Z</time>
      </trkpt>
      <trkpt lat="46.66496" lon="6.00082">
        <ele>742.5</ele>
        <time>2020-01-09T13:17:56Z</time>
      </trkpt>
      <trkpt lat="46.66507" lon="6.00077">
        <ele>741.7</ele>
        <time>2020-01-09T13:18:06Z</time>
      </trkpt>
      <trkpt lat="46.66513" lon="6.00076">
        <ele>741.1</ele>
        <time>2020-01-09T13:18:13Z</time>
      </trkpt>
      <trkpt lat="46.66518" lon="6.0008">
        <ele>740.5</ele>
        <time>2020-01-09T13:18:21Z</time>
      </trkpt>
      <trkpt lat="46.66523" lon="6.00082">
        <ele>740.3</ele>
        <time>2020-01-09T13:18:25Z</time>
      </trkpt>
      <trkpt lat="46.66527" lon="6.00079">
        <ele>740.5</ele>
        <time>2020-01-09T13:18:31Z</time>
      </trkpt>
      <trkpt lat="46.66532" lon="6.00078">
        <ele>741</ele>
        <time>2020-01-09T13:18:37Z</time>
      </trkpt>
      <trkpt lat="46.66537" lon="6.00076">
        <ele>741.4</ele>
        <time>2020-01-09T13:18:42Z</time>
      </trkpt>
      <trkpt lat="46.66542" lon="6.00075">
        <ele>741.5</ele>
        <time>2020-01-09T13:18:48Z</time>
      </trkpt>
      <trkpt lat="46.66547" lon="6.00073">
        <ele>741.2</ele>
        <time>2020-01-09T13:18:54Z</time>
      </trkpt>
      <trkpt lat="46.66552" lon="6.00073">
        <ele>741.1</ele>
        <time>2020-01-09T13:18:59Z</time>
      </trkpt>
      <trkpt lat="46.66557" lon="6.00072">
        <ele>741.5</ele>
        <time>2020-01-09T13:19:04Z</time>
      </trkpt>
      <trkpt lat="46.66567" lon="6.00071">
        <ele>743.4</ele>
        <time>2020-01-09T13:19:13Z</time>
      </trkpt>
      <trkpt lat="46.6657" lon="6.00077">
        <ele>743.9</ele>
        <time>2020-01-09T13:19:20Z</time>
      </trkpt>
      <trkpt lat="46.66574" lon="6.0008">
        <ele>745</ele>
        <time>2020-01-09T13:19:32Z</time>
      </trkpt>
      <trkpt lat="46.66581" lon="6.00069">
        <ele>748.6</ele>
        <time>2020-01-09T13:20:51Z</time>
      </trkpt>
    </trkseg>
  </trk>
</gpx>